<?xml version="1.0" encoding="UTF-8" standalone="no" ?>
<gpx xmlns="http://www.topografix.com/GPX/1/1" creator="https://MapMagic.app" xmlns:xsi="http://www.w3.org/2001/XMLSchema-instance" xsi:schemaLocation="http://www.topografix.com/GPX/1/1 http://www.topografix.com/GPX/1/1/gpx.xsd" version="1.1">
	<wpt lat="54.936213" lon="20.511577">
		<name>КП1</name>
		<type>Generic</type>
	</wpt>
	<wpt lat="54.860456" lon="21.108996">
		<name>КП2</name>
		<type>Generic</type>
	</wpt>
	<wpt lat="54.876448" lon="21.649278">
		<name>КП3</name>
		<type>Generic</type>
	</wpt>
	<wpt lat="54.544016" lon="21.729841">
		<name>КП4</name>
		<type>Generic</type>
	</wpt>
	<wpt lat="54.591355" lon="22.196405">
		<name>КП5</name>
		<type>Generic</type>
	</wpt>
	<wpt lat="54.408800" lon="22.014890">
		<name>КП6</name>
		<type>Generic</type>
	</wpt>
	<wpt lat="54.491336" lon="21.191876">
		<name>КП7</name>
		<type>Generic</type>
	</wpt>
	<wpt lat="54.386574" lon="20.639373">
		<name>КП8</name>
		<type>Generic</type>
	</wpt>
	<trk>
		<name>600_Гусевский_2026</name>
		<desc>600_Гусевский_2026</desc>
		<trkseg>
			<trkpt lat="54.760620" lon="20.441230"><ele>30.0</ele><time>2026-05-21T13:33:50Z</time></trkpt>
			<trkpt lat="54.760620" lon="20.441230"><ele>30.0</ele><time>2026-05-21T13:33:52Z</time></trkpt>
			<trkpt lat="54.760620" lon="20.441250"><ele>30.0</ele><time>2026-05-21T13:33:54Z</time></trkpt>
			<trkpt lat="54.760600" lon="20.441170"><ele>30.0</ele><time>2026-05-21T13:33:57Z</time></trkpt>
			<trkpt lat="54.760540" lon="20.441050"><ele>30.0</ele><time>2026-05-21T13:33:59Z</time></trkpt>
			<trkpt lat="54.760340" lon="20.440660"><ele>29.8</ele><time>2026-05-21T13:34:01Z</time></trkpt>
			<trkpt lat="54.760340" lon="20.440660"><ele>29.8</ele><time>2026-05-21T13:34:03Z</time></trkpt>
			<trkpt lat="54.760270" lon="20.440540"><ele>29.8</ele><time>2026-05-21T13:34:05Z</time></trkpt>
			<trkpt lat="54.760230" lon="20.440520"><ele>29.8</ele><time>2026-05-21T13:34:07Z</time></trkpt>
			<trkpt lat="54.760190" lon="20.440520"><ele>29.8</ele><time>2026-05-21T13:34:09Z</time></trkpt>
			<trkpt lat="54.760150" lon="20.440540"><ele>29.8</ele><time>2026-05-21T13:34:11Z</time></trkpt>
			<trkpt lat="54.760090" lon="20.440560"><ele>29.7</ele><time>2026-05-21T13:34:13Z</time></trkpt>
			<trkpt lat="54.760050" lon="20.440570"><ele>29.7</ele><time>2026-05-21T13:34:15Z</time></trkpt>
			<trkpt lat="54.759800" lon="20.440130"><ele>29.6</ele><time>2026-05-21T13:34:17Z</time></trkpt>
			<trkpt lat="54.759370" lon="20.439390"><ele>29.4</ele><time>2026-05-21T13:34:19Z</time></trkpt>
			<trkpt lat="54.759320" lon="20.439320"><ele>29.3</ele><time>2026-05-21T13:34:21Z</time></trkpt>
			<trkpt lat="54.759310" lon="20.439270"><ele>29.3</ele><time>2026-05-21T13:34:23Z</time></trkpt>
			<trkpt lat="54.759310" lon="20.439200"><ele>29.3</ele><time>2026-05-21T13:34:25Z</time></trkpt>
			<trkpt lat="54.759320" lon="20.439090"><ele>29.3</ele><time>2026-05-21T13:34:27Z</time></trkpt>
			<trkpt lat="54.759360" lon="20.439020"><ele>29.3</ele><time>2026-05-21T13:34:29Z</time></trkpt>
			<trkpt lat="54.760160" lon="20.437560"><ele>28.8</ele><time>2026-05-21T13:34:31Z</time></trkpt>
			<trkpt lat="54.760580" lon="20.436870"><ele>28.6</ele><time>2026-05-21T13:34:33Z</time></trkpt>
			<trkpt lat="54.760580" lon="20.436870"><ele>28.6</ele><time>2026-05-21T13:34:39Z</time></trkpt>
			<trkpt lat="54.760740" lon="20.436610"><ele>28.5</ele><time>2026-05-21T13:34:46Z</time></trkpt>
			<trkpt lat="54.760760" lon="20.436570"><ele>28.5</ele><time>2026-05-21T13:34:52Z</time></trkpt>
			<trkpt lat="54.761220" lon="20.435760"><ele>28.3</ele><time>2026-05-21T13:34:58Z</time></trkpt>
			<trkpt lat="54.761340" lon="20.435580"><ele>28.2</ele><time>2026-05-21T13:35:04Z</time></trkpt>
			<trkpt lat="54.762290" lon="20.434110"><ele>27.7</ele><time>2026-05-21T13:35:10Z</time></trkpt>
			<trkpt lat="54.762560" lon="20.433690"><ele>27.5</ele><time>2026-05-21T13:35:16Z</time></trkpt>
			<trkpt lat="54.762610" lon="20.433610"><ele>27.5</ele><time>2026-05-21T13:35:22Z</time></trkpt>
			<trkpt lat="54.762650" lon="20.433540"><ele>27.4</ele><time>2026-05-21T13:35:28Z</time></trkpt>
			<trkpt lat="54.762950" lon="20.433060"><ele>27.3</ele><time>2026-05-21T13:35:34Z</time></trkpt>
			<trkpt lat="54.763350" lon="20.432410"><ele>27.0</ele><time>2026-05-21T13:35:41Z</time></trkpt>
			<trkpt lat="54.763430" lon="20.432160"><ele>26.9</ele><time>2026-05-21T13:35:47Z</time></trkpt>
			<trkpt lat="54.763430" lon="20.432000"><ele>26.9</ele><time>2026-05-21T13:35:53Z</time></trkpt>
			<trkpt lat="54.763420" lon="20.431840"><ele>26.8</ele><time>2026-05-21T13:35:59Z</time></trkpt>
			<trkpt lat="54.763330" lon="20.431340"><ele>26.7</ele><time>2026-05-21T13:36:05Z</time></trkpt>
			<trkpt lat="54.762120" lon="20.425030"><ele>26.2</ele><time>2026-05-21T13:36:11Z</time></trkpt>
			<trkpt lat="54.760690" lon="20.418090"><ele>28.7</ele><time>2026-05-21T13:36:17Z</time></trkpt>
			<trkpt lat="54.759900" lon="20.415230"><ele>28.6</ele><time>2026-05-21T13:36:23Z</time></trkpt>
			<trkpt lat="54.759640" lon="20.414210"><ele>28.6</ele><time>2026-05-21T13:36:30Z</time></trkpt>
			<trkpt lat="54.759450" lon="20.413020"><ele>28.6</ele><time>2026-05-21T13:36:36Z</time></trkpt>
			<trkpt lat="54.759370" lon="20.412330"><ele>28.6</ele><time>2026-05-21T13:36:42Z</time></trkpt>
			<trkpt lat="54.759350" lon="20.411600"><ele>28.6</ele><time>2026-05-21T13:36:48Z</time></trkpt>
			<trkpt lat="54.759370" lon="20.411040"><ele>28.6</ele><time>2026-05-21T13:36:54Z</time></trkpt>
			<trkpt lat="54.759390" lon="20.410590"><ele>28.6</ele><time>2026-05-21T13:37:00Z</time></trkpt>
			<trkpt lat="54.759480" lon="20.407870"><ele>28.6</ele><time>2026-05-21T13:37:06Z</time></trkpt>
			<trkpt lat="54.759590" lon="20.404320"><ele>28.8</ele><time>2026-05-21T13:37:12Z</time></trkpt>
			<trkpt lat="54.759760" lon="20.398550"><ele>28.5</ele><time>2026-05-21T13:37:18Z</time></trkpt>
			<trkpt lat="54.759790" lon="20.396970"><ele>28.0</ele><time>2026-05-21T13:37:25Z</time></trkpt>
			<trkpt lat="54.759780" lon="20.396020"><ele>27.7</ele><time>2026-05-21T13:37:31Z</time></trkpt>
			<trkpt lat="54.759760" lon="20.395760"><ele>27.6</ele><time>2026-05-21T13:37:37Z</time></trkpt>
			<trkpt lat="54.759710" lon="20.395240"><ele>27.4</ele><time>2026-05-21T13:37:43Z</time></trkpt>
			<trkpt lat="54.759610" lon="20.394510"><ele>27.2</ele><time>2026-05-21T13:37:49Z</time></trkpt>
			<trkpt lat="54.759510" lon="20.393970"><ele>27.0</ele><time>2026-05-21T13:37:55Z</time></trkpt>
			<trkpt lat="54.759300" lon="20.393040"><ele>26.7</ele><time>2026-05-21T13:38:01Z</time></trkpt>
			<trkpt lat="54.757410" lon="20.383640"><ele>27.3</ele><time>2026-05-21T13:38:07Z</time></trkpt>
			<trkpt lat="54.756730" lon="20.380310"><ele>28.9</ele><time>2026-05-21T13:38:13Z</time></trkpt>
			<trkpt lat="54.756490" lon="20.379150"><ele>29.7</ele><time>2026-05-21T13:38:20Z</time></trkpt>
			<trkpt lat="54.756290" lon="20.378030"><ele>30.6</ele><time>2026-05-21T13:38:26Z</time></trkpt>
			<trkpt lat="54.756250" lon="20.377710"><ele>30.8</ele><time>2026-05-21T13:38:32Z</time></trkpt>
			<trkpt lat="54.756230" lon="20.377300"><ele>31.1</ele><time>2026-05-21T13:38:38Z</time></trkpt>
			<trkpt lat="54.755930" lon="20.368140"><ele>31.2</ele><time>2026-05-21T13:38:44Z</time></trkpt>
			<trkpt lat="54.755740" lon="20.363120"><ele>28.4</ele><time>2026-05-21T13:38:50Z</time></trkpt>
			<trkpt lat="54.755730" lon="20.362550"><ele>28.3</ele><time>2026-05-21T13:38:56Z</time></trkpt>
			<trkpt lat="54.755590" lon="20.358430"><ele>27.9</ele><time>2026-05-21T13:39:02Z</time></trkpt>
			<trkpt lat="54.755450" lon="20.353030"><ele>28.5</ele><time>2026-05-21T13:39:09Z</time></trkpt>
			<trkpt lat="54.755250" lon="20.347590"><ele>32.9</ele><time>2026-05-21T13:39:15Z</time></trkpt>
			<trkpt lat="54.755240" lon="20.347300"><ele>33.1</ele><time>2026-05-21T13:39:21Z</time></trkpt>
			<trkpt lat="54.755240" lon="20.346600"><ele>33.7</ele><time>2026-05-21T13:39:27Z</time></trkpt>
			<trkpt lat="54.755310" lon="20.345840"><ele>34.3</ele><time>2026-05-21T13:39:33Z</time></trkpt>
			<trkpt lat="54.755470" lon="20.344990"><ele>35.0</ele><time>2026-05-21T13:39:39Z</time></trkpt>
			<trkpt lat="54.755910" lon="20.342580"><ele>35.6</ele><time>2026-05-21T13:39:45Z</time></trkpt>
			<trkpt lat="54.756010" lon="20.341900"><ele>35.8</ele><time>2026-05-21T13:39:51Z</time></trkpt>
			<trkpt lat="54.756200" lon="20.340330"><ele>36.1</ele><time>2026-05-21T13:39:57Z</time></trkpt>
			<trkpt lat="54.756470" lon="20.338640"><ele>36.5</ele><time>2026-05-21T13:40:04Z</time></trkpt>
			<trkpt lat="54.756490" lon="20.338520"><ele>36.6</ele><time>2026-05-21T13:40:10Z</time></trkpt>
			<trkpt lat="54.756540" lon="20.338290"><ele>36.6</ele><time>2026-05-21T13:40:16Z</time></trkpt>
			<trkpt lat="54.756580" lon="20.338120"><ele>36.7</ele><time>2026-05-21T13:40:22Z</time></trkpt>
			<trkpt lat="54.756710" lon="20.337830"><ele>36.7</ele><time>2026-05-21T13:40:28Z</time></trkpt>
			<trkpt lat="54.757580" lon="20.336060"><ele>36.7</ele><time>2026-05-21T13:40:34Z</time></trkpt>
			<trkpt lat="54.758450" lon="20.334310"><ele>34.7</ele><time>2026-05-21T13:40:40Z</time></trkpt>
			<trkpt lat="54.759690" lon="20.331800"><ele>31.7</ele><time>2026-05-21T13:40:46Z</time></trkpt>
			<trkpt lat="54.760940" lon="20.329320"><ele>28.9</ele><time>2026-05-21T13:40:53Z</time></trkpt>
			<trkpt lat="54.761150" lon="20.328890"><ele>28.7</ele><time>2026-05-21T13:40:59Z</time></trkpt>
			<trkpt lat="54.757440" lon="20.320880"><ele>25.8</ele><time>2026-05-21T13:41:05Z</time></trkpt>
			<trkpt lat="54.754110" lon="20.313660"><ele>19.6</ele><time>2026-05-21T13:41:11Z</time></trkpt>
			<trkpt lat="54.749580" lon="20.303840"><ele>12.1</ele><time>2026-05-21T13:41:17Z</time></trkpt>
			<trkpt lat="54.749010" lon="20.302620"><ele>11.1</ele><time>2026-05-21T13:41:23Z</time></trkpt>
			<trkpt lat="54.748940" lon="20.302280"><ele>10.9</ele><time>2026-05-21T13:41:29Z</time></trkpt>
			<trkpt lat="54.748980" lon="20.300990"><ele>10.1</ele><time>2026-05-21T13:41:35Z</time></trkpt>
			<trkpt lat="54.749030" lon="20.300590"><ele>9.8</ele><time>2026-05-21T13:41:41Z</time></trkpt>
			<trkpt lat="54.749120" lon="20.300330"><ele>9.6</ele><time>2026-05-21T13:41:48Z</time></trkpt>
			<trkpt lat="54.749320" lon="20.299820"><ele>9.2</ele><time>2026-05-21T13:41:54Z</time></trkpt>
			<trkpt lat="54.749400" lon="20.299540"><ele>9.1</ele><time>2026-05-21T13:42:00Z</time></trkpt>
			<trkpt lat="54.749490" lon="20.299110"><ele>9.2</ele><time>2026-05-21T13:42:06Z</time></trkpt>
			<trkpt lat="54.749490" lon="20.298670"><ele>9.2</ele><time>2026-05-21T13:42:12Z</time></trkpt>
			<trkpt lat="54.749420" lon="20.296700"><ele>9.3</ele><time>2026-05-21T13:42:18Z</time></trkpt>
			<trkpt lat="54.749420" lon="20.296350"><ele>9.3</ele><time>2026-05-21T13:42:24Z</time></trkpt>
			<trkpt lat="54.749400" lon="20.295880"><ele>9.3</ele><time>2026-05-21T13:42:30Z</time></trkpt>
			<trkpt lat="54.749350" lon="20.295630"><ele>9.3</ele><time>2026-05-21T13:42:37Z</time></trkpt>
			<trkpt lat="54.749260" lon="20.295250"><ele>9.3</ele><time>2026-05-21T13:42:43Z</time></trkpt>
			<trkpt lat="54.749110" lon="20.294760"><ele>9.3</ele><time>2026-05-21T13:42:49Z</time></trkpt>
			<trkpt lat="54.749050" lon="20.294520"><ele>9.4</ele><time>2026-05-21T13:42:55Z</time></trkpt>
			<trkpt lat="54.749020" lon="20.294240"><ele>9.4</ele><time>2026-05-21T13:43:01Z</time></trkpt>
			<trkpt lat="54.749020" lon="20.293910"><ele>9.4</ele><time>2026-05-21T13:43:07Z</time></trkpt>
			<trkpt lat="54.749140" lon="20.292120"><ele>9.4</ele><time>2026-05-21T13:43:13Z</time></trkpt>
			<trkpt lat="54.749140" lon="20.291610"><ele>9.5</ele><time>2026-05-21T13:43:19Z</time></trkpt>
			<trkpt lat="54.749100" lon="20.291190"><ele>9.5</ele><time>2026-05-21T13:43:25Z</time></trkpt>
			<trkpt lat="54.748950" lon="20.290060"><ele>9.5</ele><time>2026-05-21T13:43:32Z</time></trkpt>
			<trkpt lat="54.748440" lon="20.286130"><ele>9.8</ele><time>2026-05-21T13:43:38Z</time></trkpt>
			<trkpt lat="54.748360" lon="20.285520"><ele>9.8</ele><time>2026-05-21T13:43:44Z</time></trkpt>
			<trkpt lat="54.748300" lon="20.285070"><ele>9.9</ele><time>2026-05-21T13:43:50Z</time></trkpt>
			<trkpt lat="54.748270" lon="20.284820"><ele>9.9</ele><time>2026-05-21T13:43:56Z</time></trkpt>
			<trkpt lat="54.748170" lon="20.284060"><ele>9.9</ele><time>2026-05-21T13:44:02Z</time></trkpt>
			<trkpt lat="54.747920" lon="20.282040"><ele>10.1</ele><time>2026-05-21T13:44:08Z</time></trkpt>
			<trkpt lat="54.747840" lon="20.281520"><ele>10.1</ele><time>2026-05-21T13:44:14Z</time></trkpt>
			<trkpt lat="54.747780" lon="20.281230"><ele>10.1</ele><time>2026-05-21T13:44:20Z</time></trkpt>
			<trkpt lat="54.747700" lon="20.280980"><ele>10.0</ele><time>2026-05-21T13:44:27Z</time></trkpt>
			<trkpt lat="54.747620" lon="20.280800"><ele>10.0</ele><time>2026-05-21T13:44:33Z</time></trkpt>
			<trkpt lat="54.747140" lon="20.279530"><ele>9.8</ele><time>2026-05-21T13:44:39Z</time></trkpt>
			<trkpt lat="54.747030" lon="20.279220"><ele>9.8</ele><time>2026-05-21T13:44:45Z</time></trkpt>
			<trkpt lat="54.746720" lon="20.278370"><ele>9.7</ele><time>2026-05-21T13:44:51Z</time></trkpt>
			<trkpt lat="54.746400" lon="20.277510"><ele>9.6</ele><time>2026-05-21T13:44:57Z</time></trkpt>
			<trkpt lat="54.746170" lon="20.276870"><ele>9.5</ele><time>2026-05-21T13:45:03Z</time></trkpt>
			<trkpt lat="54.746010" lon="20.276460"><ele>9.5</ele><time>2026-05-21T13:45:09Z</time></trkpt>
			<trkpt lat="54.745930" lon="20.276270"><ele>9.4</ele><time>2026-05-21T13:45:16Z</time></trkpt>
			<trkpt lat="54.745750" lon="20.275780"><ele>9.4</ele><time>2026-05-21T13:45:22Z</time></trkpt>
			<trkpt lat="54.745710" lon="20.275640"><ele>9.4</ele><time>2026-05-21T13:45:28Z</time></trkpt>
			<trkpt lat="54.745670" lon="20.275460"><ele>9.3</ele><time>2026-05-21T13:45:34Z</time></trkpt>
			<trkpt lat="54.745630" lon="20.275200"><ele>9.3</ele><time>2026-05-21T13:45:40Z</time></trkpt>
			<trkpt lat="54.745450" lon="20.273640"><ele>9.1</ele><time>2026-05-21T13:45:46Z</time></trkpt>
			<trkpt lat="54.745310" lon="20.272310"><ele>9.8</ele><time>2026-05-21T13:45:52Z</time></trkpt>
			<trkpt lat="54.745100" lon="20.270490"><ele>11.3</ele><time>2026-05-21T13:45:58Z</time></trkpt>
			<trkpt lat="54.744750" lon="20.267360"><ele>13.7</ele><time>2026-05-21T13:46:04Z</time></trkpt>
			<trkpt lat="54.744610" lon="20.266270"><ele>14.6</ele><time>2026-05-21T13:46:11Z</time></trkpt>
			<trkpt lat="54.744100" lon="20.261670"><ele>17.8</ele><time>2026-05-21T13:46:17Z</time></trkpt>
			<trkpt lat="54.743940" lon="20.259860"><ele>18.9</ele><time>2026-05-21T13:46:23Z</time></trkpt>
			<trkpt lat="54.743920" lon="20.259450"><ele>19.1</ele><time>2026-05-21T13:46:29Z</time></trkpt>
			<trkpt lat="54.743910" lon="20.259290"><ele>19.2</ele><time>2026-05-21T13:46:35Z</time></trkpt>
			<trkpt lat="54.743800" lon="20.258860"><ele>19.5</ele><time>2026-05-21T13:46:41Z</time></trkpt>
			<trkpt lat="54.743420" lon="20.258280"><ele>20.0</ele><time>2026-05-21T13:46:47Z</time></trkpt>
			<trkpt lat="54.742930" lon="20.257600"><ele>20.6</ele><time>2026-05-21T13:46:53Z</time></trkpt>
			<trkpt lat="54.742840" lon="20.257360"><ele>20.8</ele><time>2026-05-21T13:47:00Z</time></trkpt>
			<trkpt lat="54.742770" lon="20.257080"><ele>21.0</ele><time>2026-05-21T13:47:06Z</time></trkpt>
			<trkpt lat="54.742730" lon="20.256650"><ele>21.3</ele><time>2026-05-21T13:47:12Z</time></trkpt>
			<trkpt lat="54.742710" lon="20.256040"><ele>21.6</ele><time>2026-05-21T13:47:18Z</time></trkpt>
			<trkpt lat="54.742620" lon="20.253680"><ele>22.8</ele><time>2026-05-21T13:47:24Z</time></trkpt>
			<trkpt lat="54.742610" lon="20.252610"><ele>23.3</ele><time>2026-05-21T13:47:30Z</time></trkpt>
			<trkpt lat="54.742660" lon="20.252160"><ele>23.5</ele><time>2026-05-21T13:47:36Z</time></trkpt>
			<trkpt lat="54.743370" lon="20.249860"><ele>24.7</ele><time>2026-05-21T13:47:42Z</time></trkpt>
			<trkpt lat="54.743940" lon="20.248090"><ele>25.6</ele><time>2026-05-21T13:47:48Z</time></trkpt>
			<trkpt lat="54.744140" lon="20.247400"><ele>26.0</ele><time>2026-05-21T13:47:55Z</time></trkpt>
			<trkpt lat="54.744310" lon="20.246850"><ele>26.2</ele><time>2026-05-21T13:48:01Z</time></trkpt>
			<trkpt lat="54.744720" lon="20.245350"><ele>26.4</ele><time>2026-05-21T13:48:07Z</time></trkpt>
			<trkpt lat="54.746430" lon="20.239760"><ele>27.3</ele><time>2026-05-21T13:48:13Z</time></trkpt>
			<trkpt lat="54.747270" lon="20.237040"><ele>24.3</ele><time>2026-05-21T13:48:19Z</time></trkpt>
			<trkpt lat="54.747420" lon="20.236500"><ele>23.3</ele><time>2026-05-21T13:48:25Z</time></trkpt>
			<trkpt lat="54.747480" lon="20.236320"><ele>22.9</ele><time>2026-05-21T13:48:31Z</time></trkpt>
			<trkpt lat="54.747670" lon="20.235770"><ele>21.9</ele><time>2026-05-21T13:48:37Z</time></trkpt>
			<trkpt lat="54.747770" lon="20.235340"><ele>21.1</ele><time>2026-05-21T13:48:43Z</time></trkpt>
			<trkpt lat="54.747840" lon="20.234830"><ele>20.2</ele><time>2026-05-21T13:48:50Z</time></trkpt>
			<trkpt lat="54.748210" lon="20.230860"><ele>13.5</ele><time>2026-05-21T13:48:56Z</time></trkpt>
			<trkpt lat="54.748520" lon="20.227550"><ele>12.4</ele><time>2026-05-21T13:49:02Z</time></trkpt>
			<trkpt lat="54.748630" lon="20.226540"><ele>12.6</ele><time>2026-05-21T13:49:08Z</time></trkpt>
			<trkpt lat="54.748750" lon="20.225260"><ele>12.9</ele><time>2026-05-21T13:49:14Z</time></trkpt>
			<trkpt lat="54.748900" lon="20.223630"><ele>13.3</ele><time>2026-05-21T13:49:20Z</time></trkpt>
			<trkpt lat="54.749140" lon="20.221230"><ele>13.9</ele><time>2026-05-21T13:49:26Z</time></trkpt>
			<trkpt lat="54.749290" lon="20.219520"><ele>14.4</ele><time>2026-05-21T13:49:32Z</time></trkpt>
			<trkpt lat="54.749360" lon="20.218330"><ele>14.7</ele><time>2026-05-21T13:49:39Z</time></trkpt>
			<trkpt lat="54.749410" lon="20.216990"><ele>15.2</ele><time>2026-05-21T13:49:45Z</time></trkpt>
			<trkpt lat="54.749480" lon="20.215410"><ele>15.7</ele><time>2026-05-21T13:49:51Z</time></trkpt>
			<trkpt lat="54.749720" lon="20.209550"><ele>17.2</ele><time>2026-05-21T13:49:57Z</time></trkpt>
			<trkpt lat="54.749900" lon="20.205800"><ele>17.7</ele><time>2026-05-21T13:50:03Z</time></trkpt>
			<trkpt lat="54.750250" lon="20.197470"><ele>19.4</ele><time>2026-05-21T13:50:09Z</time></trkpt>
			<trkpt lat="54.750300" lon="20.196230"><ele>19.7</ele><time>2026-05-21T13:50:15Z</time></trkpt>
			<trkpt lat="54.750300" lon="20.196060"><ele>19.8</ele><time>2026-05-21T13:50:21Z</time></trkpt>
			<trkpt lat="54.750370" lon="20.194340"><ele>20.2</ele><time>2026-05-21T13:50:27Z</time></trkpt>
			<trkpt lat="54.750450" lon="20.192240"><ele>20.6</ele><time>2026-05-21T13:50:34Z</time></trkpt>
			<trkpt lat="54.750460" lon="20.192110"><ele>20.6</ele><time>2026-05-21T13:50:40Z</time></trkpt>
			<trkpt lat="54.750480" lon="20.192050"><ele>20.6</ele><time>2026-05-21T13:50:46Z</time></trkpt>
			<trkpt lat="54.750510" lon="20.192000"><ele>20.6</ele><time>2026-05-21T13:50:52Z</time></trkpt>
			<trkpt lat="54.750560" lon="20.191970"><ele>20.6</ele><time>2026-05-21T13:50:58Z</time></trkpt>
			<trkpt lat="54.750630" lon="20.191970"><ele>20.6</ele><time>2026-05-21T13:51:04Z</time></trkpt>
			<trkpt lat="54.750730" lon="20.192070"><ele>20.6</ele><time>2026-05-21T13:51:10Z</time></trkpt>
			<trkpt lat="54.751360" lon="20.192830"><ele>20.5</ele><time>2026-05-21T13:51:16Z</time></trkpt>
			<trkpt lat="54.751360" lon="20.192830"><ele>20.5</ele><time>2026-05-21T13:51:25Z</time></trkpt>
			<trkpt lat="54.752390" lon="20.194060"><ele>20.4</ele><time>2026-05-21T13:51:33Z</time></trkpt>
			<trkpt lat="54.753570" lon="20.195420"><ele>20.3</ele><time>2026-05-21T13:51:42Z</time></trkpt>
			<trkpt lat="54.754270" lon="20.196240"><ele>20.2</ele><time>2026-05-21T13:51:51Z</time></trkpt>
			<trkpt lat="54.754600" lon="20.196620"><ele>20.2</ele><time>2026-05-21T13:51:59Z</time></trkpt>
			<trkpt lat="54.760050" lon="20.203090"><ele>33.2</ele><time>2026-05-21T13:52:08Z</time></trkpt>
			<trkpt lat="54.760990" lon="20.204210"><ele>34.6</ele><time>2026-05-21T13:52:16Z</time></trkpt>
			<trkpt lat="54.761970" lon="20.205430"><ele>36.0</ele><time>2026-05-21T13:52:25Z</time></trkpt>
			<trkpt lat="54.762910" lon="20.206520"><ele>37.4</ele><time>2026-05-21T13:52:33Z</time></trkpt>
			<trkpt lat="54.763100" lon="20.206740"><ele>37.7</ele><time>2026-05-21T13:52:42Z</time></trkpt>
			<trkpt lat="54.764070" lon="20.207850"><ele>38.6</ele><time>2026-05-21T13:52:50Z</time></trkpt>
			<trkpt lat="54.764150" lon="20.207900"><ele>38.6</ele><time>2026-05-21T13:52:59Z</time></trkpt>
			<trkpt lat="54.764450" lon="20.208100"><ele>38.7</ele><time>2026-05-21T13:53:07Z</time></trkpt>
			<trkpt lat="54.765170" lon="20.208600"><ele>38.9</ele><time>2026-05-21T13:53:16Z</time></trkpt>
			<trkpt lat="54.765240" lon="20.208780"><ele>39.0</ele><time>2026-05-21T13:53:24Z</time></trkpt>
			<trkpt lat="54.765400" lon="20.209280"><ele>39.1</ele><time>2026-05-21T13:53:33Z</time></trkpt>
			<trkpt lat="54.765800" lon="20.210610"><ele>39.4</ele><time>2026-05-21T13:53:41Z</time></trkpt>
			<trkpt lat="54.766000" lon="20.211100"><ele>39.5</ele><time>2026-05-21T13:53:50Z</time></trkpt>
			<trkpt lat="54.766260" lon="20.211340"><ele>39.6</ele><time>2026-05-21T13:53:58Z</time></trkpt>
			<trkpt lat="54.766410" lon="20.211530"><ele>39.6</ele><time>2026-05-21T13:54:07Z</time></trkpt>
			<trkpt lat="54.766540" lon="20.211780"><ele>39.7</ele><time>2026-05-21T13:54:15Z</time></trkpt>
			<trkpt lat="54.766720" lon="20.212460"><ele>39.8</ele><time>2026-05-21T13:54:24Z</time></trkpt>
			<trkpt lat="54.766750" lon="20.212580"><ele>39.8</ele><time>2026-05-21T13:54:33Z</time></trkpt>
			<trkpt lat="54.766890" lon="20.212960"><ele>39.9</ele><time>2026-05-21T13:54:41Z</time></trkpt>
			<trkpt lat="54.767100" lon="20.213160"><ele>40.0</ele><time>2026-05-21T13:54:50Z</time></trkpt>
			<trkpt lat="54.767350" lon="20.213260"><ele>40.1</ele><time>2026-05-21T13:54:58Z</time></trkpt>
			<trkpt lat="54.767670" lon="20.213290"><ele>39.9</ele><time>2026-05-21T13:55:07Z</time></trkpt>
			<trkpt lat="54.768360" lon="20.213280"><ele>39.4</ele><time>2026-05-21T13:55:15Z</time></trkpt>
			<trkpt lat="54.770390" lon="20.213240"><ele>38.1</ele><time>2026-05-21T13:55:24Z</time></trkpt>
			<trkpt lat="54.771960" lon="20.213220"><ele>37.1</ele><time>2026-05-21T13:55:32Z</time></trkpt>
			<trkpt lat="54.773260" lon="20.213270"><ele>38.1</ele><time>2026-05-21T13:55:41Z</time></trkpt>
			<trkpt lat="54.773820" lon="20.213330"><ele>39.6</ele><time>2026-05-21T13:55:49Z</time></trkpt>
			<trkpt lat="54.773970" lon="20.213350"><ele>40.1</ele><time>2026-05-21T13:55:58Z</time></trkpt>
			<trkpt lat="54.774630" lon="20.213170"><ele>41.9</ele><time>2026-05-21T13:56:06Z</time></trkpt>
			<trkpt lat="54.776040" lon="20.212980"><ele>45.9</ele><time>2026-05-21T13:56:15Z</time></trkpt>
			<trkpt lat="54.776570" lon="20.213010"><ele>47.3</ele><time>2026-05-21T13:56:23Z</time></trkpt>
			<trkpt lat="54.777240" lon="20.213190"><ele>49.2</ele><time>2026-05-21T13:56:32Z</time></trkpt>
			<trkpt lat="54.777410" lon="20.213220"><ele>49.7</ele><time>2026-05-21T13:56:40Z</time></trkpt>
			<trkpt lat="54.777650" lon="20.213290"><ele>50.4</ele><time>2026-05-21T13:56:49Z</time></trkpt>
			<trkpt lat="54.778410" lon="20.213460"><ele>51.0</ele><time>2026-05-21T13:56:57Z</time></trkpt>
			<trkpt lat="54.780470" lon="20.214010"><ele>46.7</ele><time>2026-05-21T13:57:06Z</time></trkpt>
			<trkpt lat="54.780760" lon="20.214020"><ele>46.1</ele><time>2026-05-21T13:57:15Z</time></trkpt>
			<trkpt lat="54.781090" lon="20.213860"><ele>45.4</ele><time>2026-05-21T13:57:23Z</time></trkpt>
			<trkpt lat="54.781370" lon="20.213590"><ele>44.7</ele><time>2026-05-21T13:57:32Z</time></trkpt>
			<trkpt lat="54.781810" lon="20.213160"><ele>43.7</ele><time>2026-05-21T13:57:40Z</time></trkpt>
			<trkpt lat="54.782960" lon="20.211820"><ele>40.8</ele><time>2026-05-21T13:57:49Z</time></trkpt>
			<trkpt lat="54.783340" lon="20.211420"><ele>41.3</ele><time>2026-05-21T13:57:57Z</time></trkpt>
			<trkpt lat="54.785500" lon="20.208940"><ele>48.9</ele><time>2026-05-21T13:58:06Z</time></trkpt>
			<trkpt lat="54.786880" lon="20.207300"><ele>53.7</ele><time>2026-05-21T13:58:14Z</time></trkpt>
			<trkpt lat="54.787140" lon="20.207000"><ele>54.7</ele><time>2026-05-21T13:58:23Z</time></trkpt>
			<trkpt lat="54.787600" lon="20.206490"><ele>56.2</ele><time>2026-05-21T13:58:31Z</time></trkpt>
			<trkpt lat="54.790160" lon="20.203560"><ele>56.3</ele><time>2026-05-21T13:58:40Z</time></trkpt>
			<trkpt lat="54.790530" lon="20.203140"><ele>56.3</ele><time>2026-05-21T13:58:48Z</time></trkpt>
			<trkpt lat="54.790900" lon="20.202670"><ele>56.3</ele><time>2026-05-21T13:58:57Z</time></trkpt>
			<trkpt lat="54.790990" lon="20.202560"><ele>56.3</ele><time>2026-05-21T13:59:05Z</time></trkpt>
			<trkpt lat="54.791150" lon="20.202180"><ele>56.3</ele><time>2026-05-21T13:59:14Z</time></trkpt>
			<trkpt lat="54.791220" lon="20.201920"><ele>56.3</ele><time>2026-05-21T13:59:22Z</time></trkpt>
			<trkpt lat="54.791360" lon="20.200820"><ele>56.3</ele><time>2026-05-21T13:59:31Z</time></trkpt>
			<trkpt lat="54.791510" lon="20.200030"><ele>55.6</ele><time>2026-05-21T13:59:39Z</time></trkpt>
			<trkpt lat="54.791720" lon="20.199730"><ele>54.8</ele><time>2026-05-21T13:59:48Z</time></trkpt>
			<trkpt lat="54.793340" lon="20.198800"><ele>50.0</ele><time>2026-05-21T13:59:57Z</time></trkpt>
			<trkpt lat="54.794240" lon="20.198170"><ele>47.3</ele><time>2026-05-21T14:00:05Z</time></trkpt>
			<trkpt lat="54.795360" lon="20.196930"><ele>43.5</ele><time>2026-05-21T14:00:14Z</time></trkpt>
			<trkpt lat="54.796320" lon="20.195840"><ele>40.5</ele><time>2026-05-21T14:00:22Z</time></trkpt>
			<trkpt lat="54.797420" lon="20.194520"><ele>38.1</ele><time>2026-05-21T14:00:31Z</time></trkpt>
			<trkpt lat="54.798000" lon="20.193830"><ele>36.8</ele><time>2026-05-21T14:00:39Z</time></trkpt>
			<trkpt lat="54.799550" lon="20.192250"><ele>33.4</ele><time>2026-05-21T14:00:48Z</time></trkpt>
			<trkpt lat="54.800440" lon="20.191450"><ele>31.6</ele><time>2026-05-21T14:00:56Z</time></trkpt>
			<trkpt lat="54.805090" lon="20.187370"><ele>27.9</ele><time>2026-05-21T14:01:05Z</time></trkpt>
			<trkpt lat="54.806410" lon="20.186140"><ele>28.2</ele><time>2026-05-21T14:01:13Z</time></trkpt>
			<trkpt lat="54.806620" lon="20.185930"><ele>28.3</ele><time>2026-05-21T14:01:22Z</time></trkpt>
			<trkpt lat="54.808360" lon="20.184310"><ele>29.4</ele><time>2026-05-21T14:01:30Z</time></trkpt>
			<trkpt lat="54.809360" lon="20.183400"><ele>30.1</ele><time>2026-05-21T14:01:39Z</time></trkpt>
			<trkpt lat="54.811320" lon="20.181710"><ele>30.4</ele><time>2026-05-21T14:01:47Z</time></trkpt>
			<trkpt lat="54.811360" lon="20.181670"><ele>30.3</ele><time>2026-05-21T14:01:56Z</time></trkpt>
			<trkpt lat="54.812960" lon="20.180220"><ele>29.9</ele><time>2026-05-21T14:02:04Z</time></trkpt>
			<trkpt lat="54.814220" lon="20.179100"><ele>29.6</ele><time>2026-05-21T14:02:13Z</time></trkpt>
			<trkpt lat="54.814640" lon="20.178780"><ele>29.5</ele><time>2026-05-21T14:02:21Z</time></trkpt>
			<trkpt lat="54.814710" lon="20.178770"><ele>29.5</ele><time>2026-05-21T14:02:30Z</time></trkpt>
			<trkpt lat="54.814790" lon="20.174080"><ele>26.3</ele><time>2026-05-21T14:02:39Z</time></trkpt>
			<trkpt lat="54.814880" lon="20.170000"><ele>23.1</ele><time>2026-05-21T14:02:47Z</time></trkpt>
			<trkpt lat="54.814900" lon="20.166850"><ele>23.0</ele><time>2026-05-21T14:02:56Z</time></trkpt>
			<trkpt lat="54.814900" lon="20.166470"><ele>23.2</ele><time>2026-05-21T14:03:04Z</time></trkpt>
			<trkpt lat="54.814890" lon="20.165810"><ele>23.5</ele><time>2026-05-21T14:03:13Z</time></trkpt>
			<trkpt lat="54.814770" lon="20.164510"><ele>24.1</ele><time>2026-05-21T14:03:21Z</time></trkpt>
			<trkpt lat="54.814070" lon="20.156850"><ele>25.7</ele><time>2026-05-21T14:03:30Z</time></trkpt>
			<trkpt lat="54.815000" lon="20.156280"><ele>25.1</ele><time>2026-05-21T14:03:38Z</time></trkpt>
			<trkpt lat="54.818370" lon="20.154130"><ele>23.8</ele><time>2026-05-21T14:03:47Z</time></trkpt>
			<trkpt lat="54.819210" lon="20.153240"><ele>24.6</ele><time>2026-05-21T14:03:55Z</time></trkpt>
			<trkpt lat="54.819340" lon="20.153080"><ele>24.8</ele><time>2026-05-21T14:04:04Z</time></trkpt>
			<trkpt lat="54.822600" lon="20.149460"><ele>28.0</ele><time>2026-05-21T14:04:12Z</time></trkpt>
			<trkpt lat="54.823030" lon="20.149040"><ele>28.3</ele><time>2026-05-21T14:04:21Z</time></trkpt>
			<trkpt lat="54.824810" lon="20.147820"><ele>29.4</ele><time>2026-05-21T14:04:29Z</time></trkpt>
			<trkpt lat="54.826580" lon="20.146470"><ele>30.4</ele><time>2026-05-21T14:04:38Z</time></trkpt>
			<trkpt lat="54.830510" lon="20.143200"><ele>31.1</ele><time>2026-05-21T14:04:46Z</time></trkpt>
			<trkpt lat="54.830720" lon="20.142970"><ele>31.2</ele><time>2026-05-21T14:04:55Z</time></trkpt>
			<trkpt lat="54.830840" lon="20.142830"><ele>31.2</ele><time>2026-05-21T14:05:04Z</time></trkpt>
			<trkpt lat="54.831210" lon="20.142260"><ele>31.2</ele><time>2026-05-21T14:05:12Z</time></trkpt>
			<trkpt lat="54.833010" lon="20.139220"><ele>33.6</ele><time>2026-05-21T14:05:21Z</time></trkpt>
			<trkpt lat="54.836180" lon="20.133990"><ele>39.6</ele><time>2026-05-21T14:05:29Z</time></trkpt>
			<trkpt lat="54.836910" lon="20.133190"><ele>40.3</ele><time>2026-05-21T14:05:38Z</time></trkpt>
			<trkpt lat="54.836920" lon="20.133180"><ele>40.3</ele><time>2026-05-21T14:05:46Z</time></trkpt>
			<trkpt lat="54.837140" lon="20.132950"><ele>40.5</ele><time>2026-05-21T14:05:55Z</time></trkpt>
			<trkpt lat="54.838440" lon="20.131650"><ele>41.6</ele><time>2026-05-21T14:06:03Z</time></trkpt>
			<trkpt lat="54.840770" lon="20.129270"><ele>43.0</ele><time>2026-05-21T14:06:12Z</time></trkpt>
			<trkpt lat="54.847920" lon="20.121990"><ele>40.7</ele><time>2026-05-21T14:06:20Z</time></trkpt>
			<trkpt lat="54.853800" lon="20.115990"><ele>39.6</ele><time>2026-05-21T14:06:29Z</time></trkpt>
			<trkpt lat="54.859600" lon="20.110080"><ele>40.3</ele><time>2026-05-21T14:06:37Z</time></trkpt>
			<trkpt lat="54.870920" lon="20.098500"><ele>41.5</ele><time>2026-05-21T14:06:46Z</time></trkpt>
			<trkpt lat="54.871570" lon="20.097850"><ele>41.5</ele><time>2026-05-21T14:06:54Z</time></trkpt>
			<trkpt lat="54.871830" lon="20.097770"><ele>41.5</ele><time>2026-05-21T14:07:03Z</time></trkpt>
			<trkpt lat="54.872180" lon="20.097780"><ele>41.5</ele><time>2026-05-21T14:07:11Z</time></trkpt>
			<trkpt lat="54.872400" lon="20.097830"><ele>41.5</ele><time>2026-05-21T14:07:20Z</time></trkpt>
			<trkpt lat="54.872890" lon="20.098240"><ele>41.5</ele><time>2026-05-21T14:07:28Z</time></trkpt>
			<trkpt lat="54.873070" lon="20.098400"><ele>41.5</ele><time>2026-05-21T14:07:37Z</time></trkpt>
			<trkpt lat="54.873640" lon="20.098880"><ele>41.7</ele><time>2026-05-21T14:07:46Z</time></trkpt>
			<trkpt lat="54.874110" lon="20.099290"><ele>41.8</ele><time>2026-05-21T14:07:54Z</time></trkpt>
			<trkpt lat="54.875470" lon="20.100560"><ele>42.2</ele><time>2026-05-21T14:08:03Z</time></trkpt>
			<trkpt lat="54.876020" lon="20.101010"><ele>42.4</ele><time>2026-05-21T14:08:11Z</time></trkpt>
			<trkpt lat="54.877610" lon="20.102160"><ele>42.8</ele><time>2026-05-21T14:08:20Z</time></trkpt>
			<trkpt lat="54.877940" lon="20.102370"><ele>43.0</ele><time>2026-05-21T14:08:28Z</time></trkpt>
			<trkpt lat="54.881040" lon="20.104500"><ele>48.3</ele><time>2026-05-21T14:08:37Z</time></trkpt>
			<trkpt lat="54.881530" lon="20.104860"><ele>49.2</ele><time>2026-05-21T14:08:45Z</time></trkpt>
			<trkpt lat="54.882180" lon="20.105230"><ele>50.3</ele><time>2026-05-21T14:08:54Z</time></trkpt>
			<trkpt lat="54.883860" lon="20.105400"><ele>51.6</ele><time>2026-05-21T14:09:02Z</time></trkpt>
			<trkpt lat="54.886670" lon="20.105790"><ele>51.7</ele><time>2026-05-21T14:09:11Z</time></trkpt>
			<trkpt lat="54.887150" lon="20.105750"><ele>51.7</ele><time>2026-05-21T14:09:19Z</time></trkpt>
			<trkpt lat="54.889450" lon="20.105370"><ele>50.6</ele><time>2026-05-21T14:09:28Z</time></trkpt>
			<trkpt lat="54.889970" lon="20.105250"><ele>50.1</ele><time>2026-05-21T14:09:36Z</time></trkpt>
			<trkpt lat="54.889820" lon="20.103720"><ele>49.2</ele><time>2026-05-21T14:09:45Z</time></trkpt>
			<trkpt lat="54.889650" lon="20.102750"><ele>48.6</ele><time>2026-05-21T14:09:53Z</time></trkpt>
			<trkpt lat="54.889640" lon="20.102690"><ele>48.5</ele><time>2026-05-21T14:10:02Z</time></trkpt>
			<trkpt lat="54.889640" lon="20.102690"><ele>48.5</ele><time>2026-05-21T14:10:07Z</time></trkpt>
			<trkpt lat="54.889430" lon="20.101550"><ele>47.8</ele><time>2026-05-21T14:10:12Z</time></trkpt>
			<trkpt lat="54.889190" lon="20.100080"><ele>46.9</ele><time>2026-05-21T14:10:18Z</time></trkpt>
			<trkpt lat="54.889070" lon="20.099070"><ele>46.3</ele><time>2026-05-21T14:10:23Z</time></trkpt>
			<trkpt lat="54.889070" lon="20.098670"><ele>46.1</ele><time>2026-05-21T14:10:28Z</time></trkpt>
			<trkpt lat="54.889130" lon="20.098010"><ele>45.9</ele><time>2026-05-21T14:10:33Z</time></trkpt>
			<trkpt lat="54.889220" lon="20.097200"><ele>45.6</ele><time>2026-05-21T14:10:38Z</time></trkpt>
			<trkpt lat="54.889420" lon="20.095590"><ele>44.9</ele><time>2026-05-21T14:10:44Z</time></trkpt>
			<trkpt lat="54.889970" lon="20.092230"><ele>43.6</ele><time>2026-05-21T14:10:49Z</time></trkpt>
			<trkpt lat="54.890150" lon="20.090790"><ele>43.0</ele><time>2026-05-21T14:10:54Z</time></trkpt>
			<trkpt lat="54.890330" lon="20.089420"><ele>42.8</ele><time>2026-05-21T14:10:59Z</time></trkpt>
			<trkpt lat="54.890430" lon="20.088710"><ele>43.3</ele><time>2026-05-21T14:11:04Z</time></trkpt>
			<trkpt lat="54.890650" lon="20.087280"><ele>44.1</ele><time>2026-05-21T14:11:10Z</time></trkpt>
			<trkpt lat="54.890850" lon="20.085890"><ele>45.0</ele><time>2026-05-21T14:11:15Z</time></trkpt>
			<trkpt lat="54.891050" lon="20.084700"><ele>45.7</ele><time>2026-05-21T14:11:20Z</time></trkpt>
			<trkpt lat="54.891170" lon="20.083940"><ele>46.2</ele><time>2026-05-21T14:11:25Z</time></trkpt>
			<trkpt lat="54.891190" lon="20.083620"><ele>46.3</ele><time>2026-05-21T14:11:30Z</time></trkpt>
			<trkpt lat="54.891190" lon="20.083430"><ele>46.5</ele><time>2026-05-21T14:11:36Z</time></trkpt>
			<trkpt lat="54.891150" lon="20.081950"><ele>47.3</ele><time>2026-05-21T14:11:41Z</time></trkpt>
			<trkpt lat="54.890950" lon="20.076400"><ele>53.3</ele><time>2026-05-21T14:11:46Z</time></trkpt>
			<trkpt lat="54.890880" lon="20.075630"><ele>54.2</ele><time>2026-05-21T14:11:51Z</time></trkpt>
			<trkpt lat="54.890850" lon="20.075100"><ele>54.9</ele><time>2026-05-21T14:11:56Z</time></trkpt>
			<trkpt lat="54.890810" lon="20.074370"><ele>55.8</ele><time>2026-05-21T14:12:02Z</time></trkpt>
			<trkpt lat="54.890790" lon="20.073570"><ele>56.8</ele><time>2026-05-21T14:12:07Z</time></trkpt>
			<trkpt lat="54.890780" lon="20.072740"><ele>57.8</ele><time>2026-05-21T14:12:12Z</time></trkpt>
			<trkpt lat="54.890780" lon="20.071160"><ele>59.7</ele><time>2026-05-21T14:12:17Z</time></trkpt>
			<trkpt lat="54.890820" lon="20.070650"><ele>59.7</ele><time>2026-05-21T14:12:22Z</time></trkpt>
			<trkpt lat="54.891110" lon="20.067620"><ele>59.8</ele><time>2026-05-21T14:12:28Z</time></trkpt>
			<trkpt lat="54.891180" lon="20.066590"><ele>59.8</ele><time>2026-05-21T14:12:33Z</time></trkpt>
			<trkpt lat="54.891310" lon="20.065810"><ele>59.8</ele><time>2026-05-21T14:12:38Z</time></trkpt>
			<trkpt lat="54.891520" lon="20.064250"><ele>59.9</ele><time>2026-05-21T14:12:43Z</time></trkpt>
			<trkpt lat="54.891790" lon="20.061970"><ele>60.0</ele><time>2026-05-21T14:12:48Z</time></trkpt>
			<trkpt lat="54.891920" lon="20.060430"><ele>60.4</ele><time>2026-05-21T14:12:54Z</time></trkpt>
			<trkpt lat="54.891820" lon="20.057580"><ele>61.1</ele><time>2026-05-21T14:12:59Z</time></trkpt>
			<trkpt lat="54.891810" lon="20.057390"><ele>61.1</ele><time>2026-05-21T14:13:04Z</time></trkpt>
			<trkpt lat="54.891720" lon="20.055820"><ele>61.5</ele><time>2026-05-21T14:13:09Z</time></trkpt>
			<trkpt lat="54.891560" lon="20.054120"><ele>61.9</ele><time>2026-05-21T14:13:14Z</time></trkpt>
			<trkpt lat="54.891360" lon="20.052740"><ele>62.3</ele><time>2026-05-21T14:13:20Z</time></trkpt>
			<trkpt lat="54.891100" lon="20.050210"><ele>59.9</ele><time>2026-05-21T14:13:25Z</time></trkpt>
			<trkpt lat="54.890860" lon="20.048420"><ele>58.1</ele><time>2026-05-21T14:13:30Z</time></trkpt>
			<trkpt lat="54.890840" lon="20.048130"><ele>57.8</ele><time>2026-05-21T14:13:35Z</time></trkpt>
			<trkpt lat="54.890750" lon="20.047150"><ele>56.9</ele><time>2026-05-21T14:13:40Z</time></trkpt>
			<trkpt lat="54.890700" lon="20.046510"><ele>56.3</ele><time>2026-05-21T14:13:46Z</time></trkpt>
			<trkpt lat="54.890690" lon="20.045930"><ele>55.7</ele><time>2026-05-21T14:13:51Z</time></trkpt>
			<trkpt lat="54.890710" lon="20.045680"><ele>55.5</ele><time>2026-05-21T14:13:56Z</time></trkpt>
			<trkpt lat="54.890750" lon="20.045040"><ele>54.9</ele><time>2026-05-21T14:14:01Z</time></trkpt>
			<trkpt lat="54.890900" lon="20.043190"><ele>53.3</ele><time>2026-05-21T14:14:06Z</time></trkpt>
			<trkpt lat="54.890970" lon="20.042020"><ele>53.1</ele><time>2026-05-21T14:14:12Z</time></trkpt>
			<trkpt lat="54.891000" lon="20.041570"><ele>53.0</ele><time>2026-05-21T14:14:17Z</time></trkpt>
			<trkpt lat="54.891230" lon="20.040440"><ele>52.7</ele><time>2026-05-21T14:14:22Z</time></trkpt>
			<trkpt lat="54.891360" lon="20.039820"><ele>52.6</ele><time>2026-05-21T14:14:27Z</time></trkpt>
			<trkpt lat="54.891850" lon="20.037730"><ele>52.1</ele><time>2026-05-21T14:14:32Z</time></trkpt>
			<trkpt lat="54.891970" lon="20.037190"><ele>51.9</ele><time>2026-05-21T14:14:38Z</time></trkpt>
			<trkpt lat="54.892350" lon="20.035550"><ele>51.6</ele><time>2026-05-21T14:14:43Z</time></trkpt>
			<trkpt lat="54.892710" lon="20.033980"><ele>51.2</ele><time>2026-05-21T14:14:48Z</time></trkpt>
			<trkpt lat="54.893210" lon="20.031750"><ele>50.9</ele><time>2026-05-21T14:14:53Z</time></trkpt>
			<trkpt lat="54.893640" lon="20.029860"><ele>50.6</ele><time>2026-05-21T14:14:58Z</time></trkpt>
			<trkpt lat="54.893700" lon="20.029630"><ele>50.6</ele><time>2026-05-21T14:15:04Z</time></trkpt>
			<trkpt lat="54.894000" lon="20.028160"><ele>50.4</ele><time>2026-05-21T14:15:09Z</time></trkpt>
			<trkpt lat="54.894130" lon="20.027600"><ele>50.3</ele><time>2026-05-21T14:15:14Z</time></trkpt>
			<trkpt lat="54.894590" lon="20.025850"><ele>50.1</ele><time>2026-05-21T14:15:19Z</time></trkpt>
			<trkpt lat="54.894770" lon="20.025130"><ele>51.1</ele><time>2026-05-21T14:15:24Z</time></trkpt>
			<trkpt lat="54.894890" lon="20.024840"><ele>51.5</ele><time>2026-05-21T14:15:30Z</time></trkpt>
			<trkpt lat="54.895130" lon="20.024270"><ele>52.4</ele><time>2026-05-21T14:15:35Z</time></trkpt>
			<trkpt lat="54.895800" lon="20.022810"><ele>54.6</ele><time>2026-05-21T14:15:40Z</time></trkpt>
			<trkpt lat="54.895770" lon="20.022590"><ele>54.9</ele><time>2026-05-21T14:15:45Z</time></trkpt>
			<trkpt lat="54.895660" lon="20.022030"><ele>55.6</ele><time>2026-05-21T14:15:50Z</time></trkpt>
			<trkpt lat="54.895490" lon="20.021140"><ele>56.7</ele><time>2026-05-21T14:15:56Z</time></trkpt>
			<trkpt lat="54.895390" lon="20.020630"><ele>57.4</ele><time>2026-05-21T14:16:01Z</time></trkpt>
			<trkpt lat="54.895490" lon="20.020450"><ele>57.7</ele><time>2026-05-21T14:16:06Z</time></trkpt>
			<trkpt lat="54.895620" lon="20.020140"><ele>58.1</ele><time>2026-05-21T14:16:11Z</time></trkpt>
			<trkpt lat="54.895690" lon="20.019940"><ele>58.4</ele><time>2026-05-21T14:16:16Z</time></trkpt>
			<trkpt lat="54.895870" lon="20.019440"><ele>59.1</ele><time>2026-05-21T14:16:22Z</time></trkpt>
			<trkpt lat="54.895910" lon="20.019360"><ele>59.2</ele><time>2026-05-21T14:16:27Z</time></trkpt>
			<trkpt lat="54.896140" lon="20.018840"><ele>60.0</ele><time>2026-05-21T14:16:32Z</time></trkpt>
			<trkpt lat="54.896190" lon="20.018740"><ele>60.2</ele><time>2026-05-21T14:16:37Z</time></trkpt>
			<trkpt lat="54.897750" lon="20.016340"><ele>64.0</ele><time>2026-05-21T14:16:42Z</time></trkpt>
			<trkpt lat="54.898490" lon="20.015180"><ele>65.7</ele><time>2026-05-21T14:16:48Z</time></trkpt>
			<trkpt lat="54.900400" lon="20.012220"><ele>70.2</ele><time>2026-05-21T14:16:53Z</time></trkpt>
			<trkpt lat="54.901450" lon="20.010630"><ele>67.9</ele><time>2026-05-21T14:16:58Z</time></trkpt>
			<trkpt lat="54.901690" lon="20.010400"><ele>67.2</ele><time>2026-05-21T14:17:03Z</time></trkpt>
			<trkpt lat="54.901730" lon="20.010360"><ele>67.0</ele><time>2026-05-21T14:17:08Z</time></trkpt>
			<trkpt lat="54.901770" lon="20.010320"><ele>66.9</ele><time>2026-05-21T14:17:14Z</time></trkpt>
			<trkpt lat="54.904770" lon="20.008600"><ele>58.7</ele><time>2026-05-21T14:17:19Z</time></trkpt>
			<trkpt lat="54.907310" lon="20.007110"><ele>52.8</ele><time>2026-05-21T14:17:24Z</time></trkpt>
			<trkpt lat="54.908870" lon="20.006210"><ele>49.4</ele><time>2026-05-21T14:17:29Z</time></trkpt>
			<trkpt lat="54.909190" lon="20.006020"><ele>48.7</ele><time>2026-05-21T14:17:34Z</time></trkpt>
			<trkpt lat="54.909660" lon="20.005790"><ele>47.7</ele><time>2026-05-21T14:17:40Z</time></trkpt>
			<trkpt lat="54.909920" lon="20.005770"><ele>47.2</ele><time>2026-05-21T14:17:45Z</time></trkpt>
			<trkpt lat="54.910240" lon="20.005730"><ele>46.5</ele><time>2026-05-21T14:17:50Z</time></trkpt>
			<trkpt lat="54.911060" lon="20.005760"><ele>45.2</ele><time>2026-05-21T14:17:55Z</time></trkpt>
			<trkpt lat="54.911370" lon="20.005760"><ele>44.8</ele><time>2026-05-21T14:18:01Z</time></trkpt>
			<trkpt lat="54.911770" lon="20.005620"><ele>44.3</ele><time>2026-05-21T14:18:06Z</time></trkpt>
			<trkpt lat="54.912650" lon="20.005440"><ele>43.2</ele><time>2026-05-21T14:18:11Z</time></trkpt>
			<trkpt lat="54.913930" lon="20.005150"><ele>41.5</ele><time>2026-05-21T14:18:16Z</time></trkpt>
			<trkpt lat="54.913940" lon="20.005140"><ele>41.5</ele><time>2026-05-21T14:18:21Z</time></trkpt>
			<trkpt lat="54.914390" lon="20.005010"><ele>41.0</ele><time>2026-05-21T14:18:27Z</time></trkpt>
			<trkpt lat="54.918070" lon="20.004150"><ele>39.3</ele><time>2026-05-21T14:18:32Z</time></trkpt>
			<trkpt lat="54.918400" lon="20.004070"><ele>39.4</ele><time>2026-05-21T14:18:37Z</time></trkpt>
			<trkpt lat="54.919310" lon="20.003860"><ele>39.6</ele><time>2026-05-21T14:18:42Z</time></trkpt>
			<trkpt lat="54.920960" lon="20.003520"><ele>39.9</ele><time>2026-05-21T14:18:47Z</time></trkpt>
			<trkpt lat="54.921840" lon="20.003300"><ele>39.9</ele><time>2026-05-21T14:18:53Z</time></trkpt>
			<trkpt lat="54.922490" lon="20.003150"><ele>39.7</ele><time>2026-05-21T14:18:58Z</time></trkpt>
			<trkpt lat="54.924190" lon="20.002750"><ele>39.3</ele><time>2026-05-21T14:19:03Z</time></trkpt>
			<trkpt lat="54.925310" lon="20.002500"><ele>39.0</ele><time>2026-05-21T14:19:08Z</time></trkpt>
			<trkpt lat="54.926720" lon="20.002160"><ele>38.7</ele><time>2026-05-21T14:19:13Z</time></trkpt>
			<trkpt lat="54.926870" lon="20.002130"><ele>38.7</ele><time>2026-05-21T14:19:19Z</time></trkpt>
			<trkpt lat="54.927320" lon="20.002030"><ele>38.9</ele><time>2026-05-21T14:19:24Z</time></trkpt>
			<trkpt lat="54.927420" lon="20.002010"><ele>38.9</ele><time>2026-05-21T14:19:29Z</time></trkpt>
			<trkpt lat="54.927500" lon="20.001990"><ele>38.9</ele><time>2026-05-21T14:19:34Z</time></trkpt>
			<trkpt lat="54.927950" lon="20.002020"><ele>39.0</ele><time>2026-05-21T14:19:39Z</time></trkpt>
			<trkpt lat="54.928480" lon="20.002260"><ele>39.2</ele><time>2026-05-21T14:19:45Z</time></trkpt>
			<trkpt lat="54.928750" lon="20.002450"><ele>39.3</ele><time>2026-05-21T14:19:50Z</time></trkpt>
			<trkpt lat="54.928880" lon="20.002630"><ele>39.3</ele><time>2026-05-21T14:19:55Z</time></trkpt>
			<trkpt lat="54.929060" lon="20.003140"><ele>39.4</ele><time>2026-05-21T14:20:00Z</time></trkpt>
			<trkpt lat="54.929060" lon="20.003140"><ele>39.4</ele><time>2026-05-21T14:20:05Z</time></trkpt>
			<trkpt lat="54.929120" lon="20.003300"><ele>39.5</ele><time>2026-05-21T14:20:10Z</time></trkpt>
			<trkpt lat="54.929560" lon="20.004790"><ele>39.7</ele><time>2026-05-21T14:20:15Z</time></trkpt>
			<trkpt lat="54.929660" lon="20.005410"><ele>39.8</ele><time>2026-05-21T14:20:20Z</time></trkpt>
			<trkpt lat="54.929730" lon="20.006140"><ele>40.0</ele><time>2026-05-21T14:20:25Z</time></trkpt>
			<trkpt lat="54.929840" lon="20.008190"><ele>40.5</ele><time>2026-05-21T14:20:30Z</time></trkpt>
			<trkpt lat="54.929880" lon="20.008740"><ele>41.0</ele><time>2026-05-21T14:20:35Z</time></trkpt>
			<trkpt lat="54.929940" lon="20.008990"><ele>41.2</ele><time>2026-05-21T14:20:40Z</time></trkpt>
			<trkpt lat="54.930000" lon="20.009260"><ele>41.4</ele><time>2026-05-21T14:20:45Z</time></trkpt>
			<trkpt lat="54.931000" lon="20.011490"><ele>43.7</ele><time>2026-05-21T14:20:50Z</time></trkpt>
			<trkpt lat="54.936060" lon="20.022170"><ele>47.5</ele><time>2026-05-21T14:20:54Z</time></trkpt>
			<trkpt lat="54.937690" lon="20.025530"><ele>47.5</ele><time>2026-05-21T14:20:59Z</time></trkpt>
			<trkpt lat="54.937830" lon="20.025820"><ele>47.5</ele><time>2026-05-21T14:21:04Z</time></trkpt>
			<trkpt lat="54.938110" lon="20.026420"><ele>47.5</ele><time>2026-05-21T14:21:09Z</time></trkpt>
			<trkpt lat="54.938790" lon="20.027870"><ele>47.5</ele><time>2026-05-21T14:21:14Z</time></trkpt>
			<trkpt lat="54.938990" lon="20.028300"><ele>47.5</ele><time>2026-05-21T14:21:19Z</time></trkpt>
			<trkpt lat="54.939960" lon="20.030430"><ele>47.6</ele><time>2026-05-21T14:21:24Z</time></trkpt>
			<trkpt lat="54.940130" lon="20.030930"><ele>47.6</ele><time>2026-05-21T14:21:29Z</time></trkpt>
			<trkpt lat="54.940390" lon="20.032260"><ele>47.7</ele><time>2026-05-21T14:21:34Z</time></trkpt>
			<trkpt lat="54.940660" lon="20.033640"><ele>47.8</ele><time>2026-05-21T14:21:39Z</time></trkpt>
			<trkpt lat="54.941210" lon="20.036080"><ele>47.9</ele><time>2026-05-21T14:21:44Z</time></trkpt>
			<trkpt lat="54.941460" lon="20.037330"><ele>48.0</ele><time>2026-05-21T14:21:49Z</time></trkpt>
			<trkpt lat="54.941760" lon="20.038680"><ele>48.0</ele><time>2026-05-21T14:21:54Z</time></trkpt>
			<trkpt lat="54.941890" lon="20.039330"><ele>47.8</ele><time>2026-05-21T14:21:59Z</time></trkpt>
			<trkpt lat="54.941940" lon="20.040020"><ele>47.6</ele><time>2026-05-21T14:22:04Z</time></trkpt>
			<trkpt lat="54.941950" lon="20.040200"><ele>47.5</ele><time>2026-05-21T14:22:09Z</time></trkpt>
			<trkpt lat="54.942000" lon="20.041150"><ele>47.2</ele><time>2026-05-21T14:22:14Z</time></trkpt>
			<trkpt lat="54.942060" lon="20.042450"><ele>46.8</ele><time>2026-05-21T14:22:18Z</time></trkpt>
			<trkpt lat="54.942100" lon="20.043030"><ele>46.7</ele><time>2026-05-21T14:22:23Z</time></trkpt>
			<trkpt lat="54.942150" lon="20.043790"><ele>46.4</ele><time>2026-05-21T14:22:28Z</time></trkpt>
			<trkpt lat="54.942300" lon="20.046400"><ele>45.6</ele><time>2026-05-21T14:22:33Z</time></trkpt>
			<trkpt lat="54.942370" lon="20.047680"><ele>45.2</ele><time>2026-05-21T14:22:38Z</time></trkpt>
			<trkpt lat="54.942440" lon="20.048920"><ele>45.8</ele><time>2026-05-21T14:22:43Z</time></trkpt>
			<trkpt lat="54.942530" lon="20.050450"><ele>46.8</ele><time>2026-05-21T14:22:48Z</time></trkpt>
			<trkpt lat="54.942560" lon="20.050970"><ele>47.1</ele><time>2026-05-21T14:22:53Z</time></trkpt>
			<trkpt lat="54.942820" lon="20.055480"><ele>49.9</ele><time>2026-05-21T14:22:58Z</time></trkpt>
			<trkpt lat="54.943000" lon="20.058660"><ele>51.3</ele><time>2026-05-21T14:23:03Z</time></trkpt>
			<trkpt lat="54.943010" lon="20.058950"><ele>51.3</ele><time>2026-05-21T14:23:08Z</time></trkpt>
			<trkpt lat="54.943040" lon="20.059420"><ele>51.5</ele><time>2026-05-21T14:23:13Z</time></trkpt>
			<trkpt lat="54.943180" lon="20.062040"><ele>52.1</ele><time>2026-05-21T14:23:18Z</time></trkpt>
			<trkpt lat="54.943280" lon="20.063720"><ele>52.5</ele><time>2026-05-21T14:23:23Z</time></trkpt>
			<trkpt lat="54.943420" lon="20.066110"><ele>53.0</ele><time>2026-05-21T14:23:28Z</time></trkpt>
			<trkpt lat="54.943420" lon="20.066280"><ele>53.1</ele><time>2026-05-21T14:23:33Z</time></trkpt>
			<trkpt lat="54.943520" lon="20.068180"><ele>52.5</ele><time>2026-05-21T14:23:38Z</time></trkpt>
			<trkpt lat="54.943580" lon="20.069350"><ele>52.1</ele><time>2026-05-21T14:23:42Z</time></trkpt>
			<trkpt lat="54.943990" lon="20.075550"><ele>49.9</ele><time>2026-05-21T14:23:47Z</time></trkpt>
			<trkpt lat="54.944090" lon="20.076960"><ele>50.2</ele><time>2026-05-21T14:23:52Z</time></trkpt>
			<trkpt lat="54.944090" lon="20.077280"><ele>50.4</ele><time>2026-05-21T14:23:57Z</time></trkpt>
			<trkpt lat="54.944100" lon="20.077450"><ele>50.4</ele><time>2026-05-21T14:24:02Z</time></trkpt>
			<trkpt lat="54.944100" lon="20.077820"><ele>50.5</ele><time>2026-05-21T14:24:07Z</time></trkpt>
			<trkpt lat="54.944070" lon="20.078290"><ele>50.7</ele><time>2026-05-21T14:24:12Z</time></trkpt>
			<trkpt lat="54.944040" lon="20.078830"><ele>50.9</ele><time>2026-05-21T14:24:17Z</time></trkpt>
			<trkpt lat="54.943810" lon="20.079590"><ele>51.2</ele><time>2026-05-21T14:24:22Z</time></trkpt>
			<trkpt lat="54.943600" lon="20.079970"><ele>51.4</ele><time>2026-05-21T14:24:27Z</time></trkpt>
			<trkpt lat="54.943240" lon="20.080480"><ele>51.7</ele><time>2026-05-21T14:24:32Z</time></trkpt>
			<trkpt lat="54.942800" lon="20.080860"><ele>52.0</ele><time>2026-05-21T14:24:37Z</time></trkpt>
			<trkpt lat="54.942730" lon="20.080920"><ele>52.1</ele><time>2026-05-21T14:24:42Z</time></trkpt>
			<trkpt lat="54.942180" lon="20.081340"><ele>52.5</ele><time>2026-05-21T14:24:47Z</time></trkpt>
			<trkpt lat="54.941120" lon="20.082200"><ele>53.2</ele><time>2026-05-21T14:24:52Z</time></trkpt>
			<trkpt lat="54.940690" lon="20.082760"><ele>53.7</ele><time>2026-05-21T14:24:57Z</time></trkpt>
			<trkpt lat="54.940290" lon="20.083330"><ele>54.1</ele><time>2026-05-21T14:25:02Z</time></trkpt>
			<trkpt lat="54.940210" lon="20.083460"><ele>54.2</ele><time>2026-05-21T14:25:06Z</time></trkpt>
			<trkpt lat="54.940140" lon="20.083630"><ele>54.3</ele><time>2026-05-21T14:25:11Z</time></trkpt>
			<trkpt lat="54.940090" lon="20.083850"><ele>54.4</ele><time>2026-05-21T14:25:16Z</time></trkpt>
			<trkpt lat="54.940080" lon="20.083960"><ele>54.4</ele><time>2026-05-21T14:25:21Z</time></trkpt>
			<trkpt lat="54.939620" lon="20.088930"><ele>56.9</ele><time>2026-05-21T14:25:26Z</time></trkpt>
			<trkpt lat="54.939610" lon="20.089300"><ele>57.0</ele><time>2026-05-21T14:25:31Z</time></trkpt>
			<trkpt lat="54.939620" lon="20.089630"><ele>57.2</ele><time>2026-05-21T14:25:36Z</time></trkpt>
			<trkpt lat="54.939630" lon="20.089810"><ele>57.3</ele><time>2026-05-21T14:25:41Z</time></trkpt>
			<trkpt lat="54.939710" lon="20.090470"><ele>57.6</ele><time>2026-05-21T14:25:46Z</time></trkpt>
			<trkpt lat="54.939820" lon="20.091030"><ele>57.7</ele><time>2026-05-21T14:25:51Z</time></trkpt>
			<trkpt lat="54.939940" lon="20.091450"><ele>57.6</ele><time>2026-05-21T14:25:56Z</time></trkpt>
			<trkpt lat="54.940270" lon="20.092120"><ele>57.3</ele><time>2026-05-21T14:26:01Z</time></trkpt>
			<trkpt lat="54.940910" lon="20.093390"><ele>56.7</ele><time>2026-05-21T14:26:06Z</time></trkpt>
			<trkpt lat="54.941000" lon="20.093650"><ele>56.6</ele><time>2026-05-21T14:26:11Z</time></trkpt>
			<trkpt lat="54.941070" lon="20.093960"><ele>56.5</ele><time>2026-05-21T14:26:16Z</time></trkpt>
			<trkpt lat="54.941330" lon="20.095170"><ele>56.1</ele><time>2026-05-21T14:26:21Z</time></trkpt>
			<trkpt lat="54.941630" lon="20.096550"><ele>55.6</ele><time>2026-05-21T14:26:25Z</time></trkpt>
			<trkpt lat="54.941740" lon="20.097140"><ele>55.4</ele><time>2026-05-21T14:26:30Z</time></trkpt>
			<trkpt lat="54.941780" lon="20.097730"><ele>55.2</ele><time>2026-05-21T14:26:35Z</time></trkpt>
			<trkpt lat="54.941780" lon="20.097870"><ele>55.2</ele><time>2026-05-21T14:26:40Z</time></trkpt>
			<trkpt lat="54.941790" lon="20.098170"><ele>55.1</ele><time>2026-05-21T14:26:45Z</time></trkpt>
			<trkpt lat="54.941780" lon="20.098440"><ele>55.0</ele><time>2026-05-21T14:26:50Z</time></trkpt>
			<trkpt lat="54.941610" lon="20.101150"><ele>53.3</ele><time>2026-05-21T14:26:55Z</time></trkpt>
			<trkpt lat="54.941600" lon="20.101280"><ele>53.2</ele><time>2026-05-21T14:27:00Z</time></trkpt>
			<trkpt lat="54.941490" lon="20.102710"><ele>52.1</ele><time>2026-05-21T14:27:05Z</time></trkpt>
			<trkpt lat="54.941380" lon="20.104150"><ele>51.0</ele><time>2026-05-21T14:27:10Z</time></trkpt>
			<trkpt lat="54.941340" lon="20.104640"><ele>50.6</ele><time>2026-05-21T14:27:15Z</time></trkpt>
			<trkpt lat="54.941230" lon="20.105940"><ele>49.6</ele><time>2026-05-21T14:27:20Z</time></trkpt>
			<trkpt lat="54.941220" lon="20.106050"><ele>49.5</ele><time>2026-05-21T14:27:25Z</time></trkpt>
			<trkpt lat="54.941150" lon="20.106880"><ele>48.9</ele><time>2026-05-21T14:27:30Z</time></trkpt>
			<trkpt lat="54.941110" lon="20.107390"><ele>48.5</ele><time>2026-05-21T14:27:35Z</time></trkpt>
			<trkpt lat="54.941080" lon="20.107750"><ele>48.2</ele><time>2026-05-21T14:27:40Z</time></trkpt>
			<trkpt lat="54.941060" lon="20.108010"><ele>48.0</ele><time>2026-05-21T14:27:45Z</time></trkpt>
			<trkpt lat="54.940980" lon="20.108860"><ele>47.6</ele><time>2026-05-21T14:27:49Z</time></trkpt>
			<trkpt lat="54.940890" lon="20.109850"><ele>47.4</ele><time>2026-05-21T14:27:54Z</time></trkpt>
			<trkpt lat="54.940860" lon="20.110080"><ele>47.3</ele><time>2026-05-21T14:27:59Z</time></trkpt>
			<trkpt lat="54.940800" lon="20.110720"><ele>47.2</ele><time>2026-05-21T14:28:04Z</time></trkpt>
			<trkpt lat="54.940760" lon="20.111140"><ele>47.1</ele><time>2026-05-21T14:28:09Z</time></trkpt>
			<trkpt lat="54.940700" lon="20.111670"><ele>47.0</ele><time>2026-05-21T14:28:14Z</time></trkpt>
			<trkpt lat="54.940660" lon="20.112120"><ele>47.0</ele><time>2026-05-21T14:28:19Z</time></trkpt>
			<trkpt lat="54.940620" lon="20.112440"><ele>46.9</ele><time>2026-05-21T14:28:24Z</time></trkpt>
			<trkpt lat="54.940480" lon="20.112880"><ele>46.8</ele><time>2026-05-21T14:28:29Z</time></trkpt>
			<trkpt lat="54.940310" lon="20.113500"><ele>46.7</ele><time>2026-05-21T14:28:34Z</time></trkpt>
			<trkpt lat="54.940100" lon="20.114190"><ele>46.5</ele><time>2026-05-21T14:28:39Z</time></trkpt>
			<trkpt lat="54.940010" lon="20.114520"><ele>46.5</ele><time>2026-05-21T14:28:44Z</time></trkpt>
			<trkpt lat="54.939990" lon="20.114850"><ele>46.4</ele><time>2026-05-21T14:28:49Z</time></trkpt>
			<trkpt lat="54.939970" lon="20.115480"><ele>46.3</ele><time>2026-05-21T14:28:54Z</time></trkpt>
			<trkpt lat="54.939950" lon="20.116200"><ele>46.2</ele><time>2026-05-21T14:28:59Z</time></trkpt>
			<trkpt lat="54.939920" lon="20.116400"><ele>46.1</ele><time>2026-05-21T14:29:04Z</time></trkpt>
			<trkpt lat="54.939850" lon="20.116610"><ele>46.1</ele><time>2026-05-21T14:29:09Z</time></trkpt>
			<trkpt lat="54.939760" lon="20.116810"><ele>46.0</ele><time>2026-05-21T14:29:13Z</time></trkpt>
			<trkpt lat="54.939700" lon="20.116930"><ele>46.0</ele><time>2026-05-21T14:29:18Z</time></trkpt>
			<trkpt lat="54.939460" lon="20.117830"><ele>46.0</ele><time>2026-05-21T14:29:23Z</time></trkpt>
			<trkpt lat="54.939310" lon="20.118770"><ele>46.2</ele><time>2026-05-21T14:29:28Z</time></trkpt>
			<trkpt lat="54.939070" lon="20.120820"><ele>46.7</ele><time>2026-05-21T14:29:33Z</time></trkpt>
			<trkpt lat="54.939030" lon="20.121850"><ele>46.9</ele><time>2026-05-21T14:29:38Z</time></trkpt>
			<trkpt lat="54.939100" lon="20.123090"><ele>47.2</ele><time>2026-05-21T14:29:43Z</time></trkpt>
			<trkpt lat="54.939220" lon="20.123800"><ele>47.4</ele><time>2026-05-21T14:29:48Z</time></trkpt>
			<trkpt lat="54.939540" lon="20.124800"><ele>47.6</ele><time>2026-05-21T14:29:53Z</time></trkpt>
			<trkpt lat="54.939720" lon="20.125380"><ele>47.8</ele><time>2026-05-21T14:29:58Z</time></trkpt>
			<trkpt lat="54.939820" lon="20.126170"><ele>48.0</ele><time>2026-05-21T14:30:03Z</time></trkpt>
			<trkpt lat="54.939930" lon="20.126950"><ele>47.4</ele><time>2026-05-21T14:30:08Z</time></trkpt>
			<trkpt lat="54.939980" lon="20.127290"><ele>47.0</ele><time>2026-05-21T14:30:13Z</time></trkpt>
			<trkpt lat="54.940130" lon="20.127980"><ele>46.2</ele><time>2026-05-21T14:30:18Z</time></trkpt>
			<trkpt lat="54.940160" lon="20.128090"><ele>46.1</ele><time>2026-05-21T14:30:23Z</time></trkpt>
			<trkpt lat="54.940230" lon="20.128440"><ele>45.7</ele><time>2026-05-21T14:30:28Z</time></trkpt>
			<trkpt lat="54.940300" lon="20.128700"><ele>45.3</ele><time>2026-05-21T14:30:33Z</time></trkpt>
			<trkpt lat="54.940430" lon="20.129230"><ele>44.7</ele><time>2026-05-21T14:30:37Z</time></trkpt>
			<trkpt lat="54.940700" lon="20.130250"><ele>43.5</ele><time>2026-05-21T14:30:42Z</time></trkpt>
			<trkpt lat="54.940750" lon="20.130420"><ele>43.2</ele><time>2026-05-21T14:30:47Z</time></trkpt>
			<trkpt lat="54.941140" lon="20.131790"><ele>41.5</ele><time>2026-05-21T14:30:52Z</time></trkpt>
			<trkpt lat="54.941220" lon="20.132070"><ele>41.2</ele><time>2026-05-21T14:30:57Z</time></trkpt>
			<trkpt lat="54.941560" lon="20.133250"><ele>39.7</ele><time>2026-05-21T14:31:02Z</time></trkpt>
			<trkpt lat="54.941740" lon="20.133870"><ele>39.0</ele><time>2026-05-21T14:31:07Z</time></trkpt>
			<trkpt lat="54.941740" lon="20.133870"><ele>39.0</ele><time>2026-05-21T14:31:08Z</time></trkpt>
			<trkpt lat="54.941750" lon="20.133920"><ele>38.9</ele><time>2026-05-21T14:31:08Z</time></trkpt>
			<trkpt lat="54.941840" lon="20.134330"><ele>38.4</ele><time>2026-05-21T14:31:09Z</time></trkpt>
			<trkpt lat="54.941860" lon="20.134410"><ele>38.3</ele><time>2026-05-21T14:31:10Z</time></trkpt>
			<trkpt lat="54.941870" lon="20.134600"><ele>38.1</ele><time>2026-05-21T14:31:10Z</time></trkpt>
			<trkpt lat="54.941870" lon="20.134910"><ele>37.8</ele><time>2026-05-21T14:31:11Z</time></trkpt>
			<trkpt lat="54.941810" lon="20.135240"><ele>37.7</ele><time>2026-05-21T14:31:12Z</time></trkpt>
			<trkpt lat="54.941780" lon="20.135420"><ele>37.8</ele><time>2026-05-21T14:31:12Z</time></trkpt>
			<trkpt lat="54.941760" lon="20.135590"><ele>37.9</ele><time>2026-05-21T14:31:13Z</time></trkpt>
			<trkpt lat="54.941750" lon="20.135580"><ele>37.9</ele><time>2026-05-21T14:31:14Z</time></trkpt>
			<trkpt lat="54.942006" lon="20.136420"><ele>38.4</ele><time>2026-05-21T14:32:30Z</time></trkpt>
			<trkpt lat="54.942147" lon="20.136972"><ele>38.7</ele><time>2026-05-21T14:33:18Z</time></trkpt>
			<trkpt lat="54.943013" lon="20.140882"><ele>40.9</ele><time>2026-05-21T14:38:53Z</time></trkpt>
			<trkpt lat="54.943371" lon="20.142641"><ele>41.9</ele><time>2026-05-21T14:41:22Z</time></trkpt>
			<trkpt lat="54.944181" lon="20.149150"><ele>42.2</ele><time>2026-05-21T14:50:14Z</time></trkpt>
			<trkpt lat="54.944188" lon="20.149962"><ele>42.2</ele><time>2026-05-21T14:51:19Z</time></trkpt>
			<trkpt lat="54.944126" lon="20.151561"><ele>42.1</ele><time>2026-05-21T14:53:27Z</time></trkpt>
			<trkpt lat="54.944070" lon="20.153269"><ele>42.1</ele><time>2026-05-21T14:55:44Z</time></trkpt>
			<trkpt lat="54.944076" lon="20.154975"><ele>42.9</ele><time>2026-05-21T14:58:00Z</time></trkpt>
			<trkpt lat="54.944113" lon="20.156423"><ele>43.5</ele><time>2026-05-21T14:59:56Z</time></trkpt>
			<trkpt lat="54.944144" lon="20.158848"><ele>44.6</ele><time>2026-05-21T15:03:10Z</time></trkpt>
			<trkpt lat="54.944008" lon="20.159835"><ele>45.1</ele><time>2026-05-21T15:04:31Z</time></trkpt>
			<trkpt lat="54.943681" lon="20.161723"><ele>46.0</ele><time>2026-05-21T15:07:08Z</time></trkpt>
			<trkpt lat="54.943609" lon="20.162485"><ele>45.8</ele><time>2026-05-21T15:08:10Z</time></trkpt>
			<trkpt lat="54.943387" lon="20.163514"><ele>42.3</ele><time>2026-05-21T15:09:38Z</time></trkpt>
			<trkpt lat="54.942974" lon="20.165210"><ele>36.5</ele><time>2026-05-21T15:12:05Z</time></trkpt>
			<trkpt lat="54.942666" lon="20.166379"><ele>32.4</ele><time>2026-05-21T15:13:48Z</time></trkpt>
			<trkpt lat="54.942678" lon="20.166744"><ele>31.2</ele><time>2026-05-21T15:14:17Z</time></trkpt>
			<trkpt lat="54.942832" lon="20.168042"><ele>27.0</ele><time>2026-05-21T15:16:03Z</time></trkpt>
			<trkpt lat="54.942820" lon="20.168060"><ele>26.9</ele><time>2026-05-21T15:16:06Z</time></trkpt>
			<trkpt lat="54.942850" lon="20.168090"><ele>26.7</ele><time>2026-05-21T15:16:09Z</time></trkpt>
			<trkpt lat="54.943350" lon="20.168910"><ele>22.9</ele><time>2026-05-21T15:16:12Z</time></trkpt>
			<trkpt lat="54.943340" lon="20.169720"><ele>20.3</ele><time>2026-05-21T15:16:15Z</time></trkpt>
			<trkpt lat="54.943290" lon="20.169990"><ele>19.4</ele><time>2026-05-21T15:16:18Z</time></trkpt>
			<trkpt lat="54.943270" lon="20.170220"><ele>18.7</ele><time>2026-05-21T15:16:22Z</time></trkpt>
			<trkpt lat="54.943280" lon="20.170370"><ele>18.2</ele><time>2026-05-21T15:16:25Z</time></trkpt>
			<trkpt lat="54.943300" lon="20.170460"><ele>17.9</ele><time>2026-05-21T15:16:28Z</time></trkpt>
			<trkpt lat="54.943300" lon="20.170460"><ele>17.9</ele><time>2026-05-21T15:16:33Z</time></trkpt>
			<trkpt lat="54.943300" lon="20.170460"><ele>17.9</ele><time>2026-05-21T15:16:38Z</time></trkpt>
			<trkpt lat="54.943460" lon="20.170800"><ele>16.5</ele><time>2026-05-21T15:16:43Z</time></trkpt>
			<trkpt lat="54.943480" lon="20.170860"><ele>16.4</ele><time>2026-05-21T15:16:48Z</time></trkpt>
			<trkpt lat="54.943960" lon="20.172120"><ele>16.9</ele><time>2026-05-21T15:16:53Z</time></trkpt>
			<trkpt lat="54.944300" lon="20.173010"><ele>17.3</ele><time>2026-05-21T15:16:58Z</time></trkpt>
			<trkpt lat="54.944570" lon="20.173720"><ele>17.6</ele><time>2026-05-21T15:17:03Z</time></trkpt>
			<trkpt lat="54.945130" lon="20.175210"><ele>18.2</ele><time>2026-05-21T15:17:08Z</time></trkpt>
			<trkpt lat="54.945390" lon="20.175940"><ele>18.5</ele><time>2026-05-21T15:17:13Z</time></trkpt>
			<trkpt lat="54.945800" lon="20.177090"><ele>19.0</ele><time>2026-05-21T15:17:18Z</time></trkpt>
			<trkpt lat="54.945990" lon="20.177600"><ele>19.2</ele><time>2026-05-21T15:17:23Z</time></trkpt>
			<trkpt lat="54.946130" lon="20.177920"><ele>19.4</ele><time>2026-05-21T15:17:28Z</time></trkpt>
			<trkpt lat="54.946190" lon="20.178000"><ele>19.4</ele><time>2026-05-21T15:17:34Z</time></trkpt>
			<trkpt lat="54.946880" lon="20.178900"><ele>20.0</ele><time>2026-05-21T15:17:39Z</time></trkpt>
			<trkpt lat="54.947330" lon="20.179450"><ele>20.3</ele><time>2026-05-21T15:17:44Z</time></trkpt>
			<trkpt lat="54.947430" lon="20.179540"><ele>20.4</ele><time>2026-05-21T15:17:49Z</time></trkpt>
			<trkpt lat="54.947330" lon="20.179830"><ele>20.5</ele><time>2026-05-21T15:17:54Z</time></trkpt>
			<trkpt lat="54.947250" lon="20.180230"><ele>20.7</ele><time>2026-05-21T15:17:59Z</time></trkpt>
			<trkpt lat="54.947210" lon="20.180580"><ele>20.8</ele><time>2026-05-21T15:18:04Z</time></trkpt>
			<trkpt lat="54.947180" lon="20.180900"><ele>21.0</ele><time>2026-05-21T15:18:09Z</time></trkpt>
			<trkpt lat="54.947160" lon="20.181610"><ele>21.2</ele><time>2026-05-21T15:18:14Z</time></trkpt>
			<trkpt lat="54.947160" lon="20.181610"><ele>21.2</ele><time>2026-05-21T15:18:16Z</time></trkpt>
			<trkpt lat="54.947160" lon="20.181800"><ele>21.3</ele><time>2026-05-21T15:18:18Z</time></trkpt>
			<trkpt lat="54.947120" lon="20.181820"><ele>21.4</ele><time>2026-05-21T15:18:20Z</time></trkpt>
			<trkpt lat="54.947090" lon="20.181860"><ele>21.4</ele><time>2026-05-21T15:18:21Z</time></trkpt>
			<trkpt lat="54.947070" lon="20.181920"><ele>21.4</ele><time>2026-05-21T15:18:23Z</time></trkpt>
			<trkpt lat="54.947060" lon="20.181990"><ele>21.4</ele><time>2026-05-21T15:18:25Z</time></trkpt>
			<trkpt lat="54.947060" lon="20.182060"><ele>21.5</ele><time>2026-05-21T15:18:27Z</time></trkpt>
			<trkpt lat="54.947080" lon="20.182120"><ele>21.5</ele><time>2026-05-21T15:18:29Z</time></trkpt>
			<trkpt lat="54.947110" lon="20.182160"><ele>21.5</ele><time>2026-05-21T15:18:31Z</time></trkpt>
			<trkpt lat="54.947140" lon="20.182180"><ele>21.5</ele><time>2026-05-21T15:18:33Z</time></trkpt>
			<trkpt lat="54.947180" lon="20.182190"><ele>21.6</ele><time>2026-05-21T15:18:35Z</time></trkpt>
			<trkpt lat="54.947210" lon="20.182180"><ele>21.6</ele><time>2026-05-21T15:18:37Z</time></trkpt>
			<trkpt lat="54.947240" lon="20.182150"><ele>21.6</ele><time>2026-05-21T15:18:38Z</time></trkpt>
			<trkpt lat="54.947270" lon="20.182100"><ele>21.6</ele><time>2026-05-21T15:18:40Z</time></trkpt>
			<trkpt lat="54.948320" lon="20.182710"><ele>22.4</ele><time>2026-05-21T15:18:42Z</time></trkpt>
			<trkpt lat="54.948460" lon="20.182830"><ele>22.5</ele><time>2026-05-21T15:18:44Z</time></trkpt>
			<trkpt lat="54.948570" lon="20.182980"><ele>22.6</ele><time>2026-05-21T15:18:46Z</time></trkpt>
			<trkpt lat="54.948670" lon="20.183170"><ele>22.7</ele><time>2026-05-21T15:18:48Z</time></trkpt>
			<trkpt lat="54.948760" lon="20.183420"><ele>22.8</ele><time>2026-05-21T15:18:50Z</time></trkpt>
			<trkpt lat="54.949050" lon="20.184480"><ele>23.3</ele><time>2026-05-21T15:18:52Z</time></trkpt>
			<trkpt lat="54.949450" lon="20.185920"><ele>24.0</ele><time>2026-05-21T15:18:54Z</time></trkpt>
			<trkpt lat="54.949780" lon="20.187120"><ele>24.6</ele><time>2026-05-21T15:18:55Z</time></trkpt>
			<trkpt lat="54.950150" lon="20.188550"><ele>25.3</ele><time>2026-05-21T15:18:57Z</time></trkpt>
			<trkpt lat="54.950110" lon="20.188600"><ele>25.4</ele><time>2026-05-21T15:18:59Z</time></trkpt>
			<trkpt lat="54.950080" lon="20.188670"><ele>25.4</ele><time>2026-05-21T15:19:01Z</time></trkpt>
			<trkpt lat="54.950060" lon="20.188750"><ele>25.4</ele><time>2026-05-21T15:19:03Z</time></trkpt>
			<trkpt lat="54.950060" lon="20.188800"><ele>25.5</ele><time>2026-05-21T15:19:05Z</time></trkpt>
			<trkpt lat="54.950060" lon="20.188840"><ele>25.5</ele><time>2026-05-21T15:19:07Z</time></trkpt>
			<trkpt lat="54.950080" lon="20.188920"><ele>25.5</ele><time>2026-05-21T15:19:09Z</time></trkpt>
			<trkpt lat="54.950110" lon="20.188990"><ele>25.6</ele><time>2026-05-21T15:19:11Z</time></trkpt>
			<trkpt lat="54.950160" lon="20.189040"><ele>25.6</ele><time>2026-05-21T15:19:12Z</time></trkpt>
			<trkpt lat="54.950210" lon="20.189060"><ele>25.7</ele><time>2026-05-21T15:19:14Z</time></trkpt>
			<trkpt lat="54.950260" lon="20.189050"><ele>25.7</ele><time>2026-05-21T15:19:16Z</time></trkpt>
			<trkpt lat="54.950290" lon="20.189020"><ele>25.7</ele><time>2026-05-21T15:19:18Z</time></trkpt>
			<trkpt lat="54.950340" lon="20.189230"><ele>25.8</ele><time>2026-05-21T15:19:20Z</time></trkpt>
			<trkpt lat="54.950510" lon="20.189730"><ele>26.1</ele><time>2026-05-21T15:19:22Z</time></trkpt>
			<trkpt lat="54.950650" lon="20.190200"><ele>26.3</ele><time>2026-05-21T15:19:24Z</time></trkpt>
			<trkpt lat="54.950720" lon="20.190480"><ele>26.5</ele><time>2026-05-21T15:19:26Z</time></trkpt>
			<trkpt lat="54.950750" lon="20.190660"><ele>26.6</ele><time>2026-05-21T15:19:27Z</time></trkpt>
			<trkpt lat="54.950740" lon="20.190780"><ele>26.6</ele><time>2026-05-21T15:19:29Z</time></trkpt>
			<trkpt lat="54.950710" lon="20.191130"><ele>26.8</ele><time>2026-05-21T15:19:31Z</time></trkpt>
			<trkpt lat="54.950630" lon="20.191620"><ele>27.0</ele><time>2026-05-21T15:19:33Z</time></trkpt>
			<trkpt lat="54.950600" lon="20.191860"><ele>27.1</ele><time>2026-05-21T15:19:35Z</time></trkpt>
			<trkpt lat="54.950570" lon="20.192190"><ele>27.3</ele><time>2026-05-21T15:19:37Z</time></trkpt>
			<trkpt lat="54.950560" lon="20.192380"><ele>27.4</ele><time>2026-05-21T15:19:39Z</time></trkpt>
			<trkpt lat="54.950550" lon="20.192550"><ele>27.5</ele><time>2026-05-21T15:19:41Z</time></trkpt>
			<trkpt lat="54.950540" lon="20.193450"><ele>27.9</ele><time>2026-05-21T15:19:43Z</time></trkpt>
			<trkpt lat="54.950550" lon="20.194210"><ele>28.3</ele><time>2026-05-21T15:19:44Z</time></trkpt>
			<trkpt lat="54.950540" lon="20.194400"><ele>28.5</ele><time>2026-05-21T15:19:46Z</time></trkpt>
			<trkpt lat="54.950630" lon="20.195390"><ele>29.0</ele><time>2026-05-21T15:19:48Z</time></trkpt>
			<trkpt lat="54.950610" lon="20.195850"><ele>29.3</ele><time>2026-05-21T15:19:50Z</time></trkpt>
			<trkpt lat="54.950400" lon="20.197230"><ele>30.1</ele><time>2026-05-21T15:19:52Z</time></trkpt>
			<trkpt lat="54.950380" lon="20.197660"><ele>30.3</ele><time>2026-05-21T15:19:54Z</time></trkpt>
			<trkpt lat="54.950410" lon="20.197960"><ele>30.5</ele><time>2026-05-21T15:19:56Z</time></trkpt>
			<trkpt lat="54.950460" lon="20.198250"><ele>30.7</ele><time>2026-05-21T15:19:58Z</time></trkpt>
			<trkpt lat="54.950550" lon="20.198580"><ele>30.9</ele><time>2026-05-21T15:20:00Z</time></trkpt>
			<trkpt lat="54.950860" lon="20.199320"><ele>31.4</ele><time>2026-05-21T15:20:01Z</time></trkpt>
			<trkpt lat="54.951100" lon="20.199850"><ele>31.8</ele><time>2026-05-21T15:20:03Z</time></trkpt>
			<trkpt lat="54.951100" lon="20.199880"><ele>31.8</ele><time>2026-05-21T15:20:05Z</time></trkpt>
			<trkpt lat="54.951270" lon="20.200500"><ele>32.2</ele><time>2026-05-21T15:20:07Z</time></trkpt>
			<trkpt lat="54.951450" lon="20.201920"><ele>33.0</ele><time>2026-05-21T15:20:09Z</time></trkpt>
			<trkpt lat="54.951640" lon="20.202850"><ele>31.9</ele><time>2026-05-21T15:20:11Z</time></trkpt>
			<trkpt lat="54.951770" lon="20.203470"><ele>31.1</ele><time>2026-05-21T15:20:13Z</time></trkpt>
			<trkpt lat="54.951890" lon="20.203890"><ele>30.6</ele><time>2026-05-21T15:20:15Z</time></trkpt>
			<trkpt lat="54.951920" lon="20.203990"><ele>30.5</ele><time>2026-05-21T15:20:17Z</time></trkpt>
			<trkpt lat="54.951950" lon="20.204070"><ele>30.4</ele><time>2026-05-21T15:20:18Z</time></trkpt>
			<trkpt lat="54.952210" lon="20.204740"><ele>29.4</ele><time>2026-05-21T15:20:20Z</time></trkpt>
			<trkpt lat="54.952580" lon="20.205560"><ele>28.2</ele><time>2026-05-21T15:20:22Z</time></trkpt>
			<trkpt lat="54.952710" lon="20.205890"><ele>27.8</ele><time>2026-05-21T15:20:24Z</time></trkpt>
			<trkpt lat="54.952790" lon="20.206220"><ele>27.4</ele><time>2026-05-21T15:20:26Z</time></trkpt>
			<trkpt lat="54.952830" lon="20.206470"><ele>27.1</ele><time>2026-05-21T15:20:28Z</time></trkpt>
			<trkpt lat="54.952850" lon="20.206650"><ele>26.9</ele><time>2026-05-21T15:20:30Z</time></trkpt>
			<trkpt lat="54.952850" lon="20.207020"><ele>26.5</ele><time>2026-05-21T15:20:32Z</time></trkpt>
			<trkpt lat="54.952840" lon="20.207770"><ele>25.6</ele><time>2026-05-21T15:20:34Z</time></trkpt>
			<trkpt lat="54.952840" lon="20.208540"><ele>24.7</ele><time>2026-05-21T15:20:35Z</time></trkpt>
			<trkpt lat="54.952880" lon="20.209150"><ele>24.0</ele><time>2026-05-21T15:20:37Z</time></trkpt>
			<trkpt lat="54.952880" lon="20.209750"><ele>23.3</ele><time>2026-05-21T15:20:39Z</time></trkpt>
			<trkpt lat="54.952860" lon="20.210320"><ele>22.7</ele><time>2026-05-21T15:20:41Z</time></trkpt>
			<trkpt lat="54.952800" lon="20.210720"><ele>22.3</ele><time>2026-05-21T15:20:43Z</time></trkpt>
			<trkpt lat="54.952700" lon="20.211230"><ele>21.9</ele><time>2026-05-21T15:20:45Z</time></trkpt>
			<trkpt lat="54.952700" lon="20.211230"><ele>21.9</ele><time>2026-05-21T15:20:47Z</time></trkpt>
			<trkpt lat="54.952610" lon="20.211760"><ele>21.6</ele><time>2026-05-21T15:20:49Z</time></trkpt>
			<trkpt lat="54.952560" lon="20.212010"><ele>21.4</ele><time>2026-05-21T15:20:51Z</time></trkpt>
			<trkpt lat="54.952460" lon="20.212640"><ele>21.0</ele><time>2026-05-21T15:20:53Z</time></trkpt>
			<trkpt lat="54.952280" lon="20.213200"><ele>20.5</ele><time>2026-05-21T15:20:56Z</time></trkpt>
			<trkpt lat="54.952070" lon="20.213640"><ele>20.2</ele><time>2026-05-21T15:20:58Z</time></trkpt>
			<trkpt lat="54.951970" lon="20.213860"><ele>20.0</ele><time>2026-05-21T15:21:00Z</time></trkpt>
			<trkpt lat="54.951900" lon="20.214050"><ele>19.9</ele><time>2026-05-21T15:21:02Z</time></trkpt>
			<trkpt lat="54.951890" lon="20.214140"><ele>19.8</ele><time>2026-05-21T15:21:04Z</time></trkpt>
			<trkpt lat="54.951860" lon="20.214250"><ele>19.7</ele><time>2026-05-21T15:21:06Z</time></trkpt>
			<trkpt lat="54.951850" lon="20.214440"><ele>19.6</ele><time>2026-05-21T15:21:09Z</time></trkpt>
			<trkpt lat="54.951850" lon="20.214880"><ele>19.3</ele><time>2026-05-21T15:21:11Z</time></trkpt>
			<trkpt lat="54.951900" lon="20.215210"><ele>19.1</ele><time>2026-05-21T15:21:13Z</time></trkpt>
			<trkpt lat="54.951990" lon="20.215520"><ele>18.9</ele><time>2026-05-21T15:21:15Z</time></trkpt>
			<trkpt lat="54.952130" lon="20.215960"><ele>18.5</ele><time>2026-05-21T15:21:17Z</time></trkpt>
			<trkpt lat="54.952230" lon="20.216220"><ele>18.3</ele><time>2026-05-21T15:21:19Z</time></trkpt>
			<trkpt lat="54.952350" lon="20.216440"><ele>18.2</ele><time>2026-05-21T15:21:22Z</time></trkpt>
			<trkpt lat="54.952470" lon="20.216630"><ele>18.0</ele><time>2026-05-21T15:21:24Z</time></trkpt>
			<trkpt lat="54.952640" lon="20.216870"><ele>17.7</ele><time>2026-05-21T15:21:26Z</time></trkpt>
			<trkpt lat="54.953090" lon="20.217440"><ele>17.1</ele><time>2026-05-21T15:21:28Z</time></trkpt>
			<trkpt lat="54.953140" lon="20.217520"><ele>17.0</ele><time>2026-05-21T15:21:30Z</time></trkpt>
			<trkpt lat="54.953260" lon="20.217660"><ele>16.9</ele><time>2026-05-21T15:21:32Z</time></trkpt>
			<trkpt lat="54.953310" lon="20.217730"><ele>16.8</ele><time>2026-05-21T15:21:35Z</time></trkpt>
			<trkpt lat="54.953490" lon="20.218040"><ele>16.5</ele><time>2026-05-21T15:21:37Z</time></trkpt>
			<trkpt lat="54.953550" lon="20.218170"><ele>16.4</ele><time>2026-05-21T15:21:39Z</time></trkpt>
			<trkpt lat="54.953610" lon="20.218370"><ele>16.3</ele><time>2026-05-21T15:21:41Z</time></trkpt>
			<trkpt lat="54.953690" lon="20.218710"><ele>16.4</ele><time>2026-05-21T15:21:43Z</time></trkpt>
			<trkpt lat="54.953770" lon="20.219350"><ele>16.5</ele><time>2026-05-21T15:21:45Z</time></trkpt>
			<trkpt lat="54.953840" lon="20.220110"><ele>16.7</ele><time>2026-05-21T15:21:48Z</time></trkpt>
			<trkpt lat="54.953940" lon="20.220670"><ele>16.9</ele><time>2026-05-21T15:21:50Z</time></trkpt>
			<trkpt lat="54.953930" lon="20.220790"><ele>16.9</ele><time>2026-05-21T15:21:52Z</time></trkpt>
			<trkpt lat="54.953910" lon="20.220890"><ele>16.9</ele><time>2026-05-21T15:21:54Z</time></trkpt>
			<trkpt lat="54.953860" lon="20.220960"><ele>17.0</ele><time>2026-05-21T15:21:56Z</time></trkpt>
			<trkpt lat="54.953810" lon="20.221050"><ele>17.0</ele><time>2026-05-21T15:21:58Z</time></trkpt>
			<trkpt lat="54.953780" lon="20.221150"><ele>17.0</ele><time>2026-05-21T15:22:01Z</time></trkpt>
			<trkpt lat="54.953770" lon="20.221270"><ele>17.1</ele><time>2026-05-21T15:22:03Z</time></trkpt>
			<trkpt lat="54.953770" lon="20.221380"><ele>17.1</ele><time>2026-05-21T15:22:05Z</time></trkpt>
			<trkpt lat="54.953790" lon="20.221490"><ele>17.1</ele><time>2026-05-21T15:22:07Z</time></trkpt>
			<trkpt lat="54.953820" lon="20.221600"><ele>17.1</ele><time>2026-05-21T15:22:09Z</time></trkpt>
			<trkpt lat="54.953870" lon="20.221680"><ele>17.2</ele><time>2026-05-21T15:22:11Z</time></trkpt>
			<trkpt lat="54.953920" lon="20.221740"><ele>17.2</ele><time>2026-05-21T15:22:14Z</time></trkpt>
			<trkpt lat="54.953990" lon="20.221780"><ele>17.2</ele><time>2026-05-21T15:22:16Z</time></trkpt>
			<trkpt lat="54.954010" lon="20.221780"><ele>17.2</ele><time>2026-05-21T15:22:18Z</time></trkpt>
			<trkpt lat="54.954050" lon="20.221790"><ele>17.3</ele><time>2026-05-21T15:22:20Z</time></trkpt>
			<trkpt lat="54.954120" lon="20.221770"><ele>17.3</ele><time>2026-05-21T15:22:22Z</time></trkpt>
			<trkpt lat="54.954250" lon="20.221940"><ele>17.4</ele><time>2026-05-21T15:22:24Z</time></trkpt>
			<trkpt lat="54.954260" lon="20.222360"><ele>17.5</ele><time>2026-05-21T15:22:27Z</time></trkpt>
			<trkpt lat="54.954250" lon="20.222470"><ele>17.5</ele><time>2026-05-21T15:22:29Z</time></trkpt>
			<trkpt lat="54.954210" lon="20.222720"><ele>17.6</ele><time>2026-05-21T15:22:31Z</time></trkpt>
			<trkpt lat="54.954150" lon="20.223190"><ele>17.7</ele><time>2026-05-21T15:22:33Z</time></trkpt>
			<trkpt lat="54.954040" lon="20.224110"><ele>17.9</ele><time>2026-05-21T15:22:35Z</time></trkpt>
			<trkpt lat="54.954010" lon="20.224360"><ele>18.0</ele><time>2026-05-21T15:22:37Z</time></trkpt>
			<trkpt lat="54.953970" lon="20.224580"><ele>18.1</ele><time>2026-05-21T15:22:40Z</time></trkpt>
			<trkpt lat="54.953890" lon="20.224800"><ele>18.1</ele><time>2026-05-21T15:22:42Z</time></trkpt>
			<trkpt lat="54.953770" lon="20.225040"><ele>18.2</ele><time>2026-05-21T15:22:44Z</time></trkpt>
			<trkpt lat="54.953650" lon="20.225170"><ele>18.3</ele><time>2026-05-21T15:22:46Z</time></trkpt>
			<trkpt lat="54.953680" lon="20.225280"><ele>18.3</ele><time>2026-05-21T15:22:48Z</time></trkpt>
			<trkpt lat="54.953700" lon="20.225640"><ele>18.4</ele><time>2026-05-21T15:22:50Z</time></trkpt>
			<trkpt lat="54.953700" lon="20.225810"><ele>18.4</ele><time>2026-05-21T15:22:53Z</time></trkpt>
			<trkpt lat="54.953620" lon="20.226890"><ele>18.6</ele><time>2026-05-21T15:22:55Z</time></trkpt>
			<trkpt lat="54.953610" lon="20.227310"><ele>18.5</ele><time>2026-05-21T15:22:57Z</time></trkpt>
			<trkpt lat="54.953640" lon="20.227630"><ele>18.4</ele><time>2026-05-21T15:22:59Z</time></trkpt>
			<trkpt lat="54.953680" lon="20.228290"><ele>18.3</ele><time>2026-05-21T15:23:01Z</time></trkpt>
			<trkpt lat="54.953690" lon="20.228410"><ele>18.2</ele><time>2026-05-21T15:23:03Z</time></trkpt>
			<trkpt lat="54.953680" lon="20.228720"><ele>18.2</ele><time>2026-05-21T15:23:05Z</time></trkpt>
			<trkpt lat="54.953610" lon="20.229130"><ele>18.1</ele><time>2026-05-21T15:23:08Z</time></trkpt>
			<trkpt lat="54.953580" lon="20.229320"><ele>18.0</ele><time>2026-05-21T15:23:10Z</time></trkpt>
			<trkpt lat="54.953530" lon="20.229610"><ele>17.9</ele><time>2026-05-21T15:23:12Z</time></trkpt>
			<trkpt lat="54.953510" lon="20.229720"><ele>17.9</ele><time>2026-05-21T15:23:14Z</time></trkpt>
			<trkpt lat="54.953500" lon="20.229830"><ele>17.9</ele><time>2026-05-21T15:23:16Z</time></trkpt>
			<trkpt lat="54.953480" lon="20.230160"><ele>17.8</ele><time>2026-05-21T15:23:18Z</time></trkpt>
			<trkpt lat="54.953470" lon="20.230900"><ele>17.6</ele><time>2026-05-21T15:23:21Z</time></trkpt>
			<trkpt lat="54.953470" lon="20.231000"><ele>17.6</ele><time>2026-05-21T15:23:23Z</time></trkpt>
			<trkpt lat="54.953460" lon="20.231260"><ele>17.5</ele><time>2026-05-21T15:23:25Z</time></trkpt>
			<trkpt lat="54.953450" lon="20.231880"><ele>17.4</ele><time>2026-05-21T15:23:27Z</time></trkpt>
			<trkpt lat="54.953440" lon="20.232590"><ele>17.2</ele><time>2026-05-21T15:23:29Z</time></trkpt>
			<trkpt lat="54.953430" lon="20.232820"><ele>17.1</ele><time>2026-05-21T15:23:31Z</time></trkpt>
			<trkpt lat="54.953420" lon="20.232940"><ele>17.1</ele><time>2026-05-21T15:23:34Z</time></trkpt>
			<trkpt lat="54.953410" lon="20.233050"><ele>17.1</ele><time>2026-05-21T15:23:36Z</time></trkpt>
			<trkpt lat="54.953340" lon="20.233430"><ele>17.0</ele><time>2026-05-21T15:23:38Z</time></trkpt>
			<trkpt lat="54.953250" lon="20.233920"><ele>16.8</ele><time>2026-05-21T15:23:40Z</time></trkpt>
			<trkpt lat="54.953240" lon="20.233990"><ele>16.8</ele><time>2026-05-21T15:23:42Z</time></trkpt>
			<trkpt lat="54.953130" lon="20.234600"><ele>16.7</ele><time>2026-05-21T15:23:44Z</time></trkpt>
			<trkpt lat="54.953050" lon="20.234910"><ele>16.6</ele><time>2026-05-21T15:23:47Z</time></trkpt>
			<trkpt lat="54.953010" lon="20.235030"><ele>16.5</ele><time>2026-05-21T15:23:49Z</time></trkpt>
			<trkpt lat="54.952950" lon="20.235230"><ele>16.5</ele><time>2026-05-21T15:23:51Z</time></trkpt>
			<trkpt lat="54.952720" lon="20.235890"><ele>16.3</ele><time>2026-05-21T15:23:53Z</time></trkpt>
			<trkpt lat="54.952580" lon="20.236290"><ele>16.3</ele><time>2026-05-21T15:23:55Z</time></trkpt>
			<trkpt lat="54.952420" lon="20.236740"><ele>16.3</ele><time>2026-05-21T15:23:57Z</time></trkpt>
			<trkpt lat="54.952410" lon="20.236790"><ele>16.3</ele><time>2026-05-21T15:24:00Z</time></trkpt>
			<trkpt lat="54.952360" lon="20.237010"><ele>16.3</ele><time>2026-05-21T15:24:02Z</time></trkpt>
			<trkpt lat="54.952240" lon="20.237860"><ele>16.3</ele><time>2026-05-21T15:24:04Z</time></trkpt>
			<trkpt lat="54.952210" lon="20.238080"><ele>16.3</ele><time>2026-05-21T15:24:06Z</time></trkpt>
			<trkpt lat="54.952040" lon="20.239300"><ele>16.3</ele><time>2026-05-21T15:24:08Z</time></trkpt>
			<trkpt lat="54.952010" lon="20.239500"><ele>16.3</ele><time>2026-05-21T15:24:10Z</time></trkpt>
			<trkpt lat="54.952000" lon="20.239620"><ele>16.3</ele><time>2026-05-21T15:24:13Z</time></trkpt>
			<trkpt lat="54.951960" lon="20.239830"><ele>16.3</ele><time>2026-05-21T15:24:15Z</time></trkpt>
			<trkpt lat="54.951800" lon="20.241000"><ele>16.3</ele><time>2026-05-21T15:24:17Z</time></trkpt>
			<trkpt lat="54.950610" lon="20.249730"><ele>11.4</ele><time>2026-05-21T15:24:19Z</time></trkpt>
			<trkpt lat="54.950550" lon="20.250170"><ele>10.9</ele><time>2026-05-21T15:24:21Z</time></trkpt>
			<trkpt lat="54.950530" lon="20.250670"><ele>10.4</ele><time>2026-05-21T15:24:23Z</time></trkpt>
			<trkpt lat="54.950530" lon="20.251180"><ele>10.0</ele><time>2026-05-21T15:24:26Z</time></trkpt>
			<trkpt lat="54.950580" lon="20.251800"><ele>9.4</ele><time>2026-05-21T15:24:28Z</time></trkpt>
			<trkpt lat="54.950640" lon="20.252640"><ele>8.5</ele><time>2026-05-21T15:24:30Z</time></trkpt>
			<trkpt lat="54.950670" lon="20.253290"><ele>7.9</ele><time>2026-05-21T15:24:32Z</time></trkpt>
			<trkpt lat="54.950710" lon="20.254160"><ele>7.3</ele><time>2026-05-21T15:24:34Z</time></trkpt>
			<trkpt lat="54.950710" lon="20.254410"><ele>7.5</ele><time>2026-05-21T15:24:36Z</time></trkpt>
			<trkpt lat="54.950670" lon="20.254570"><ele>7.7</ele><time>2026-05-21T15:24:39Z</time></trkpt>
			<trkpt lat="54.950640" lon="20.254640"><ele>7.8</ele><time>2026-05-21T15:24:41Z</time></trkpt>
			<trkpt lat="54.950600" lon="20.254680"><ele>7.8</ele><time>2026-05-21T15:24:43Z</time></trkpt>
			<trkpt lat="54.950540" lon="20.254720"><ele>7.9</ele><time>2026-05-21T15:24:45Z</time></trkpt>
			<trkpt lat="54.950140" lon="20.254840"><ele>8.6</ele><time>2026-05-21T15:24:47Z</time></trkpt>
			<trkpt lat="54.950030" lon="20.254900"><ele>8.8</ele><time>2026-05-21T15:24:49Z</time></trkpt>
			<trkpt lat="54.949980" lon="20.254950"><ele>8.9</ele><time>2026-05-21T15:24:52Z</time></trkpt>
			<trkpt lat="54.949940" lon="20.255020"><ele>9.0</ele><time>2026-05-21T15:24:54Z</time></trkpt>
			<trkpt lat="54.949900" lon="20.255140"><ele>9.1</ele><time>2026-05-21T15:24:56Z</time></trkpt>
			<trkpt lat="54.949880" lon="20.255270"><ele>9.2</ele><time>2026-05-21T15:24:58Z</time></trkpt>
			<trkpt lat="54.949890" lon="20.255630"><ele>9.5</ele><time>2026-05-21T15:25:00Z</time></trkpt>
			<trkpt lat="54.949960" lon="20.256880"><ele>10.7</ele><time>2026-05-21T15:25:02Z</time></trkpt>
			<trkpt lat="54.949980" lon="20.257360"><ele>11.1</ele><time>2026-05-21T15:25:05Z</time></trkpt>
			<trkpt lat="54.949900" lon="20.257400"><ele>11.2</ele><time>2026-05-21T15:25:07Z</time></trkpt>
			<trkpt lat="54.949800" lon="20.257490"><ele>11.4</ele><time>2026-05-21T15:25:09Z</time></trkpt>
			<trkpt lat="54.949650" lon="20.257540"><ele>11.7</ele><time>2026-05-21T15:25:11Z</time></trkpt>
			<trkpt lat="54.949650" lon="20.257550"><ele>11.7</ele><time>2026-05-21T15:25:16Z</time></trkpt>
			<trkpt lat="54.948850" lon="20.257880"><ele>13.0</ele><time>2026-05-21T15:25:21Z</time></trkpt>
			<trkpt lat="54.948380" lon="20.258050"><ele>13.7</ele><time>2026-05-21T15:25:26Z</time></trkpt>
			<trkpt lat="54.948270" lon="20.258090"><ele>13.9</ele><time>2026-05-21T15:25:31Z</time></trkpt>
			<trkpt lat="54.947880" lon="20.258240"><ele>14.5</ele><time>2026-05-21T15:25:36Z</time></trkpt>
			<trkpt lat="54.947550" lon="20.258360"><ele>15.1</ele><time>2026-05-21T15:25:41Z</time></trkpt>
			<trkpt lat="54.946860" lon="20.258630"><ele>16.1</ele><time>2026-05-21T15:25:46Z</time></trkpt>
			<trkpt lat="54.946750" lon="20.258650"><ele>16.2</ele><time>2026-05-21T15:25:51Z</time></trkpt>
			<trkpt lat="54.946090" lon="20.258790"><ele>16.9</ele><time>2026-05-21T15:25:56Z</time></trkpt>
			<trkpt lat="54.943840" lon="20.259280"><ele>19.4</ele><time>2026-05-21T15:26:01Z</time></trkpt>
			<trkpt lat="54.943740" lon="20.259300"><ele>19.5</ele><time>2026-05-21T15:26:06Z</time></trkpt>
			<trkpt lat="54.941210" lon="20.259880"><ele>22.2</ele><time>2026-05-21T15:26:11Z</time></trkpt>
			<trkpt lat="54.938240" lon="20.260510"><ele>25.3</ele><time>2026-05-21T15:26:15Z</time></trkpt>
			<trkpt lat="54.936500" lon="20.260720"><ele>27.0</ele><time>2026-05-21T15:26:20Z</time></trkpt>
			<trkpt lat="54.935050" lon="20.260720"><ele>27.2</ele><time>2026-05-21T15:26:25Z</time></trkpt>
			<trkpt lat="54.934230" lon="20.260720"><ele>27.2</ele><time>2026-05-21T15:26:30Z</time></trkpt>
			<trkpt lat="54.933190" lon="20.260730"><ele>27.3</ele><time>2026-05-21T15:26:35Z</time></trkpt>
			<trkpt lat="54.932570" lon="20.260740"><ele>27.3</ele><time>2026-05-21T15:26:40Z</time></trkpt>
			<trkpt lat="54.932290" lon="20.260740"><ele>27.4</ele><time>2026-05-21T15:26:45Z</time></trkpt>
			<trkpt lat="54.932010" lon="20.260750"><ele>27.4</ele><time>2026-05-21T15:26:50Z</time></trkpt>
			<trkpt lat="54.931240" lon="20.260760"><ele>27.4</ele><time>2026-05-21T15:26:55Z</time></trkpt>
			<trkpt lat="54.930520" lon="20.260770"><ele>27.6</ele><time>2026-05-21T15:27:00Z</time></trkpt>
			<trkpt lat="54.929910" lon="20.260770"><ele>27.8</ele><time>2026-05-21T15:27:05Z</time></trkpt>
			<trkpt lat="54.929110" lon="20.260760"><ele>28.0</ele><time>2026-05-21T15:27:10Z</time></trkpt>
			<trkpt lat="54.928630" lon="20.260580"><ele>28.2</ele><time>2026-05-21T15:27:15Z</time></trkpt>
			<trkpt lat="54.928430" lon="20.260410"><ele>28.3</ele><time>2026-05-21T15:27:20Z</time></trkpt>
			<trkpt lat="54.928190" lon="20.260120"><ele>28.4</ele><time>2026-05-21T15:27:25Z</time></trkpt>
			<trkpt lat="54.927710" lon="20.259420"><ele>28.5</ele><time>2026-05-21T15:27:30Z</time></trkpt>
			<trkpt lat="54.927170" lon="20.260280"><ele>28.8</ele><time>2026-05-21T15:27:35Z</time></trkpt>
			<trkpt lat="54.926800" lon="20.260780"><ele>28.9</ele><time>2026-05-21T15:27:40Z</time></trkpt>
			<trkpt lat="54.926060" lon="20.261550"><ele>29.3</ele><time>2026-05-21T15:27:45Z</time></trkpt>
			<trkpt lat="54.925820" lon="20.261760"><ele>29.6</ele><time>2026-05-21T15:27:50Z</time></trkpt>
			<trkpt lat="54.925300" lon="20.262140"><ele>30.1</ele><time>2026-05-21T15:27:55Z</time></trkpt>
			<trkpt lat="54.924970" lon="20.262360"><ele>30.5</ele><time>2026-05-21T15:28:00Z</time></trkpt>
			<trkpt lat="54.923510" lon="20.263180"><ele>31.9</ele><time>2026-05-21T15:28:05Z</time></trkpt>
			<trkpt lat="54.922920" lon="20.263490"><ele>32.5</ele><time>2026-05-21T15:28:10Z</time></trkpt>
			<trkpt lat="54.922140" lon="20.263860"><ele>33.3</ele><time>2026-05-21T15:28:15Z</time></trkpt>
			<trkpt lat="54.921440" lon="20.264200"><ele>34.0</ele><time>2026-05-21T15:28:20Z</time></trkpt>
			<trkpt lat="54.918580" lon="20.265550"><ele>36.8</ele><time>2026-05-21T15:28:24Z</time></trkpt>
			<trkpt lat="54.917500" lon="20.266220"><ele>37.9</ele><time>2026-05-21T15:28:29Z</time></trkpt>
			<trkpt lat="54.916760" lon="20.266750"><ele>38.7</ele><time>2026-05-21T15:28:34Z</time></trkpt>
			<trkpt lat="54.917010" lon="20.267690"><ele>39.3</ele><time>2026-05-21T15:28:39Z</time></trkpt>
			<trkpt lat="54.917190" lon="20.268400"><ele>39.0</ele><time>2026-05-21T15:28:44Z</time></trkpt>
			<trkpt lat="54.917400" lon="20.269020"><ele>38.2</ele><time>2026-05-21T15:28:49Z</time></trkpt>
			<trkpt lat="54.917630" lon="20.269440"><ele>37.6</ele><time>2026-05-21T15:28:54Z</time></trkpt>
			<trkpt lat="54.917810" lon="20.269660"><ele>37.1</ele><time>2026-05-21T15:28:59Z</time></trkpt>
			<trkpt lat="54.918230" lon="20.269970"><ele>36.3</ele><time>2026-05-21T15:29:04Z</time></trkpt>
			<trkpt lat="54.919680" lon="20.270440"><ele>33.4</ele><time>2026-05-21T15:29:09Z</time></trkpt>
			<trkpt lat="54.919910" lon="20.270630"><ele>33.0</ele><time>2026-05-21T15:29:14Z</time></trkpt>
			<trkpt lat="54.919990" lon="20.270740"><ele>32.8</ele><time>2026-05-21T15:29:19Z</time></trkpt>
			<trkpt lat="54.920040" lon="20.270920"><ele>32.5</ele><time>2026-05-21T15:29:24Z</time></trkpt>
			<trkpt lat="54.920130" lon="20.272070"><ele>31.3</ele><time>2026-05-21T15:29:29Z</time></trkpt>
			<trkpt lat="54.920200" lon="20.273720"><ele>29.5</ele><time>2026-05-21T15:29:34Z</time></trkpt>
			<trkpt lat="54.920200" lon="20.273720"><ele>29.5</ele><time>2026-05-21T15:29:38Z</time></trkpt>
			<trkpt lat="54.920790" lon="20.288720"><ele>19.8</ele><time>2026-05-21T15:29:43Z</time></trkpt>
			<trkpt lat="54.921110" lon="20.296500"><ele>17.8</ele><time>2026-05-21T15:29:47Z</time></trkpt>
			<trkpt lat="54.921160" lon="20.297880"><ele>18.9</ele><time>2026-05-21T15:29:52Z</time></trkpt>
			<trkpt lat="54.921340" lon="20.302980"><ele>21.8</ele><time>2026-05-21T15:29:56Z</time></trkpt>
			<trkpt lat="54.921390" lon="20.304220"><ele>21.6</ele><time>2026-05-21T15:30:01Z</time></trkpt>
			<trkpt lat="54.921450" lon="20.306950"><ele>21.1</ele><time>2026-05-21T15:30:05Z</time></trkpt>
			<trkpt lat="54.921540" lon="20.312040"><ele>20.0</ele><time>2026-05-21T15:30:10Z</time></trkpt>
			<trkpt lat="54.921570" lon="20.316290"><ele>18.7</ele><time>2026-05-21T15:30:14Z</time></trkpt>
			<trkpt lat="54.921550" lon="20.319480"><ele>17.8</ele><time>2026-05-21T15:30:19Z</time></trkpt>
			<trkpt lat="54.921490" lon="20.323970"><ele>17.5</ele><time>2026-05-21T15:30:23Z</time></trkpt>
			<trkpt lat="54.921480" lon="20.324970"><ele>17.6</ele><time>2026-05-21T15:30:27Z</time></trkpt>
			<trkpt lat="54.921400" lon="20.328870"><ele>17.8</ele><time>2026-05-21T15:30:32Z</time></trkpt>
			<trkpt lat="54.921300" lon="20.331770"><ele>16.1</ele><time>2026-05-21T15:30:36Z</time></trkpt>
			<trkpt lat="54.921250" lon="20.332690"><ele>15.1</ele><time>2026-05-21T15:30:41Z</time></trkpt>
			<trkpt lat="54.921100" lon="20.335950"><ele>11.4</ele><time>2026-05-21T15:30:45Z</time></trkpt>
			<trkpt lat="54.920850" lon="20.340660"><ele>7.3</ele><time>2026-05-21T15:30:50Z</time></trkpt>
			<trkpt lat="54.920620" lon="20.344270"><ele>7.5</ele><time>2026-05-21T15:30:54Z</time></trkpt>
			<trkpt lat="54.920130" lon="20.352180"><ele>5.4</ele><time>2026-05-21T15:30:59Z</time></trkpt>
			<trkpt lat="54.920060" lon="20.353740"><ele>4.2</ele><time>2026-05-21T15:31:03Z</time></trkpt>
			<trkpt lat="54.920020" lon="20.354980"><ele>3.4</ele><time>2026-05-21T15:31:08Z</time></trkpt>
			<trkpt lat="54.919990" lon="20.356250"><ele>2.4</ele><time>2026-05-21T15:31:12Z</time></trkpt>
			<trkpt lat="54.919990" lon="20.356980"><ele>1.9</ele><time>2026-05-21T15:31:16Z</time></trkpt>
			<trkpt lat="54.920000" lon="20.357990"><ele>1.2</ele><time>2026-05-21T15:31:21Z</time></trkpt>
			<trkpt lat="54.920020" lon="20.359560"><ele>0.8</ele><time>2026-05-21T15:31:25Z</time></trkpt>
			<trkpt lat="54.920080" lon="20.361030"><ele>0.5</ele><time>2026-05-21T15:31:30Z</time></trkpt>
			<trkpt lat="54.920150" lon="20.362310"><ele>0.3</ele><time>2026-05-21T15:31:34Z</time></trkpt>
			<trkpt lat="54.920240" lon="20.363650"><ele>0.0</ele><time>2026-05-21T15:31:39Z</time></trkpt>
			<trkpt lat="54.920320" lon="20.364550"><ele>-0.1</ele><time>2026-05-21T15:31:43Z</time></trkpt>
			<trkpt lat="54.920530" lon="20.366650"><ele>-0.5</ele><time>2026-05-21T15:31:48Z</time></trkpt>
			<trkpt lat="54.920630" lon="20.367440"><ele>-0.7</ele><time>2026-05-21T15:31:52Z</time></trkpt>
			<trkpt lat="54.920920" lon="20.369470"><ele>-0.7</ele><time>2026-05-21T15:31:57Z</time></trkpt>
			<trkpt lat="54.921150" lon="20.370910"><ele>-0.6</ele><time>2026-05-21T15:32:01Z</time></trkpt>
			<trkpt lat="54.921400" lon="20.372260"><ele>-0.6</ele><time>2026-05-21T15:32:05Z</time></trkpt>
			<trkpt lat="54.921610" lon="20.373360"><ele>-0.6</ele><time>2026-05-21T15:32:10Z</time></trkpt>
			<trkpt lat="54.921860" lon="20.374590"><ele>-0.6</ele><time>2026-05-21T15:32:14Z</time></trkpt>
			<trkpt lat="54.922010" lon="20.375410"><ele>-0.6</ele><time>2026-05-21T15:32:19Z</time></trkpt>
			<trkpt lat="54.922070" lon="20.375690"><ele>-0.6</ele><time>2026-05-21T15:32:23Z</time></trkpt>
			<trkpt lat="54.922290" lon="20.376950"><ele>-0.6</ele><time>2026-05-21T15:32:28Z</time></trkpt>
			<trkpt lat="54.922560" lon="20.378670"><ele>-0.6</ele><time>2026-05-21T15:32:32Z</time></trkpt>
			<trkpt lat="54.922750" lon="20.380120"><ele>-0.7</ele><time>2026-05-21T15:32:37Z</time></trkpt>
			<trkpt lat="54.922920" lon="20.381640"><ele>-0.8</ele><time>2026-05-21T15:32:41Z</time></trkpt>
			<trkpt lat="54.923110" lon="20.383760"><ele>-0.9</ele><time>2026-05-21T15:32:46Z</time></trkpt>
			<trkpt lat="54.923230" lon="20.385490"><ele>-1.0</ele><time>2026-05-21T15:32:50Z</time></trkpt>
			<trkpt lat="54.923360" lon="20.387990"><ele>-0.8</ele><time>2026-05-21T15:32:54Z</time></trkpt>
			<trkpt lat="54.923400" lon="20.389540"><ele>-0.7</ele><time>2026-05-21T15:32:59Z</time></trkpt>
			<trkpt lat="54.923390" lon="20.391850"><ele>-0.5</ele><time>2026-05-21T15:33:03Z</time></trkpt>
			<trkpt lat="54.923380" lon="20.392650"><ele>-0.4</ele><time>2026-05-21T15:33:08Z</time></trkpt>
			<trkpt lat="54.923320" lon="20.393870"><ele>-0.3</ele><time>2026-05-21T15:33:12Z</time></trkpt>
			<trkpt lat="54.923220" lon="20.395650"><ele>-0.1</ele><time>2026-05-21T15:33:17Z</time></trkpt>
			<trkpt lat="54.923140" lon="20.396770"><ele>-0.1</ele><time>2026-05-21T15:33:21Z</time></trkpt>
			<trkpt lat="54.923050" lon="20.397990"><ele>-0.1</ele><time>2026-05-21T15:33:26Z</time></trkpt>
			<trkpt lat="54.922960" lon="20.398760"><ele>-0.1</ele><time>2026-05-21T15:33:30Z</time></trkpt>
			<trkpt lat="54.922920" lon="20.399180"><ele>-0.1</ele><time>2026-05-21T15:33:35Z</time></trkpt>
			<trkpt lat="54.922770" lon="20.400410"><ele>-0.0</ele><time>2026-05-21T15:33:39Z</time></trkpt>
			<trkpt lat="54.922580" lon="20.401780"><ele>0.0</ele><time>2026-05-21T15:33:43Z</time></trkpt>
			<trkpt lat="54.922430" lon="20.402810"><ele>0.0</ele><time>2026-05-21T15:33:48Z</time></trkpt>
			<trkpt lat="54.921870" lon="20.405810"><ele>0.8</ele><time>2026-05-21T15:33:52Z</time></trkpt>
			<trkpt lat="54.921700" lon="20.406680"><ele>1.1</ele><time>2026-05-21T15:33:57Z</time></trkpt>
			<trkpt lat="54.921520" lon="20.407510"><ele>1.5</ele><time>2026-05-21T15:34:01Z</time></trkpt>
			<trkpt lat="54.920400" lon="20.412290"><ele>3.7</ele><time>2026-05-21T15:34:06Z</time></trkpt>
			<trkpt lat="54.920200" lon="20.413220"><ele>4.0</ele><time>2026-05-21T15:34:10Z</time></trkpt>
			<trkpt lat="54.919760" lon="20.415540"><ele>4.4</ele><time>2026-05-21T15:34:15Z</time></trkpt>
			<trkpt lat="54.919630" lon="20.416280"><ele>4.5</ele><time>2026-05-21T15:34:19Z</time></trkpt>
			<trkpt lat="54.919360" lon="20.418220"><ele>4.8</ele><time>2026-05-21T15:34:24Z</time></trkpt>
			<trkpt lat="54.919160" lon="20.419710"><ele>5.0</ele><time>2026-05-21T15:34:28Z</time></trkpt>
			<trkpt lat="54.919040" lon="20.420760"><ele>5.1</ele><time>2026-05-21T15:34:32Z</time></trkpt>
			<trkpt lat="54.918950" lon="20.421810"><ele>5.3</ele><time>2026-05-21T15:34:37Z</time></trkpt>
			<trkpt lat="54.918820" lon="20.423290"><ele>5.2</ele><time>2026-05-21T15:34:41Z</time></trkpt>
			<trkpt lat="54.918690" lon="20.425390"><ele>4.9</ele><time>2026-05-21T15:34:46Z</time></trkpt>
			<trkpt lat="54.918630" lon="20.427150"><ele>4.6</ele><time>2026-05-21T15:34:50Z</time></trkpt>
			<trkpt lat="54.918600" lon="20.428570"><ele>4.4</ele><time>2026-05-21T15:34:55Z</time></trkpt>
			<trkpt lat="54.918600" lon="20.429920"><ele>4.2</ele><time>2026-05-21T15:34:59Z</time></trkpt>
			<trkpt lat="54.918610" lon="20.430780"><ele>4.1</ele><time>2026-05-21T15:35:04Z</time></trkpt>
			<trkpt lat="54.918630" lon="20.431760"><ele>4.0</ele><time>2026-05-21T15:35:08Z</time></trkpt>
			<trkpt lat="54.918720" lon="20.433970"><ele>4.3</ele><time>2026-05-21T15:35:13Z</time></trkpt>
			<trkpt lat="54.918780" lon="20.434970"><ele>4.4</ele><time>2026-05-21T15:35:17Z</time></trkpt>
			<trkpt lat="54.918850" lon="20.435980"><ele>4.5</ele><time>2026-05-21T15:35:21Z</time></trkpt>
			<trkpt lat="54.919980" lon="20.448500"><ele>3.3</ele><time>2026-05-21T15:35:26Z</time></trkpt>
			<trkpt lat="54.920120" lon="20.450180"><ele>3.0</ele><time>2026-05-21T15:35:30Z</time></trkpt>
			<trkpt lat="54.920180" lon="20.451020"><ele>3.1</ele><time>2026-05-21T15:35:35Z</time></trkpt>
			<trkpt lat="54.920270" lon="20.452870"><ele>3.3</ele><time>2026-05-21T15:35:39Z</time></trkpt>
			<trkpt lat="54.920310" lon="20.454440"><ele>3.5</ele><time>2026-05-21T15:35:44Z</time></trkpt>
			<trkpt lat="54.920320" lon="20.455740"><ele>3.7</ele><time>2026-05-21T15:35:48Z</time></trkpt>
			<trkpt lat="54.920300" lon="20.457630"><ele>3.9</ele><time>2026-05-21T15:35:53Z</time></trkpt>
			<trkpt lat="54.920180" lon="20.460430"><ele>4.4</ele><time>2026-05-21T15:35:57Z</time></trkpt>
			<trkpt lat="54.920080" lon="20.461980"><ele>4.8</ele><time>2026-05-21T15:36:02Z</time></trkpt>
			<trkpt lat="54.919960" lon="20.463340"><ele>5.2</ele><time>2026-05-21T15:36:06Z</time></trkpt>
			<trkpt lat="54.919880" lon="20.464170"><ele>5.4</ele><time>2026-05-21T15:36:10Z</time></trkpt>
			<trkpt lat="54.919750" lon="20.465410"><ele>5.8</ele><time>2026-05-21T15:36:15Z</time></trkpt>
			<trkpt lat="54.919610" lon="20.466600"><ele>6.1</ele><time>2026-05-21T15:36:19Z</time></trkpt>
			<trkpt lat="54.919420" lon="20.467890"><ele>6.5</ele><time>2026-05-21T15:36:24Z</time></trkpt>
			<trkpt lat="54.919280" lon="20.469150"><ele>6.6</ele><time>2026-05-21T15:36:28Z</time></trkpt>
			<trkpt lat="54.918780" lon="20.471980"><ele>6.0</ele><time>2026-05-21T15:36:33Z</time></trkpt>
			<trkpt lat="54.918350" lon="20.474120"><ele>5.6</ele><time>2026-05-21T15:36:37Z</time></trkpt>
			<trkpt lat="54.918030" lon="20.475800"><ele>5.2</ele><time>2026-05-21T15:36:42Z</time></trkpt>
			<trkpt lat="54.917580" lon="20.478120"><ele>4.8</ele><time>2026-05-21T15:36:46Z</time></trkpt>
			<trkpt lat="54.917230" lon="20.479680"><ele>4.7</ele><time>2026-05-21T15:36:51Z</time></trkpt>
			<trkpt lat="54.916860" lon="20.481230"><ele>4.6</ele><time>2026-05-21T15:36:55Z</time></trkpt>
			<trkpt lat="54.916620" lon="20.482120"><ele>4.6</ele><time>2026-05-21T15:36:59Z</time></trkpt>
			<trkpt lat="54.916170" lon="20.483700"><ele>4.5</ele><time>2026-05-21T15:37:04Z</time></trkpt>
			<trkpt lat="54.915520" lon="20.485770"><ele>4.4</ele><time>2026-05-21T15:37:08Z</time></trkpt>
			<trkpt lat="54.914940" lon="20.487430"><ele>3.7</ele><time>2026-05-21T15:37:13Z</time></trkpt>
			<trkpt lat="54.914350" lon="20.488860"><ele>2.9</ele><time>2026-05-21T15:37:17Z</time></trkpt>
			<trkpt lat="54.913810" lon="20.490090"><ele>2.2</ele><time>2026-05-21T15:37:22Z</time></trkpt>
			<trkpt lat="54.912790" lon="20.492280"><ele>1.0</ele><time>2026-05-21T15:37:26Z</time></trkpt>
			<trkpt lat="54.912530" lon="20.492810"><ele>0.7</ele><time>2026-05-21T15:37:31Z</time></trkpt>
			<trkpt lat="54.911870" lon="20.494120"><ele>0.5</ele><time>2026-05-21T15:37:35Z</time></trkpt>
			<trkpt lat="54.911130" lon="20.495450"><ele>1.2</ele><time>2026-05-21T15:37:40Z</time></trkpt>
			<trkpt lat="54.910440" lon="20.496590"><ele>1.8</ele><time>2026-05-21T15:37:44Z</time></trkpt>
			<trkpt lat="54.909910" lon="20.497460"><ele>2.3</ele><time>2026-05-21T15:37:48Z</time></trkpt>
			<trkpt lat="54.909050" lon="20.498850"><ele>3.1</ele><time>2026-05-21T15:37:53Z</time></trkpt>
			<trkpt lat="54.908780" lon="20.499240"><ele>3.3</ele><time>2026-05-21T15:37:57Z</time></trkpt>
			<trkpt lat="54.908420" lon="20.499570"><ele>3.6</ele><time>2026-05-21T15:38:02Z</time></trkpt>
			<trkpt lat="54.908260" lon="20.499660"><ele>3.7</ele><time>2026-05-21T15:38:06Z</time></trkpt>
			<trkpt lat="54.908070" lon="20.499670"><ele>3.8</ele><time>2026-05-21T15:38:11Z</time></trkpt>
			<trkpt lat="54.907900" lon="20.499590"><ele>3.9</ele><time>2026-05-21T15:38:15Z</time></trkpt>
			<trkpt lat="54.907740" lon="20.499390"><ele>4.0</ele><time>2026-05-21T15:38:20Z</time></trkpt>
			<trkpt lat="54.907620" lon="20.499130"><ele>4.1</ele><time>2026-05-21T15:38:24Z</time></trkpt>
			<trkpt lat="54.907550" lon="20.498830"><ele>4.2</ele><time>2026-05-21T15:38:29Z</time></trkpt>
			<trkpt lat="54.907540" lon="20.498620"><ele>4.3</ele><time>2026-05-21T15:38:33Z</time></trkpt>
			<trkpt lat="54.907550" lon="20.498350"><ele>4.4</ele><time>2026-05-21T15:38:37Z</time></trkpt>
			<trkpt lat="54.907640" lon="20.498010"><ele>4.5</ele><time>2026-05-21T15:38:42Z</time></trkpt>
			<trkpt lat="54.907780" lon="20.497740"><ele>4.6</ele><time>2026-05-21T15:38:46Z</time></trkpt>
			<trkpt lat="54.907920" lon="20.497600"><ele>4.7</ele><time>2026-05-21T15:38:51Z</time></trkpt>
			<trkpt lat="54.908110" lon="20.497500"><ele>4.8</ele><time>2026-05-21T15:38:55Z</time></trkpt>
			<trkpt lat="54.908360" lon="20.497480"><ele>4.9</ele><time>2026-05-21T15:39:00Z</time></trkpt>
			<trkpt lat="54.908630" lon="20.497670"><ele>5.0</ele><time>2026-05-21T15:39:04Z</time></trkpt>
			<trkpt lat="54.909140" lon="20.498080"><ele>5.3</ele><time>2026-05-21T15:39:09Z</time></trkpt>
			<trkpt lat="54.910040" lon="20.498890"><ele>5.8</ele><time>2026-05-21T15:39:13Z</time></trkpt>
			<trkpt lat="54.912190" lon="20.500760"><ele>5.7</ele><time>2026-05-21T15:39:18Z</time></trkpt>
			<trkpt lat="54.912250" lon="20.500800"><ele>5.6</ele><time>2026-05-21T15:39:22Z</time></trkpt>
			<trkpt lat="54.913840" lon="20.502170"><ele>4.0</ele><time>2026-05-21T15:39:26Z</time></trkpt>
			<trkpt lat="54.914140" lon="20.502430"><ele>3.7</ele><time>2026-05-21T15:39:31Z</time></trkpt>
			<trkpt lat="54.914750" lon="20.502980"><ele>3.0</ele><time>2026-05-21T15:39:35Z</time></trkpt>
			<trkpt lat="54.914750" lon="20.502980"><ele>3.0</ele><time>2026-05-21T15:39:43Z</time></trkpt>
			<trkpt lat="54.915530" lon="20.503660"><ele>2.2</ele><time>2026-05-21T15:39:51Z</time></trkpt>
			<trkpt lat="54.916210" lon="20.504230"><ele>1.7</ele><time>2026-05-21T15:39:58Z</time></trkpt>
			<trkpt lat="54.916420" lon="20.504400"><ele>1.8</ele><time>2026-05-21T15:40:06Z</time></trkpt>
			<trkpt lat="54.918810" lon="20.506490"><ele>4.0</ele><time>2026-05-21T15:40:14Z</time></trkpt>
			<trkpt lat="54.919400" lon="20.507000"><ele>4.5</ele><time>2026-05-21T15:40:21Z</time></trkpt>
			<trkpt lat="54.919980" lon="20.507420"><ele>5.0</ele><time>2026-05-21T15:40:29Z</time></trkpt>
			<trkpt lat="54.921260" lon="20.508110"><ele>5.9</ele><time>2026-05-21T15:40:37Z</time></trkpt>
			<trkpt lat="54.921820" lon="20.508320"><ele>5.8</ele><time>2026-05-21T15:40:44Z</time></trkpt>
			<trkpt lat="54.922530" lon="20.508510"><ele>5.7</ele><time>2026-05-21T15:40:52Z</time></trkpt>
			<trkpt lat="54.923040" lon="20.508620"><ele>5.6</ele><time>2026-05-21T15:41:00Z</time></trkpt>
			<trkpt lat="54.923130" lon="20.508640"><ele>5.6</ele><time>2026-05-21T15:41:07Z</time></trkpt>
			<trkpt lat="54.925140" lon="20.508990"><ele>5.2</ele><time>2026-05-21T15:41:15Z</time></trkpt>
			<trkpt lat="54.929500" lon="20.509740"><ele>3.5</ele><time>2026-05-21T15:41:23Z</time></trkpt>
			<trkpt lat="54.931480" lon="20.510080"><ele>2.5</ele><time>2026-05-21T15:41:30Z</time></trkpt>
			<trkpt lat="54.934390" lon="20.510590"><ele>1.7</ele><time>2026-05-21T15:41:38Z</time></trkpt>
			<trkpt lat="54.935660" lon="20.510800"><ele>1.3</ele><time>2026-05-21T15:41:46Z</time></trkpt>
			<trkpt lat="54.936280" lon="20.510910"><ele>1.2</ele><time>2026-05-21T15:41:53Z</time></trkpt>
			<trkpt lat="54.936420" lon="20.510930"><ele>1.2</ele><time>2026-05-21T15:42:01Z</time></trkpt>
			<trkpt lat="54.936410" lon="20.511110"><ele>1.1</ele><time>2026-05-21T15:42:09Z</time></trkpt>
			<trkpt lat="54.936370" lon="20.511780"><ele>1.0</ele><time>2026-05-21T15:42:16Z</time></trkpt>
			<trkpt lat="54.936340" lon="20.512250"><ele>1.0</ele><time>2026-05-21T15:42:24Z</time></trkpt>
			<trkpt lat="54.936340" lon="20.512250"><ele>1.0</ele><time>2026-05-21T15:42:30Z</time></trkpt>
			<trkpt lat="54.936330" lon="20.512600"><ele>0.9</ele><time>2026-05-21T15:42:35Z</time></trkpt>
			<trkpt lat="54.936070" lon="20.515660"><ele>0.2</ele><time>2026-05-21T15:42:41Z</time></trkpt>
			<trkpt lat="54.935980" lon="20.516730"><ele>0.0</ele><time>2026-05-21T15:42:46Z</time></trkpt>
			<trkpt lat="54.935650" lon="20.520050"><ele>-0.7</ele><time>2026-05-21T15:42:52Z</time></trkpt>
			<trkpt lat="54.935350" lon="20.523690"><ele>-1.2</ele><time>2026-05-21T15:42:57Z</time></trkpt>
			<trkpt lat="54.935170" lon="20.525950"><ele>-1.4</ele><time>2026-05-21T15:43:03Z</time></trkpt>
			<trkpt lat="54.934800" lon="20.530570"><ele>-1.7</ele><time>2026-05-21T15:43:09Z</time></trkpt>
			<trkpt lat="54.934520" lon="20.533940"><ele>-1.5</ele><time>2026-05-21T15:43:14Z</time></trkpt>
			<trkpt lat="54.934520" lon="20.534270"><ele>-1.5</ele><time>2026-05-21T15:43:20Z</time></trkpt>
			<trkpt lat="54.934610" lon="20.537360"><ele>-1.2</ele><time>2026-05-21T15:43:25Z</time></trkpt>
			<trkpt lat="54.934620" lon="20.537620"><ele>-1.2</ele><time>2026-05-21T15:43:31Z</time></trkpt>
			<trkpt lat="54.934630" lon="20.537690"><ele>-1.2</ele><time>2026-05-21T15:43:36Z</time></trkpt>
			<trkpt lat="54.934680" lon="20.539470"><ele>-1.1</ele><time>2026-05-21T15:43:42Z</time></trkpt>
			<trkpt lat="54.934680" lon="20.539870"><ele>-1.0</ele><time>2026-05-21T15:43:47Z</time></trkpt>
			<trkpt lat="54.934620" lon="20.540320"><ele>-1.0</ele><time>2026-05-21T15:43:53Z</time></trkpt>
			<trkpt lat="54.934500" lon="20.540650"><ele>-0.9</ele><time>2026-05-21T15:43:59Z</time></trkpt>
			<trkpt lat="54.934400" lon="20.540820"><ele>-0.9</ele><time>2026-05-21T15:44:04Z</time></trkpt>
			<trkpt lat="54.934280" lon="20.540930"><ele>-0.9</ele><time>2026-05-21T15:44:10Z</time></trkpt>
			<trkpt lat="54.934180" lon="20.540990"><ele>-0.8</ele><time>2026-05-21T15:44:15Z</time></trkpt>
			<trkpt lat="54.934110" lon="20.541010"><ele>-0.8</ele><time>2026-05-21T15:44:21Z</time></trkpt>
			<trkpt lat="54.933910" lon="20.541000"><ele>-0.8</ele><time>2026-05-21T15:44:26Z</time></trkpt>
			<trkpt lat="54.933420" lon="20.540920"><ele>-0.7</ele><time>2026-05-21T15:44:32Z</time></trkpt>
			<trkpt lat="54.932330" lon="20.540760"><ele>-0.4</ele><time>2026-05-21T15:44:37Z</time></trkpt>
			<trkpt lat="54.930710" lon="20.540470"><ele>-0.0</ele><time>2026-05-21T15:44:43Z</time></trkpt>
			<trkpt lat="54.930560" lon="20.540470"><ele>0.0</ele><time>2026-05-21T15:44:49Z</time></trkpt>
			<trkpt lat="54.930510" lon="20.540490"><ele>0.0</ele><time>2026-05-21T15:44:54Z</time></trkpt>
			<trkpt lat="54.930420" lon="20.540530"><ele>0.0</ele><time>2026-05-21T15:45:00Z</time></trkpt>
			<trkpt lat="54.930260" lon="20.540670"><ele>0.1</ele><time>2026-05-21T15:45:05Z</time></trkpt>
			<trkpt lat="54.929410" lon="20.541530"><ele>0.3</ele><time>2026-05-21T15:45:11Z</time></trkpt>
			<trkpt lat="54.927330" lon="20.543670"><ele>1.1</ele><time>2026-05-21T15:45:16Z</time></trkpt>
			<trkpt lat="54.927180" lon="20.543840"><ele>1.2</ele><time>2026-05-21T15:45:22Z</time></trkpt>
			<trkpt lat="54.927120" lon="20.543920"><ele>1.2</ele><time>2026-05-21T15:45:27Z</time></trkpt>
			<trkpt lat="54.927070" lon="20.544020"><ele>1.2</ele><time>2026-05-21T15:45:33Z</time></trkpt>
			<trkpt lat="54.927030" lon="20.544130"><ele>1.2</ele><time>2026-05-21T15:45:39Z</time></trkpt>
			<trkpt lat="54.927000" lon="20.544230"><ele>1.2</ele><time>2026-05-21T15:45:44Z</time></trkpt>
			<trkpt lat="54.926970" lon="20.544400"><ele>1.3</ele><time>2026-05-21T15:45:50Z</time></trkpt>
			<trkpt lat="54.926110" lon="20.556410"><ele>0.3</ele><time>2026-05-21T15:45:55Z</time></trkpt>
			<trkpt lat="54.925890" lon="20.560140"><ele>-0.2</ele><time>2026-05-21T15:46:01Z</time></trkpt>
			<trkpt lat="54.925470" lon="20.562190"><ele>-0.3</ele><time>2026-05-21T15:46:06Z</time></trkpt>
			<trkpt lat="54.925010" lon="20.563760"><ele>-0.5</ele><time>2026-05-21T15:46:12Z</time></trkpt>
			<trkpt lat="54.924760" lon="20.564460"><ele>-0.6</ele><time>2026-05-21T15:46:17Z</time></trkpt>
			<trkpt lat="54.924470" lon="20.565100"><ele>-0.6</ele><time>2026-05-21T15:46:23Z</time></trkpt>
			<trkpt lat="54.924290" lon="20.566280"><ele>-0.7</ele><time>2026-05-21T15:46:29Z</time></trkpt>
			<trkpt lat="54.923470" lon="20.571170"><ele>-0.3</ele><time>2026-05-21T15:46:34Z</time></trkpt>
			<trkpt lat="54.923460" lon="20.572610"><ele>-0.2</ele><time>2026-05-21T15:46:40Z</time></trkpt>
			<trkpt lat="54.923460" lon="20.574030"><ele>-0.1</ele><time>2026-05-21T15:46:45Z</time></trkpt>
			<trkpt lat="54.923570" lon="20.577000"><ele>0.2</ele><time>2026-05-21T15:46:51Z</time></trkpt>
			<trkpt lat="54.923510" lon="20.578320"><ele>0.3</ele><time>2026-05-21T15:46:56Z</time></trkpt>
			<trkpt lat="54.923470" lon="20.578670"><ele>0.4</ele><time>2026-05-21T15:47:02Z</time></trkpt>
			<trkpt lat="54.923420" lon="20.578920"><ele>0.4</ele><time>2026-05-21T15:47:07Z</time></trkpt>
			<trkpt lat="54.923330" lon="20.579090"><ele>0.4</ele><time>2026-05-21T15:47:13Z</time></trkpt>
			<trkpt lat="54.923230" lon="20.579260"><ele>0.5</ele><time>2026-05-21T15:47:19Z</time></trkpt>
			<trkpt lat="54.923120" lon="20.579370"><ele>0.5</ele><time>2026-05-21T15:47:24Z</time></trkpt>
			<trkpt lat="54.923000" lon="20.579450"><ele>0.5</ele><time>2026-05-21T15:47:30Z</time></trkpt>
			<trkpt lat="54.922880" lon="20.579470"><ele>0.5</ele><time>2026-05-21T15:47:35Z</time></trkpt>
			<trkpt lat="54.922740" lon="20.579420"><ele>0.6</ele><time>2026-05-21T15:47:41Z</time></trkpt>
			<trkpt lat="54.922310" lon="20.579230"><ele>0.6</ele><time>2026-05-21T15:47:46Z</time></trkpt>
			<trkpt lat="54.921440" lon="20.579030"><ele>0.8</ele><time>2026-05-21T15:47:52Z</time></trkpt>
			<trkpt lat="54.920200" lon="20.578870"><ele>1.0</ele><time>2026-05-21T15:47:57Z</time></trkpt>
			<trkpt lat="54.918410" lon="20.579200"><ele>1.1</ele><time>2026-05-21T15:48:03Z</time></trkpt>
			<trkpt lat="54.917310" lon="20.579450"><ele>1.2</ele><time>2026-05-21T15:48:09Z</time></trkpt>
			<trkpt lat="54.916020" lon="20.579930"><ele>1.2</ele><time>2026-05-21T15:48:14Z</time></trkpt>
			<trkpt lat="54.915880" lon="20.579990"><ele>1.2</ele><time>2026-05-21T15:48:20Z</time></trkpt>
			<trkpt lat="54.915730" lon="20.580110"><ele>1.2</ele><time>2026-05-21T15:48:25Z</time></trkpt>
			<trkpt lat="54.915580" lon="20.580310"><ele>1.3</ele><time>2026-05-21T15:48:31Z</time></trkpt>
			<trkpt lat="54.915310" lon="20.580930"><ele>1.3</ele><time>2026-05-21T15:48:36Z</time></trkpt>
			<trkpt lat="54.914930" lon="20.582120"><ele>1.3</ele><time>2026-05-21T15:48:42Z</time></trkpt>
			<trkpt lat="54.914510" lon="20.583420"><ele>1.4</ele><time>2026-05-21T15:48:47Z</time></trkpt>
			<trkpt lat="54.914340" lon="20.583950"><ele>1.5</ele><time>2026-05-21T15:48:53Z</time></trkpt>
			<trkpt lat="54.914050" lon="20.584900"><ele>1.5</ele><time>2026-05-21T15:48:59Z</time></trkpt>
			<trkpt lat="54.913880" lon="20.585490"><ele>1.6</ele><time>2026-05-21T15:49:04Z</time></trkpt>
			<trkpt lat="54.913580" lon="20.586560"><ele>1.7</ele><time>2026-05-21T15:49:10Z</time></trkpt>
			<trkpt lat="54.913530" lon="20.586720"><ele>1.7</ele><time>2026-05-21T15:49:15Z</time></trkpt>
			<trkpt lat="54.913500" lon="20.586800"><ele>1.7</ele><time>2026-05-21T15:49:21Z</time></trkpt>
			<trkpt lat="54.912620" lon="20.589140"><ele>1.8</ele><time>2026-05-21T15:49:26Z</time></trkpt>
			<trkpt lat="54.912560" lon="20.589290"><ele>1.9</ele><time>2026-05-21T15:49:32Z</time></trkpt>
			<trkpt lat="54.912510" lon="20.589480"><ele>1.9</ele><time>2026-05-21T15:49:37Z</time></trkpt>
			<trkpt lat="54.912480" lon="20.589740"><ele>2.0</ele><time>2026-05-21T15:49:43Z</time></trkpt>
			<trkpt lat="54.912480" lon="20.589970"><ele>2.1</ele><time>2026-05-21T15:49:49Z</time></trkpt>
			<trkpt lat="54.912520" lon="20.590970"><ele>2.4</ele><time>2026-05-21T15:49:54Z</time></trkpt>
			<trkpt lat="54.911050" lon="20.591120"><ele>3.2</ele><time>2026-05-21T15:50:00Z</time></trkpt>
			<trkpt lat="54.911050" lon="20.591120"><ele>3.2</ele><time>2026-05-21T15:50:05Z</time></trkpt>
			<trkpt lat="54.909690" lon="20.591260"><ele>4.0</ele><time>2026-05-21T15:50:10Z</time></trkpt>
			<trkpt lat="54.909230" lon="20.591320"><ele>4.2</ele><time>2026-05-21T15:50:15Z</time></trkpt>
			<trkpt lat="54.908920" lon="20.591400"><ele>4.4</ele><time>2026-05-21T15:50:20Z</time></trkpt>
			<trkpt lat="54.908690" lon="20.591510"><ele>4.5</ele><time>2026-05-21T15:50:25Z</time></trkpt>
			<trkpt lat="54.908460" lon="20.591720"><ele>4.7</ele><time>2026-05-21T15:50:30Z</time></trkpt>
			<trkpt lat="54.908020" lon="20.592080"><ele>5.0</ele><time>2026-05-21T15:50:35Z</time></trkpt>
			<trkpt lat="54.906670" lon="20.593100"><ele>5.8</ele><time>2026-05-21T15:50:40Z</time></trkpt>
			<trkpt lat="54.904210" lon="20.594670"><ele>7.2</ele><time>2026-05-21T15:50:45Z</time></trkpt>
			<trkpt lat="54.904050" lon="20.594770"><ele>7.3</ele><time>2026-05-21T15:50:50Z</time></trkpt>
			<trkpt lat="54.900610" lon="20.596900"><ele>6.9</ele><time>2026-05-21T15:50:55Z</time></trkpt>
			<trkpt lat="54.900720" lon="20.597260"><ele>6.9</ele><time>2026-05-21T15:51:00Z</time></trkpt>
			<trkpt lat="54.900810" lon="20.597590"><ele>6.8</ele><time>2026-05-21T15:51:05Z</time></trkpt>
			<trkpt lat="54.900990" lon="20.598300"><ele>6.6</ele><time>2026-05-21T15:51:10Z</time></trkpt>
			<trkpt lat="54.901270" lon="20.599580"><ele>6.4</ele><time>2026-05-21T15:51:14Z</time></trkpt>
			<trkpt lat="54.901430" lon="20.600510"><ele>6.2</ele><time>2026-05-21T15:51:19Z</time></trkpt>
			<trkpt lat="54.901580" lon="20.601520"><ele>6.0</ele><time>2026-05-21T15:51:24Z</time></trkpt>
			<trkpt lat="54.901820" lon="20.603460"><ele>5.7</ele><time>2026-05-21T15:51:29Z</time></trkpt>
			<trkpt lat="54.901830" lon="20.603550"><ele>5.7</ele><time>2026-05-21T15:51:34Z</time></trkpt>
			<trkpt lat="54.902050" lon="20.605220"><ele>5.4</ele><time>2026-05-21T15:51:39Z</time></trkpt>
			<trkpt lat="54.902560" lon="20.609140"><ele>4.8</ele><time>2026-05-21T15:51:44Z</time></trkpt>
			<trkpt lat="54.902750" lon="20.610870"><ele>4.7</ele><time>2026-05-21T15:51:49Z</time></trkpt>
			<trkpt lat="54.902930" lon="20.613140"><ele>5.0</ele><time>2026-05-21T15:51:54Z</time></trkpt>
			<trkpt lat="54.903040" lon="20.614190"><ele>5.1</ele><time>2026-05-21T15:51:59Z</time></trkpt>
			<trkpt lat="54.903100" lon="20.614980"><ele>5.2</ele><time>2026-05-21T15:52:04Z</time></trkpt>
			<trkpt lat="54.903260" lon="20.617610"><ele>5.6</ele><time>2026-05-21T15:52:09Z</time></trkpt>
			<trkpt lat="54.903390" lon="20.620130"><ele>5.9</ele><time>2026-05-21T15:52:14Z</time></trkpt>
			<trkpt lat="54.903460" lon="20.620670"><ele>5.8</ele><time>2026-05-21T15:52:19Z</time></trkpt>
			<trkpt lat="54.903540" lon="20.621040"><ele>5.8</ele><time>2026-05-21T15:52:24Z</time></trkpt>
			<trkpt lat="54.903690" lon="20.621470"><ele>5.7</ele><time>2026-05-21T15:52:29Z</time></trkpt>
			<trkpt lat="54.905020" lon="20.624810"><ele>5.2</ele><time>2026-05-21T15:52:34Z</time></trkpt>
			<trkpt lat="54.905220" lon="20.625330"><ele>5.1</ele><time>2026-05-21T15:52:39Z</time></trkpt>
			<trkpt lat="54.905350" lon="20.625630"><ele>5.1</ele><time>2026-05-21T15:52:44Z</time></trkpt>
			<trkpt lat="54.905860" lon="20.626950"><ele>4.9</ele><time>2026-05-21T15:52:49Z</time></trkpt>
			<trkpt lat="54.905940" lon="20.627180"><ele>4.8</ele><time>2026-05-21T15:52:54Z</time></trkpt>
			<trkpt lat="54.905990" lon="20.627490"><ele>4.8</ele><time>2026-05-21T15:52:59Z</time></trkpt>
			<trkpt lat="54.906030" lon="20.627830"><ele>4.8</ele><time>2026-05-21T15:53:04Z</time></trkpt>
			<trkpt lat="54.906040" lon="20.628080"><ele>4.7</ele><time>2026-05-21T15:53:09Z</time></trkpt>
			<trkpt lat="54.906040" lon="20.628480"><ele>4.7</ele><time>2026-05-21T15:53:14Z</time></trkpt>
			<trkpt lat="54.906010" lon="20.628810"><ele>4.7</ele><time>2026-05-21T15:53:19Z</time></trkpt>
			<trkpt lat="54.906000" lon="20.629200"><ele>4.7</ele><time>2026-05-21T15:53:24Z</time></trkpt>
			<trkpt lat="54.906050" lon="20.629840"><ele>4.7</ele><time>2026-05-21T15:53:29Z</time></trkpt>
			<trkpt lat="54.906400" lon="20.632780"><ele>4.5</ele><time>2026-05-21T15:53:34Z</time></trkpt>
			<trkpt lat="54.906550" lon="20.634070"><ele>4.4</ele><time>2026-05-21T15:53:39Z</time></trkpt>
			<trkpt lat="54.906620" lon="20.634490"><ele>4.4</ele><time>2026-05-21T15:53:44Z</time></trkpt>
			<trkpt lat="54.907550" lon="20.638610"><ele>4.5</ele><time>2026-05-21T15:53:49Z</time></trkpt>
			<trkpt lat="54.908440" lon="20.642420"><ele>5.2</ele><time>2026-05-21T15:53:54Z</time></trkpt>
			<trkpt lat="54.908510" lon="20.642810"><ele>5.2</ele><time>2026-05-21T15:53:59Z</time></trkpt>
			<trkpt lat="54.908530" lon="20.643050"><ele>5.3</ele><time>2026-05-21T15:54:04Z</time></trkpt>
			<trkpt lat="54.908520" lon="20.643490"><ele>5.3</ele><time>2026-05-21T15:54:09Z</time></trkpt>
			<trkpt lat="54.908500" lon="20.643800"><ele>5.4</ele><time>2026-05-21T15:54:14Z</time></trkpt>
			<trkpt lat="54.908330" lon="20.645270"><ele>5.6</ele><time>2026-05-21T15:54:19Z</time></trkpt>
			<trkpt lat="54.908140" lon="20.646780"><ele>5.4</ele><time>2026-05-21T15:54:24Z</time></trkpt>
			<trkpt lat="54.908060" lon="20.647200"><ele>5.2</ele><time>2026-05-21T15:54:29Z</time></trkpt>
			<trkpt lat="54.907680" lon="20.648930"><ele>4.6</ele><time>2026-05-21T15:54:34Z</time></trkpt>
			<trkpt lat="54.907280" lon="20.650660"><ele>4.1</ele><time>2026-05-21T15:54:39Z</time></trkpt>
			<trkpt lat="54.906450" lon="20.654350"><ele>2.8</ele><time>2026-05-21T15:54:44Z</time></trkpt>
			<trkpt lat="54.906310" lon="20.655100"><ele>2.8</ele><time>2026-05-21T15:54:49Z</time></trkpt>
			<trkpt lat="54.906290" lon="20.655290"><ele>2.8</ele><time>2026-05-21T15:54:54Z</time></trkpt>
			<trkpt lat="54.906270" lon="20.655680"><ele>2.8</ele><time>2026-05-21T15:54:59Z</time></trkpt>
			<trkpt lat="54.906280" lon="20.655960"><ele>2.9</ele><time>2026-05-21T15:55:04Z</time></trkpt>
			<trkpt lat="54.906690" lon="20.661600"><ele>3.5</ele><time>2026-05-21T15:55:09Z</time></trkpt>
			<trkpt lat="54.907030" lon="20.665870"><ele>3.6</ele><time>2026-05-21T15:55:14Z</time></trkpt>
			<trkpt lat="54.907110" lon="20.667040"><ele>3.5</ele><time>2026-05-21T15:55:19Z</time></trkpt>
			<trkpt lat="54.907140" lon="20.667540"><ele>3.5</ele><time>2026-05-21T15:55:24Z</time></trkpt>
			<trkpt lat="54.907140" lon="20.667710"><ele>3.4</ele><time>2026-05-21T15:55:29Z</time></trkpt>
			<trkpt lat="54.907120" lon="20.667910"><ele>3.4</ele><time>2026-05-21T15:55:34Z</time></trkpt>
			<trkpt lat="54.907070" lon="20.668160"><ele>3.4</ele><time>2026-05-21T15:55:39Z</time></trkpt>
			<trkpt lat="54.907020" lon="20.668320"><ele>3.4</ele><time>2026-05-21T15:55:44Z</time></trkpt>
			<trkpt lat="54.906820" lon="20.668860"><ele>3.3</ele><time>2026-05-21T15:55:49Z</time></trkpt>
			<trkpt lat="54.906630" lon="20.669260"><ele>3.3</ele><time>2026-05-21T15:55:54Z</time></trkpt>
			<trkpt lat="54.906360" lon="20.669700"><ele>3.3</ele><time>2026-05-21T15:55:59Z</time></trkpt>
			<trkpt lat="54.906240" lon="20.669860"><ele>3.2</ele><time>2026-05-21T15:56:04Z</time></trkpt>
			<trkpt lat="54.906120" lon="20.669970"><ele>3.2</ele><time>2026-05-21T15:56:09Z</time></trkpt>
			<trkpt lat="54.906020" lon="20.670040"><ele>3.2</ele><time>2026-05-21T15:56:14Z</time></trkpt>
			<trkpt lat="54.905880" lon="20.670080"><ele>3.2</ele><time>2026-05-21T15:56:19Z</time></trkpt>
			<trkpt lat="54.905590" lon="20.670110"><ele>3.1</ele><time>2026-05-21T15:56:24Z</time></trkpt>
			<trkpt lat="54.905420" lon="20.670160"><ele>3.1</ele><time>2026-05-21T15:56:29Z</time></trkpt>
			<trkpt lat="54.905270" lon="20.670250"><ele>3.1</ele><time>2026-05-21T15:56:34Z</time></trkpt>
			<trkpt lat="54.905090" lon="20.670420"><ele>3.1</ele><time>2026-05-21T15:56:39Z</time></trkpt>
			<trkpt lat="54.904910" lon="20.670710"><ele>3.0</ele><time>2026-05-21T15:56:44Z</time></trkpt>
			<trkpt lat="54.904700" lon="20.671150"><ele>3.1</ele><time>2026-05-21T15:56:49Z</time></trkpt>
			<trkpt lat="54.904410" lon="20.671730"><ele>3.3</ele><time>2026-05-21T15:56:54Z</time></trkpt>
			<trkpt lat="54.904220" lon="20.672180"><ele>3.4</ele><time>2026-05-21T15:56:59Z</time></trkpt>
			<trkpt lat="54.903850" lon="20.673210"><ele>3.8</ele><time>2026-05-21T15:57:04Z</time></trkpt>
			<trkpt lat="54.903730" lon="20.673480"><ele>3.8</ele><time>2026-05-21T15:57:09Z</time></trkpt>
			<trkpt lat="54.903580" lon="20.673780"><ele>4.0</ele><time>2026-05-21T15:57:14Z</time></trkpt>
			<trkpt lat="54.903330" lon="20.674130"><ele>4.1</ele><time>2026-05-21T15:57:19Z</time></trkpt>
			<trkpt lat="54.902730" lon="20.674750"><ele>4.4</ele><time>2026-05-21T15:57:24Z</time></trkpt>
			<trkpt lat="54.902620" lon="20.674900"><ele>4.5</ele><time>2026-05-21T15:57:29Z</time></trkpt>
			<trkpt lat="54.902500" lon="20.675050"><ele>4.6</ele><time>2026-05-21T15:57:34Z</time></trkpt>
			<trkpt lat="54.902340" lon="20.675370"><ele>4.7</ele><time>2026-05-21T15:57:39Z</time></trkpt>
			<trkpt lat="54.902080" lon="20.675940"><ele>4.9</ele><time>2026-05-21T15:57:44Z</time></trkpt>
			<trkpt lat="54.901880" lon="20.676400"><ele>5.0</ele><time>2026-05-21T15:57:49Z</time></trkpt>
			<trkpt lat="54.901650" lon="20.676850"><ele>5.2</ele><time>2026-05-21T15:57:54Z</time></trkpt>
			<trkpt lat="54.901450" lon="20.677190"><ele>5.3</ele><time>2026-05-21T15:57:59Z</time></trkpt>
			<trkpt lat="54.901370" lon="20.677320"><ele>5.4</ele><time>2026-05-21T15:58:04Z</time></trkpt>
			<trkpt lat="54.900280" lon="20.679200"><ele>5.1</ele><time>2026-05-21T15:58:09Z</time></trkpt>
			<trkpt lat="54.899810" lon="20.680010"><ele>4.8</ele><time>2026-05-21T15:58:14Z</time></trkpt>
			<trkpt lat="54.899010" lon="20.681380"><ele>4.4</ele><time>2026-05-21T15:58:19Z</time></trkpt>
			<trkpt lat="54.898660" lon="20.682000"><ele>4.2</ele><time>2026-05-21T15:58:24Z</time></trkpt>
			<trkpt lat="54.896600" lon="20.685340"><ele>3.9</ele><time>2026-05-21T15:58:29Z</time></trkpt>
			<trkpt lat="54.896310" lon="20.685870"><ele>4.1</ele><time>2026-05-21T15:58:34Z</time></trkpt>
			<trkpt lat="54.896130" lon="20.686300"><ele>4.2</ele><time>2026-05-21T15:58:39Z</time></trkpt>
			<trkpt lat="54.894880" lon="20.686090"><ele>4.6</ele><time>2026-05-21T15:58:44Z</time></trkpt>
			<trkpt lat="54.894640" lon="20.686000"><ele>4.7</ele><time>2026-05-21T15:58:49Z</time></trkpt>
			<trkpt lat="54.894050" lon="20.685530"><ele>5.0</ele><time>2026-05-21T15:58:54Z</time></trkpt>
			<trkpt lat="54.893440" lon="20.684990"><ele>5.2</ele><time>2026-05-21T15:58:59Z</time></trkpt>
			<trkpt lat="54.893150" lon="20.684760"><ele>5.4</ele><time>2026-05-21T15:59:04Z</time></trkpt>
			<trkpt lat="54.892900" lon="20.684510"><ele>5.5</ele><time>2026-05-21T15:59:09Z</time></trkpt>
			<trkpt lat="54.892730" lon="20.684310"><ele>5.5</ele><time>2026-05-21T15:59:14Z</time></trkpt>
			<trkpt lat="54.892360" lon="20.683960"><ele>5.4</ele><time>2026-05-21T15:59:19Z</time></trkpt>
			<trkpt lat="54.892360" lon="20.683960"><ele>5.4</ele><time>2026-05-21T15:59:29Z</time></trkpt>
			<trkpt lat="54.890250" lon="20.681940"><ele>4.4</ele><time>2026-05-21T15:59:39Z</time></trkpt>
			<trkpt lat="54.886020" lon="20.677830"><ele>4.3</ele><time>2026-05-21T15:59:49Z</time></trkpt>
			<trkpt lat="54.883370" lon="20.675320"><ele>5.7</ele><time>2026-05-21T15:59:59Z</time></trkpt>
			<trkpt lat="54.883320" lon="20.677720"><ele>5.8</ele><time>2026-05-21T16:00:09Z</time></trkpt>
			<trkpt lat="54.883250" lon="20.681750"><ele>5.9</ele><time>2026-05-21T16:00:20Z</time></trkpt>
			<trkpt lat="54.883240" lon="20.683250"><ele>6.0</ele><time>2026-05-21T16:00:30Z</time></trkpt>
			<trkpt lat="54.883210" lon="20.683710"><ele>6.0</ele><time>2026-05-21T16:00:40Z</time></trkpt>
			<trkpt lat="54.883160" lon="20.684110"><ele>6.0</ele><time>2026-05-21T16:00:50Z</time></trkpt>
			<trkpt lat="54.882190" lon="20.689810"><ele>5.1</ele><time>2026-05-21T16:01:00Z</time></trkpt>
			<trkpt lat="54.882120" lon="20.690400"><ele>5.0</ele><time>2026-05-21T16:01:10Z</time></trkpt>
			<trkpt lat="54.882060" lon="20.692710"><ele>4.5</ele><time>2026-05-21T16:01:21Z</time></trkpt>
			<trkpt lat="54.882010" lon="20.693670"><ele>4.4</ele><time>2026-05-21T16:01:31Z</time></trkpt>
			<trkpt lat="54.881980" lon="20.694210"><ele>4.3</ele><time>2026-05-21T16:01:41Z</time></trkpt>
			<trkpt lat="54.881930" lon="20.694700"><ele>4.3</ele><time>2026-05-21T16:01:51Z</time></trkpt>
			<trkpt lat="54.881890" lon="20.695020"><ele>4.3</ele><time>2026-05-21T16:02:01Z</time></trkpt>
			<trkpt lat="54.881450" lon="20.698260"><ele>4.3</ele><time>2026-05-21T16:02:11Z</time></trkpt>
			<trkpt lat="54.881270" lon="20.699370"><ele>4.3</ele><time>2026-05-21T16:02:22Z</time></trkpt>
			<trkpt lat="54.880720" lon="20.703060"><ele>4.3</ele><time>2026-05-21T16:02:32Z</time></trkpt>
			<trkpt lat="54.879140" lon="20.714400"><ele>4.6</ele><time>2026-05-21T16:02:42Z</time></trkpt>
			<trkpt lat="54.878510" lon="20.719950"><ele>4.9</ele><time>2026-05-21T16:02:52Z</time></trkpt>
			<trkpt lat="54.878280" lon="20.721700"><ele>5.0</ele><time>2026-05-21T16:03:02Z</time></trkpt>
			<trkpt lat="54.878070" lon="20.723120"><ele>4.9</ele><time>2026-05-21T16:03:12Z</time></trkpt>
			<trkpt lat="54.877330" lon="20.729450"><ele>4.7</ele><time>2026-05-21T16:03:23Z</time></trkpt>
			<trkpt lat="54.877230" lon="20.730350"><ele>4.7</ele><time>2026-05-21T16:03:33Z</time></trkpt>
			<trkpt lat="54.877150" lon="20.731060"><ele>4.8</ele><time>2026-05-21T16:03:43Z</time></trkpt>
			<trkpt lat="54.877130" lon="20.731380"><ele>4.9</ele><time>2026-05-21T16:03:53Z</time></trkpt>
			<trkpt lat="54.877180" lon="20.733580"><ele>5.7</ele><time>2026-05-21T16:04:03Z</time></trkpt>
			<trkpt lat="54.877220" lon="20.735980"><ele>6.6</ele><time>2026-05-21T16:04:13Z</time></trkpt>
			<trkpt lat="54.877200" lon="20.736720"><ele>6.8</ele><time>2026-05-21T16:04:24Z</time></trkpt>
			<trkpt lat="54.877150" lon="20.737060"><ele>6.9</ele><time>2026-05-21T16:04:34Z</time></trkpt>
			<trkpt lat="54.877020" lon="20.738270"><ele>7.4</ele><time>2026-05-21T16:04:44Z</time></trkpt>
			<trkpt lat="54.876980" lon="20.738850"><ele>7.6</ele><time>2026-05-21T16:04:54Z</time></trkpt>
			<trkpt lat="54.876910" lon="20.740780"><ele>7.8</ele><time>2026-05-21T16:05:04Z</time></trkpt>
			<trkpt lat="54.876870" lon="20.742820"><ele>7.4</ele><time>2026-05-21T16:05:14Z</time></trkpt>
			<trkpt lat="54.876770" lon="20.745090"><ele>6.9</ele><time>2026-05-21T16:05:25Z</time></trkpt>
			<trkpt lat="54.876540" lon="20.751410"><ele>5.7</ele><time>2026-05-21T16:05:35Z</time></trkpt>
			<trkpt lat="54.876510" lon="20.751990"><ele>5.7</ele><time>2026-05-21T16:05:45Z</time></trkpt>
			<trkpt lat="54.876400" lon="20.753590"><ele>5.4</ele><time>2026-05-21T16:05:55Z</time></trkpt>
			<trkpt lat="54.876270" lon="20.755210"><ele>5.2</ele><time>2026-05-21T16:06:05Z</time></trkpt>
			<trkpt lat="54.875800" lon="20.761250"><ele>4.5</ele><time>2026-05-21T16:06:15Z</time></trkpt>
			<trkpt lat="54.874380" lon="20.760930"><ele>4.2</ele><time>2026-05-21T16:06:26Z</time></trkpt>
			<trkpt lat="54.872880" lon="20.760570"><ele>3.9</ele><time>2026-05-21T16:06:36Z</time></trkpt>
			<trkpt lat="54.871550" lon="20.760270"><ele>3.8</ele><time>2026-05-21T16:06:46Z</time></trkpt>
			<trkpt lat="54.868580" lon="20.759650"><ele>5.0</ele><time>2026-05-21T16:06:56Z</time></trkpt>
			<trkpt lat="54.866830" lon="20.759330"><ele>5.7</ele><time>2026-05-21T16:07:06Z</time></trkpt>
			<trkpt lat="54.866050" lon="20.759170"><ele>5.9</ele><time>2026-05-21T16:07:16Z</time></trkpt>
			<trkpt lat="54.865940" lon="20.759140"><ele>5.9</ele><time>2026-05-21T16:07:26Z</time></trkpt>
			<trkpt lat="54.865440" lon="20.758980"><ele>6.0</ele><time>2026-05-21T16:07:37Z</time></trkpt>
			<trkpt lat="54.865150" lon="20.758990"><ele>6.0</ele><time>2026-05-21T16:07:47Z</time></trkpt>
			<trkpt lat="54.864860" lon="20.759060"><ele>6.1</ele><time>2026-05-21T16:07:57Z</time></trkpt>
			<trkpt lat="54.864480" lon="20.759290"><ele>6.2</ele><time>2026-05-21T16:08:07Z</time></trkpt>
			<trkpt lat="54.864280" lon="20.759550"><ele>6.2</ele><time>2026-05-21T16:08:17Z</time></trkpt>
			<trkpt lat="54.864080" lon="20.759870"><ele>6.3</ele><time>2026-05-21T16:08:27Z</time></trkpt>
			<trkpt lat="54.863540" lon="20.760930"><ele>6.4</ele><time>2026-05-21T16:08:38Z</time></trkpt>
			<trkpt lat="54.862580" lon="20.763190"><ele>6.7</ele><time>2026-05-21T16:08:48Z</time></trkpt>
			<trkpt lat="54.861980" lon="20.764540"><ele>7.0</ele><time>2026-05-21T16:08:58Z</time></trkpt>
			<trkpt lat="54.861830" lon="20.764870"><ele>7.1</ele><time>2026-05-21T16:09:08Z</time></trkpt>
			<trkpt lat="54.861140" lon="20.763620"><ele>7.5</ele><time>2026-05-21T16:09:18Z</time></trkpt>
			<trkpt lat="54.860790" lon="20.763040"><ele>7.7</ele><time>2026-05-21T16:09:28Z</time></trkpt>
			<trkpt lat="54.860210" lon="20.762270"><ele>8.0</ele><time>2026-05-21T16:09:39Z</time></trkpt>
			<trkpt lat="54.859590" lon="20.761260"><ele>8.3</ele><time>2026-05-21T16:09:49Z</time></trkpt>
			<trkpt lat="54.859590" lon="20.761260"><ele>8.3</ele><time>2026-05-21T16:10:01Z</time></trkpt>
			<trkpt lat="54.859100" lon="20.760450"><ele>8.5</ele><time>2026-05-21T16:10:12Z</time></trkpt>
			<trkpt lat="54.858460" lon="20.759400"><ele>8.8</ele><time>2026-05-21T16:10:24Z</time></trkpt>
			<trkpt lat="54.858220" lon="20.759120"><ele>8.8</ele><time>2026-05-21T16:10:36Z</time></trkpt>
			<trkpt lat="54.857770" lon="20.758930"><ele>8.7</ele><time>2026-05-21T16:10:48Z</time></trkpt>
			<trkpt lat="54.856390" lon="20.758330"><ele>8.4</ele><time>2026-05-21T16:10:59Z</time></trkpt>
			<trkpt lat="54.855090" lon="20.757830"><ele>8.2</ele><time>2026-05-21T16:11:11Z</time></trkpt>
			<trkpt lat="54.853750" lon="20.757240"><ele>8.0</ele><time>2026-05-21T16:11:23Z</time></trkpt>
			<trkpt lat="54.852210" lon="20.756200"><ele>8.3</ele><time>2026-05-21T16:11:35Z</time></trkpt>
			<trkpt lat="54.846550" lon="20.752510"><ele>9.5</ele><time>2026-05-21T16:11:46Z</time></trkpt>
			<trkpt lat="54.845480" lon="20.751780"><ele>9.5</ele><time>2026-05-21T16:11:58Z</time></trkpt>
			<trkpt lat="54.845260" lon="20.751520"><ele>9.5</ele><time>2026-05-21T16:12:10Z</time></trkpt>
			<trkpt lat="54.845080" lon="20.751190"><ele>9.6</ele><time>2026-05-21T16:12:22Z</time></trkpt>
			<trkpt lat="54.842960" lon="20.746630"><ele>10.0</ele><time>2026-05-21T16:12:34Z</time></trkpt>
			<trkpt lat="54.842380" lon="20.745340"><ele>10.2</ele><time>2026-05-21T16:12:45Z</time></trkpt>
			<trkpt lat="54.841820" lon="20.744020"><ele>10.4</ele><time>2026-05-21T16:12:57Z</time></trkpt>
			<trkpt lat="54.840880" lon="20.741980"><ele>10.7</ele><time>2026-05-21T16:13:09Z</time></trkpt>
			<trkpt lat="54.840000" lon="20.739940"><ele>11.0</ele><time>2026-05-21T16:13:21Z</time></trkpt>
			<trkpt lat="54.839850" lon="20.739330"><ele>11.1</ele><time>2026-05-21T16:13:32Z</time></trkpt>
			<trkpt lat="54.839730" lon="20.738700"><ele>11.2</ele><time>2026-05-21T16:13:44Z</time></trkpt>
			<trkpt lat="54.838880" lon="20.733530"><ele>11.8</ele><time>2026-05-21T16:13:56Z</time></trkpt>
			<trkpt lat="54.837590" lon="20.725770"><ele>15.6</ele><time>2026-05-21T16:14:08Z</time></trkpt>
			<trkpt lat="54.837750" lon="20.722220"><ele>15.8</ele><time>2026-05-21T16:14:19Z</time></trkpt>
			<trkpt lat="54.838030" lon="20.719910"><ele>14.3</ele><time>2026-05-21T16:14:31Z</time></trkpt>
			<trkpt lat="54.838470" lon="20.716400"><ele>12.1</ele><time>2026-05-21T16:14:43Z</time></trkpt>
			<trkpt lat="54.839730" lon="20.706480"><ele>12.6</ele><time>2026-05-21T16:14:55Z</time></trkpt>
			<trkpt lat="54.839730" lon="20.705910"><ele>12.7</ele><time>2026-05-21T16:15:07Z</time></trkpt>
			<trkpt lat="54.839110" lon="20.705630"><ele>12.9</ele><time>2026-05-21T16:15:18Z</time></trkpt>
			<trkpt lat="54.837010" lon="20.704760"><ele>13.4</ele><time>2026-05-21T16:15:30Z</time></trkpt>
			<trkpt lat="54.835030" lon="20.704010"><ele>13.8</ele><time>2026-05-21T16:15:42Z</time></trkpt>
			<trkpt lat="54.834030" lon="20.703650"><ele>14.0</ele><time>2026-05-21T16:15:54Z</time></trkpt>
			<trkpt lat="54.833400" lon="20.703400"><ele>13.9</ele><time>2026-05-21T16:16:05Z</time></trkpt>
			<trkpt lat="54.832390" lon="20.702800"><ele>13.7</ele><time>2026-05-21T16:16:17Z</time></trkpt>
			<trkpt lat="54.831720" lon="20.702370"><ele>13.5</ele><time>2026-05-21T16:16:29Z</time></trkpt>
			<trkpt lat="54.830840" lon="20.701690"><ele>13.4</ele><time>2026-05-21T16:16:41Z</time></trkpt>
			<trkpt lat="54.830250" lon="20.701210"><ele>13.3</ele><time>2026-05-21T16:16:52Z</time></trkpt>
			<trkpt lat="54.829780" lon="20.700750"><ele>13.2</ele><time>2026-05-21T16:17:04Z</time></trkpt>
			<trkpt lat="54.829280" lon="20.700360"><ele>13.1</ele><time>2026-05-21T16:17:16Z</time></trkpt>
			<trkpt lat="54.828750" lon="20.700010"><ele>13.3</ele><time>2026-05-21T16:17:28Z</time></trkpt>
			<trkpt lat="54.827270" lon="20.699080"><ele>14.5</ele><time>2026-05-21T16:17:40Z</time></trkpt>
			<trkpt lat="54.827270" lon="20.699080"><ele>14.5</ele><time>2026-05-21T16:17:48Z</time></trkpt>
			<trkpt lat="54.825950" lon="20.698180"><ele>15.6</ele><time>2026-05-21T16:17:56Z</time></trkpt>
			<trkpt lat="54.825710" lon="20.698030"><ele>15.7</ele><time>2026-05-21T16:18:04Z</time></trkpt>
			<trkpt lat="54.824910" lon="20.697620"><ele>16.4</ele><time>2026-05-21T16:18:12Z</time></trkpt>
			<trkpt lat="54.824170" lon="20.697260"><ele>17.0</ele><time>2026-05-21T16:18:20Z</time></trkpt>
			<trkpt lat="54.823660" lon="20.696770"><ele>17.2</ele><time>2026-05-21T16:18:28Z</time></trkpt>
			<trkpt lat="54.821550" lon="20.694830"><ele>17.9</ele><time>2026-05-21T16:18:36Z</time></trkpt>
			<trkpt lat="54.818270" lon="20.691860"><ele>19.5</ele><time>2026-05-21T16:18:44Z</time></trkpt>
			<trkpt lat="54.815860" lon="20.690430"><ele>21.5</ele><time>2026-05-21T16:18:52Z</time></trkpt>
			<trkpt lat="54.815450" lon="20.690160"><ele>21.8</ele><time>2026-05-21T16:19:00Z</time></trkpt>
			<trkpt lat="54.815190" lon="20.690080"><ele>22.0</ele><time>2026-05-21T16:19:08Z</time></trkpt>
			<trkpt lat="54.813860" lon="20.690170"><ele>22.8</ele><time>2026-05-21T16:19:16Z</time></trkpt>
			<trkpt lat="54.813560" lon="20.690160"><ele>22.9</ele><time>2026-05-21T16:19:24Z</time></trkpt>
			<trkpt lat="54.812970" lon="20.690020"><ele>23.0</ele><time>2026-05-21T16:19:32Z</time></trkpt>
			<trkpt lat="54.812360" lon="20.689860"><ele>23.1</ele><time>2026-05-21T16:19:40Z</time></trkpt>
			<trkpt lat="54.811430" lon="20.689540"><ele>23.3</ele><time>2026-05-21T16:19:48Z</time></trkpt>
			<trkpt lat="54.811020" lon="20.689370"><ele>23.3</ele><time>2026-05-21T16:19:56Z</time></trkpt>
			<trkpt lat="54.809220" lon="20.688670"><ele>23.6</ele><time>2026-05-21T16:20:04Z</time></trkpt>
			<trkpt lat="54.808100" lon="20.688230"><ele>23.5</ele><time>2026-05-21T16:20:12Z</time></trkpt>
			<trkpt lat="54.807270" lon="20.687920"><ele>23.4</ele><time>2026-05-21T16:20:20Z</time></trkpt>
			<trkpt lat="54.807010" lon="20.687860"><ele>23.3</ele><time>2026-05-21T16:20:28Z</time></trkpt>
			<trkpt lat="54.806830" lon="20.687770"><ele>23.3</ele><time>2026-05-21T16:20:36Z</time></trkpt>
			<trkpt lat="54.806470" lon="20.687650"><ele>23.2</ele><time>2026-05-21T16:20:45Z</time></trkpt>
			<trkpt lat="54.805550" lon="20.687560"><ele>23.0</ele><time>2026-05-21T16:20:53Z</time></trkpt>
			<trkpt lat="54.804890" lon="20.687500"><ele>22.9</ele><time>2026-05-21T16:21:01Z</time></trkpt>
			<trkpt lat="54.804000" lon="20.687410"><ele>22.7</ele><time>2026-05-21T16:21:09Z</time></trkpt>
			<trkpt lat="54.803820" lon="20.687400"><ele>22.7</ele><time>2026-05-21T16:21:17Z</time></trkpt>
			<trkpt lat="54.803550" lon="20.687370"><ele>22.6</ele><time>2026-05-21T16:21:25Z</time></trkpt>
			<trkpt lat="54.802970" lon="20.687320"><ele>23.3</ele><time>2026-05-21T16:21:33Z</time></trkpt>
			<trkpt lat="54.802330" lon="20.687410"><ele>24.1</ele><time>2026-05-21T16:21:41Z</time></trkpt>
			<trkpt lat="54.802150" lon="20.687490"><ele>24.3</ele><time>2026-05-21T16:21:49Z</time></trkpt>
			<trkpt lat="54.802030" lon="20.687580"><ele>24.5</ele><time>2026-05-21T16:21:57Z</time></trkpt>
			<trkpt lat="54.801830" lon="20.687760"><ele>24.8</ele><time>2026-05-21T16:22:05Z</time></trkpt>
			<trkpt lat="54.801310" lon="20.688150"><ele>25.5</ele><time>2026-05-21T16:22:13Z</time></trkpt>
			<trkpt lat="54.801220" lon="20.688190"><ele>25.6</ele><time>2026-05-21T16:22:21Z</time></trkpt>
			<trkpt lat="54.801060" lon="20.688150"><ele>25.8</ele><time>2026-05-21T16:22:29Z</time></trkpt>
			<trkpt lat="54.800460" lon="20.687820"><ele>26.6</ele><time>2026-05-21T16:22:37Z</time></trkpt>
			<trkpt lat="54.800200" lon="20.687680"><ele>27.0</ele><time>2026-05-21T16:22:45Z</time></trkpt>
			<trkpt lat="54.799860" lon="20.687520"><ele>27.4</ele><time>2026-05-21T16:22:53Z</time></trkpt>
			<trkpt lat="54.798650" lon="20.687110"><ele>29.0</ele><time>2026-05-21T16:23:01Z</time></trkpt>
			<trkpt lat="54.798260" lon="20.687010"><ele>29.4</ele><time>2026-05-21T16:23:09Z</time></trkpt>
			<trkpt lat="54.797760" lon="20.686890"><ele>29.6</ele><time>2026-05-21T16:23:17Z</time></trkpt>
			<trkpt lat="54.797590" lon="20.686860"><ele>29.7</ele><time>2026-05-21T16:23:25Z</time></trkpt>
			<trkpt lat="54.797850" lon="20.694000"><ele>31.4</ele><time>2026-05-21T16:23:33Z</time></trkpt>
			<trkpt lat="54.797930" lon="20.696010"><ele>30.7</ele><time>2026-05-21T16:23:41Z</time></trkpt>
			<trkpt lat="54.797970" lon="20.698020"><ele>29.0</ele><time>2026-05-21T16:23:49Z</time></trkpt>
			<trkpt lat="54.798000" lon="20.698580"><ele>28.6</ele><time>2026-05-21T16:23:58Z</time></trkpt>
			<trkpt lat="54.798500" lon="20.711610"><ele>21.0</ele><time>2026-05-21T16:24:06Z</time></trkpt>
			<trkpt lat="54.791460" lon="20.712300"><ele>25.3</ele><time>2026-05-21T16:24:14Z</time></trkpt>
			<trkpt lat="54.791460" lon="20.712300"><ele>25.3</ele><time>2026-05-21T16:24:21Z</time></trkpt>
			<trkpt lat="54.788090" lon="20.712630"><ele>23.4</ele><time>2026-05-21T16:24:29Z</time></trkpt>
			<trkpt lat="54.778750" lon="20.713540"><ele>25.4</ele><time>2026-05-21T16:24:36Z</time></trkpt>
			<trkpt lat="54.777800" lon="20.713610"><ele>24.9</ele><time>2026-05-21T16:24:44Z</time></trkpt>
			<trkpt lat="54.777280" lon="20.713730"><ele>24.7</ele><time>2026-05-21T16:24:51Z</time></trkpt>
			<trkpt lat="54.776890" lon="20.713910"><ele>24.4</ele><time>2026-05-21T16:24:59Z</time></trkpt>
			<trkpt lat="54.776520" lon="20.714140"><ele>24.3</ele><time>2026-05-21T16:25:06Z</time></trkpt>
			<trkpt lat="54.776070" lon="20.714630"><ele>24.0</ele><time>2026-05-21T16:25:14Z</time></trkpt>
			<trkpt lat="54.775460" lon="20.715550"><ele>24.5</ele><time>2026-05-21T16:25:21Z</time></trkpt>
			<trkpt lat="54.774550" lon="20.716950"><ele>25.5</ele><time>2026-05-21T16:25:29Z</time></trkpt>
			<trkpt lat="54.773660" lon="20.718220"><ele>26.6</ele><time>2026-05-21T16:25:37Z</time></trkpt>
			<trkpt lat="54.770560" lon="20.722310"><ele>26.9</ele><time>2026-05-21T16:25:44Z</time></trkpt>
			<trkpt lat="54.768250" lon="20.725450"><ele>23.4</ele><time>2026-05-21T16:25:52Z</time></trkpt>
			<trkpt lat="54.767490" lon="20.726490"><ele>22.2</ele><time>2026-05-21T16:25:59Z</time></trkpt>
			<trkpt lat="54.767230" lon="20.726810"><ele>22.2</ele><time>2026-05-21T16:26:07Z</time></trkpt>
			<trkpt lat="54.766920" lon="20.727080"><ele>22.2</ele><time>2026-05-21T16:26:14Z</time></trkpt>
			<trkpt lat="54.766570" lon="20.727300"><ele>22.2</ele><time>2026-05-21T16:26:22Z</time></trkpt>
			<trkpt lat="54.766190" lon="20.727390"><ele>22.2</ele><time>2026-05-21T16:26:29Z</time></trkpt>
			<trkpt lat="54.765820" lon="20.727350"><ele>22.2</ele><time>2026-05-21T16:26:37Z</time></trkpt>
			<trkpt lat="54.763290" lon="20.726740"><ele>22.3</ele><time>2026-05-21T16:26:44Z</time></trkpt>
			<trkpt lat="54.762970" lon="20.726710"><ele>22.3</ele><time>2026-05-21T16:26:52Z</time></trkpt>
			<trkpt lat="54.762570" lon="20.726720"><ele>22.3</ele><time>2026-05-21T16:27:00Z</time></trkpt>
			<trkpt lat="54.753490" lon="20.728890"><ele>17.4</ele><time>2026-05-21T16:27:07Z</time></trkpt>
			<trkpt lat="54.752960" lon="20.728960"><ele>17.2</ele><time>2026-05-21T16:27:15Z</time></trkpt>
			<trkpt lat="54.751780" lon="20.728950"><ele>16.6</ele><time>2026-05-21T16:27:22Z</time></trkpt>
			<trkpt lat="54.751370" lon="20.729000"><ele>16.4</ele><time>2026-05-21T16:27:30Z</time></trkpt>
			<trkpt lat="54.751000" lon="20.729140"><ele>16.2</ele><time>2026-05-21T16:27:37Z</time></trkpt>
			<trkpt lat="54.750870" lon="20.729200"><ele>16.1</ele><time>2026-05-21T16:27:45Z</time></trkpt>
			<trkpt lat="54.750600" lon="20.729320"><ele>16.0</ele><time>2026-05-21T16:27:52Z</time></trkpt>
			<trkpt lat="54.750050" lon="20.729800"><ele>15.7</ele><time>2026-05-21T16:28:00Z</time></trkpt>
			<trkpt lat="54.749410" lon="20.730470"><ele>15.3</ele><time>2026-05-21T16:28:07Z</time></trkpt>
			<trkpt lat="54.745310" lon="20.734620"><ele>13.6</ele><time>2026-05-21T16:28:15Z</time></trkpt>
			<trkpt lat="54.744910" lon="20.734890"><ele>13.5</ele><time>2026-05-21T16:28:23Z</time></trkpt>
			<trkpt lat="54.744670" lon="20.734960"><ele>13.5</ele><time>2026-05-21T16:28:30Z</time></trkpt>
			<trkpt lat="54.741600" lon="20.735760"><ele>13.0</ele><time>2026-05-21T16:28:38Z</time></trkpt>
			<trkpt lat="54.740910" lon="20.735940"><ele>13.1</ele><time>2026-05-21T16:28:45Z</time></trkpt>
			<trkpt lat="54.740400" lon="20.736070"><ele>13.2</ele><time>2026-05-21T16:28:53Z</time></trkpt>
			<trkpt lat="54.739210" lon="20.736200"><ele>13.3</ele><time>2026-05-21T16:29:00Z</time></trkpt>
			<trkpt lat="54.738540" lon="20.736170"><ele>13.4</ele><time>2026-05-21T16:29:08Z</time></trkpt>
			<trkpt lat="54.732780" lon="20.733830"><ele>11.8</ele><time>2026-05-21T16:29:15Z</time></trkpt>
			<trkpt lat="54.732320" lon="20.733690"><ele>11.6</ele><time>2026-05-21T16:29:23Z</time></trkpt>
			<trkpt lat="54.732030" lon="20.733670"><ele>11.5</ele><time>2026-05-21T16:29:30Z</time></trkpt>
			<trkpt lat="54.731790" lon="20.733730"><ele>11.3</ele><time>2026-05-21T16:29:38Z</time></trkpt>
			<trkpt lat="54.731090" lon="20.734270"><ele>11.0</ele><time>2026-05-21T16:29:46Z</time></trkpt>
			<trkpt lat="54.728630" lon="20.737190"><ele>12.6</ele><time>2026-05-21T16:29:53Z</time></trkpt>
			<trkpt lat="54.727730" lon="20.738020"><ele>13.1</ele><time>2026-05-21T16:30:01Z</time></trkpt>
			<trkpt lat="54.727630" lon="20.738110"><ele>13.2</ele><time>2026-05-21T16:30:08Z</time></trkpt>
			<trkpt lat="54.727190" lon="20.738540"><ele>13.4</ele><time>2026-05-21T16:30:16Z</time></trkpt>
			<trkpt lat="54.725850" lon="20.739660"><ele>13.7</ele><time>2026-05-21T16:30:23Z</time></trkpt>
			<trkpt lat="54.725250" lon="20.739980"><ele>13.6</ele><time>2026-05-21T16:30:31Z</time></trkpt>
			<trkpt lat="54.724470" lon="20.740230"><ele>13.5</ele><time>2026-05-21T16:30:38Z</time></trkpt>
			<trkpt lat="54.724080" lon="20.740240"><ele>13.4</ele><time>2026-05-21T16:30:46Z</time></trkpt>
			<trkpt lat="54.723970" lon="20.740220"><ele>13.4</ele><time>2026-05-21T16:30:53Z</time></trkpt>
			<trkpt lat="54.721030" lon="20.738170"><ele>12.9</ele><time>2026-05-21T16:31:01Z</time></trkpt>
			<trkpt lat="54.718410" lon="20.736350"><ele>12.7</ele><time>2026-05-21T16:31:09Z</time></trkpt>
			<trkpt lat="54.718080" lon="20.736260"><ele>12.6</ele><time>2026-05-21T16:31:16Z</time></trkpt>
			<trkpt lat="54.717950" lon="20.736290"><ele>12.6</ele><time>2026-05-21T16:31:24Z</time></trkpt>
			<trkpt lat="54.717730" lon="20.736500"><ele>12.6</ele><time>2026-05-21T16:31:31Z</time></trkpt>
			<trkpt lat="54.717240" lon="20.737650"><ele>12.5</ele><time>2026-05-21T16:31:39Z</time></trkpt>
			<trkpt lat="54.716950" lon="20.738020"><ele>12.5</ele><time>2026-05-21T16:31:46Z</time></trkpt>
			<trkpt lat="54.716250" lon="20.738900"><ele>12.0</ele><time>2026-05-21T16:31:54Z</time></trkpt>
			<trkpt lat="54.715440" lon="20.739820"><ele>11.2</ele><time>2026-05-21T16:32:01Z</time></trkpt>
			<trkpt lat="54.714510" lon="20.740850"><ele>10.3</ele><time>2026-05-21T16:32:09Z</time></trkpt>
			<trkpt lat="54.714190" lon="20.741090"><ele>10.0</ele><time>2026-05-21T16:32:16Z</time></trkpt>
			<trkpt lat="54.713860" lon="20.741240"><ele>9.7</ele><time>2026-05-21T16:32:24Z</time></trkpt>
			<trkpt lat="54.713190" lon="20.741360"><ele>9.1</ele><time>2026-05-21T16:32:32Z</time></trkpt>
			<trkpt lat="54.712660" lon="20.741450"><ele>8.7</ele><time>2026-05-21T16:32:39Z</time></trkpt>
			<trkpt lat="54.711680" lon="20.741450"><ele>8.0</ele><time>2026-05-21T16:32:47Z</time></trkpt>
			<trkpt lat="54.710500" lon="20.741430"><ele>7.7</ele><time>2026-05-21T16:32:54Z</time></trkpt>
			<trkpt lat="54.709550" lon="20.741460"><ele>7.5</ele><time>2026-05-21T16:33:02Z</time></trkpt>
			<trkpt lat="54.708750" lon="20.741330"><ele>7.3</ele><time>2026-05-21T16:33:09Z</time></trkpt>
			<trkpt lat="54.707580" lon="20.740870"><ele>7.0</ele><time>2026-05-21T16:33:17Z</time></trkpt>
			<trkpt lat="54.706860" lon="20.740450"><ele>6.9</ele><time>2026-05-21T16:33:24Z</time></trkpt>
			<trkpt lat="54.706220" lon="20.739800"><ele>7.3</ele><time>2026-05-21T16:33:32Z</time></trkpt>
			<trkpt lat="54.705670" lon="20.739080"><ele>8.2</ele><time>2026-05-21T16:33:39Z</time></trkpt>
			<trkpt lat="54.705420" lon="20.738760"><ele>8.6</ele><time>2026-05-21T16:33:47Z</time></trkpt>
			<trkpt lat="54.705340" lon="20.738680"><ele>8.7</ele><time>2026-05-21T16:33:55Z</time></trkpt>
			<trkpt lat="54.705240" lon="20.738610"><ele>8.8</ele><time>2026-05-21T16:34:02Z</time></trkpt>
			<trkpt lat="54.704970" lon="20.738450"><ele>9.2</ele><time>2026-05-21T16:34:10Z</time></trkpt>
			<trkpt lat="54.704190" lon="20.738260"><ele>10.2</ele><time>2026-05-21T16:34:17Z</time></trkpt>
			<trkpt lat="54.703670" lon="20.738120"><ele>10.8</ele><time>2026-05-21T16:34:25Z</time></trkpt>
			<trkpt lat="54.703000" lon="20.738000"><ele>11.7</ele><time>2026-05-21T16:34:32Z</time></trkpt>
			<trkpt lat="54.702060" lon="20.737870"><ele>12.9</ele><time>2026-05-21T16:34:40Z</time></trkpt>
			<trkpt lat="54.701850" lon="20.737860"><ele>13.1</ele><time>2026-05-21T16:34:47Z</time></trkpt>
			<trkpt lat="54.701860" lon="20.739940"><ele>12.3</ele><time>2026-05-21T16:34:55Z</time></trkpt>
			<trkpt lat="54.701860" lon="20.740930"><ele>11.4</ele><time>2026-05-21T16:35:02Z</time></trkpt>
			<trkpt lat="54.701880" lon="20.742320"><ele>10.2</ele><time>2026-05-21T16:35:10Z</time></trkpt>
			<trkpt lat="54.701870" lon="20.743160"><ele>9.5</ele><time>2026-05-21T16:35:18Z</time></trkpt>
			<trkpt lat="54.701860" lon="20.743430"><ele>9.3</ele><time>2026-05-21T16:35:25Z</time></trkpt>
			<trkpt lat="54.701850" lon="20.744020"><ele>8.7</ele><time>2026-05-21T16:35:33Z</time></trkpt>
			<trkpt lat="54.701670" lon="20.746900"><ele>6.2</ele><time>2026-05-21T16:35:40Z</time></trkpt>
			<trkpt lat="54.701650" lon="20.747200"><ele>6.0</ele><time>2026-05-21T16:35:48Z</time></trkpt>
			<trkpt lat="54.701610" lon="20.747710"><ele>5.5</ele><time>2026-05-21T16:35:55Z</time></trkpt>
			<trkpt lat="54.701550" lon="20.748040"><ele>5.5</ele><time>2026-05-21T16:36:03Z</time></trkpt>
			<trkpt lat="54.701390" lon="20.748550"><ele>5.6</ele><time>2026-05-21T16:36:10Z</time></trkpt>
			<trkpt lat="54.701340" lon="20.748660"><ele>5.6</ele><time>2026-05-21T16:36:18Z</time></trkpt>
			<trkpt lat="54.700620" lon="20.750250"><ele>5.9</ele><time>2026-05-21T16:36:25Z</time></trkpt>
			<trkpt lat="54.700410" lon="20.750840"><ele>5.9</ele><time>2026-05-21T16:36:33Z</time></trkpt>
			<trkpt lat="54.700020" lon="20.752550"><ele>6.2</ele><time>2026-05-21T16:36:41Z</time></trkpt>
			<trkpt lat="54.699630" lon="20.754000"><ele>6.4</ele><time>2026-05-21T16:36:48Z</time></trkpt>
			<trkpt lat="54.698260" lon="20.758080"><ele>6.6</ele><time>2026-05-21T16:36:56Z</time></trkpt>
			<trkpt lat="54.698220" lon="20.758320"><ele>6.6</ele><time>2026-05-21T16:37:03Z</time></trkpt>
			<trkpt lat="54.698220" lon="20.758320"><ele>6.6</ele><time>2026-05-21T16:37:12Z</time></trkpt>
			<trkpt lat="54.698180" lon="20.758590"><ele>6.6</ele><time>2026-05-21T16:37:21Z</time></trkpt>
			<trkpt lat="54.697630" lon="20.765490"><ele>6.7</ele><time>2026-05-21T16:37:30Z</time></trkpt>
			<trkpt lat="54.697580" lon="20.766250"><ele>6.8</ele><time>2026-05-21T16:37:39Z</time></trkpt>
			<trkpt lat="54.697610" lon="20.766910"><ele>6.9</ele><time>2026-05-21T16:37:48Z</time></trkpt>
			<trkpt lat="54.697720" lon="20.767490"><ele>7.0</ele><time>2026-05-21T16:37:56Z</time></trkpt>
			<trkpt lat="54.698330" lon="20.770840"><ele>7.5</ele><time>2026-05-21T16:38:05Z</time></trkpt>
			<trkpt lat="54.700460" lon="20.782760"><ele>13.3</ele><time>2026-05-21T16:38:14Z</time></trkpt>
			<trkpt lat="54.700530" lon="20.783200"><ele>13.1</ele><time>2026-05-21T16:38:23Z</time></trkpt>
			<trkpt lat="54.700610" lon="20.783930"><ele>12.8</ele><time>2026-05-21T16:38:32Z</time></trkpt>
			<trkpt lat="54.700640" lon="20.786010"><ele>11.9</ele><time>2026-05-21T16:38:41Z</time></trkpt>
			<trkpt lat="54.700750" lon="20.790420"><ele>10.0</ele><time>2026-05-21T16:38:50Z</time></trkpt>
			<trkpt lat="54.700780" lon="20.791310"><ele>9.6</ele><time>2026-05-21T16:38:59Z</time></trkpt>
			<trkpt lat="54.700810" lon="20.792270"><ele>9.4</ele><time>2026-05-21T16:39:07Z</time></trkpt>
			<trkpt lat="54.701060" lon="20.800190"><ele>14.0</ele><time>2026-05-21T16:39:16Z</time></trkpt>
			<trkpt lat="54.701070" lon="20.800810"><ele>14.4</ele><time>2026-05-21T16:39:25Z</time></trkpt>
			<trkpt lat="54.701050" lon="20.801940"><ele>14.5</ele><time>2026-05-21T16:39:34Z</time></trkpt>
			<trkpt lat="54.700950" lon="20.803150"><ele>14.0</ele><time>2026-05-21T16:39:43Z</time></trkpt>
			<trkpt lat="54.700850" lon="20.804530"><ele>13.5</ele><time>2026-05-21T16:39:52Z</time></trkpt>
			<trkpt lat="54.700760" lon="20.805400"><ele>13.2</ele><time>2026-05-21T16:40:01Z</time></trkpt>
			<trkpt lat="54.700640" lon="20.806650"><ele>12.8</ele><time>2026-05-21T16:40:10Z</time></trkpt>
			<trkpt lat="54.700500" lon="20.808240"><ele>12.2</ele><time>2026-05-21T16:40:18Z</time></trkpt>
			<trkpt lat="54.699780" lon="20.816470"><ele>7.6</ele><time>2026-05-21T16:40:27Z</time></trkpt>
			<trkpt lat="54.699570" lon="20.819500"><ele>5.7</ele><time>2026-05-21T16:40:36Z</time></trkpt>
			<trkpt lat="54.699520" lon="20.819990"><ele>5.5</ele><time>2026-05-21T16:40:45Z</time></trkpt>
			<trkpt lat="54.699400" lon="20.820600"><ele>5.4</ele><time>2026-05-21T16:40:54Z</time></trkpt>
			<trkpt lat="54.698740" lon="20.822620"><ele>5.3</ele><time>2026-05-21T16:41:03Z</time></trkpt>
			<trkpt lat="54.698690" lon="20.822880"><ele>5.3</ele><time>2026-05-21T16:41:12Z</time></trkpt>
			<trkpt lat="54.698590" lon="20.823550"><ele>5.3</ele><time>2026-05-21T16:41:21Z</time></trkpt>
			<trkpt lat="54.698520" lon="20.824220"><ele>5.2</ele><time>2026-05-21T16:41:29Z</time></trkpt>
			<trkpt lat="54.698440" lon="20.824590"><ele>5.2</ele><time>2026-05-21T16:41:38Z</time></trkpt>
			<trkpt lat="54.698360" lon="20.824840"><ele>5.2</ele><time>2026-05-21T16:41:47Z</time></trkpt>
			<trkpt lat="54.698250" lon="20.825170"><ele>5.2</ele><time>2026-05-21T16:41:56Z</time></trkpt>
			<trkpt lat="54.698150" lon="20.825440"><ele>5.1</ele><time>2026-05-21T16:42:05Z</time></trkpt>
			<trkpt lat="54.697890" lon="20.825980"><ele>5.1</ele><time>2026-05-21T16:42:14Z</time></trkpt>
			<trkpt lat="54.697510" lon="20.826630"><ele>5.1</ele><time>2026-05-21T16:42:23Z</time></trkpt>
			<trkpt lat="54.698370" lon="20.827760"><ele>5.0</ele><time>2026-05-21T16:42:32Z</time></trkpt>
			<trkpt lat="54.699440" lon="20.829140"><ele>5.2</ele><time>2026-05-21T16:42:40Z</time></trkpt>
			<trkpt lat="54.701920" lon="20.832330"><ele>5.7</ele><time>2026-05-21T16:42:49Z</time></trkpt>
			<trkpt lat="54.702470" lon="20.833160"><ele>5.8</ele><time>2026-05-21T16:42:58Z</time></trkpt>
			<trkpt lat="54.704180" lon="20.836150"><ele>7.8</ele><time>2026-05-21T16:43:07Z</time></trkpt>
			<trkpt lat="54.705840" lon="20.839110"><ele>9.8</ele><time>2026-05-21T16:43:16Z</time></trkpt>
			<trkpt lat="54.706240" lon="20.839840"><ele>10.3</ele><time>2026-05-21T16:43:25Z</time></trkpt>
			<trkpt lat="54.707210" lon="20.841590"><ele>10.5</ele><time>2026-05-21T16:43:34Z</time></trkpt>
			<trkpt lat="54.709050" lon="20.844900"><ele>10.8</ele><time>2026-05-21T16:43:43Z</time></trkpt>
			<trkpt lat="54.709440" lon="20.846090"><ele>10.9</ele><time>2026-05-21T16:43:51Z</time></trkpt>
			<trkpt lat="54.709690" lon="20.846980"><ele>10.9</ele><time>2026-05-21T16:44:00Z</time></trkpt>
			<trkpt lat="54.709790" lon="20.847410"><ele>10.9</ele><time>2026-05-21T16:44:09Z</time></trkpt>
			<trkpt lat="54.709880" lon="20.847910"><ele>10.8</ele><time>2026-05-21T16:44:18Z</time></trkpt>
			<trkpt lat="54.709940" lon="20.848450"><ele>10.7</ele><time>2026-05-21T16:44:27Z</time></trkpt>
			<trkpt lat="54.709990" lon="20.849650"><ele>10.5</ele><time>2026-05-21T16:44:36Z</time></trkpt>
			<trkpt lat="54.710230" lon="20.853760"><ele>9.8</ele><time>2026-05-21T16:44:45Z</time></trkpt>
			<trkpt lat="54.710410" lon="20.854950"><ele>9.5</ele><time>2026-05-21T16:44:54Z</time></trkpt>
			<trkpt lat="54.710660" lon="20.855910"><ele>9.4</ele><time>2026-05-21T16:45:02Z</time></trkpt>
			<trkpt lat="54.710870" lon="20.856680"><ele>9.0</ele><time>2026-05-21T16:45:11Z</time></trkpt>
			<trkpt lat="54.711010" lon="20.857380"><ele>8.7</ele><time>2026-05-21T16:45:20Z</time></trkpt>
			<trkpt lat="54.711160" lon="20.858240"><ele>8.3</ele><time>2026-05-21T16:45:29Z</time></trkpt>
			<trkpt lat="54.711270" lon="20.859490"><ele>7.7</ele><time>2026-05-21T16:45:38Z</time></trkpt>
			<trkpt lat="54.711340" lon="20.860330"><ele>7.4</ele><time>2026-05-21T16:45:47Z</time></trkpt>
			<trkpt lat="54.711440" lon="20.861400"><ele>6.9</ele><time>2026-05-21T16:45:56Z</time></trkpt>
			<trkpt lat="54.711460" lon="20.861520"><ele>6.8</ele><time>2026-05-21T16:46:05Z</time></trkpt>
			<trkpt lat="54.711590" lon="20.862360"><ele>6.4</ele><time>2026-05-21T16:46:13Z</time></trkpt>
			<trkpt lat="54.712060" lon="20.864790"><ele>5.3</ele><time>2026-05-21T16:46:22Z</time></trkpt>
			<trkpt lat="54.712260" lon="20.865500"><ele>5.3</ele><time>2026-05-21T16:46:31Z</time></trkpt>
			<trkpt lat="54.712390" lon="20.865770"><ele>5.5</ele><time>2026-05-21T16:46:40Z</time></trkpt>
			<trkpt lat="54.712730" lon="20.865950"><ele>5.7</ele><time>2026-05-21T16:46:49Z</time></trkpt>
			<trkpt lat="54.713880" lon="20.866250"><ele>6.5</ele><time>2026-05-21T16:46:58Z</time></trkpt>
			<trkpt lat="54.715270" lon="20.866640"><ele>7.6</ele><time>2026-05-21T16:47:07Z</time></trkpt>
			<trkpt lat="54.715340" lon="20.866700"><ele>7.6</ele><time>2026-05-21T16:47:16Z</time></trkpt>
			<trkpt lat="54.715380" lon="20.866810"><ele>7.7</ele><time>2026-05-21T16:47:24Z</time></trkpt>
			<trkpt lat="54.715510" lon="20.867350"><ele>7.9</ele><time>2026-05-21T16:47:33Z</time></trkpt>
			<trkpt lat="54.715560" lon="20.868070"><ele>8.2</ele><time>2026-05-21T16:47:42Z</time></trkpt>
			<trkpt lat="54.715600" lon="20.869240"><ele>8.7</ele><time>2026-05-21T16:47:51Z</time></trkpt>
			<trkpt lat="54.715490" lon="20.869790"><ele>8.9</ele><time>2026-05-21T16:48:00Z</time></trkpt>
			<trkpt lat="54.712810" lon="20.876910"><ele>10.5</ele><time>2026-05-21T16:48:09Z</time></trkpt>
			<trkpt lat="54.712640" lon="20.877760"><ele>10.7</ele><time>2026-05-21T16:48:18Z</time></trkpt>
			<trkpt lat="54.712600" lon="20.878610"><ele>10.7</ele><time>2026-05-21T16:48:27Z</time></trkpt>
			<trkpt lat="54.712700" lon="20.880240"><ele>10.8</ele><time>2026-05-21T16:48:36Z</time></trkpt>
			<trkpt lat="54.712660" lon="20.881960"><ele>10.8</ele><time>2026-05-21T16:48:44Z</time></trkpt>
			<trkpt lat="54.712600" lon="20.883380"><ele>10.9</ele><time>2026-05-21T16:48:53Z</time></trkpt>
			<trkpt lat="54.712400" lon="20.885740"><ele>11.0</ele><time>2026-05-21T16:49:02Z</time></trkpt>
			<trkpt lat="54.712240" lon="20.886470"><ele>11.0</ele><time>2026-05-21T16:49:11Z</time></trkpt>
			<trkpt lat="54.710620" lon="20.891840"><ele>10.8</ele><time>2026-05-21T16:49:20Z</time></trkpt>
			<trkpt lat="54.710220" lon="20.892700"><ele>10.8</ele><time>2026-05-21T16:49:29Z</time></trkpt>
			<trkpt lat="54.705920" lon="20.900860"><ele>12.8</ele><time>2026-05-21T16:49:38Z</time></trkpt>
			<trkpt lat="54.705650" lon="20.901470"><ele>13.0</ele><time>2026-05-21T16:49:47Z</time></trkpt>
			<trkpt lat="54.705450" lon="20.902140"><ele>12.9</ele><time>2026-05-21T16:49:55Z</time></trkpt>
			<trkpt lat="54.705280" lon="20.903190"><ele>12.5</ele><time>2026-05-21T16:50:04Z</time></trkpt>
			<trkpt lat="54.705250" lon="20.903410"><ele>12.5</ele><time>2026-05-21T16:50:13Z</time></trkpt>
			<trkpt lat="54.705110" lon="20.904660"><ele>12.0</ele><time>2026-05-21T16:50:22Z</time></trkpt>
			<trkpt lat="54.704980" lon="20.906160"><ele>11.5</ele><time>2026-05-21T16:50:31Z</time></trkpt>
			<trkpt lat="54.704840" lon="20.907720"><ele>10.9</ele><time>2026-05-21T16:50:40Z</time></trkpt>
			<trkpt lat="54.704380" lon="20.910510"><ele>9.9</ele><time>2026-05-21T16:50:49Z</time></trkpt>
			<trkpt lat="54.704310" lon="20.911340"><ele>9.7</ele><time>2026-05-21T16:50:58Z</time></trkpt>
			<trkpt lat="54.704360" lon="20.913070"><ele>9.6</ele><time>2026-05-21T16:51:06Z</time></trkpt>
			<trkpt lat="54.704600" lon="20.916800"><ele>9.3</ele><time>2026-05-21T16:51:15Z</time></trkpt>
			<trkpt lat="54.704600" lon="20.917780"><ele>9.3</ele><time>2026-05-21T16:51:24Z</time></trkpt>
			<trkpt lat="54.704530" lon="20.918340"><ele>9.2</ele><time>2026-05-21T16:51:33Z</time></trkpt>
			<trkpt lat="54.704440" lon="20.918990"><ele>9.2</ele><time>2026-05-21T16:51:42Z</time></trkpt>
			<trkpt lat="54.704360" lon="20.920030"><ele>9.1</ele><time>2026-05-21T16:51:51Z</time></trkpt>
			<trkpt lat="54.704250" lon="20.921490"><ele>9.3</ele><time>2026-05-21T16:52:00Z</time></trkpt>
			<trkpt lat="54.703970" lon="20.924840"><ele>9.7</ele><time>2026-05-21T16:52:09Z</time></trkpt>
			<trkpt lat="54.703920" lon="20.925580"><ele>9.8</ele><time>2026-05-21T16:52:17Z</time></trkpt>
			<trkpt lat="54.703930" lon="20.926100"><ele>9.8</ele><time>2026-05-21T16:52:26Z</time></trkpt>
			<trkpt lat="54.704150" lon="20.928520"><ele>10.1</ele><time>2026-05-21T16:52:35Z</time></trkpt>
			<trkpt lat="54.704210" lon="20.929570"><ele>10.3</ele><time>2026-05-21T16:52:44Z</time></trkpt>
			<trkpt lat="54.704320" lon="20.930100"><ele>10.4</ele><time>2026-05-21T16:52:53Z</time></trkpt>
			<trkpt lat="54.704540" lon="20.930800"><ele>10.6</ele><time>2026-05-21T16:53:02Z</time></trkpt>
			<trkpt lat="54.705810" lon="20.934330"><ele>11.4</ele><time>2026-05-21T16:53:11Z</time></trkpt>
			<trkpt lat="54.706470" lon="20.936890"><ele>12.0</ele><time>2026-05-21T16:53:20Z</time></trkpt>
			<trkpt lat="54.706990" lon="20.938880"><ele>12.4</ele><time>2026-05-21T16:53:28Z</time></trkpt>
			<trkpt lat="54.707110" lon="20.939450"><ele>12.5</ele><time>2026-05-21T16:53:37Z</time></trkpt>
			<trkpt lat="54.707150" lon="20.940070"><ele>12.7</ele><time>2026-05-21T16:53:46Z</time></trkpt>
			<trkpt lat="54.706420" lon="20.948600"><ele>13.8</ele><time>2026-05-21T16:53:55Z</time></trkpt>
			<trkpt lat="54.706340" lon="20.949510"><ele>13.7</ele><time>2026-05-21T16:54:04Z</time></trkpt>
			<trkpt lat="54.706250" lon="20.950050"><ele>13.6</ele><time>2026-05-21T16:54:13Z</time></trkpt>
			<trkpt lat="54.709830" lon="20.950830"><ele>12.9</ele><time>2026-05-21T16:54:22Z</time></trkpt>
			<trkpt lat="54.711310" lon="20.951650"><ele>12.6</ele><time>2026-05-21T16:54:31Z</time></trkpt>
			<trkpt lat="54.713260" lon="20.952800"><ele>12.2</ele><time>2026-05-21T16:54:39Z</time></trkpt>
			<trkpt lat="54.714010" lon="20.953380"><ele>12.0</ele><time>2026-05-21T16:54:48Z</time></trkpt>
			<trkpt lat="54.714340" lon="20.953770"><ele>11.9</ele><time>2026-05-21T16:54:57Z</time></trkpt>
			<trkpt lat="54.718840" lon="20.959750"><ele>13.2</ele><time>2026-05-21T16:55:06Z</time></trkpt>
			<trkpt lat="54.720460" lon="20.962010"><ele>12.6</ele><time>2026-05-21T16:55:15Z</time></trkpt>
			<trkpt lat="54.725450" lon="20.968060"><ele>10.8</ele><time>2026-05-21T16:55:24Z</time></trkpt>
			<trkpt lat="54.728870" lon="20.971900"><ele>10.9</ele><time>2026-05-21T16:55:33Z</time></trkpt>
			<trkpt lat="54.729420" lon="20.972620"><ele>11.3</ele><time>2026-05-21T16:55:42Z</time></trkpt>
			<trkpt lat="54.730750" lon="20.975150"><ele>12.4</ele><time>2026-05-21T16:55:50Z</time></trkpt>
			<trkpt lat="54.731430" lon="20.976200"><ele>13.0</ele><time>2026-05-21T16:55:59Z</time></trkpt>
			<trkpt lat="54.731610" lon="20.976310"><ele>13.1</ele><time>2026-05-21T16:56:08Z</time></trkpt>
			<trkpt lat="54.732570" lon="20.976880"><ele>13.1</ele><time>2026-05-21T16:56:17Z</time></trkpt>
			<trkpt lat="54.732960" lon="20.977480"><ele>12.9</ele><time>2026-05-21T16:56:26Z</time></trkpt>
			<trkpt lat="54.733370" lon="20.978330"><ele>12.8</ele><time>2026-05-21T16:56:35Z</time></trkpt>
			<trkpt lat="54.734250" lon="20.979860"><ele>12.5</ele><time>2026-05-21T16:56:44Z</time></trkpt>
			<trkpt lat="54.734350" lon="20.980010"><ele>12.5</ele><time>2026-05-21T16:56:53Z</time></trkpt>
			<trkpt lat="54.734430" lon="20.979820"><ele>12.5</ele><time>2026-05-21T16:57:01Z</time></trkpt>
			<trkpt lat="54.735110" lon="20.978200"><ele>12.2</ele><time>2026-05-21T16:57:10Z</time></trkpt>
			<trkpt lat="54.736690" lon="20.974250"><ele>16.0</ele><time>2026-05-21T16:57:19Z</time></trkpt>
			<trkpt lat="54.736690" lon="20.974250"><ele>16.0</ele><time>2026-05-21T16:57:29Z</time></trkpt>
			<trkpt lat="54.737730" lon="20.971670"><ele>19.7</ele><time>2026-05-21T16:57:38Z</time></trkpt>
			<trkpt lat="54.738030" lon="20.971080"><ele>20.6</ele><time>2026-05-21T16:57:47Z</time></trkpt>
			<trkpt lat="54.741850" lon="20.964510"><ele>19.6</ele><time>2026-05-21T16:57:56Z</time></trkpt>
			<trkpt lat="54.747300" lon="20.955440"><ele>18.0</ele><time>2026-05-21T16:58:06Z</time></trkpt>
			<trkpt lat="54.748270" lon="20.953870"><ele>17.4</ele><time>2026-05-21T16:58:15Z</time></trkpt>
			<trkpt lat="54.749320" lon="20.952030"><ele>16.8</ele><time>2026-05-21T16:58:24Z</time></trkpt>
			<trkpt lat="54.749560" lon="20.951480"><ele>16.6</ele><time>2026-05-21T16:58:34Z</time></trkpt>
			<trkpt lat="54.750230" lon="20.946490"><ele>14.7</ele><time>2026-05-21T16:58:43Z</time></trkpt>
			<trkpt lat="54.750770" lon="20.943260"><ele>13.3</ele><time>2026-05-21T16:58:52Z</time></trkpt>
			<trkpt lat="54.751450" lon="20.940820"><ele>12.1</ele><time>2026-05-21T16:59:01Z</time></trkpt>
			<trkpt lat="54.754770" lon="20.928990"><ele>11.8</ele><time>2026-05-21T16:59:11Z</time></trkpt>
			<trkpt lat="54.756020" lon="20.924580"><ele>6.6</ele><time>2026-05-21T16:59:20Z</time></trkpt>
			<trkpt lat="54.756150" lon="20.924200"><ele>6.1</ele><time>2026-05-21T16:59:29Z</time></trkpt>
			<trkpt lat="54.757570" lon="20.918680"><ele>6.5</ele><time>2026-05-21T16:59:39Z</time></trkpt>
			<trkpt lat="54.757970" lon="20.917260"><ele>6.7</ele><time>2026-05-21T16:59:48Z</time></trkpt>
			<trkpt lat="54.758070" lon="20.917040"><ele>6.7</ele><time>2026-05-21T16:59:57Z</time></trkpt>
			<trkpt lat="54.758230" lon="20.916710"><ele>6.8</ele><time>2026-05-21T17:00:06Z</time></trkpt>
			<trkpt lat="54.759460" lon="20.914680"><ele>6.9</ele><time>2026-05-21T17:00:16Z</time></trkpt>
			<trkpt lat="54.763160" lon="20.908620"><ele>6.6</ele><time>2026-05-21T17:00:25Z</time></trkpt>
			<trkpt lat="54.763720" lon="20.907710"><ele>6.8</ele><time>2026-05-21T17:00:34Z</time></trkpt>
			<trkpt lat="54.765090" lon="20.905500"><ele>7.1</ele><time>2026-05-21T17:00:44Z</time></trkpt>
			<trkpt lat="54.766280" lon="20.903520"><ele>7.4</ele><time>2026-05-21T17:00:53Z</time></trkpt>
			<trkpt lat="54.766710" lon="20.902850"><ele>7.5</ele><time>2026-05-21T17:01:02Z</time></trkpt>
			<trkpt lat="54.766980" lon="20.902410"><ele>7.6</ele><time>2026-05-21T17:01:12Z</time></trkpt>
			<trkpt lat="54.767100" lon="20.902160"><ele>7.6</ele><time>2026-05-21T17:01:21Z</time></trkpt>
			<trkpt lat="54.767180" lon="20.901870"><ele>7.6</ele><time>2026-05-21T17:01:30Z</time></trkpt>
			<trkpt lat="54.767160" lon="20.901530"><ele>7.6</ele><time>2026-05-21T17:01:39Z</time></trkpt>
			<trkpt lat="54.767160" lon="20.901500"><ele>7.6</ele><time>2026-05-21T17:01:49Z</time></trkpt>
			<trkpt lat="54.766940" lon="20.900610"><ele>7.7</ele><time>2026-05-21T17:01:58Z</time></trkpt>
			<trkpt lat="54.766750" lon="20.899920"><ele>7.7</ele><time>2026-05-21T17:02:07Z</time></trkpt>
			<trkpt lat="54.766670" lon="20.899620"><ele>7.7</ele><time>2026-05-21T17:02:17Z</time></trkpt>
			<trkpt lat="54.766630" lon="20.899430"><ele>7.7</ele><time>2026-05-21T17:02:26Z</time></trkpt>
			<trkpt lat="54.766600" lon="20.899220"><ele>7.7</ele><time>2026-05-21T17:02:35Z</time></trkpt>
			<trkpt lat="54.766600" lon="20.898790"><ele>7.8</ele><time>2026-05-21T17:02:44Z</time></trkpt>
			<trkpt lat="54.766650" lon="20.898440"><ele>7.8</ele><time>2026-05-21T17:02:54Z</time></trkpt>
			<trkpt lat="54.766810" lon="20.898080"><ele>7.8</ele><time>2026-05-21T17:03:03Z</time></trkpt>
			<trkpt lat="54.766900" lon="20.897830"><ele>7.8</ele><time>2026-05-21T17:03:12Z</time></trkpt>
			<trkpt lat="54.767070" lon="20.897590"><ele>7.8</ele><time>2026-05-21T17:03:22Z</time></trkpt>
			<trkpt lat="54.767110" lon="20.897550"><ele>7.8</ele><time>2026-05-21T17:03:31Z</time></trkpt>
			<trkpt lat="54.768210" lon="20.896790"><ele>7.9</ele><time>2026-05-21T17:03:40Z</time></trkpt>
			<trkpt lat="54.770620" lon="20.895040"><ele>8.6</ele><time>2026-05-21T17:03:50Z</time></trkpt>
			<trkpt lat="54.772090" lon="20.893930"><ele>9.1</ele><time>2026-05-21T17:03:59Z</time></trkpt>
			<trkpt lat="54.773610" lon="20.892830"><ele>9.6</ele><time>2026-05-21T17:04:08Z</time></trkpt>
			<trkpt lat="54.775220" lon="20.891620"><ele>9.7</ele><time>2026-05-21T17:04:17Z</time></trkpt>
			<trkpt lat="54.776300" lon="20.890850"><ele>9.8</ele><time>2026-05-21T17:04:27Z</time></trkpt>
			<trkpt lat="54.779800" lon="20.888230"><ele>10.0</ele><time>2026-05-21T17:04:36Z</time></trkpt>
			<trkpt lat="54.780160" lon="20.887970"><ele>10.0</ele><time>2026-05-21T17:04:45Z</time></trkpt>
			<trkpt lat="54.780340" lon="20.887960"><ele>10.0</ele><time>2026-05-21T17:04:55Z</time></trkpt>
			<trkpt lat="54.782540" lon="20.888850"><ele>9.8</ele><time>2026-05-21T17:05:04Z</time></trkpt>
			<trkpt lat="54.782640" lon="20.888850"><ele>9.8</ele><time>2026-05-21T17:05:13Z</time></trkpt>
			<trkpt lat="54.782730" lon="20.888840"><ele>9.8</ele><time>2026-05-21T17:05:22Z</time></trkpt>
			<trkpt lat="54.782920" lon="20.888760"><ele>9.8</ele><time>2026-05-21T17:05:32Z</time></trkpt>
			<trkpt lat="54.784730" lon="20.887660"><ele>9.3</ele><time>2026-05-21T17:05:41Z</time></trkpt>
			<trkpt lat="54.785010" lon="20.887520"><ele>9.2</ele><time>2026-05-21T17:05:50Z</time></trkpt>
			<trkpt lat="54.785230" lon="20.887250"><ele>9.1</ele><time>2026-05-21T17:06:00Z</time></trkpt>
			<trkpt lat="54.785440" lon="20.886920"><ele>9.0</ele><time>2026-05-21T17:06:09Z</time></trkpt>
			<trkpt lat="54.785580" lon="20.886780"><ele>8.9</ele><time>2026-05-21T17:06:18Z</time></trkpt>
			<trkpt lat="54.785730" lon="20.886680"><ele>8.9</ele><time>2026-05-21T17:06:28Z</time></trkpt>
			<trkpt lat="54.786060" lon="20.886550"><ele>8.7</ele><time>2026-05-21T17:06:37Z</time></trkpt>
			<trkpt lat="54.786200" lon="20.886450"><ele>8.7</ele><time>2026-05-21T17:06:46Z</time></trkpt>
			<trkpt lat="54.786530" lon="20.886190"><ele>8.5</ele><time>2026-05-21T17:06:55Z</time></trkpt>
			<trkpt lat="54.786720" lon="20.886470"><ele>8.4</ele><time>2026-05-21T17:07:05Z</time></trkpt>
			<trkpt lat="54.786630" lon="20.886860"><ele>8.3</ele><time>2026-05-21T17:07:14Z</time></trkpt>
			<trkpt lat="54.786580" lon="20.887220"><ele>8.2</ele><time>2026-05-21T17:07:23Z</time></trkpt>
			<trkpt lat="54.786470" lon="20.888140"><ele>8.0</ele><time>2026-05-21T17:07:33Z</time></trkpt>
			<trkpt lat="54.786220" lon="20.890090"><ele>7.5</ele><time>2026-05-21T17:07:42Z</time></trkpt>
			<trkpt lat="54.786200" lon="20.891220"><ele>6.9</ele><time>2026-05-21T17:07:51Z</time></trkpt>
			<trkpt lat="54.786210" lon="20.891390"><ele>6.8</ele><time>2026-05-21T17:08:00Z</time></trkpt>
			<trkpt lat="54.786240" lon="20.891550"><ele>6.7</ele><time>2026-05-21T17:08:10Z</time></trkpt>
			<trkpt lat="54.786320" lon="20.891870"><ele>6.5</ele><time>2026-05-21T17:08:19Z</time></trkpt>
			<trkpt lat="54.787020" lon="20.893460"><ele>5.3</ele><time>2026-05-21T17:08:28Z</time></trkpt>
			<trkpt lat="54.787600" lon="20.895170"><ele>4.1</ele><time>2026-05-21T17:08:38Z</time></trkpt>
			<trkpt lat="54.788470" lon="20.898370"><ele>1.9</ele><time>2026-05-21T17:08:47Z</time></trkpt>
			<trkpt lat="54.788850" lon="20.900010"><ele>1.4</ele><time>2026-05-21T17:08:56Z</time></trkpt>
			<trkpt lat="54.789830" lon="20.904690"><ele>0.1</ele><time>2026-05-21T17:09:05Z</time></trkpt>
			<trkpt lat="54.789880" lon="20.904930"><ele>0.1</ele><time>2026-05-21T17:09:15Z</time></trkpt>
			<trkpt lat="54.790840" lon="20.909690"><ele>-0.4</ele><time>2026-05-21T17:09:24Z</time></trkpt>
			<trkpt lat="54.790980" lon="20.910030"><ele>-0.4</ele><time>2026-05-21T17:09:33Z</time></trkpt>
			<trkpt lat="54.791180" lon="20.910320"><ele>-0.4</ele><time>2026-05-21T17:09:43Z</time></trkpt>
			<trkpt lat="54.793160" lon="20.912120"><ele>-0.2</ele><time>2026-05-21T17:09:52Z</time></trkpt>
			<trkpt lat="54.794370" lon="20.913310"><ele>0.0</ele><time>2026-05-21T17:10:01Z</time></trkpt>
			<trkpt lat="54.795570" lon="20.914450"><ele>0.3</ele><time>2026-05-21T17:10:11Z</time></trkpt>
			<trkpt lat="54.796380" lon="20.914930"><ele>0.5</ele><time>2026-05-21T17:10:20Z</time></trkpt>
			<trkpt lat="54.801190" lon="20.917490"><ele>1.7</ele><time>2026-05-21T17:10:29Z</time></trkpt>
			<trkpt lat="54.804240" lon="20.919000"><ele>2.8</ele><time>2026-05-21T17:10:38Z</time></trkpt>
			<trkpt lat="54.804320" lon="20.919060"><ele>2.9</ele><time>2026-05-21T17:10:48Z</time></trkpt>
			<trkpt lat="54.804940" lon="20.919500"><ele>2.7</ele><time>2026-05-21T17:10:57Z</time></trkpt>
			<trkpt lat="54.805510" lon="20.920490"><ele>2.4</ele><time>2026-05-21T17:11:06Z</time></trkpt>
			<trkpt lat="54.806030" lon="20.921150"><ele>2.2</ele><time>2026-05-21T17:11:16Z</time></trkpt>
			<trkpt lat="54.807400" lon="20.922150"><ele>1.7</ele><time>2026-05-21T17:11:25Z</time></trkpt>
			<trkpt lat="54.807600" lon="20.922280"><ele>1.7</ele><time>2026-05-21T17:11:34Z</time></trkpt>
			<trkpt lat="54.811230" lon="20.924930"><ele>2.3</ele><time>2026-05-21T17:11:43Z</time></trkpt>
			<trkpt lat="54.811610" lon="20.925360"><ele>2.6</ele><time>2026-05-21T17:11:53Z</time></trkpt>
			<trkpt lat="54.814850" lon="20.929920"><ele>4.0</ele><time>2026-05-21T17:12:02Z</time></trkpt>
			<trkpt lat="54.815190" lon="20.930530"><ele>4.0</ele><time>2026-05-21T17:12:11Z</time></trkpt>
			<trkpt lat="54.815660" lon="20.931180"><ele>4.0</ele><time>2026-05-21T17:12:21Z</time></trkpt>
			<trkpt lat="54.816960" lon="20.932980"><ele>4.1</ele><time>2026-05-21T17:12:30Z</time></trkpt>
			<trkpt lat="54.817110" lon="20.933180"><ele>4.1</ele><time>2026-05-21T17:12:39Z</time></trkpt>
			<trkpt lat="54.818480" lon="20.935180"><ele>4.3</ele><time>2026-05-21T17:12:49Z</time></trkpt>
			<trkpt lat="54.818480" lon="20.935180"><ele>4.3</ele><time>2026-05-21T17:12:54Z</time></trkpt>
			<trkpt lat="54.823530" lon="20.942490"><ele>5.4</ele><time>2026-05-21T17:12:59Z</time></trkpt>
			<trkpt lat="54.826990" lon="20.947480"><ele>4.9</ele><time>2026-05-21T17:13:04Z</time></trkpt>
			<trkpt lat="54.827550" lon="20.948250"><ele>4.5</ele><time>2026-05-21T17:13:10Z</time></trkpt>
			<trkpt lat="54.827890" lon="20.948800"><ele>4.2</ele><time>2026-05-21T17:13:15Z</time></trkpt>
			<trkpt lat="54.830660" lon="20.952810"><ele>2.1</ele><time>2026-05-21T17:13:20Z</time></trkpt>
			<trkpt lat="54.831310" lon="20.953740"><ele>1.4</ele><time>2026-05-21T17:13:25Z</time></trkpt>
			<trkpt lat="54.831700" lon="20.954300"><ele>1.0</ele><time>2026-05-21T17:13:31Z</time></trkpt>
			<trkpt lat="54.832130" lon="20.955030"><ele>0.5</ele><time>2026-05-21T17:13:36Z</time></trkpt>
			<trkpt lat="54.832630" lon="20.955960"><ele>-0.1</ele><time>2026-05-21T17:13:41Z</time></trkpt>
			<trkpt lat="54.832880" lon="20.956440"><ele>-0.4</ele><time>2026-05-21T17:13:46Z</time></trkpt>
			<trkpt lat="54.833070" lon="20.956830"><ele>-0.6</ele><time>2026-05-21T17:13:52Z</time></trkpt>
			<trkpt lat="54.833520" lon="20.957800"><ele>-1.2</ele><time>2026-05-21T17:13:57Z</time></trkpt>
			<trkpt lat="54.833590" lon="20.957930"><ele>-1.3</ele><time>2026-05-21T17:14:02Z</time></trkpt>
			<trkpt lat="54.834020" lon="20.958720"><ele>-1.8</ele><time>2026-05-21T17:14:07Z</time></trkpt>
			<trkpt lat="54.834220" lon="20.959210"><ele>-1.5</ele><time>2026-05-21T17:14:13Z</time></trkpt>
			<trkpt lat="54.834310" lon="20.959440"><ele>-1.3</ele><time>2026-05-21T17:14:18Z</time></trkpt>
			<trkpt lat="54.834610" lon="20.960570"><ele>-0.4</ele><time>2026-05-21T17:14:23Z</time></trkpt>
			<trkpt lat="54.834840" lon="20.961740"><ele>0.4</ele><time>2026-05-21T17:14:28Z</time></trkpt>
			<trkpt lat="54.835270" lon="20.963860"><ele>2.0</ele><time>2026-05-21T17:14:34Z</time></trkpt>
			<trkpt lat="54.835510" lon="20.965020"><ele>2.9</ele><time>2026-05-21T17:14:39Z</time></trkpt>
			<trkpt lat="54.836180" lon="20.968210"><ele>5.0</ele><time>2026-05-21T17:14:44Z</time></trkpt>
			<trkpt lat="54.836680" lon="20.970430"><ele>5.6</ele><time>2026-05-21T17:14:49Z</time></trkpt>
			<trkpt lat="54.836920" lon="20.971500"><ele>6.0</ele><time>2026-05-21T17:14:55Z</time></trkpt>
			<trkpt lat="54.837050" lon="20.972100"><ele>6.2</ele><time>2026-05-21T17:15:00Z</time></trkpt>
			<trkpt lat="54.837800" lon="20.975390"><ele>7.2</ele><time>2026-05-21T17:15:05Z</time></trkpt>
			<trkpt lat="54.838070" lon="20.976630"><ele>7.4</ele><time>2026-05-21T17:15:10Z</time></trkpt>
			<trkpt lat="54.838090" lon="20.976710"><ele>7.4</ele><time>2026-05-21T17:15:16Z</time></trkpt>
			<trkpt lat="54.838440" lon="20.978300"><ele>7.3</ele><time>2026-05-21T17:15:21Z</time></trkpt>
			<trkpt lat="54.839410" lon="20.982680"><ele>6.9</ele><time>2026-05-21T17:15:26Z</time></trkpt>
			<trkpt lat="54.839580" lon="20.983510"><ele>6.9</ele><time>2026-05-21T17:15:31Z</time></trkpt>
			<trkpt lat="54.839620" lon="20.983700"><ele>6.9</ele><time>2026-05-21T17:15:37Z</time></trkpt>
			<trkpt lat="54.839680" lon="20.984000"><ele>6.8</ele><time>2026-05-21T17:15:42Z</time></trkpt>
			<trkpt lat="54.839740" lon="20.984360"><ele>6.8</ele><time>2026-05-21T17:15:47Z</time></trkpt>
			<trkpt lat="54.839820" lon="20.984880"><ele>6.8</ele><time>2026-05-21T17:15:52Z</time></trkpt>
			<trkpt lat="54.840570" lon="20.991550"><ele>3.9</ele><time>2026-05-21T17:15:58Z</time></trkpt>
			<trkpt lat="54.840600" lon="20.991800"><ele>3.8</ele><time>2026-05-21T17:16:03Z</time></trkpt>
			<trkpt lat="54.841620" lon="20.999500"><ele>2.9</ele><time>2026-05-21T17:16:08Z</time></trkpt>
			<trkpt lat="54.841810" lon="21.000880"><ele>2.9</ele><time>2026-05-21T17:16:13Z</time></trkpt>
			<trkpt lat="54.841970" lon="21.001790"><ele>2.9</ele><time>2026-05-21T17:16:19Z</time></trkpt>
			<trkpt lat="54.842640" lon="21.005020"><ele>2.9</ele><time>2026-05-21T17:16:24Z</time></trkpt>
			<trkpt lat="54.843100" lon="21.007310"><ele>2.9</ele><time>2026-05-21T17:16:29Z</time></trkpt>
			<trkpt lat="54.843280" lon="21.008310"><ele>2.9</ele><time>2026-05-21T17:16:34Z</time></trkpt>
			<trkpt lat="54.843400" lon="21.009500"><ele>2.9</ele><time>2026-05-21T17:16:40Z</time></trkpt>
			<trkpt lat="54.843940" lon="21.014960"><ele>3.9</ele><time>2026-05-21T17:16:45Z</time></trkpt>
			<trkpt lat="54.843900" lon="21.016590"><ele>4.6</ele><time>2026-05-21T17:16:50Z</time></trkpt>
			<trkpt lat="54.843800" lon="21.019910"><ele>5.9</ele><time>2026-05-21T17:16:55Z</time></trkpt>
			<trkpt lat="54.843760" lon="21.021210"><ele>6.4</ele><time>2026-05-21T17:17:01Z</time></trkpt>
			<trkpt lat="54.843730" lon="21.021820"><ele>6.5</ele><time>2026-05-21T17:17:06Z</time></trkpt>
			<trkpt lat="54.843720" lon="21.022000"><ele>6.5</ele><time>2026-05-21T17:17:11Z</time></trkpt>
			<trkpt lat="54.843730" lon="21.022550"><ele>6.5</ele><time>2026-05-21T17:17:16Z</time></trkpt>
			<trkpt lat="54.843770" lon="21.022960"><ele>6.5</ele><time>2026-05-21T17:17:22Z</time></trkpt>
			<trkpt lat="54.843830" lon="21.023320"><ele>6.5</ele><time>2026-05-21T17:17:27Z</time></trkpt>
			<trkpt lat="54.844090" lon="21.024660"><ele>6.4</ele><time>2026-05-21T17:17:32Z</time></trkpt>
			<trkpt lat="54.844190" lon="21.025740"><ele>6.4</ele><time>2026-05-21T17:17:37Z</time></trkpt>
			<trkpt lat="54.844200" lon="21.029100"><ele>6.2</ele><time>2026-05-21T17:17:43Z</time></trkpt>
			<trkpt lat="54.844170" lon="21.029610"><ele>6.2</ele><time>2026-05-21T17:17:48Z</time></trkpt>
			<trkpt lat="54.844080" lon="21.030200"><ele>6.2</ele><time>2026-05-21T17:17:53Z</time></trkpt>
			<trkpt lat="54.844040" lon="21.030500"><ele>6.2</ele><time>2026-05-21T17:17:58Z</time></trkpt>
			<trkpt lat="54.844010" lon="21.030940"><ele>6.1</ele><time>2026-05-21T17:18:04Z</time></trkpt>
			<trkpt lat="54.844000" lon="21.031550"><ele>5.9</ele><time>2026-05-21T17:18:09Z</time></trkpt>
			<trkpt lat="54.844000" lon="21.031840"><ele>5.8</ele><time>2026-05-21T17:18:14Z</time></trkpt>
			<trkpt lat="54.843870" lon="21.033470"><ele>5.3</ele><time>2026-05-21T17:18:19Z</time></trkpt>
			<trkpt lat="54.843780" lon="21.034490"><ele>4.9</ele><time>2026-05-21T17:18:25Z</time></trkpt>
			<trkpt lat="54.843640" lon="21.036060"><ele>4.4</ele><time>2026-05-21T17:18:30Z</time></trkpt>
			<trkpt lat="54.842520" lon="21.048250"><ele>4.2</ele><time>2026-05-21T17:18:35Z</time></trkpt>
			<trkpt lat="54.841760" lon="21.056490"><ele>7.8</ele><time>2026-05-21T17:18:40Z</time></trkpt>
			<trkpt lat="54.841730" lon="21.056930"><ele>8.0</ele><time>2026-05-21T17:18:46Z</time></trkpt>
			<trkpt lat="54.841730" lon="21.057500"><ele>8.2</ele><time>2026-05-21T17:18:51Z</time></trkpt>
			<trkpt lat="54.841770" lon="21.058060"><ele>8.5</ele><time>2026-05-21T17:18:56Z</time></trkpt>
			<trkpt lat="54.841850" lon="21.058700"><ele>8.7</ele><time>2026-05-21T17:19:01Z</time></trkpt>
			<trkpt lat="54.842150" lon="21.061120"><ele>8.4</ele><time>2026-05-21T17:19:07Z</time></trkpt>
			<trkpt lat="54.842230" lon="21.061720"><ele>8.3</ele><time>2026-05-21T17:19:12Z</time></trkpt>
			<trkpt lat="54.842390" lon="21.062450"><ele>8.2</ele><time>2026-05-21T17:19:17Z</time></trkpt>
			<trkpt lat="54.842440" lon="21.062570"><ele>8.2</ele><time>2026-05-21T17:19:22Z</time></trkpt>
			<trkpt lat="54.842770" lon="21.063420"><ele>8.1</ele><time>2026-05-21T17:19:28Z</time></trkpt>
			<trkpt lat="54.843550" lon="21.065460"><ele>7.8</ele><time>2026-05-21T17:19:33Z</time></trkpt>
			<trkpt lat="54.843840" lon="21.066190"><ele>7.6</ele><time>2026-05-21T17:19:38Z</time></trkpt>
			<trkpt lat="54.844990" lon="21.069100"><ele>6.3</ele><time>2026-05-21T17:19:43Z</time></trkpt>
			<trkpt lat="54.847980" lon="21.076700"><ele>3.5</ele><time>2026-05-21T17:19:49Z</time></trkpt>
			<trkpt lat="54.848380" lon="21.077720"><ele>3.8</ele><time>2026-05-21T17:19:54Z</time></trkpt>
			<trkpt lat="54.849230" lon="21.079890"><ele>4.3</ele><time>2026-05-21T17:19:59Z</time></trkpt>
			<trkpt lat="54.849470" lon="21.080490"><ele>4.4</ele><time>2026-05-21T17:20:04Z</time></trkpt>
			<trkpt lat="54.849880" lon="21.081500"><ele>4.6</ele><time>2026-05-21T17:20:10Z</time></trkpt>
			<trkpt lat="54.850130" lon="21.082140"><ele>4.8</ele><time>2026-05-21T17:20:15Z</time></trkpt>
			<trkpt lat="54.850350" lon="21.082710"><ele>4.8</ele><time>2026-05-21T17:20:20Z</time></trkpt>
			<trkpt lat="54.850640" lon="21.083460"><ele>4.6</ele><time>2026-05-21T17:20:25Z</time></trkpt>
			<trkpt lat="54.850870" lon="21.084070"><ele>4.4</ele><time>2026-05-21T17:20:31Z</time></trkpt>
			<trkpt lat="54.851740" lon="21.086330"><ele>3.8</ele><time>2026-05-21T17:20:36Z</time></trkpt>
			<trkpt lat="54.851910" lon="21.086780"><ele>3.7</ele><time>2026-05-21T17:20:41Z</time></trkpt>
			<trkpt lat="54.852120" lon="21.087320"><ele>3.6</ele><time>2026-05-21T17:20:46Z</time></trkpt>
			<trkpt lat="54.853150" lon="21.090050"><ele>2.9</ele><time>2026-05-21T17:20:52Z</time></trkpt>
			<trkpt lat="54.853360" lon="21.090630"><ele>2.7</ele><time>2026-05-21T17:20:57Z</time></trkpt>
			<trkpt lat="54.853630" lon="21.091340"><ele>2.6</ele><time>2026-05-21T17:21:02Z</time></trkpt>
			<trkpt lat="54.853760" lon="21.091670"><ele>2.6</ele><time>2026-05-21T17:21:07Z</time></trkpt>
			<trkpt lat="54.853800" lon="21.091760"><ele>2.6</ele><time>2026-05-21T17:21:13Z</time></trkpt>
			<trkpt lat="54.854150" lon="21.092650"><ele>2.4</ele><time>2026-05-21T17:21:18Z</time></trkpt>
			<trkpt lat="54.854200" lon="21.092780"><ele>2.4</ele><time>2026-05-21T17:21:23Z</time></trkpt>
			<trkpt lat="54.854280" lon="21.092990"><ele>2.4</ele><time>2026-05-21T17:21:28Z</time></trkpt>
			<trkpt lat="54.854420" lon="21.093340"><ele>2.3</ele><time>2026-05-21T17:21:34Z</time></trkpt>
			<trkpt lat="54.854450" lon="21.093430"><ele>2.3</ele><time>2026-05-21T17:21:39Z</time></trkpt>
			<trkpt lat="54.854690" lon="21.094060"><ele>2.2</ele><time>2026-05-21T17:21:44Z</time></trkpt>
			<trkpt lat="54.854990" lon="21.094830"><ele>2.1</ele><time>2026-05-21T17:21:49Z</time></trkpt>
			<trkpt lat="54.855610" lon="21.096400"><ele>1.8</ele><time>2026-05-21T17:21:55Z</time></trkpt>
			<trkpt lat="54.855770" lon="21.096830"><ele>1.7</ele><time>2026-05-21T17:22:00Z</time></trkpt>
			<trkpt lat="54.855920" lon="21.097220"><ele>1.7</ele><time>2026-05-21T17:22:05Z</time></trkpt>
			<trkpt lat="54.856070" lon="21.097630"><ele>1.6</ele><time>2026-05-21T17:22:10Z</time></trkpt>
			<trkpt lat="54.856250" lon="21.098150"><ele>1.6</ele><time>2026-05-21T17:22:16Z</time></trkpt>
			<trkpt lat="54.856350" lon="21.098390"><ele>1.6</ele><time>2026-05-21T17:22:21Z</time></trkpt>
			<trkpt lat="54.857060" lon="21.100270"><ele>1.9</ele><time>2026-05-21T17:22:26Z</time></trkpt>
			<trkpt lat="54.857150" lon="21.100490"><ele>1.9</ele><time>2026-05-21T17:22:31Z</time></trkpt>
			<trkpt lat="54.857380" lon="21.101080"><ele>2.0</ele><time>2026-05-21T17:22:37Z</time></trkpt>
			<trkpt lat="54.857810" lon="21.102290"><ele>2.2</ele><time>2026-05-21T17:22:42Z</time></trkpt>
			<trkpt lat="54.857920" lon="21.102580"><ele>2.2</ele><time>2026-05-21T17:22:47Z</time></trkpt>
			<trkpt lat="54.857960" lon="21.102670"><ele>2.2</ele><time>2026-05-21T17:22:52Z</time></trkpt>
			<trkpt lat="54.858170" lon="21.103120"><ele>2.3</ele><time>2026-05-21T17:22:58Z</time></trkpt>
			<trkpt lat="54.858340" lon="21.103480"><ele>2.3</ele><time>2026-05-21T17:23:03Z</time></trkpt>
			<trkpt lat="54.858400" lon="21.103610"><ele>2.4</ele><time>2026-05-21T17:23:08Z</time></trkpt>
			<trkpt lat="54.858690" lon="21.104200"><ele>2.5</ele><time>2026-05-21T17:23:13Z</time></trkpt>
			<trkpt lat="54.858930" lon="21.104690"><ele>2.5</ele><time>2026-05-21T17:23:19Z</time></trkpt>
			<trkpt lat="54.859200" lon="21.105330"><ele>2.6</ele><time>2026-05-21T17:23:24Z</time></trkpt>
			<trkpt lat="54.859310" lon="21.105630"><ele>2.7</ele><time>2026-05-21T17:23:29Z</time></trkpt>
			<trkpt lat="54.859430" lon="21.105960"><ele>2.5</ele><time>2026-05-21T17:23:34Z</time></trkpt>
			<trkpt lat="54.859480" lon="21.106120"><ele>2.5</ele><time>2026-05-21T17:23:40Z</time></trkpt>
			<trkpt lat="54.859820" lon="21.107090"><ele>2.1</ele><time>2026-05-21T17:23:45Z</time></trkpt>
			<trkpt lat="54.859830" lon="21.107120"><ele>2.1</ele><time>2026-05-21T17:23:50Z</time></trkpt>
			<trkpt lat="54.860010" lon="21.107630"><ele>1.9</ele><time>2026-05-21T17:23:55Z</time></trkpt>
			<trkpt lat="54.860360" lon="21.108570"><ele>1.5</ele><time>2026-05-21T17:24:01Z</time></trkpt>
			<trkpt lat="54.860410" lon="21.108660"><ele>1.4</ele><time>2026-05-21T17:24:06Z</time></trkpt>
			<trkpt lat="54.860460" lon="21.108760"><ele>1.4</ele><time>2026-05-21T17:24:11Z</time></trkpt>
			<trkpt lat="54.860630" lon="21.109020"><ele>1.2</ele><time>2026-05-21T17:24:16Z</time></trkpt>
			<trkpt lat="54.860770" lon="21.109160"><ele>1.1</ele><time>2026-05-21T17:24:22Z</time></trkpt>
			<trkpt lat="54.860830" lon="21.109220"><ele>1.1</ele><time>2026-05-21T17:24:27Z</time></trkpt>
			<trkpt lat="54.860940" lon="21.109310"><ele>1.0</ele><time>2026-05-21T17:24:32Z</time></trkpt>
			<trkpt lat="54.861540" lon="21.109670"><ele>0.6</ele><time>2026-05-21T17:24:37Z</time></trkpt>
			<trkpt lat="54.862280" lon="21.110190"><ele>0.1</ele><time>2026-05-21T17:24:43Z</time></trkpt>
			<trkpt lat="54.862430" lon="21.110290"><ele>0.0</ele><time>2026-05-21T17:24:48Z</time></trkpt>
			<trkpt lat="54.862550" lon="21.110360"><ele>-0.0</ele><time>2026-05-21T17:24:53Z</time></trkpt>
			<trkpt lat="54.862770" lon="21.110510"><ele>-0.2</ele><time>2026-05-21T17:24:58Z</time></trkpt>
			<trkpt lat="54.862860" lon="21.110670"><ele>-0.3</ele><time>2026-05-21T17:25:04Z</time></trkpt>
			<trkpt lat="54.862920" lon="21.110850"><ele>-0.3</ele><time>2026-05-21T17:25:09Z</time></trkpt>
			<trkpt lat="54.862950" lon="21.110950"><ele>-0.4</ele><time>2026-05-21T17:25:14Z</time></trkpt>
			<trkpt lat="54.863220" lon="21.111810"><ele>-0.5</ele><time>2026-05-21T17:25:19Z</time></trkpt>
			<trkpt lat="54.863360" lon="21.112240"><ele>-0.4</ele><time>2026-05-21T17:25:25Z</time></trkpt>
			<trkpt lat="54.863810" lon="21.113660"><ele>0.1</ele><time>2026-05-21T17:25:30Z</time></trkpt>
			<trkpt lat="54.863870" lon="21.113890"><ele>0.2</ele><time>2026-05-21T17:25:35Z</time></trkpt>
			<trkpt lat="54.863930" lon="21.114080"><ele>0.2</ele><time>2026-05-21T17:25:40Z</time></trkpt>
			<trkpt lat="54.864280" lon="21.115140"><ele>0.6</ele><time>2026-05-21T17:25:46Z</time></trkpt>
			<trkpt lat="54.864520" lon="21.115890"><ele>0.9</ele><time>2026-05-21T17:25:51Z</time></trkpt>
			<trkpt lat="54.864700" lon="21.116370"><ele>1.0</ele><time>2026-05-21T17:25:56Z</time></trkpt>
			<trkpt lat="54.864920" lon="21.116900"><ele>1.2</ele><time>2026-05-21T17:26:01Z</time></trkpt>
			<trkpt lat="54.865090" lon="21.117340"><ele>1.4</ele><time>2026-05-21T17:26:07Z</time></trkpt>
			<trkpt lat="54.865280" lon="21.117820"><ele>1.6</ele><time>2026-05-21T17:26:12Z</time></trkpt>
			<trkpt lat="54.865380" lon="21.118100"><ele>1.7</ele><time>2026-05-21T17:26:17Z</time></trkpt>
			<trkpt lat="54.865790" lon="21.119300"><ele>2.1</ele><time>2026-05-21T17:26:22Z</time></trkpt>
			<trkpt lat="54.866230" lon="21.120500"><ele>1.8</ele><time>2026-05-21T17:26:28Z</time></trkpt>
			<trkpt lat="54.866360" lon="21.121000"><ele>1.5</ele><time>2026-05-21T17:26:33Z</time></trkpt>
			<trkpt lat="54.866530" lon="21.121860"><ele>1.1</ele><time>2026-05-21T17:26:38Z</time></trkpt>
			<trkpt lat="54.866640" lon="21.122470"><ele>0.9</ele><time>2026-05-21T17:26:43Z</time></trkpt>
			<trkpt lat="54.866750" lon="21.123160"><ele>0.6</ele><time>2026-05-21T17:26:49Z</time></trkpt>
			<trkpt lat="54.866770" lon="21.124130"><ele>0.2</ele><time>2026-05-21T17:26:54Z</time></trkpt>
			<trkpt lat="54.866720" lon="21.124610"><ele>-0.1</ele><time>2026-05-21T17:26:59Z</time></trkpt>
			<trkpt lat="54.866690" lon="21.124980"><ele>-0.2</ele><time>2026-05-21T17:27:04Z</time></trkpt>
			<trkpt lat="54.866650" lon="21.125280"><ele>-0.3</ele><time>2026-05-21T17:27:10Z</time></trkpt>
			<trkpt lat="54.866560" lon="21.125860"><ele>-0.6</ele><time>2026-05-21T17:27:15Z</time></trkpt>
			<trkpt lat="54.866080" lon="21.129100"><ele>-1.7</ele><time>2026-05-21T17:27:20Z</time></trkpt>
			<trkpt lat="54.865170" lon="21.133880"><ele>-1.3</ele><time>2026-05-21T17:27:25Z</time></trkpt>
			<trkpt lat="54.865120" lon="21.134220"><ele>-1.3</ele><time>2026-05-21T17:27:31Z</time></trkpt>
			<trkpt lat="54.864140" lon="21.140260"><ele>-1.5</ele><time>2026-05-21T17:27:36Z</time></trkpt>
			<trkpt lat="54.864140" lon="21.140260"><ele>-1.5</ele><time>2026-05-21T17:27:42Z</time></trkpt>
			<trkpt lat="54.863990" lon="21.141130"><ele>-1.7</ele><time>2026-05-21T17:27:48Z</time></trkpt>
			<trkpt lat="54.863890" lon="21.141910"><ele>-1.8</ele><time>2026-05-21T17:27:54Z</time></trkpt>
			<trkpt lat="54.863840" lon="21.142370"><ele>-1.9</ele><time>2026-05-21T17:28:01Z</time></trkpt>
			<trkpt lat="54.863820" lon="21.142990"><ele>-2.0</ele><time>2026-05-21T17:28:07Z</time></trkpt>
			<trkpt lat="54.863830" lon="21.145560"><ele>-2.5</ele><time>2026-05-21T17:28:13Z</time></trkpt>
			<trkpt lat="54.863850" lon="21.146920"><ele>-2.7</ele><time>2026-05-21T17:28:19Z</time></trkpt>
			<trkpt lat="54.863890" lon="21.147550"><ele>-2.7</ele><time>2026-05-21T17:28:25Z</time></trkpt>
			<trkpt lat="54.864060" lon="21.149470"><ele>-2.9</ele><time>2026-05-21T17:28:32Z</time></trkpt>
			<trkpt lat="54.864190" lon="21.150880"><ele>-3.0</ele><time>2026-05-21T17:28:38Z</time></trkpt>
			<trkpt lat="54.864210" lon="21.151340"><ele>-3.0</ele><time>2026-05-21T17:28:44Z</time></trkpt>
			<trkpt lat="54.864190" lon="21.152030"><ele>-3.1</ele><time>2026-05-21T17:28:50Z</time></trkpt>
			<trkpt lat="54.863970" lon="21.154180"><ele>-3.2</ele><time>2026-05-21T17:28:56Z</time></trkpt>
			<trkpt lat="54.863610" lon="21.157990"><ele>-2.8</ele><time>2026-05-21T17:29:03Z</time></trkpt>
			<trkpt lat="54.863380" lon="21.160060"><ele>-2.3</ele><time>2026-05-21T17:29:09Z</time></trkpt>
			<trkpt lat="54.863320" lon="21.160550"><ele>-2.1</ele><time>2026-05-21T17:29:15Z</time></trkpt>
			<trkpt lat="54.863170" lon="21.161390"><ele>-1.9</ele><time>2026-05-21T17:29:21Z</time></trkpt>
			<trkpt lat="54.862960" lon="21.162070"><ele>-1.7</ele><time>2026-05-21T17:29:27Z</time></trkpt>
			<trkpt lat="54.862430" lon="21.163270"><ele>-1.3</ele><time>2026-05-21T17:29:34Z</time></trkpt>
			<trkpt lat="54.862270" lon="21.163740"><ele>-1.1</ele><time>2026-05-21T17:29:40Z</time></trkpt>
			<trkpt lat="54.862090" lon="21.164560"><ele>-0.9</ele><time>2026-05-21T17:29:46Z</time></trkpt>
			<trkpt lat="54.861360" lon="21.168520"><ele>-0.9</ele><time>2026-05-21T17:29:52Z</time></trkpt>
			<trkpt lat="54.860890" lon="21.170760"><ele>-0.9</ele><time>2026-05-21T17:29:58Z</time></trkpt>
			<trkpt lat="54.860570" lon="21.172180"><ele>-0.9</ele><time>2026-05-21T17:30:05Z</time></trkpt>
			<trkpt lat="54.860470" lon="21.172680"><ele>-0.9</ele><time>2026-05-21T17:30:11Z</time></trkpt>
			<trkpt lat="54.860390" lon="21.173530"><ele>-0.9</ele><time>2026-05-21T17:30:17Z</time></trkpt>
			<trkpt lat="54.860310" lon="21.174110"><ele>-0.8</ele><time>2026-05-21T17:30:23Z</time></trkpt>
			<trkpt lat="54.859830" lon="21.176760"><ele>0.0</ele><time>2026-05-21T17:30:29Z</time></trkpt>
			<trkpt lat="54.859590" lon="21.177930"><ele>0.4</ele><time>2026-05-21T17:30:36Z</time></trkpt>
			<trkpt lat="54.859360" lon="21.178680"><ele>0.6</ele><time>2026-05-21T17:30:42Z</time></trkpt>
			<trkpt lat="54.859030" lon="21.179520"><ele>0.9</ele><time>2026-05-21T17:30:48Z</time></trkpt>
			<trkpt lat="54.858480" lon="21.180500"><ele>1.3</ele><time>2026-05-21T17:30:54Z</time></trkpt>
			<trkpt lat="54.857990" lon="21.181270"><ele>1.6</ele><time>2026-05-21T17:31:00Z</time></trkpt>
			<trkpt lat="54.857400" lon="21.182100"><ele>1.6</ele><time>2026-05-21T17:31:07Z</time></trkpt>
			<trkpt lat="54.856640" lon="21.183140"><ele>1.2</ele><time>2026-05-21T17:31:13Z</time></trkpt>
			<trkpt lat="54.855970" lon="21.183940"><ele>0.9</ele><time>2026-05-21T17:31:19Z</time></trkpt>
			<trkpt lat="54.855610" lon="21.184330"><ele>0.8</ele><time>2026-05-21T17:31:25Z</time></trkpt>
			<trkpt lat="54.855380" lon="21.184590"><ele>0.7</ele><time>2026-05-21T17:31:31Z</time></trkpt>
			<trkpt lat="54.852120" lon="21.187950"><ele>-0.1</ele><time>2026-05-21T17:31:38Z</time></trkpt>
			<trkpt lat="54.849620" lon="21.190530"><ele>-0.1</ele><time>2026-05-21T17:31:44Z</time></trkpt>
			<trkpt lat="54.848800" lon="21.191420"><ele>-0.1</ele><time>2026-05-21T17:31:50Z</time></trkpt>
			<trkpt lat="54.848280" lon="21.191910"><ele>-0.1</ele><time>2026-05-21T17:31:56Z</time></trkpt>
			<trkpt lat="54.847850" lon="21.192220"><ele>-0.2</ele><time>2026-05-21T17:32:02Z</time></trkpt>
			<trkpt lat="54.847420" lon="21.192400"><ele>-0.2</ele><time>2026-05-21T17:32:09Z</time></trkpt>
			<trkpt lat="54.846890" lon="21.192460"><ele>-0.2</ele><time>2026-05-21T17:32:15Z</time></trkpt>
			<trkpt lat="54.846100" lon="21.192520"><ele>-0.2</ele><time>2026-05-21T17:32:21Z</time></trkpt>
			<trkpt lat="54.845830" lon="21.192570"><ele>-0.2</ele><time>2026-05-21T17:32:27Z</time></trkpt>
			<trkpt lat="54.845700" lon="21.192610"><ele>-0.2</ele><time>2026-05-21T17:32:33Z</time></trkpt>
			<trkpt lat="54.845550" lon="21.192700"><ele>-0.2</ele><time>2026-05-21T17:32:40Z</time></trkpt>
			<trkpt lat="54.845380" lon="21.192850"><ele>-0.3</ele><time>2026-05-21T17:32:46Z</time></trkpt>
			<trkpt lat="54.845220" lon="21.193040"><ele>-0.3</ele><time>2026-05-21T17:32:52Z</time></trkpt>
			<trkpt lat="54.845110" lon="21.193200"><ele>-0.3</ele><time>2026-05-21T17:32:58Z</time></trkpt>
			<trkpt lat="54.844890" lon="21.193530"><ele>-0.3</ele><time>2026-05-21T17:33:04Z</time></trkpt>
			<trkpt lat="54.844750" lon="21.193740"><ele>-0.3</ele><time>2026-05-21T17:33:11Z</time></trkpt>
			<trkpt lat="54.844140" lon="21.194690"><ele>-0.3</ele><time>2026-05-21T17:33:17Z</time></trkpt>
			<trkpt lat="54.844050" lon="21.194860"><ele>-0.3</ele><time>2026-05-21T17:33:23Z</time></trkpt>
			<trkpt lat="54.843990" lon="21.195010"><ele>-0.3</ele><time>2026-05-21T17:33:29Z</time></trkpt>
			<trkpt lat="54.843930" lon="21.195210"><ele>-0.3</ele><time>2026-05-21T17:33:35Z</time></trkpt>
			<trkpt lat="54.843900" lon="21.195400"><ele>-0.4</ele><time>2026-05-21T17:33:42Z</time></trkpt>
			<trkpt lat="54.843880" lon="21.195590"><ele>-0.4</ele><time>2026-05-21T17:33:48Z</time></trkpt>
			<trkpt lat="54.843860" lon="21.195830"><ele>-0.4</ele><time>2026-05-21T17:33:54Z</time></trkpt>
			<trkpt lat="54.843950" lon="21.202190"><ele>-0.9</ele><time>2026-05-21T17:34:00Z</time></trkpt>
			<trkpt lat="54.843890" lon="21.203450"><ele>-1.0</ele><time>2026-05-21T17:34:06Z</time></trkpt>
			<trkpt lat="54.843850" lon="21.204190"><ele>-1.1</ele><time>2026-05-21T17:34:13Z</time></trkpt>
			<trkpt lat="54.843670" lon="21.205840"><ele>-0.8</ele><time>2026-05-21T17:34:19Z</time></trkpt>
			<trkpt lat="54.843420" lon="21.207810"><ele>-0.3</ele><time>2026-05-21T17:34:25Z</time></trkpt>
			<trkpt lat="54.843270" lon="21.208700"><ele>-0.1</ele><time>2026-05-21T17:34:31Z</time></trkpt>
			<trkpt lat="54.843010" lon="21.210300"><ele>0.2</ele><time>2026-05-21T17:34:37Z</time></trkpt>
			<trkpt lat="54.842830" lon="21.211340"><ele>0.5</ele><time>2026-05-21T17:34:44Z</time></trkpt>
			<trkpt lat="54.842500" lon="21.212580"><ele>0.8</ele><time>2026-05-21T17:34:50Z</time></trkpt>
			<trkpt lat="54.842100" lon="21.214000"><ele>1.0</ele><time>2026-05-21T17:34:56Z</time></trkpt>
			<trkpt lat="54.838400" lon="21.224030"><ele>0.2</ele><time>2026-05-21T17:35:02Z</time></trkpt>
			<trkpt lat="54.838100" lon="21.224820"><ele>0.2</ele><time>2026-05-21T17:35:08Z</time></trkpt>
			<trkpt lat="54.837130" lon="21.227560"><ele>0.1</ele><time>2026-05-21T17:35:15Z</time></trkpt>
			<trkpt lat="54.836680" lon="21.229030"><ele>0.0</ele><time>2026-05-21T17:35:21Z</time></trkpt>
			<trkpt lat="54.834830" lon="21.235080"><ele>1.4</ele><time>2026-05-21T17:35:27Z</time></trkpt>
			<trkpt lat="54.833470" lon="21.239530"><ele>2.3</ele><time>2026-05-21T17:35:33Z</time></trkpt>
			<trkpt lat="54.833120" lon="21.240690"><ele>2.5</ele><time>2026-05-21T17:35:39Z</time></trkpt>
			<trkpt lat="54.831590" lon="21.245530"><ele>3.2</ele><time>2026-05-21T17:35:46Z</time></trkpt>
			<trkpt lat="54.830860" lon="21.247890"><ele>3.4</ele><time>2026-05-21T17:35:52Z</time></trkpt>
			<trkpt lat="54.830590" lon="21.248770"><ele>3.4</ele><time>2026-05-21T17:35:58Z</time></trkpt>
			<trkpt lat="54.830340" lon="21.249590"><ele>3.5</ele><time>2026-05-21T17:36:04Z</time></trkpt>
			<trkpt lat="54.829290" lon="21.253450"><ele>3.7</ele><time>2026-05-21T17:36:10Z</time></trkpt>
			<trkpt lat="54.829120" lon="21.254160"><ele>3.8</ele><time>2026-05-21T17:36:17Z</time></trkpt>
			<trkpt lat="54.827310" lon="21.261640"><ele>3.6</ele><time>2026-05-21T17:36:23Z</time></trkpt>
			<trkpt lat="54.826280" lon="21.265900"><ele>4.0</ele><time>2026-05-21T17:36:29Z</time></trkpt>
			<trkpt lat="54.825300" lon="21.269960"><ele>4.6</ele><time>2026-05-21T17:36:35Z</time></trkpt>
			<trkpt lat="54.824820" lon="21.272070"><ele>4.9</ele><time>2026-05-21T17:36:41Z</time></trkpt>
			<trkpt lat="54.824430" lon="21.274280"><ele>4.8</ele><time>2026-05-21T17:36:48Z</time></trkpt>
			<trkpt lat="54.823650" lon="21.279940"><ele>4.8</ele><time>2026-05-21T17:36:54Z</time></trkpt>
			<trkpt lat="54.823220" lon="21.283000"><ele>4.8</ele><time>2026-05-21T17:37:00Z</time></trkpt>
			<trkpt lat="54.821800" lon="21.293450"><ele>4.5</ele><time>2026-05-21T17:37:06Z</time></trkpt>
			<trkpt lat="54.821730" lon="21.294190"><ele>4.4</ele><time>2026-05-21T17:37:12Z</time></trkpt>
			<trkpt lat="54.821570" lon="21.295810"><ele>4.4</ele><time>2026-05-21T17:37:19Z</time></trkpt>
			<trkpt lat="54.821150" lon="21.302830"><ele>5.7</ele><time>2026-05-21T17:37:25Z</time></trkpt>
			<trkpt lat="54.820790" lon="21.308600"><ele>7.6</ele><time>2026-05-21T17:37:31Z</time></trkpt>
			<trkpt lat="54.820340" lon="21.316380"><ele>7.4</ele><time>2026-05-21T17:37:37Z</time></trkpt>
			<trkpt lat="54.820300" lon="21.317150"><ele>7.4</ele><time>2026-05-21T17:37:43Z</time></trkpt>
			<trkpt lat="54.820310" lon="21.317950"><ele>7.3</ele><time>2026-05-21T17:37:50Z</time></trkpt>
			<trkpt lat="54.820390" lon="21.319070"><ele>7.3</ele><time>2026-05-21T17:37:56Z</time></trkpt>
			<trkpt lat="54.820520" lon="21.320360"><ele>7.3</ele><time>2026-05-21T17:38:02Z</time></trkpt>
			<trkpt lat="54.820730" lon="21.322180"><ele>7.4</ele><time>2026-05-21T17:38:08Z</time></trkpt>
			<trkpt lat="54.821420" lon="21.327720"><ele>7.4</ele><time>2026-05-21T17:38:15Z</time></trkpt>
			<trkpt lat="54.821460" lon="21.328060"><ele>7.4</ele><time>2026-05-21T17:38:21Z</time></trkpt>
			<trkpt lat="54.822130" lon="21.333460"><ele>7.6</ele><time>2026-05-21T17:38:27Z</time></trkpt>
			<trkpt lat="54.822340" lon="21.335260"><ele>7.7</ele><time>2026-05-21T17:38:33Z</time></trkpt>
			<trkpt lat="54.823000" lon="21.340890"><ele>9.3</ele><time>2026-05-21T17:38:39Z</time></trkpt>
			<trkpt lat="54.823310" lon="21.343610"><ele>10.2</ele><time>2026-05-21T17:38:46Z</time></trkpt>
			<trkpt lat="54.823490" lon="21.345130"><ele>10.7</ele><time>2026-05-21T17:38:52Z</time></trkpt>
			<trkpt lat="54.823810" lon="21.348060"><ele>9.7</ele><time>2026-05-21T17:38:58Z</time></trkpt>
			<trkpt lat="54.824010" lon="21.349710"><ele>9.1</ele><time>2026-05-21T17:39:04Z</time></trkpt>
			<trkpt lat="54.824080" lon="21.350290"><ele>8.9</ele><time>2026-05-21T17:39:10Z</time></trkpt>
			<trkpt lat="54.824170" lon="21.351070"><ele>8.7</ele><time>2026-05-21T17:39:17Z</time></trkpt>
			<trkpt lat="54.824290" lon="21.351800"><ele>8.4</ele><time>2026-05-21T17:39:23Z</time></trkpt>
			<trkpt lat="54.824470" lon="21.352900"><ele>8.0</ele><time>2026-05-21T17:39:29Z</time></trkpt>
			<trkpt lat="54.824690" lon="21.354350"><ele>7.6</ele><time>2026-05-21T17:39:35Z</time></trkpt>
			<trkpt lat="54.824710" lon="21.354480"><ele>7.6</ele><time>2026-05-21T17:39:41Z</time></trkpt>
			<trkpt lat="54.824860" lon="21.355340"><ele>7.5</ele><time>2026-05-21T17:39:48Z</time></trkpt>
			<trkpt lat="54.825090" lon="21.356890"><ele>7.4</ele><time>2026-05-21T17:39:54Z</time></trkpt>
			<trkpt lat="54.825310" lon="21.359640"><ele>7.3</ele><time>2026-05-21T17:40:00Z</time></trkpt>
			<trkpt lat="54.825570" lon="21.362450"><ele>7.1</ele><time>2026-05-21T17:40:06Z</time></trkpt>
			<trkpt lat="54.825750" lon="21.364060"><ele>8.0</ele><time>2026-05-21T17:40:12Z</time></trkpt>
			<trkpt lat="54.826010" lon="21.366320"><ele>11.2</ele><time>2026-05-21T17:40:19Z</time></trkpt>
			<trkpt lat="54.826280" lon="21.368780"><ele>14.7</ele><time>2026-05-21T17:40:25Z</time></trkpt>
			<trkpt lat="54.826390" lon="21.369940"><ele>16.3</ele><time>2026-05-21T17:40:31Z</time></trkpt>
			<trkpt lat="54.826820" lon="21.374370"><ele>20.1</ele><time>2026-05-21T17:40:37Z</time></trkpt>
			<trkpt lat="54.826980" lon="21.376470"><ele>20.1</ele><time>2026-05-21T17:40:43Z</time></trkpt>
			<trkpt lat="54.826970" lon="21.377250"><ele>20.1</ele><time>2026-05-21T17:40:50Z</time></trkpt>
			<trkpt lat="54.826810" lon="21.379950"><ele>20.2</ele><time>2026-05-21T17:40:56Z</time></trkpt>
			<trkpt lat="54.826700" lon="21.382150"><ele>20.4</ele><time>2026-05-21T17:41:02Z</time></trkpt>
			<trkpt lat="54.826720" lon="21.382700"><ele>20.6</ele><time>2026-05-21T17:41:08Z</time></trkpt>
			<trkpt lat="54.826860" lon="21.384060"><ele>21.1</ele><time>2026-05-21T17:41:14Z</time></trkpt>
			<trkpt lat="54.827090" lon="21.385280"><ele>21.6</ele><time>2026-05-21T17:41:21Z</time></trkpt>
			<trkpt lat="54.829100" lon="21.393900"><ele>21.2</ele><time>2026-05-21T17:41:27Z</time></trkpt>
			<trkpt lat="54.830470" lon="21.400520"><ele>16.4</ele><time>2026-05-21T17:41:33Z</time></trkpt>
			<trkpt lat="54.830800" lon="21.402030"><ele>16.3</ele><time>2026-05-21T17:41:39Z</time></trkpt>
			<trkpt lat="54.831250" lon="21.403190"><ele>16.2</ele><time>2026-05-21T17:41:45Z</time></trkpt>
			<trkpt lat="54.831600" lon="21.403820"><ele>16.2</ele><time>2026-05-21T17:41:52Z</time></trkpt>
			<trkpt lat="54.831930" lon="21.404410"><ele>16.2</ele><time>2026-05-21T17:41:58Z</time></trkpt>
			<trkpt lat="54.832690" lon="21.405800"><ele>16.1</ele><time>2026-05-21T17:42:04Z</time></trkpt>
			<trkpt lat="54.833580" lon="21.407390"><ele>16.3</ele><time>2026-05-21T17:42:10Z</time></trkpt>
			<trkpt lat="54.833930" lon="21.408290"><ele>16.9</ele><time>2026-05-21T17:42:16Z</time></trkpt>
			<trkpt lat="54.834090" lon="21.408970"><ele>17.4</ele><time>2026-05-21T17:42:23Z</time></trkpt>
			<trkpt lat="54.834100" lon="21.409670"><ele>17.8</ele><time>2026-05-21T17:42:29Z</time></trkpt>
			<trkpt lat="54.834020" lon="21.410430"><ele>18.2</ele><time>2026-05-21T17:42:35Z</time></trkpt>
			<trkpt lat="54.833730" lon="21.411750"><ele>19.1</ele><time>2026-05-21T17:42:41Z</time></trkpt>
			<trkpt lat="54.832960" lon="21.415710"><ele>21.5</ele><time>2026-05-21T17:42:47Z</time></trkpt>
			<trkpt lat="54.831790" lon="21.421820"><ele>20.3</ele><time>2026-05-21T17:42:54Z</time></trkpt>
			<trkpt lat="54.831460" lon="21.423470"><ele>20.0</ele><time>2026-05-21T17:43:00Z</time></trkpt>
			<trkpt lat="54.831320" lon="21.424710"><ele>19.8</ele><time>2026-05-21T17:43:06Z</time></trkpt>
			<trkpt lat="54.831230" lon="21.425990"><ele>20.2</ele><time>2026-05-21T17:43:12Z</time></trkpt>
			<trkpt lat="54.831200" lon="21.426620"><ele>20.3</ele><time>2026-05-21T17:43:18Z</time></trkpt>
			<trkpt lat="54.831090" lon="21.427300"><ele>20.5</ele><time>2026-05-21T17:43:25Z</time></trkpt>
			<trkpt lat="54.830850" lon="21.428550"><ele>20.8</ele><time>2026-05-21T17:43:31Z</time></trkpt>
			<trkpt lat="54.830770" lon="21.428970"><ele>21.0</ele><time>2026-05-21T17:43:37Z</time></trkpt>
			<trkpt lat="54.830570" lon="21.429920"><ele>21.2</ele><time>2026-05-21T17:43:43Z</time></trkpt>
			<trkpt lat="54.830280" lon="21.431490"><ele>21.6</ele><time>2026-05-21T17:43:49Z</time></trkpt>
			<trkpt lat="54.830040" lon="21.432670"><ele>22.0</ele><time>2026-05-21T17:43:56Z</time></trkpt>
			<trkpt lat="54.829890" lon="21.433640"><ele>22.2</ele><time>2026-05-21T17:44:02Z</time></trkpt>
			<trkpt lat="54.829830" lon="21.434320"><ele>22.1</ele><time>2026-05-21T17:44:08Z</time></trkpt>
			<trkpt lat="54.829800" lon="21.435310"><ele>21.9</ele><time>2026-05-21T17:44:14Z</time></trkpt>
			<trkpt lat="54.829790" lon="21.436480"><ele>21.7</ele><time>2026-05-21T17:44:20Z</time></trkpt>
			<trkpt lat="54.829820" lon="21.438050"><ele>21.5</ele><time>2026-05-21T17:44:27Z</time></trkpt>
			<trkpt lat="54.829920" lon="21.439380"><ele>21.3</ele><time>2026-05-21T17:44:33Z</time></trkpt>
			<trkpt lat="54.830080" lon="21.440670"><ele>21.1</ele><time>2026-05-21T17:44:39Z</time></trkpt>
			<trkpt lat="54.831050" lon="21.447320"><ele>19.1</ele><time>2026-05-21T17:44:45Z</time></trkpt>
			<trkpt lat="54.831250" lon="21.448410"><ele>18.7</ele><time>2026-05-21T17:44:51Z</time></trkpt>
			<trkpt lat="54.831460" lon="21.449490"><ele>18.4</ele><time>2026-05-21T17:44:58Z</time></trkpt>
			<trkpt lat="54.831770" lon="21.450880"><ele>17.8</ele><time>2026-05-21T17:45:04Z</time></trkpt>
			<trkpt lat="54.831960" lon="21.451890"><ele>17.5</ele><time>2026-05-21T17:45:10Z</time></trkpt>
			<trkpt lat="54.832170" lon="21.453370"><ele>17.8</ele><time>2026-05-21T17:45:16Z</time></trkpt>
			<trkpt lat="54.833000" lon="21.459130"><ele>18.9</ele><time>2026-05-21T17:45:22Z</time></trkpt>
			<trkpt lat="54.833620" lon="21.463700"><ele>15.6</ele><time>2026-05-21T17:45:29Z</time></trkpt>
			<trkpt lat="54.834070" lon="21.467400"><ele>10.9</ele><time>2026-05-21T17:45:35Z</time></trkpt>
			<trkpt lat="54.834250" lon="21.469130"><ele>8.7</ele><time>2026-05-21T17:45:41Z</time></trkpt>
			<trkpt lat="54.834380" lon="21.470540"><ele>7.6</ele><time>2026-05-21T17:45:47Z</time></trkpt>
			<trkpt lat="54.834390" lon="21.471200"><ele>7.6</ele><time>2026-05-21T17:45:53Z</time></trkpt>
			<trkpt lat="54.834320" lon="21.472690"><ele>7.7</ele><time>2026-05-21T17:46:00Z</time></trkpt>
			<trkpt lat="54.834230" lon="21.473810"><ele>7.8</ele><time>2026-05-21T17:46:06Z</time></trkpt>
			<trkpt lat="54.834130" lon="21.474530"><ele>7.8</ele><time>2026-05-21T17:46:12Z</time></trkpt>
			<trkpt lat="54.833950" lon="21.475440"><ele>7.9</ele><time>2026-05-21T17:46:18Z</time></trkpt>
			<trkpt lat="54.833720" lon="21.476350"><ele>8.0</ele><time>2026-05-21T17:46:24Z</time></trkpt>
			<trkpt lat="54.833400" lon="21.477450"><ele>8.0</ele><time>2026-05-21T17:46:31Z</time></trkpt>
			<trkpt lat="54.833290" lon="21.477830"><ele>8.1</ele><time>2026-05-21T17:46:37Z</time></trkpt>
			<trkpt lat="54.833090" lon="21.478700"><ele>8.1</ele><time>2026-05-21T17:46:43Z</time></trkpt>
			<trkpt lat="54.832850" lon="21.479790"><ele>8.2</ele><time>2026-05-21T17:46:49Z</time></trkpt>
			<trkpt lat="54.832690" lon="21.480660"><ele>8.3</ele><time>2026-05-21T17:46:55Z</time></trkpt>
			<trkpt lat="54.832590" lon="21.481450"><ele>8.4</ele><time>2026-05-21T17:47:02Z</time></trkpt>
			<trkpt lat="54.832540" lon="21.482670"><ele>8.5</ele><time>2026-05-21T17:47:08Z</time></trkpt>
			<trkpt lat="54.832520" lon="21.483670"><ele>8.6</ele><time>2026-05-21T17:47:14Z</time></trkpt>
			<trkpt lat="54.832560" lon="21.484350"><ele>8.7</ele><time>2026-05-21T17:47:20Z</time></trkpt>
			<trkpt lat="54.832860" lon="21.487360"><ele>9.0</ele><time>2026-05-21T17:47:26Z</time></trkpt>
			<trkpt lat="54.832980" lon="21.488560"><ele>9.4</ele><time>2026-05-21T17:47:33Z</time></trkpt>
			<trkpt lat="54.833060" lon="21.489080"><ele>9.9</ele><time>2026-05-21T17:47:39Z</time></trkpt>
			<trkpt lat="54.833090" lon="21.489210"><ele>10.0</ele><time>2026-05-21T17:47:45Z</time></trkpt>
			<trkpt lat="54.833150" lon="21.489610"><ele>10.4</ele><time>2026-05-21T17:47:51Z</time></trkpt>
			<trkpt lat="54.833480" lon="21.491110"><ele>11.8</ele><time>2026-05-21T17:47:57Z</time></trkpt>
			<trkpt lat="54.834820" lon="21.497210"><ele>17.2</ele><time>2026-05-21T17:48:04Z</time></trkpt>
			<trkpt lat="54.835280" lon="21.499330"><ele>16.9</ele><time>2026-05-21T17:48:10Z</time></trkpt>
			<trkpt lat="54.835810" lon="21.501740"><ele>16.7</ele><time>2026-05-21T17:48:16Z</time></trkpt>
			<trkpt lat="54.837750" lon="21.510710"><ele>12.8</ele><time>2026-05-21T17:48:22Z</time></trkpt>
			<trkpt lat="54.837770" lon="21.510760"><ele>12.8</ele><time>2026-05-21T17:48:28Z</time></trkpt>
			<trkpt lat="54.837860" lon="21.511030"><ele>12.6</ele><time>2026-05-21T17:48:35Z</time></trkpt>
			<trkpt lat="54.838040" lon="21.511410"><ele>12.3</ele><time>2026-05-21T17:48:41Z</time></trkpt>
			<trkpt lat="54.839590" lon="21.514220"><ele>10.2</ele><time>2026-05-21T17:48:47Z</time></trkpt>
			<trkpt lat="54.840810" lon="21.516550"><ele>9.9</ele><time>2026-05-21T17:48:53Z</time></trkpt>
			<trkpt lat="54.840870" lon="21.516640"><ele>9.9</ele><time>2026-05-21T17:48:59Z</time></trkpt>
			<trkpt lat="54.841240" lon="21.517200"><ele>9.8</ele><time>2026-05-21T17:49:06Z</time></trkpt>
			<trkpt lat="54.842230" lon="21.518890"><ele>9.6</ele><time>2026-05-21T17:49:12Z</time></trkpt>
			<trkpt lat="54.842250" lon="21.518930"><ele>9.6</ele><time>2026-05-21T17:49:18Z</time></trkpt>
			<trkpt lat="54.842750" lon="21.519780"><ele>9.5</ele><time>2026-05-21T17:49:24Z</time></trkpt>
			<trkpt lat="54.843170" lon="21.520630"><ele>9.4</ele><time>2026-05-21T17:49:30Z</time></trkpt>
			<trkpt lat="54.843380" lon="21.521140"><ele>9.4</ele><time>2026-05-21T17:49:37Z</time></trkpt>
			<trkpt lat="54.843490" lon="21.521610"><ele>9.4</ele><time>2026-05-21T17:49:43Z</time></trkpt>
			<trkpt lat="54.843530" lon="21.521920"><ele>9.3</ele><time>2026-05-21T17:49:49Z</time></trkpt>
			<trkpt lat="54.843570" lon="21.522290"><ele>9.3</ele><time>2026-05-21T17:49:55Z</time></trkpt>
			<trkpt lat="54.843580" lon="21.522590"><ele>9.3</ele><time>2026-05-21T17:50:01Z</time></trkpt>
			<trkpt lat="54.843570" lon="21.522810"><ele>9.3</ele><time>2026-05-21T17:50:08Z</time></trkpt>
			<trkpt lat="54.843440" lon="21.523950"><ele>9.2</ele><time>2026-05-21T17:50:14Z</time></trkpt>
			<trkpt lat="54.843290" lon="21.525290"><ele>9.1</ele><time>2026-05-21T17:50:20Z</time></trkpt>
			<trkpt lat="54.843230" lon="21.525780"><ele>9.1</ele><time>2026-05-21T17:50:26Z</time></trkpt>
			<trkpt lat="54.842950" lon="21.528280"><ele>9.0</ele><time>2026-05-21T17:50:32Z</time></trkpt>
			<trkpt lat="54.842880" lon="21.528920"><ele>8.9</ele><time>2026-05-21T17:50:39Z</time></trkpt>
			<trkpt lat="54.842660" lon="21.530780"><ele>8.8</ele><time>2026-05-21T17:50:45Z</time></trkpt>
			<trkpt lat="54.842560" lon="21.531690"><ele>8.8</ele><time>2026-05-21T17:50:51Z</time></trkpt>
			<trkpt lat="54.841980" lon="21.536910"><ele>8.7</ele><time>2026-05-21T17:50:57Z</time></trkpt>
			<trkpt lat="54.841760" lon="21.538410"><ele>8.6</ele><time>2026-05-21T17:51:03Z</time></trkpt>
			<trkpt lat="54.841580" lon="21.539500"><ele>8.7</ele><time>2026-05-21T17:51:10Z</time></trkpt>
			<trkpt lat="54.841560" lon="21.539590"><ele>8.7</ele><time>2026-05-21T17:51:16Z</time></trkpt>
			<trkpt lat="54.841430" lon="21.540400"><ele>8.7</ele><time>2026-05-21T17:51:22Z</time></trkpt>
			<trkpt lat="54.841310" lon="21.541370"><ele>8.7</ele><time>2026-05-21T17:51:28Z</time></trkpt>
			<trkpt lat="54.841300" lon="21.541710"><ele>8.7</ele><time>2026-05-21T17:51:34Z</time></trkpt>
			<trkpt lat="54.841180" lon="21.542900"><ele>8.7</ele><time>2026-05-21T17:51:41Z</time></trkpt>
			<trkpt lat="54.841120" lon="21.543640"><ele>8.8</ele><time>2026-05-21T17:51:47Z</time></trkpt>
			<trkpt lat="54.841090" lon="21.544250"><ele>8.8</ele><time>2026-05-21T17:51:53Z</time></trkpt>
			<trkpt lat="54.841090" lon="21.544650"><ele>8.8</ele><time>2026-05-21T17:51:59Z</time></trkpt>
			<trkpt lat="54.841100" lon="21.544930"><ele>8.8</ele><time>2026-05-21T17:52:05Z</time></trkpt>
			<trkpt lat="54.841160" lon="21.545430"><ele>8.8</ele><time>2026-05-21T17:52:12Z</time></trkpt>
			<trkpt lat="54.841530" lon="21.548030"><ele>8.8</ele><time>2026-05-21T17:52:18Z</time></trkpt>
			<trkpt lat="54.842370" lon="21.554090"><ele>8.5</ele><time>2026-05-21T17:52:24Z</time></trkpt>
			<trkpt lat="54.842710" lon="21.556020"><ele>8.4</ele><time>2026-05-21T17:52:30Z</time></trkpt>
			<trkpt lat="54.842970" lon="21.557390"><ele>8.4</ele><time>2026-05-21T17:52:36Z</time></trkpt>
			<trkpt lat="54.843100" lon="21.558200"><ele>8.6</ele><time>2026-05-21T17:52:43Z</time></trkpt>
			<trkpt lat="54.843200" lon="21.559310"><ele>8.8</ele><time>2026-05-21T17:52:49Z</time></trkpt>
			<trkpt lat="54.843580" lon="21.563310"><ele>9.4</ele><time>2026-05-21T17:52:55Z</time></trkpt>
			<trkpt lat="54.843650" lon="21.563840"><ele>9.5</ele><time>2026-05-21T17:53:01Z</time></trkpt>
			<trkpt lat="54.843930" lon="21.565260"><ele>9.8</ele><time>2026-05-21T17:53:07Z</time></trkpt>
			<trkpt lat="54.844080" lon="21.565960"><ele>9.9</ele><time>2026-05-21T17:53:14Z</time></trkpt>
			<trkpt lat="54.844270" lon="21.566770"><ele>10.1</ele><time>2026-05-21T17:53:20Z</time></trkpt>
			<trkpt lat="54.844370" lon="21.567100"><ele>10.1</ele><time>2026-05-21T17:53:26Z</time></trkpt>
			<trkpt lat="54.844450" lon="21.567320"><ele>10.2</ele><time>2026-05-21T17:53:32Z</time></trkpt>
			<trkpt lat="54.844660" lon="21.567770"><ele>10.3</ele><time>2026-05-21T17:53:38Z</time></trkpt>
			<trkpt lat="54.844830" lon="21.568110"><ele>10.4</ele><time>2026-05-21T17:53:45Z</time></trkpt>
			<trkpt lat="54.847930" lon="21.574100"><ele>11.5</ele><time>2026-05-21T17:53:51Z</time></trkpt>
			<trkpt lat="54.848020" lon="21.574300"><ele>11.4</ele><time>2026-05-21T17:53:57Z</time></trkpt>
			<trkpt lat="54.848200" lon="21.574790"><ele>11.3</ele><time>2026-05-21T17:54:03Z</time></trkpt>
			<trkpt lat="54.848280" lon="21.575100"><ele>11.2</ele><time>2026-05-21T17:54:10Z</time></trkpt>
			<trkpt lat="54.848400" lon="21.575610"><ele>11.1</ele><time>2026-05-21T17:54:16Z</time></trkpt>
			<trkpt lat="54.848800" lon="21.577560"><ele>10.6</ele><time>2026-05-21T17:54:22Z</time></trkpt>
			<trkpt lat="54.848910" lon="21.578000"><ele>10.5</ele><time>2026-05-21T17:54:28Z</time></trkpt>
			<trkpt lat="54.848970" lon="21.578230"><ele>10.4</ele><time>2026-05-21T17:54:34Z</time></trkpt>
			<trkpt lat="54.849010" lon="21.578310"><ele>10.4</ele><time>2026-05-21T17:54:41Z</time></trkpt>
			<trkpt lat="54.849030" lon="21.578360"><ele>10.4</ele><time>2026-05-21T17:54:47Z</time></trkpt>
			<trkpt lat="54.849240" lon="21.578710"><ele>10.3</ele><time>2026-05-21T17:54:53Z</time></trkpt>
			<trkpt lat="54.849830" lon="21.579620"><ele>9.9</ele><time>2026-05-21T17:54:59Z</time></trkpt>
			<trkpt lat="54.850110" lon="21.580090"><ele>9.8</ele><time>2026-05-21T17:55:05Z</time></trkpt>
			<trkpt lat="54.850290" lon="21.580490"><ele>9.7</ele><time>2026-05-21T17:55:12Z</time></trkpt>
			<trkpt lat="54.851280" lon="21.582820"><ele>9.3</ele><time>2026-05-21T17:55:18Z</time></trkpt>
			<trkpt lat="54.853390" lon="21.587890"><ele>8.5</ele><time>2026-05-21T17:55:24Z</time></trkpt>
			<trkpt lat="54.856070" lon="21.594390"><ele>7.0</ele><time>2026-05-21T17:55:30Z</time></trkpt>
			<trkpt lat="54.856670" lon="21.595770"><ele>6.6</ele><time>2026-05-21T17:55:36Z</time></trkpt>
			<trkpt lat="54.856910" lon="21.596370"><ele>6.6</ele><time>2026-05-21T17:55:43Z</time></trkpt>
			<trkpt lat="54.857050" lon="21.596830"><ele>6.6</ele><time>2026-05-21T17:55:49Z</time></trkpt>
			<trkpt lat="54.857140" lon="21.597260"><ele>6.6</ele><time>2026-05-21T17:55:55Z</time></trkpt>
			<trkpt lat="54.857220" lon="21.597890"><ele>6.6</ele><time>2026-05-21T17:56:01Z</time></trkpt>
			<trkpt lat="54.857480" lon="21.602680"><ele>6.5</ele><time>2026-05-21T17:56:07Z</time></trkpt>
			<trkpt lat="54.857530" lon="21.603720"><ele>6.4</ele><time>2026-05-21T17:56:14Z</time></trkpt>
			<trkpt lat="54.857520" lon="21.603850"><ele>6.4</ele><time>2026-05-21T17:56:20Z</time></trkpt>
			<trkpt lat="54.857500" lon="21.603970"><ele>6.4</ele><time>2026-05-21T17:56:26Z</time></trkpt>
			<trkpt lat="54.857470" lon="21.604060"><ele>6.4</ele><time>2026-05-21T17:56:32Z</time></trkpt>
			<trkpt lat="54.857410" lon="21.604190"><ele>6.4</ele><time>2026-05-21T17:56:38Z</time></trkpt>
			<trkpt lat="54.857350" lon="21.604280"><ele>6.4</ele><time>2026-05-21T17:56:45Z</time></trkpt>
			<trkpt lat="54.857260" lon="21.604340"><ele>6.4</ele><time>2026-05-21T17:56:51Z</time></trkpt>
			<trkpt lat="54.857180" lon="21.604370"><ele>6.4</ele><time>2026-05-21T17:56:57Z</time></trkpt>
			<trkpt lat="54.856520" lon="21.604430"><ele>6.4</ele><time>2026-05-21T17:57:03Z</time></trkpt>
			<trkpt lat="54.856340" lon="21.604470"><ele>6.4</ele><time>2026-05-21T17:57:09Z</time></trkpt>
			<trkpt lat="54.856220" lon="21.604500"><ele>6.4</ele><time>2026-05-21T17:57:16Z</time></trkpt>
			<trkpt lat="54.856020" lon="21.604630"><ele>6.4</ele><time>2026-05-21T17:57:22Z</time></trkpt>
			<trkpt lat="54.855820" lon="21.604790"><ele>6.4</ele><time>2026-05-21T17:57:28Z</time></trkpt>
			<trkpt lat="54.855690" lon="21.604900"><ele>6.4</ele><time>2026-05-21T17:57:34Z</time></trkpt>
			<trkpt lat="54.855550" lon="21.605080"><ele>6.4</ele><time>2026-05-21T17:57:40Z</time></trkpt>
			<trkpt lat="54.855480" lon="21.605230"><ele>6.4</ele><time>2026-05-21T17:57:47Z</time></trkpt>
			<trkpt lat="54.855410" lon="21.605430"><ele>6.4</ele><time>2026-05-21T17:57:53Z</time></trkpt>
			<trkpt lat="54.855350" lon="21.605670"><ele>6.4</ele><time>2026-05-21T17:57:59Z</time></trkpt>
			<trkpt lat="54.854920" lon="21.607580"><ele>6.4</ele><time>2026-05-21T17:58:05Z</time></trkpt>
			<trkpt lat="54.854350" lon="21.610180"><ele>6.3</ele><time>2026-05-21T17:58:11Z</time></trkpt>
			<trkpt lat="54.854150" lon="21.611020"><ele>6.3</ele><time>2026-05-21T17:58:18Z</time></trkpt>
			<trkpt lat="54.853990" lon="21.611610"><ele>6.2</ele><time>2026-05-21T17:58:24Z</time></trkpt>
			<trkpt lat="54.853830" lon="21.612020"><ele>6.1</ele><time>2026-05-21T17:58:30Z</time></trkpt>
			<trkpt lat="54.853640" lon="21.612420"><ele>5.9</ele><time>2026-05-21T17:58:36Z</time></trkpt>
			<trkpt lat="54.853280" lon="21.613200"><ele>5.6</ele><time>2026-05-21T17:58:42Z</time></trkpt>
			<trkpt lat="54.852530" lon="21.615160"><ele>4.9</ele><time>2026-05-21T17:58:49Z</time></trkpt>
			<trkpt lat="54.854080" lon="21.617310"><ele>3.8</ele><time>2026-05-21T17:58:55Z</time></trkpt>
			<trkpt lat="54.855890" lon="21.619820"><ele>3.3</ele><time>2026-05-21T17:59:01Z</time></trkpt>
			<trkpt lat="54.855890" lon="21.619820"><ele>3.3</ele><time>2026-05-21T17:59:08Z</time></trkpt>
			<trkpt lat="54.856460" lon="21.620610"><ele>3.3</ele><time>2026-05-21T17:59:15Z</time></trkpt>
			<trkpt lat="54.856720" lon="21.620960"><ele>3.3</ele><time>2026-05-21T17:59:21Z</time></trkpt>
			<trkpt lat="54.860730" lon="21.626580"><ele>3.3</ele><time>2026-05-21T17:59:28Z</time></trkpt>
			<trkpt lat="54.860930" lon="21.626850"><ele>3.3</ele><time>2026-05-21T17:59:35Z</time></trkpt>
			<trkpt lat="54.865430" lon="21.633120"><ele>4.4</ele><time>2026-05-21T17:59:42Z</time></trkpt>
			<trkpt lat="54.867430" lon="21.635910"><ele>5.1</ele><time>2026-05-21T17:59:49Z</time></trkpt>
			<trkpt lat="54.873680" lon="21.644620"><ele>5.7</ele><time>2026-05-21T17:59:55Z</time></trkpt>
			<trkpt lat="54.874840" lon="21.646220"><ele>7.1</ele><time>2026-05-21T18:00:02Z</time></trkpt>
			<trkpt lat="54.875700" lon="21.647420"><ele>8.1</ele><time>2026-05-21T18:00:09Z</time></trkpt>
			<trkpt lat="54.875820" lon="21.647630"><ele>8.2</ele><time>2026-05-21T18:00:16Z</time></trkpt>
			<trkpt lat="54.875900" lon="21.647850"><ele>8.2</ele><time>2026-05-21T18:00:23Z</time></trkpt>
			<trkpt lat="54.876290" lon="21.649060"><ele>8.5</ele><time>2026-05-21T18:00:30Z</time></trkpt>
			<trkpt lat="54.876350" lon="21.649300"><ele>8.6</ele><time>2026-05-21T18:00:36Z</time></trkpt>
			<trkpt lat="54.876370" lon="21.649430"><ele>8.6</ele><time>2026-05-21T18:00:43Z</time></trkpt>
			<trkpt lat="54.876380" lon="21.649590"><ele>8.6</ele><time>2026-05-21T18:00:50Z</time></trkpt>
			<trkpt lat="54.876360" lon="21.649790"><ele>8.7</ele><time>2026-05-21T18:00:57Z</time></trkpt>
			<trkpt lat="54.876300" lon="21.650180"><ele>8.7</ele><time>2026-05-21T18:01:04Z</time></trkpt>
			<trkpt lat="54.876180" lon="21.650830"><ele>8.9</ele><time>2026-05-21T18:01:10Z</time></trkpt>
			<trkpt lat="54.876170" lon="21.650870"><ele>8.9</ele><time>2026-05-21T18:01:17Z</time></trkpt>
			<trkpt lat="54.876090" lon="21.651460"><ele>9.0</ele><time>2026-05-21T18:01:24Z</time></trkpt>
			<trkpt lat="54.876000" lon="21.652760"><ele>9.2</ele><time>2026-05-21T18:01:31Z</time></trkpt>
			<trkpt lat="54.875930" lon="21.653060"><ele>9.3</ele><time>2026-05-21T18:01:38Z</time></trkpt>
			<trkpt lat="54.875880" lon="21.653090"><ele>9.3</ele><time>2026-05-21T18:01:45Z</time></trkpt>
			<trkpt lat="54.875850" lon="21.653160"><ele>9.3</ele><time>2026-05-21T18:01:51Z</time></trkpt>
			<trkpt lat="54.875840" lon="21.653250"><ele>9.4</ele><time>2026-05-21T18:01:58Z</time></trkpt>
			<trkpt lat="54.875750" lon="21.653330"><ele>9.4</ele><time>2026-05-21T18:02:05Z</time></trkpt>
			<trkpt lat="54.875670" lon="21.653530"><ele>9.4</ele><time>2026-05-21T18:02:12Z</time></trkpt>
			<trkpt lat="54.874610" lon="21.656680"><ele>9.7</ele><time>2026-05-21T18:02:19Z</time></trkpt>
			<trkpt lat="54.874060" lon="21.658270"><ele>9.3</ele><time>2026-05-21T18:02:25Z</time></trkpt>
			<trkpt lat="54.873990" lon="21.658440"><ele>9.2</ele><time>2026-05-21T18:02:32Z</time></trkpt>
			<trkpt lat="54.873810" lon="21.658840"><ele>9.1</ele><time>2026-05-21T18:02:39Z</time></trkpt>
			<trkpt lat="54.870240" lon="21.665770"><ele>6.9</ele><time>2026-05-21T18:02:46Z</time></trkpt>
			<trkpt lat="54.870010" lon="21.666320"><ele>6.8</ele><time>2026-05-21T18:02:53Z</time></trkpt>
			<trkpt lat="54.869840" lon="21.666830"><ele>6.7</ele><time>2026-05-21T18:03:00Z</time></trkpt>
			<trkpt lat="54.868590" lon="21.670940"><ele>5.7</ele><time>2026-05-21T18:03:06Z</time></trkpt>
			<trkpt lat="54.868390" lon="21.671470"><ele>5.7</ele><time>2026-05-21T18:03:13Z</time></trkpt>
			<trkpt lat="54.868180" lon="21.671890"><ele>5.7</ele><time>2026-05-21T18:03:20Z</time></trkpt>
			<trkpt lat="54.866700" lon="21.674430"><ele>5.7</ele><time>2026-05-21T18:03:27Z</time></trkpt>
			<trkpt lat="54.866700" lon="21.674430"><ele>5.7</ele><time>2026-05-21T18:03:38Z</time></trkpt>
			<trkpt lat="54.865220" lon="21.676970"><ele>5.8</ele><time>2026-05-21T18:03:49Z</time></trkpt>
			<trkpt lat="54.862260" lon="21.682070"><ele>7.6</ele><time>2026-05-21T18:04:00Z</time></trkpt>
			<trkpt lat="54.859850" lon="21.686770"><ele>9.8</ele><time>2026-05-21T18:04:12Z</time></trkpt>
			<trkpt lat="54.858090" lon="21.690130"><ele>11.7</ele><time>2026-05-21T18:04:23Z</time></trkpt>
			<trkpt lat="54.857530" lon="21.691290"><ele>12.3</ele><time>2026-05-21T18:04:34Z</time></trkpt>
			<trkpt lat="54.854190" lon="21.698470"><ele>12.6</ele><time>2026-05-21T18:04:45Z</time></trkpt>
			<trkpt lat="54.853180" lon="21.700710"><ele>13.0</ele><time>2026-05-21T18:04:57Z</time></trkpt>
			<trkpt lat="54.852290" lon="21.702660"><ele>13.4</ele><time>2026-05-21T18:05:08Z</time></trkpt>
			<trkpt lat="54.851620" lon="21.704200"><ele>13.8</ele><time>2026-05-21T18:05:19Z</time></trkpt>
			<trkpt lat="54.850950" lon="21.705660"><ele>14.1</ele><time>2026-05-21T18:05:30Z</time></trkpt>
			<trkpt lat="54.849940" lon="21.707870"><ele>16.6</ele><time>2026-05-21T18:05:42Z</time></trkpt>
			<trkpt lat="54.849900" lon="21.707950"><ele>16.7</ele><time>2026-05-21T18:05:53Z</time></trkpt>
			<trkpt lat="54.848120" lon="21.712170"><ele>22.0</ele><time>2026-05-21T18:06:04Z</time></trkpt>
			<trkpt lat="54.847720" lon="21.713130"><ele>23.2</ele><time>2026-05-21T18:06:15Z</time></trkpt>
			<trkpt lat="54.846220" lon="21.716620"><ele>22.3</ele><time>2026-05-21T18:06:27Z</time></trkpt>
			<trkpt lat="54.845720" lon="21.717820"><ele>21.8</ele><time>2026-05-21T18:06:38Z</time></trkpt>
			<trkpt lat="54.844800" lon="21.720060"><ele>20.8</ele><time>2026-05-21T18:06:49Z</time></trkpt>
			<trkpt lat="54.844600" lon="21.720510"><ele>20.6</ele><time>2026-05-21T18:07:00Z</time></trkpt>
			<trkpt lat="54.844360" lon="21.720950"><ele>20.4</ele><time>2026-05-21T18:07:12Z</time></trkpt>
			<trkpt lat="54.843970" lon="21.721590"><ele>20.5</ele><time>2026-05-21T18:07:23Z</time></trkpt>
			<trkpt lat="54.838540" lon="21.729710"><ele>23.4</ele><time>2026-05-21T18:07:34Z</time></trkpt>
			<trkpt lat="54.837950" lon="21.730770"><ele>24.0</ele><time>2026-05-21T18:07:45Z</time></trkpt>
			<trkpt lat="54.836950" lon="21.732990"><ele>25.2</ele><time>2026-05-21T18:07:57Z</time></trkpt>
			<trkpt lat="54.834250" lon="21.738980"><ele>28.7</ele><time>2026-05-21T18:08:08Z</time></trkpt>
			<trkpt lat="54.831010" lon="21.745920"><ele>29.4</ele><time>2026-05-21T18:08:19Z</time></trkpt>
			<trkpt lat="54.830530" lon="21.746530"><ele>29.3</ele><time>2026-05-21T18:08:30Z</time></trkpt>
			<trkpt lat="54.828310" lon="21.749450"><ele>29.3</ele><time>2026-05-21T18:08:41Z</time></trkpt>
			<trkpt lat="54.828280" lon="21.749490"><ele>29.3</ele><time>2026-05-21T18:08:53Z</time></trkpt>
			<trkpt lat="54.826400" lon="21.752080"><ele>29.7</ele><time>2026-05-21T18:09:04Z</time></trkpt>
			<trkpt lat="54.821290" lon="21.758630"><ele>29.1</ele><time>2026-05-21T18:09:15Z</time></trkpt>
			<trkpt lat="54.817690" lon="21.763000"><ele>28.5</ele><time>2026-05-21T18:09:26Z</time></trkpt>
			<trkpt lat="54.815970" lon="21.764200"><ele>28.5</ele><time>2026-05-21T18:09:38Z</time></trkpt>
			<trkpt lat="54.813680" lon="21.765720"><ele>29.8</ele><time>2026-05-21T18:09:49Z</time></trkpt>
			<trkpt lat="54.812950" lon="21.766240"><ele>30.2</ele><time>2026-05-21T18:10:00Z</time></trkpt>
			<trkpt lat="54.812690" lon="21.766540"><ele>30.4</ele><time>2026-05-21T18:10:11Z</time></trkpt>
			<trkpt lat="54.811050" lon="21.768580"><ele>31.4</ele><time>2026-05-21T18:10:23Z</time></trkpt>
			<trkpt lat="54.809260" lon="21.770900"><ele>32.3</ele><time>2026-05-21T18:10:34Z</time></trkpt>
			<trkpt lat="54.808150" lon="21.772300"><ele>32.9</ele><time>2026-05-21T18:10:45Z</time></trkpt>
			<trkpt lat="54.806980" lon="21.773750"><ele>33.5</ele><time>2026-05-21T18:10:56Z</time></trkpt>
			<trkpt lat="54.806360" lon="21.774580"><ele>33.4</ele><time>2026-05-21T18:11:08Z</time></trkpt>
			<trkpt lat="54.806150" lon="21.774930"><ele>33.4</ele><time>2026-05-21T18:11:19Z</time></trkpt>
			<trkpt lat="54.805270" lon="21.776550"><ele>33.4</ele><time>2026-05-21T18:11:30Z</time></trkpt>
			<trkpt lat="54.804910" lon="21.777170"><ele>33.3</ele><time>2026-05-21T18:11:41Z</time></trkpt>
			<trkpt lat="54.804660" lon="21.777530"><ele>33.3</ele><time>2026-05-21T18:11:53Z</time></trkpt>
			<trkpt lat="54.804430" lon="21.777820"><ele>33.3</ele><time>2026-05-21T18:12:04Z</time></trkpt>
			<trkpt lat="54.803650" lon="21.778660"><ele>33.2</ele><time>2026-05-21T18:12:15Z</time></trkpt>
			<trkpt lat="54.803540" lon="21.778760"><ele>33.2</ele><time>2026-05-21T18:12:26Z</time></trkpt>
			<trkpt lat="54.803040" lon="21.779270"><ele>33.2</ele><time>2026-05-21T18:12:37Z</time></trkpt>
			<trkpt lat="54.802770" lon="21.779570"><ele>33.1</ele><time>2026-05-21T18:12:49Z</time></trkpt>
			<trkpt lat="54.801820" lon="21.780550"><ele>32.5</ele><time>2026-05-21T18:13:00Z</time></trkpt>
			<trkpt lat="54.801550" lon="21.780740"><ele>32.4</ele><time>2026-05-21T18:13:11Z</time></trkpt>
			<trkpt lat="54.801090" lon="21.781040"><ele>32.1</ele><time>2026-05-21T18:13:22Z</time></trkpt>
			<trkpt lat="54.800610" lon="21.781190"><ele>31.8</ele><time>2026-05-21T18:13:34Z</time></trkpt>
			<trkpt lat="54.799110" lon="21.781460"><ele>31.0</ele><time>2026-05-21T18:13:45Z</time></trkpt>
			<trkpt lat="54.796480" lon="21.781950"><ele>31.1</ele><time>2026-05-21T18:13:56Z</time></trkpt>
			<trkpt lat="54.796000" lon="21.782120"><ele>31.4</ele><time>2026-05-21T18:14:07Z</time></trkpt>
			<trkpt lat="54.789100" lon="21.785240"><ele>32.6</ele><time>2026-05-21T18:14:19Z</time></trkpt>
			<trkpt lat="54.786930" lon="21.786160"><ele>32.1</ele><time>2026-05-21T18:14:30Z</time></trkpt>
			<trkpt lat="54.786840" lon="21.786210"><ele>32.1</ele><time>2026-05-21T18:14:41Z</time></trkpt>
			<trkpt lat="54.784750" lon="21.787160"><ele>31.8</ele><time>2026-05-21T18:14:52Z</time></trkpt>
			<trkpt lat="54.779890" lon="21.789330"><ele>34.1</ele><time>2026-05-21T18:15:04Z</time></trkpt>
			<trkpt lat="54.776520" lon="21.790820"><ele>37.9</ele><time>2026-05-21T18:15:15Z</time></trkpt>
			<trkpt lat="54.773040" lon="21.792400"><ele>38.7</ele><time>2026-05-21T18:15:26Z</time></trkpt>
			<trkpt lat="54.767380" lon="21.794920"><ele>38.1</ele><time>2026-05-21T18:15:37Z</time></trkpt>
			<trkpt lat="54.766690" lon="21.795070"><ele>38.0</ele><time>2026-05-21T18:15:49Z</time></trkpt>
			<trkpt lat="54.766310" lon="21.795180"><ele>37.9</ele><time>2026-05-21T18:16:00Z</time></trkpt>
			<trkpt lat="54.765880" lon="21.795260"><ele>38.1</ele><time>2026-05-21T18:16:11Z</time></trkpt>
			<trkpt lat="54.765570" lon="21.795180"><ele>38.3</ele><time>2026-05-21T18:16:22Z</time></trkpt>
			<trkpt lat="54.764830" lon="21.794840"><ele>38.6</ele><time>2026-05-21T18:16:33Z</time></trkpt>
			<trkpt lat="54.764500" lon="21.794690"><ele>38.8</ele><time>2026-05-21T18:16:45Z</time></trkpt>
			<trkpt lat="54.764010" lon="21.794410"><ele>39.0</ele><time>2026-05-21T18:16:56Z</time></trkpt>
			<trkpt lat="54.762930" lon="21.793580"><ele>39.5</ele><time>2026-05-21T18:17:07Z</time></trkpt>
			<trkpt lat="54.761140" lon="21.792650"><ele>40.3</ele><time>2026-05-21T18:17:18Z</time></trkpt>
			<trkpt lat="54.758230" lon="21.790970"><ele>39.7</ele><time>2026-05-21T18:17:30Z</time></trkpt>
			<trkpt lat="54.756170" lon="21.789870"><ele>39.3</ele><time>2026-05-21T18:17:41Z</time></trkpt>
			<trkpt lat="54.755530" lon="21.789610"><ele>39.1</ele><time>2026-05-21T18:17:52Z</time></trkpt>
			<trkpt lat="54.755060" lon="21.789420"><ele>38.8</ele><time>2026-05-21T18:18:03Z</time></trkpt>
			<trkpt lat="54.753910" lon="21.789180"><ele>38.3</ele><time>2026-05-21T18:18:15Z</time></trkpt>
			<trkpt lat="54.753370" lon="21.789030"><ele>38.0</ele><time>2026-05-21T18:18:26Z</time></trkpt>
			<trkpt lat="54.752250" lon="21.788710"><ele>37.5</ele><time>2026-05-21T18:18:37Z</time></trkpt>
			<trkpt lat="54.751340" lon="21.788440"><ele>37.0</ele><time>2026-05-21T18:18:48Z</time></trkpt>
			<trkpt lat="54.751110" lon="21.788370"><ele>36.9</ele><time>2026-05-21T18:19:00Z</time></trkpt>
			<trkpt lat="54.750580" lon="21.788330"><ele>36.8</ele><time>2026-05-21T18:19:11Z</time></trkpt>
			<trkpt lat="54.749950" lon="21.788430"><ele>36.7</ele><time>2026-05-21T18:19:22Z</time></trkpt>
			<trkpt lat="54.749690" lon="21.788470"><ele>36.7</ele><time>2026-05-21T18:19:33Z</time></trkpt>
			<trkpt lat="54.748500" lon="21.788630"><ele>36.6</ele><time>2026-05-21T18:19:45Z</time></trkpt>
			<trkpt lat="54.747920" lon="21.788720"><ele>36.6</ele><time>2026-05-21T18:19:56Z</time></trkpt>
			<trkpt lat="54.742920" lon="21.789610"><ele>36.2</ele><time>2026-05-21T18:20:07Z</time></trkpt>
			<trkpt lat="54.740740" lon="21.789850"><ele>35.9</ele><time>2026-05-21T18:20:18Z</time></trkpt>
			<trkpt lat="54.736300" lon="21.790350"><ele>37.0</ele><time>2026-05-21T18:20:29Z</time></trkpt>
			<trkpt lat="54.733460" lon="21.790320"><ele>37.4</ele><time>2026-05-21T18:20:41Z</time></trkpt>
			<trkpt lat="54.729570" lon="21.789820"><ele>36.7</ele><time>2026-05-21T18:20:52Z</time></trkpt>
			<trkpt lat="54.728600" lon="21.789530"><ele>36.5</ele><time>2026-05-21T18:21:03Z</time></trkpt>
			<trkpt lat="54.725150" lon="21.787560"><ele>35.3</ele><time>2026-05-21T18:21:14Z</time></trkpt>
			<trkpt lat="54.722900" lon="21.785820"><ele>35.3</ele><time>2026-05-21T18:21:26Z</time></trkpt>
			<trkpt lat="54.722400" lon="21.785550"><ele>35.4</ele><time>2026-05-21T18:21:37Z</time></trkpt>
			<trkpt lat="54.721680" lon="21.785680"><ele>35.6</ele><time>2026-05-21T18:21:48Z</time></trkpt>
			<trkpt lat="54.715440" lon="21.788350"><ele>35.7</ele><time>2026-05-21T18:21:59Z</time></trkpt>
			<trkpt lat="54.706980" lon="21.792250"><ele>34.8</ele><time>2026-05-21T18:22:11Z</time></trkpt>
			<trkpt lat="54.706420" lon="21.792320"><ele>35.0</ele><time>2026-05-21T18:22:22Z</time></trkpt>
			<trkpt lat="54.698410" lon="21.790340"><ele>32.9</ele><time>2026-05-21T18:22:33Z</time></trkpt>
			<trkpt lat="54.693300" lon="21.789170"><ele>30.7</ele><time>2026-05-21T18:22:44Z</time></trkpt>
			<trkpt lat="54.693000" lon="21.789300"><ele>30.6</ele><time>2026-05-21T18:22:56Z</time></trkpt>
			<trkpt lat="54.689970" lon="21.792760"><ele>31.5</ele><time>2026-05-21T18:23:07Z</time></trkpt>
			<trkpt lat="54.688520" lon="21.794270"><ele>32.1</ele><time>2026-05-21T18:23:18Z</time></trkpt>
			<trkpt lat="54.686260" lon="21.796590"><ele>31.1</ele><time>2026-05-21T18:23:29Z</time></trkpt>
			<trkpt lat="54.686040" lon="21.796830"><ele>31.0</ele><time>2026-05-21T18:23:41Z</time></trkpt>
			<trkpt lat="54.682520" lon="21.796730"><ele>28.8</ele><time>2026-05-21T18:23:52Z</time></trkpt>
			<trkpt lat="54.677940" lon="21.799190"><ele>25.6</ele><time>2026-05-21T18:24:03Z</time></trkpt>
			<trkpt lat="54.670710" lon="21.802950"><ele>27.2</ele><time>2026-05-21T18:24:14Z</time></trkpt>
			<trkpt lat="54.668600" lon="21.804000"><ele>27.9</ele><time>2026-05-21T18:24:25Z</time></trkpt>
			<trkpt lat="54.668170" lon="21.804130"><ele>28.0</ele><time>2026-05-21T18:24:37Z</time></trkpt>
			<trkpt lat="54.666880" lon="21.803820"><ele>28.5</ele><time>2026-05-21T18:24:48Z</time></trkpt>
			<trkpt lat="54.664430" lon="21.803280"><ele>29.6</ele><time>2026-05-21T18:24:59Z</time></trkpt>
			<trkpt lat="54.663150" lon="21.802990"><ele>30.2</ele><time>2026-05-21T18:25:10Z</time></trkpt>
			<trkpt lat="54.662920" lon="21.802940"><ele>30.3</ele><time>2026-05-21T18:25:22Z</time></trkpt>
			<trkpt lat="54.662500" lon="21.802840"><ele>30.5</ele><time>2026-05-21T18:25:33Z</time></trkpt>
			<trkpt lat="54.661940" lon="21.802820"><ele>30.3</ele><time>2026-05-21T18:25:44Z</time></trkpt>
			<trkpt lat="54.661730" lon="21.802990"><ele>29.8</ele><time>2026-05-21T18:25:55Z</time></trkpt>
			<trkpt lat="54.661500" lon="21.803180"><ele>29.1</ele><time>2026-05-21T18:26:07Z</time></trkpt>
			<trkpt lat="54.660620" lon="21.805130"><ele>25.6</ele><time>2026-05-21T18:26:18Z</time></trkpt>
			<trkpt lat="54.660530" lon="21.805320"><ele>25.3</ele><time>2026-05-21T18:26:29Z</time></trkpt>
			<trkpt lat="54.660290" lon="21.805920"><ele>24.2</ele><time>2026-05-21T18:26:40Z</time></trkpt>
			<trkpt lat="54.660230" lon="21.806300"><ele>23.7</ele><time>2026-05-21T18:26:52Z</time></trkpt>
			<trkpt lat="54.660180" lon="21.806690"><ele>23.1</ele><time>2026-05-21T18:27:03Z</time></trkpt>
			<trkpt lat="54.659930" lon="21.806390"><ele>22.4</ele><time>2026-05-21T18:27:14Z</time></trkpt>
			<trkpt lat="54.659420" lon="21.805860"><ele>20.9</ele><time>2026-05-21T18:27:25Z</time></trkpt>
			<trkpt lat="54.659140" lon="21.805510"><ele>20.0</ele><time>2026-05-21T18:27:37Z</time></trkpt>
			<trkpt lat="54.658850" lon="21.805040"><ele>19.1</ele><time>2026-05-21T18:27:48Z</time></trkpt>
			<trkpt lat="54.658330" lon="21.804110"><ele>17.3</ele><time>2026-05-21T18:27:59Z</time></trkpt>
			<trkpt lat="54.658330" lon="21.804110"><ele>17.3</ele><time>2026-05-21T18:28:06Z</time></trkpt>
			<trkpt lat="54.658170" lon="21.803780"><ele>17.2</ele><time>2026-05-21T18:28:13Z</time></trkpt>
			<trkpt lat="54.657960" lon="21.803280"><ele>16.9</ele><time>2026-05-21T18:28:20Z</time></trkpt>
			<trkpt lat="54.657420" lon="21.801770"><ele>16.2</ele><time>2026-05-21T18:28:26Z</time></trkpt>
			<trkpt lat="54.657240" lon="21.801280"><ele>16.0</ele><time>2026-05-21T18:28:33Z</time></trkpt>
			<trkpt lat="54.657120" lon="21.801030"><ele>15.9</ele><time>2026-05-21T18:28:40Z</time></trkpt>
			<trkpt lat="54.656420" lon="21.799710"><ele>15.2</ele><time>2026-05-21T18:28:47Z</time></trkpt>
			<trkpt lat="54.656200" lon="21.799270"><ele>15.0</ele><time>2026-05-21T18:28:54Z</time></trkpt>
			<trkpt lat="54.656040" lon="21.798870"><ele>14.8</ele><time>2026-05-21T18:29:01Z</time></trkpt>
			<trkpt lat="54.655930" lon="21.798460"><ele>14.6</ele><time>2026-05-21T18:29:07Z</time></trkpt>
			<trkpt lat="54.655390" lon="21.796140"><ele>13.8</ele><time>2026-05-21T18:29:14Z</time></trkpt>
			<trkpt lat="54.655290" lon="21.795700"><ele>13.8</ele><time>2026-05-21T18:29:21Z</time></trkpt>
			<trkpt lat="54.654860" lon="21.793890"><ele>13.7</ele><time>2026-05-21T18:29:28Z</time></trkpt>
			<trkpt lat="54.654780" lon="21.793710"><ele>13.7</ele><time>2026-05-21T18:29:35Z</time></trkpt>
			<trkpt lat="54.654350" lon="21.792670"><ele>13.6</ele><time>2026-05-21T18:29:42Z</time></trkpt>
			<trkpt lat="54.653900" lon="21.791690"><ele>13.5</ele><time>2026-05-21T18:29:48Z</time></trkpt>
			<trkpt lat="54.652830" lon="21.789360"><ele>13.4</ele><time>2026-05-21T18:29:55Z</time></trkpt>
			<trkpt lat="54.652050" lon="21.787700"><ele>13.3</ele><time>2026-05-21T18:30:02Z</time></trkpt>
			<trkpt lat="54.651740" lon="21.787040"><ele>13.3</ele><time>2026-05-21T18:30:09Z</time></trkpt>
			<trkpt lat="54.651340" lon="21.786390"><ele>13.3</ele><time>2026-05-21T18:30:16Z</time></trkpt>
			<trkpt lat="54.650340" lon="21.782450"><ele>13.1</ele><time>2026-05-21T18:30:23Z</time></trkpt>
			<trkpt lat="54.649660" lon="21.779610"><ele>13.5</ele><time>2026-05-21T18:30:29Z</time></trkpt>
			<trkpt lat="54.649250" lon="21.776770"><ele>14.6</ele><time>2026-05-21T18:30:36Z</time></trkpt>
			<trkpt lat="54.649070" lon="21.775810"><ele>15.0</ele><time>2026-05-21T18:30:43Z</time></trkpt>
			<trkpt lat="54.648970" lon="21.775160"><ele>15.3</ele><time>2026-05-21T18:30:50Z</time></trkpt>
			<trkpt lat="54.648740" lon="21.773530"><ele>16.0</ele><time>2026-05-21T18:30:57Z</time></trkpt>
			<trkpt lat="54.648730" lon="21.773380"><ele>16.0</ele><time>2026-05-21T18:31:03Z</time></trkpt>
			<trkpt lat="54.648610" lon="21.768040"><ele>16.1</ele><time>2026-05-21T18:31:10Z</time></trkpt>
			<trkpt lat="54.648540" lon="21.765430"><ele>15.6</ele><time>2026-05-21T18:31:17Z</time></trkpt>
			<trkpt lat="54.648450" lon="21.764070"><ele>15.4</ele><time>2026-05-21T18:31:24Z</time></trkpt>
			<trkpt lat="54.648430" lon="21.763380"><ele>15.3</ele><time>2026-05-21T18:31:31Z</time></trkpt>
			<trkpt lat="54.648420" lon="21.762700"><ele>15.1</ele><time>2026-05-21T18:31:38Z</time></trkpt>
			<trkpt lat="54.648490" lon="21.760640"><ele>14.4</ele><time>2026-05-21T18:31:44Z</time></trkpt>
			<trkpt lat="54.648530" lon="21.759660"><ele>14.0</ele><time>2026-05-21T18:31:51Z</time></trkpt>
			<trkpt lat="54.648610" lon="21.758700"><ele>13.6</ele><time>2026-05-21T18:31:58Z</time></trkpt>
			<trkpt lat="54.648830" lon="21.757380"><ele>13.1</ele><time>2026-05-21T18:32:05Z</time></trkpt>
			<trkpt lat="54.649210" lon="21.754790"><ele>12.1</ele><time>2026-05-21T18:32:12Z</time></trkpt>
			<trkpt lat="54.649620" lon="21.752220"><ele>11.7</ele><time>2026-05-21T18:32:19Z</time></trkpt>
			<trkpt lat="54.649810" lon="21.750830"><ele>12.1</ele><time>2026-05-21T18:32:25Z</time></trkpt>
			<trkpt lat="54.650170" lon="21.748380"><ele>12.9</ele><time>2026-05-21T18:32:32Z</time></trkpt>
			<trkpt lat="54.650320" lon="21.747480"><ele>13.2</ele><time>2026-05-21T18:32:39Z</time></trkpt>
			<trkpt lat="54.650690" lon="21.746170"><ele>13.6</ele><time>2026-05-21T18:32:46Z</time></trkpt>
			<trkpt lat="54.650800" lon="21.745350"><ele>13.9</ele><time>2026-05-21T18:32:53Z</time></trkpt>
			<trkpt lat="54.650910" lon="21.744100"><ele>14.2</ele><time>2026-05-21T18:33:00Z</time></trkpt>
			<trkpt lat="54.650990" lon="21.742860"><ele>14.2</ele><time>2026-05-21T18:33:06Z</time></trkpt>
			<trkpt lat="54.651120" lon="21.740590"><ele>14.3</ele><time>2026-05-21T18:33:13Z</time></trkpt>
			<trkpt lat="54.651170" lon="21.739860"><ele>14.4</ele><time>2026-05-21T18:33:20Z</time></trkpt>
			<trkpt lat="54.651510" lon="21.736260"><ele>14.5</ele><time>2026-05-21T18:33:27Z</time></trkpt>
			<trkpt lat="54.651590" lon="21.735210"><ele>14.6</ele><time>2026-05-21T18:33:34Z</time></trkpt>
			<trkpt lat="54.651660" lon="21.733870"><ele>14.3</ele><time>2026-05-21T18:33:41Z</time></trkpt>
			<trkpt lat="54.651890" lon="21.729340"><ele>13.4</ele><time>2026-05-21T18:33:47Z</time></trkpt>
			<trkpt lat="54.651930" lon="21.728600"><ele>13.2</ele><time>2026-05-21T18:33:54Z</time></trkpt>
			<trkpt lat="54.651950" lon="21.728050"><ele>13.1</ele><time>2026-05-21T18:34:01Z</time></trkpt>
			<trkpt lat="54.651940" lon="21.727460"><ele>12.9</ele><time>2026-05-21T18:34:08Z</time></trkpt>
			<trkpt lat="54.651910" lon="21.726770"><ele>12.8</ele><time>2026-05-21T18:34:15Z</time></trkpt>
			<trkpt lat="54.651890" lon="21.726390"><ele>12.7</ele><time>2026-05-21T18:34:22Z</time></trkpt>
			<trkpt lat="54.651860" lon="21.725810"><ele>12.6</ele><time>2026-05-21T18:34:28Z</time></trkpt>
			<trkpt lat="54.651750" lon="21.723370"><ele>13.0</ele><time>2026-05-21T18:34:35Z</time></trkpt>
			<trkpt lat="54.651740" lon="21.723170"><ele>13.0</ele><time>2026-05-21T18:34:42Z</time></trkpt>
			<trkpt lat="54.651620" lon="21.721730"><ele>13.3</ele><time>2026-05-21T18:34:49Z</time></trkpt>
			<trkpt lat="54.651550" lon="21.720740"><ele>13.4</ele><time>2026-05-21T18:34:56Z</time></trkpt>
			<trkpt lat="54.651540" lon="21.720290"><ele>13.5</ele><time>2026-05-21T18:35:03Z</time></trkpt>
			<trkpt lat="54.651530" lon="21.719510"><ele>13.6</ele><time>2026-05-21T18:35:09Z</time></trkpt>
			<trkpt lat="54.651620" lon="21.715290"><ele>13.9</ele><time>2026-05-21T18:35:16Z</time></trkpt>
			<trkpt lat="54.651700" lon="21.712260"><ele>13.0</ele><time>2026-05-21T18:35:23Z</time></trkpt>
			<trkpt lat="54.651480" lon="21.709840"><ele>12.4</ele><time>2026-05-21T18:35:30Z</time></trkpt>
			<trkpt lat="54.651010" lon="21.706030"><ele>12.0</ele><time>2026-05-21T18:35:37Z</time></trkpt>
			<trkpt lat="54.650830" lon="21.702240"><ele>13.1</ele><time>2026-05-21T18:35:44Z</time></trkpt>
			<trkpt lat="54.650900" lon="21.700760"><ele>13.5</ele><time>2026-05-21T18:35:50Z</time></trkpt>
			<trkpt lat="54.650970" lon="21.699440"><ele>13.9</ele><time>2026-05-21T18:35:57Z</time></trkpt>
			<trkpt lat="54.651020" lon="21.698150"><ele>14.2</ele><time>2026-05-21T18:36:04Z</time></trkpt>
			<trkpt lat="54.650950" lon="21.697650"><ele>14.3</ele><time>2026-05-21T18:36:11Z</time></trkpt>
			<trkpt lat="54.650430" lon="21.695920"><ele>14.4</ele><time>2026-05-21T18:36:18Z</time></trkpt>
			<trkpt lat="54.650270" lon="21.695320"><ele>14.4</ele><time>2026-05-21T18:36:25Z</time></trkpt>
			<trkpt lat="54.650130" lon="21.694510"><ele>14.5</ele><time>2026-05-21T18:36:31Z</time></trkpt>
			<trkpt lat="54.649680" lon="21.690150"><ele>14.6</ele><time>2026-05-21T18:36:38Z</time></trkpt>
			<trkpt lat="54.649250" lon="21.685870"><ele>13.0</ele><time>2026-05-21T18:36:45Z</time></trkpt>
			<trkpt lat="54.649040" lon="21.684030"><ele>12.1</ele><time>2026-05-21T18:36:52Z</time></trkpt>
			<trkpt lat="54.648830" lon="21.683310"><ele>11.7</ele><time>2026-05-21T18:36:59Z</time></trkpt>
			<trkpt lat="54.648740" lon="21.682680"><ele>11.3</ele><time>2026-05-21T18:37:06Z</time></trkpt>
			<trkpt lat="54.648780" lon="21.682070"><ele>11.0</ele><time>2026-05-21T18:37:12Z</time></trkpt>
			<trkpt lat="54.648840" lon="21.681550"><ele>10.7</ele><time>2026-05-21T18:37:19Z</time></trkpt>
			<trkpt lat="54.648880" lon="21.681220"><ele>10.6</ele><time>2026-05-21T18:37:26Z</time></trkpt>
			<trkpt lat="54.648940" lon="21.680420"><ele>10.1</ele><time>2026-05-21T18:37:33Z</time></trkpt>
			<trkpt lat="54.649030" lon="21.679520"><ele>10.1</ele><time>2026-05-21T18:37:40Z</time></trkpt>
			<trkpt lat="54.649060" lon="21.679220"><ele>10.2</ele><time>2026-05-21T18:37:47Z</time></trkpt>
			<trkpt lat="54.649070" lon="21.678700"><ele>10.4</ele><time>2026-05-21T18:37:53Z</time></trkpt>
			<trkpt lat="54.648970" lon="21.676730"><ele>11.4</ele><time>2026-05-21T18:38:00Z</time></trkpt>
			<trkpt lat="54.648960" lon="21.676410"><ele>11.5</ele><time>2026-05-21T18:38:07Z</time></trkpt>
			<trkpt lat="54.648950" lon="21.676110"><ele>11.6</ele><time>2026-05-21T18:38:14Z</time></trkpt>
			<trkpt lat="54.648840" lon="21.675030"><ele>12.2</ele><time>2026-05-21T18:38:21Z</time></trkpt>
			<trkpt lat="54.648560" lon="21.672300"><ele>13.5</ele><time>2026-05-21T18:38:28Z</time></trkpt>
			<trkpt lat="54.648030" lon="21.667120"><ele>14.3</ele><time>2026-05-21T18:38:34Z</time></trkpt>
			<trkpt lat="54.648000" lon="21.666830"><ele>14.4</ele><time>2026-05-21T18:38:41Z</time></trkpt>
			<trkpt lat="54.647910" lon="21.666400"><ele>14.4</ele><time>2026-05-21T18:38:48Z</time></trkpt>
			<trkpt lat="54.647770" lon="21.665790"><ele>14.4</ele><time>2026-05-21T18:38:55Z</time></trkpt>
			<trkpt lat="54.645230" lon="21.656130"><ele>11.2</ele><time>2026-05-21T18:39:02Z</time></trkpt>
			<trkpt lat="54.644710" lon="21.654160"><ele>10.0</ele><time>2026-05-21T18:39:09Z</time></trkpt>
			<trkpt lat="54.643880" lon="21.650870"><ele>9.0</ele><time>2026-05-21T18:39:15Z</time></trkpt>
			<trkpt lat="54.643770" lon="21.650350"><ele>8.8</ele><time>2026-05-21T18:39:22Z</time></trkpt>
			<trkpt lat="54.643710" lon="21.649920"><ele>8.7</ele><time>2026-05-21T18:39:29Z</time></trkpt>
			<trkpt lat="54.643690" lon="21.649670"><ele>8.7</ele><time>2026-05-21T18:39:36Z</time></trkpt>
			<trkpt lat="54.643690" lon="21.649330"><ele>8.6</ele><time>2026-05-21T18:39:43Z</time></trkpt>
			<trkpt lat="54.643750" lon="21.646460"><ele>8.0</ele><time>2026-05-21T18:39:50Z</time></trkpt>
			<trkpt lat="54.643660" lon="21.644180"><ele>7.5</ele><time>2026-05-21T18:39:56Z</time></trkpt>
			<trkpt lat="54.643570" lon="21.642410"><ele>7.9</ele><time>2026-05-21T18:40:03Z</time></trkpt>
			<trkpt lat="54.643560" lon="21.641550"><ele>8.1</ele><time>2026-05-21T18:40:10Z</time></trkpt>
			<trkpt lat="54.643650" lon="21.640990"><ele>8.2</ele><time>2026-05-21T18:40:17Z</time></trkpt>
			<trkpt lat="54.643750" lon="21.640460"><ele>8.3</ele><time>2026-05-21T18:40:24Z</time></trkpt>
			<trkpt lat="54.643840" lon="21.639860"><ele>8.4</ele><time>2026-05-21T18:40:31Z</time></trkpt>
			<trkpt lat="54.643890" lon="21.639080"><ele>8.6</ele><time>2026-05-21T18:40:37Z</time></trkpt>
			<trkpt lat="54.643930" lon="21.637960"><ele>8.8</ele><time>2026-05-21T18:40:44Z</time></trkpt>
			<trkpt lat="54.643950" lon="21.636880"><ele>9.0</ele><time>2026-05-21T18:40:51Z</time></trkpt>
			<trkpt lat="54.644000" lon="21.636310"><ele>9.1</ele><time>2026-05-21T18:40:58Z</time></trkpt>
			<trkpt lat="54.644140" lon="21.635650"><ele>9.3</ele><time>2026-05-21T18:41:05Z</time></trkpt>
			<trkpt lat="54.644440" lon="21.634430"><ele>10.1</ele><time>2026-05-21T18:41:12Z</time></trkpt>
			<trkpt lat="54.645700" lon="21.629560"><ele>14.4</ele><time>2026-05-21T18:41:18Z</time></trkpt>
			<trkpt lat="54.647060" lon="21.624270"><ele>17.2</ele><time>2026-05-21T18:41:25Z</time></trkpt>
			<trkpt lat="54.647270" lon="21.623540"><ele>17.3</ele><time>2026-05-21T18:41:32Z</time></trkpt>
			<trkpt lat="54.647380" lon="21.622880"><ele>17.4</ele><time>2026-05-21T18:41:39Z</time></trkpt>
			<trkpt lat="54.647390" lon="21.622280"><ele>17.5</ele><time>2026-05-21T18:41:46Z</time></trkpt>
			<trkpt lat="54.647330" lon="21.619980"><ele>17.7</ele><time>2026-05-21T18:41:53Z</time></trkpt>
			<trkpt lat="54.647120" lon="21.614060"><ele>17.6</ele><time>2026-05-21T18:41:59Z</time></trkpt>
			<trkpt lat="54.647100" lon="21.613110"><ele>17.5</ele><time>2026-05-21T18:42:06Z</time></trkpt>
			<trkpt lat="54.647120" lon="21.612420"><ele>17.4</ele><time>2026-05-21T18:42:13Z</time></trkpt>
			<trkpt lat="54.647130" lon="21.612330"><ele>17.4</ele><time>2026-05-21T18:42:20Z</time></trkpt>
			<trkpt lat="54.647350" lon="21.611100"><ele>17.3</ele><time>2026-05-21T18:42:27Z</time></trkpt>
			<trkpt lat="54.647430" lon="21.610650"><ele>17.2</ele><time>2026-05-21T18:42:34Z</time></trkpt>
			<trkpt lat="54.647510" lon="21.610010"><ele>17.1</ele><time>2026-05-21T18:42:40Z</time></trkpt>
			<trkpt lat="54.647740" lon="21.606750"><ele>17.2</ele><time>2026-05-21T18:42:47Z</time></trkpt>
			<trkpt lat="54.647880" lon="21.605520"><ele>17.4</ele><time>2026-05-21T18:42:54Z</time></trkpt>
			<trkpt lat="54.648020" lon="21.604870"><ele>17.4</ele><time>2026-05-21T18:43:01Z</time></trkpt>
			<trkpt lat="54.648290" lon="21.604080"><ele>17.6</ele><time>2026-05-21T18:43:08Z</time></trkpt>
			<trkpt lat="54.648360" lon="21.603830"><ele>17.6</ele><time>2026-05-21T18:43:15Z</time></trkpt>
			<trkpt lat="54.648450" lon="21.603440"><ele>17.6</ele><time>2026-05-21T18:43:21Z</time></trkpt>
			<trkpt lat="54.648600" lon="21.602260"><ele>17.8</ele><time>2026-05-21T18:43:28Z</time></trkpt>
			<trkpt lat="54.648640" lon="21.601880"><ele>17.8</ele><time>2026-05-21T18:43:35Z</time></trkpt>
			<trkpt lat="54.648630" lon="21.601360"><ele>17.9</ele><time>2026-05-21T18:43:42Z</time></trkpt>
			<trkpt lat="54.648520" lon="21.600690"><ele>18.0</ele><time>2026-05-21T18:43:49Z</time></trkpt>
			<trkpt lat="54.648470" lon="21.600280"><ele>18.0</ele><time>2026-05-21T18:43:56Z</time></trkpt>
			<trkpt lat="54.648450" lon="21.599940"><ele>18.1</ele><time>2026-05-21T18:44:02Z</time></trkpt>
			<trkpt lat="54.648330" lon="21.598290"><ele>18.0</ele><time>2026-05-21T18:44:09Z</time></trkpt>
			<trkpt lat="54.648200" lon="21.595690"><ele>17.7</ele><time>2026-05-21T18:44:16Z</time></trkpt>
			<trkpt lat="54.648080" lon="21.591050"><ele>17.2</ele><time>2026-05-21T18:44:23Z</time></trkpt>
			<trkpt lat="54.647860" lon="21.581350"><ele>17.9</ele><time>2026-05-21T18:44:30Z</time></trkpt>
			<trkpt lat="54.647870" lon="21.580530"><ele>17.8</ele><time>2026-05-21T18:44:37Z</time></trkpt>
			<trkpt lat="54.648250" lon="21.576150"><ele>15.5</ele><time>2026-05-21T18:44:43Z</time></trkpt>
			<trkpt lat="54.648290" lon="21.575600"><ele>15.2</ele><time>2026-05-21T18:44:50Z</time></trkpt>
			<trkpt lat="54.648600" lon="21.571400"><ele>13.1</ele><time>2026-05-21T18:44:57Z</time></trkpt>
			<trkpt lat="54.648750" lon="21.569580"><ele>12.5</ele><time>2026-05-21T18:45:04Z</time></trkpt>
			<trkpt lat="54.648830" lon="21.569000"><ele>12.3</ele><time>2026-05-21T18:45:11Z</time></trkpt>
			<trkpt lat="54.648930" lon="21.568570"><ele>12.2</ele><time>2026-05-21T18:45:18Z</time></trkpt>
			<trkpt lat="54.649050" lon="21.568140"><ele>12.0</ele><time>2026-05-21T18:45:24Z</time></trkpt>
			<trkpt lat="54.649220" lon="21.567770"><ele>11.9</ele><time>2026-05-21T18:45:31Z</time></trkpt>
			<trkpt lat="54.649500" lon="21.567230"><ele>11.6</ele><time>2026-05-21T18:45:38Z</time></trkpt>
			<trkpt lat="54.650210" lon="21.565760"><ele>11.1</ele><time>2026-05-21T18:45:45Z</time></trkpt>
			<trkpt lat="54.651240" lon="21.563570"><ele>10.2</ele><time>2026-05-21T18:45:52Z</time></trkpt>
			<trkpt lat="54.651770" lon="21.562360"><ele>10.2</ele><time>2026-05-21T18:45:59Z</time></trkpt>
			<trkpt lat="54.652030" lon="21.561890"><ele>10.2</ele><time>2026-05-21T18:46:05Z</time></trkpt>
			<trkpt lat="54.652260" lon="21.561250"><ele>10.1</ele><time>2026-05-21T18:46:12Z</time></trkpt>
			<trkpt lat="54.652750" lon="21.559850"><ele>10.1</ele><time>2026-05-21T18:46:19Z</time></trkpt>
			<trkpt lat="54.652930" lon="21.559320"><ele>10.1</ele><time>2026-05-21T18:46:26Z</time></trkpt>
			<trkpt lat="54.653380" lon="21.557880"><ele>10.0</ele><time>2026-05-21T18:46:33Z</time></trkpt>
			<trkpt lat="54.653510" lon="21.557450"><ele>10.0</ele><time>2026-05-21T18:46:40Z</time></trkpt>
			<trkpt lat="54.653750" lon="21.556640"><ele>10.0</ele><time>2026-05-21T18:46:46Z</time></trkpt>
			<trkpt lat="54.654090" lon="21.555480"><ele>10.3</ele><time>2026-05-21T18:46:53Z</time></trkpt>
			<trkpt lat="54.654350" lon="21.554180"><ele>11.5</ele><time>2026-05-21T18:47:00Z</time></trkpt>
			<trkpt lat="54.654420" lon="21.553920"><ele>11.7</ele><time>2026-05-21T18:47:07Z</time></trkpt>
			<trkpt lat="54.654530" lon="21.553600"><ele>12.1</ele><time>2026-05-21T18:47:14Z</time></trkpt>
			<trkpt lat="54.654640" lon="21.553410"><ele>12.3</ele><time>2026-05-21T18:47:21Z</time></trkpt>
			<trkpt lat="54.654810" lon="21.553240"><ele>12.6</ele><time>2026-05-21T18:47:27Z</time></trkpt>
			<trkpt lat="54.655100" lon="21.553010"><ele>13.1</ele><time>2026-05-21T18:47:34Z</time></trkpt>
			<trkpt lat="54.655250" lon="21.552820"><ele>13.4</ele><time>2026-05-21T18:47:41Z</time></trkpt>
			<trkpt lat="54.655310" lon="21.552640"><ele>13.5</ele><time>2026-05-21T18:47:48Z</time></trkpt>
			<trkpt lat="54.655340" lon="21.552430"><ele>13.7</ele><time>2026-05-21T18:47:55Z</time></trkpt>
			<trkpt lat="54.655310" lon="21.552140"><ele>14.0</ele><time>2026-05-21T18:48:02Z</time></trkpt>
			<trkpt lat="54.655250" lon="21.550700"><ele>15.2</ele><time>2026-05-21T18:48:08Z</time></trkpt>
			<trkpt lat="54.655260" lon="21.549790"><ele>16.0</ele><time>2026-05-21T18:48:15Z</time></trkpt>
			<trkpt lat="54.655350" lon="21.548670"><ele>17.0</ele><time>2026-05-21T18:48:22Z</time></trkpt>
			<trkpt lat="54.655390" lon="21.548460"><ele>17.2</ele><time>2026-05-21T18:48:29Z</time></trkpt>
			<trkpt lat="54.655450" lon="21.548220"><ele>17.4</ele><time>2026-05-21T18:48:36Z</time></trkpt>
			<trkpt lat="54.655410" lon="21.548030"><ele>17.6</ele><time>2026-05-21T18:48:43Z</time></trkpt>
			<trkpt lat="54.655350" lon="21.547840"><ele>17.8</ele><time>2026-05-21T18:48:49Z</time></trkpt>
			<trkpt lat="54.655190" lon="21.547510"><ele>17.9</ele><time>2026-05-21T18:48:56Z</time></trkpt>
			<trkpt lat="54.654250" lon="21.546700"><ele>15.8</ele><time>2026-05-21T18:49:03Z</time></trkpt>
			<trkpt lat="54.653530" lon="21.546520"><ele>14.2</ele><time>2026-05-21T18:49:10Z</time></trkpt>
			<trkpt lat="54.653530" lon="21.546520"><ele>14.2</ele><time>2026-05-21T18:49:20Z</time></trkpt>
			<trkpt lat="54.652870" lon="21.546350"><ele>12.9</ele><time>2026-05-21T18:49:29Z</time></trkpt>
			<trkpt lat="54.651650" lon="21.545890"><ele>10.3</ele><time>2026-05-21T18:49:39Z</time></trkpt>
			<trkpt lat="54.651270" lon="21.545670"><ele>9.4</ele><time>2026-05-21T18:49:49Z</time></trkpt>
			<trkpt lat="54.648670" lon="21.543190"><ele>10.1</ele><time>2026-05-21T18:49:59Z</time></trkpt>
			<trkpt lat="54.647990" lon="21.542530"><ele>11.5</ele><time>2026-05-21T18:50:09Z</time></trkpt>
			<trkpt lat="54.647060" lon="21.540590"><ele>14.2</ele><time>2026-05-21T18:50:19Z</time></trkpt>
			<trkpt lat="54.645330" lon="21.536980"><ele>16.7</ele><time>2026-05-21T18:50:28Z</time></trkpt>
			<trkpt lat="54.643530" lon="21.533460"><ele>16.4</ele><time>2026-05-21T18:50:38Z</time></trkpt>
			<trkpt lat="54.642630" lon="21.532390"><ele>16.3</ele><time>2026-05-21T18:50:48Z</time></trkpt>
			<trkpt lat="54.640480" lon="21.530120"><ele>15.1</ele><time>2026-05-21T18:50:58Z</time></trkpt>
			<trkpt lat="54.640160" lon="21.529850"><ele>14.9</ele><time>2026-05-21T18:51:08Z</time></trkpt>
			<trkpt lat="54.639970" lon="21.529750"><ele>14.8</ele><time>2026-05-21T18:51:18Z</time></trkpt>
			<trkpt lat="54.639770" lon="21.529650"><ele>14.7</ele><time>2026-05-21T18:51:27Z</time></trkpt>
			<trkpt lat="54.639170" lon="21.529590"><ele>14.4</ele><time>2026-05-21T18:51:37Z</time></trkpt>
			<trkpt lat="54.638610" lon="21.529580"><ele>14.1</ele><time>2026-05-21T18:51:47Z</time></trkpt>
			<trkpt lat="54.636410" lon="21.529610"><ele>11.8</ele><time>2026-05-21T18:51:57Z</time></trkpt>
			<trkpt lat="54.635280" lon="21.529600"><ele>9.8</ele><time>2026-05-21T18:52:07Z</time></trkpt>
			<trkpt lat="54.634030" lon="21.529640"><ele>7.6</ele><time>2026-05-21T18:52:16Z</time></trkpt>
			<trkpt lat="54.632890" lon="21.529540"><ele>5.6</ele><time>2026-05-21T18:52:26Z</time></trkpt>
			<trkpt lat="54.627490" lon="21.529280"><ele>7.3</ele><time>2026-05-21T18:52:36Z</time></trkpt>
			<trkpt lat="54.626340" lon="21.529250"><ele>7.9</ele><time>2026-05-21T18:52:46Z</time></trkpt>
			<trkpt lat="54.626060" lon="21.529410"><ele>7.8</ele><time>2026-05-21T18:52:56Z</time></trkpt>
			<trkpt lat="54.625780" lon="21.529590"><ele>7.7</ele><time>2026-05-21T18:53:06Z</time></trkpt>
			<trkpt lat="54.625780" lon="21.529720"><ele>7.6</ele><time>2026-05-21T18:53:15Z</time></trkpt>
			<trkpt lat="54.625840" lon="21.530300"><ele>7.5</ele><time>2026-05-21T18:53:25Z</time></trkpt>
			<trkpt lat="54.625850" lon="21.530470"><ele>7.4</ele><time>2026-05-21T18:53:35Z</time></trkpt>
			<trkpt lat="54.625830" lon="21.530740"><ele>7.4</ele><time>2026-05-21T18:53:45Z</time></trkpt>
			<trkpt lat="54.625300" lon="21.535280"><ele>6.3</ele><time>2026-05-21T18:53:55Z</time></trkpt>
			<trkpt lat="54.625300" lon="21.535280"><ele>6.3</ele><time>2026-05-21T18:54:02Z</time></trkpt>
			<trkpt lat="54.625170" lon="21.536430"><ele>6.0</ele><time>2026-05-21T18:54:09Z</time></trkpt>
			<trkpt lat="54.625100" lon="21.537300"><ele>5.7</ele><time>2026-05-21T18:54:16Z</time></trkpt>
			<trkpt lat="54.625020" lon="21.538440"><ele>7.7</ele><time>2026-05-21T18:54:23Z</time></trkpt>
			<trkpt lat="54.624940" lon="21.541050"><ele>12.2</ele><time>2026-05-21T18:54:30Z</time></trkpt>
			<trkpt lat="54.624900" lon="21.541460"><ele>12.9</ele><time>2026-05-21T18:54:37Z</time></trkpt>
			<trkpt lat="54.624850" lon="21.541810"><ele>13.5</ele><time>2026-05-21T18:54:45Z</time></trkpt>
			<trkpt lat="54.624780" lon="21.542150"><ele>14.1</ele><time>2026-05-21T18:54:52Z</time></trkpt>
			<trkpt lat="54.624720" lon="21.542350"><ele>14.5</ele><time>2026-05-21T18:54:59Z</time></trkpt>
			<trkpt lat="54.624330" lon="21.543560"><ele>16.9</ele><time>2026-05-21T18:55:06Z</time></trkpt>
			<trkpt lat="54.623870" lon="21.544860"><ele>19.5</ele><time>2026-05-21T18:55:13Z</time></trkpt>
			<trkpt lat="54.623720" lon="21.545390"><ele>20.5</ele><time>2026-05-21T18:55:20Z</time></trkpt>
			<trkpt lat="54.623650" lon="21.545660"><ele>21.0</ele><time>2026-05-21T18:55:27Z</time></trkpt>
			<trkpt lat="54.623570" lon="21.546080"><ele>21.8</ele><time>2026-05-21T18:55:34Z</time></trkpt>
			<trkpt lat="54.623510" lon="21.546900"><ele>22.0</ele><time>2026-05-21T18:55:42Z</time></trkpt>
			<trkpt lat="54.623530" lon="21.548810"><ele>22.4</ele><time>2026-05-21T18:55:49Z</time></trkpt>
			<trkpt lat="54.623540" lon="21.552350"><ele>23.3</ele><time>2026-05-21T18:55:56Z</time></trkpt>
			<trkpt lat="54.623550" lon="21.553600"><ele>23.6</ele><time>2026-05-21T18:56:03Z</time></trkpt>
			<trkpt lat="54.623790" lon="21.570240"><ele>21.8</ele><time>2026-05-21T18:56:10Z</time></trkpt>
			<trkpt lat="54.623820" lon="21.573280"><ele>22.7</ele><time>2026-05-21T18:56:17Z</time></trkpt>
			<trkpt lat="54.623850" lon="21.574970"><ele>23.2</ele><time>2026-05-21T18:56:24Z</time></trkpt>
			<trkpt lat="54.623860" lon="21.577410"><ele>23.9</ele><time>2026-05-21T18:56:32Z</time></trkpt>
			<trkpt lat="54.623510" lon="21.577360"><ele>24.0</ele><time>2026-05-21T18:56:39Z</time></trkpt>
			<trkpt lat="54.623290" lon="21.577380"><ele>24.1</ele><time>2026-05-21T18:56:46Z</time></trkpt>
			<trkpt lat="54.623030" lon="21.577430"><ele>24.3</ele><time>2026-05-21T18:56:53Z</time></trkpt>
			<trkpt lat="54.622770" lon="21.577560"><ele>24.4</ele><time>2026-05-21T18:57:00Z</time></trkpt>
			<trkpt lat="54.622340" lon="21.577760"><ele>24.6</ele><time>2026-05-21T18:57:07Z</time></trkpt>
			<trkpt lat="54.622240" lon="21.577800"><ele>24.6</ele><time>2026-05-21T18:57:14Z</time></trkpt>
			<trkpt lat="54.620230" lon="21.577940"><ele>25.6</ele><time>2026-05-21T18:57:21Z</time></trkpt>
			<trkpt lat="54.618090" lon="21.577980"><ele>26.1</ele><time>2026-05-21T18:57:29Z</time></trkpt>
			<trkpt lat="54.615220" lon="21.578190"><ele>26.9</ele><time>2026-05-21T18:57:36Z</time></trkpt>
			<trkpt lat="54.614990" lon="21.578190"><ele>26.9</ele><time>2026-05-21T18:57:43Z</time></trkpt>
			<trkpt lat="54.614990" lon="21.578190"><ele>26.9</ele><time>2026-05-21T18:57:53Z</time></trkpt>
			<trkpt lat="54.614690" lon="21.578230"><ele>27.1</ele><time>2026-05-21T18:58:02Z</time></trkpt>
			<trkpt lat="54.614520" lon="21.578310"><ele>27.2</ele><time>2026-05-21T18:58:12Z</time></trkpt>
			<trkpt lat="54.614310" lon="21.578520"><ele>27.3</ele><time>2026-05-21T18:58:22Z</time></trkpt>
			<trkpt lat="54.613040" lon="21.580510"><ele>28.1</ele><time>2026-05-21T18:58:32Z</time></trkpt>
			<trkpt lat="54.609800" lon="21.584160"><ele>28.7</ele><time>2026-05-21T18:58:42Z</time></trkpt>
			<trkpt lat="54.606640" lon="21.587650"><ele>25.9</ele><time>2026-05-21T18:58:51Z</time></trkpt>
			<trkpt lat="54.601460" lon="21.596620"><ele>30.0</ele><time>2026-05-21T18:59:01Z</time></trkpt>
			<trkpt lat="54.601060" lon="21.597250"><ele>30.6</ele><time>2026-05-21T18:59:11Z</time></trkpt>
			<trkpt lat="54.600180" lon="21.597900"><ele>31.6</ele><time>2026-05-21T18:59:21Z</time></trkpt>
			<trkpt lat="54.598690" lon="21.598910"><ele>33.4</ele><time>2026-05-21T18:59:31Z</time></trkpt>
			<trkpt lat="54.598300" lon="21.599210"><ele>33.8</ele><time>2026-05-21T18:59:40Z</time></trkpt>
			<trkpt lat="54.598120" lon="21.599440"><ele>34.1</ele><time>2026-05-21T18:59:50Z</time></trkpt>
			<trkpt lat="54.597880" lon="21.600110"><ele>34.2</ele><time>2026-05-21T19:00:00Z</time></trkpt>
			<trkpt lat="54.597210" lon="21.601760"><ele>30.6</ele><time>2026-05-21T19:00:10Z</time></trkpt>
			<trkpt lat="54.596930" lon="21.602300"><ele>29.3</ele><time>2026-05-21T19:00:20Z</time></trkpt>
			<trkpt lat="54.596620" lon="21.602750"><ele>28.0</ele><time>2026-05-21T19:00:29Z</time></trkpt>
			<trkpt lat="54.595430" lon="21.604550"><ele>23.1</ele><time>2026-05-21T19:00:39Z</time></trkpt>
			<trkpt lat="54.594670" lon="21.605310"><ele>20.4</ele><time>2026-05-21T19:00:49Z</time></trkpt>
			<trkpt lat="54.594400" lon="21.605380"><ele>19.6</ele><time>2026-05-21T19:00:59Z</time></trkpt>
			<trkpt lat="54.593910" lon="21.605160"><ele>18.0</ele><time>2026-05-21T19:01:09Z</time></trkpt>
			<trkpt lat="54.593690" lon="21.605110"><ele>18.0</ele><time>2026-05-21T19:01:18Z</time></trkpt>
			<trkpt lat="54.592020" lon="21.605530"><ele>20.8</ele><time>2026-05-21T19:01:28Z</time></trkpt>
			<trkpt lat="54.591870" lon="21.605530"><ele>21.1</ele><time>2026-05-21T19:01:38Z</time></trkpt>
			<trkpt lat="54.591590" lon="21.605500"><ele>21.6</ele><time>2026-05-21T19:01:48Z</time></trkpt>
			<trkpt lat="54.590930" lon="21.605260"><ele>22.7</ele><time>2026-05-21T19:01:58Z</time></trkpt>
			<trkpt lat="54.589560" lon="21.604800"><ele>25.0</ele><time>2026-05-21T19:02:07Z</time></trkpt>
			<trkpt lat="54.589390" lon="21.604750"><ele>25.3</ele><time>2026-05-21T19:02:17Z</time></trkpt>
			<trkpt lat="54.589120" lon="21.604710"><ele>25.8</ele><time>2026-05-21T19:02:27Z</time></trkpt>
			<trkpt lat="54.587020" lon="21.604820"><ele>32.7</ele><time>2026-05-21T19:02:37Z</time></trkpt>
			<trkpt lat="54.586280" lon="21.604430"><ele>35.7</ele><time>2026-05-21T19:02:47Z</time></trkpt>
			<trkpt lat="54.585720" lon="21.604590"><ele>38.0</ele><time>2026-05-21T19:02:56Z</time></trkpt>
			<trkpt lat="54.585100" lon="21.604800"><ele>40.5</ele><time>2026-05-21T19:03:06Z</time></trkpt>
			<trkpt lat="54.584750" lon="21.604790"><ele>41.8</ele><time>2026-05-21T19:03:16Z</time></trkpt>
			<trkpt lat="54.584510" lon="21.604600"><ele>42.9</ele><time>2026-05-21T19:03:26Z</time></trkpt>
			<trkpt lat="54.584300" lon="21.603780"><ele>44.9</ele><time>2026-05-21T19:03:36Z</time></trkpt>
			<trkpt lat="54.583600" lon="21.603900"><ele>47.7</ele><time>2026-05-21T19:03:45Z</time></trkpt>
			<trkpt lat="54.581980" lon="21.604180"><ele>45.2</ele><time>2026-05-21T19:03:55Z</time></trkpt>
			<trkpt lat="54.581530" lon="21.604260"><ele>44.3</ele><time>2026-05-21T19:04:05Z</time></trkpt>
			<trkpt lat="54.578990" lon="21.605430"><ele>39.3</ele><time>2026-05-21T19:04:15Z</time></trkpt>
			<trkpt lat="54.578590" lon="21.605720"><ele>38.5</ele><time>2026-05-21T19:04:25Z</time></trkpt>
			<trkpt lat="54.577130" lon="21.607290"><ele>36.8</ele><time>2026-05-21T19:04:34Z</time></trkpt>
			<trkpt lat="54.573680" lon="21.611220"><ele>33.9</ele><time>2026-05-21T19:04:44Z</time></trkpt>
			<trkpt lat="54.571810" lon="21.613170"><ele>38.7</ele><time>2026-05-21T19:04:54Z</time></trkpt>
			<trkpt lat="54.570600" lon="21.614560"><ele>41.9</ele><time>2026-05-21T19:05:04Z</time></trkpt>
			<trkpt lat="54.569920" lon="21.615270"><ele>43.6</ele><time>2026-05-21T19:05:14Z</time></trkpt>
			<trkpt lat="54.569030" lon="21.618530"><ele>43.9</ele><time>2026-05-21T19:05:23Z</time></trkpt>
			<trkpt lat="54.568380" lon="21.620890"><ele>42.0</ele><time>2026-05-21T19:05:33Z</time></trkpt>
			<trkpt lat="54.567150" lon="21.625310"><ele>38.5</ele><time>2026-05-21T19:05:43Z</time></trkpt>
			<trkpt lat="54.566340" lon="21.628350"><ele>36.2</ele><time>2026-05-21T19:05:53Z</time></trkpt>
			<trkpt lat="54.565980" lon="21.629770"><ele>35.1</ele><time>2026-05-21T19:06:03Z</time></trkpt>
			<trkpt lat="54.565040" lon="21.635340"><ele>33.5</ele><time>2026-05-21T19:06:12Z</time></trkpt>
			<trkpt lat="54.563400" lon="21.644850"><ele>38.3</ele><time>2026-05-21T19:06:22Z</time></trkpt>
			<trkpt lat="54.563090" lon="21.646070"><ele>37.6</ele><time>2026-05-21T19:06:32Z</time></trkpt>
			<trkpt lat="54.562460" lon="21.647090"><ele>36.9</ele><time>2026-05-21T19:06:42Z</time></trkpt>
			<trkpt lat="54.562020" lon="21.647950"><ele>36.4</ele><time>2026-05-21T19:06:52Z</time></trkpt>
			<trkpt lat="54.561600" lon="21.648440"><ele>36.0</ele><time>2026-05-21T19:07:01Z</time></trkpt>
			<trkpt lat="54.560980" lon="21.648980"><ele>35.4</ele><time>2026-05-21T19:07:11Z</time></trkpt>
			<trkpt lat="54.559390" lon="21.651790"><ele>34.5</ele><time>2026-05-21T19:07:21Z</time></trkpt>
			<trkpt lat="54.556070" lon="21.657890"><ele>32.5</ele><time>2026-05-21T19:07:31Z</time></trkpt>
			<trkpt lat="54.555630" lon="21.657760"><ele>32.2</ele><time>2026-05-21T19:07:41Z</time></trkpt>
			<trkpt lat="54.554870" lon="21.657390"><ele>31.7</ele><time>2026-05-21T19:07:50Z</time></trkpt>
			<trkpt lat="54.554700" lon="21.657390"><ele>31.6</ele><time>2026-05-21T19:08:00Z</time></trkpt>
			<trkpt lat="54.554480" lon="21.657470"><ele>31.5</ele><time>2026-05-21T19:08:10Z</time></trkpt>
			<trkpt lat="54.554260" lon="21.657680"><ele>31.3</ele><time>2026-05-21T19:08:20Z</time></trkpt>
			<trkpt lat="54.553960" lon="21.658080"><ele>31.1</ele><time>2026-05-21T19:08:30Z</time></trkpt>
			<trkpt lat="54.553830" lon="21.658300"><ele>30.9</ele><time>2026-05-21T19:08:39Z</time></trkpt>
			<trkpt lat="54.553630" lon="21.658620"><ele>30.8</ele><time>2026-05-21T19:08:49Z</time></trkpt>
			<trkpt lat="54.553250" lon="21.659290"><ele>30.4</ele><time>2026-05-21T19:08:59Z</time></trkpt>
			<trkpt lat="54.551490" lon="21.664110"><ele>29.0</ele><time>2026-05-21T19:09:09Z</time></trkpt>
			<trkpt lat="54.550490" lon="21.666820"><ele>28.3</ele><time>2026-05-21T19:09:19Z</time></trkpt>
			<trkpt lat="54.547760" lon="21.674310"><ele>28.8</ele><time>2026-05-21T19:09:28Z</time></trkpt>
			<trkpt lat="54.547000" lon="21.676420"><ele>29.1</ele><time>2026-05-21T19:09:38Z</time></trkpt>
			<trkpt lat="54.546920" lon="21.677130"><ele>29.4</ele><time>2026-05-21T19:09:48Z</time></trkpt>
			<trkpt lat="54.546900" lon="21.677900"><ele>29.7</ele><time>2026-05-21T19:09:58Z</time></trkpt>
			<trkpt lat="54.547160" lon="21.681460"><ele>31.2</ele><time>2026-05-21T19:10:08Z</time></trkpt>
			<trkpt lat="54.547800" lon="21.689250"><ele>33.3</ele><time>2026-05-21T19:10:17Z</time></trkpt>
			<trkpt lat="54.547880" lon="21.689990"><ele>33.4</ele><time>2026-05-21T19:10:27Z</time></trkpt>
			<trkpt lat="54.549660" lon="21.698360"><ele>34.8</ele><time>2026-05-21T19:10:37Z</time></trkpt>
			<trkpt lat="54.550210" lon="21.701180"><ele>35.5</ele><time>2026-05-21T19:10:47Z</time></trkpt>
			<trkpt lat="54.550510" lon="21.702700"><ele>35.8</ele><time>2026-05-21T19:10:57Z</time></trkpt>
			<trkpt lat="54.551960" lon="21.709280"><ele>37.4</ele><time>2026-05-21T19:11:06Z</time></trkpt>
			<trkpt lat="54.552950" lon="21.713690"><ele>37.9</ele><time>2026-05-21T19:11:16Z</time></trkpt>
			<trkpt lat="54.553050" lon="21.714230"><ele>37.8</ele><time>2026-05-21T19:11:26Z</time></trkpt>
			<trkpt lat="54.553070" lon="21.715050"><ele>37.7</ele><time>2026-05-21T19:11:36Z</time></trkpt>
			<trkpt lat="54.553060" lon="21.715360"><ele>37.7</ele><time>2026-05-21T19:11:46Z</time></trkpt>
			<trkpt lat="54.553050" lon="21.715490"><ele>37.7</ele><time>2026-05-21T19:11:55Z</time></trkpt>
			<trkpt lat="54.553020" lon="21.715610"><ele>37.7</ele><time>2026-05-21T19:12:05Z</time></trkpt>
			<trkpt lat="54.552990" lon="21.715700"><ele>37.6</ele><time>2026-05-21T19:12:15Z</time></trkpt>
			<trkpt lat="54.552930" lon="21.715760"><ele>37.6</ele><time>2026-05-21T19:12:25Z</time></trkpt>
			<trkpt lat="54.551750" lon="21.716670"><ele>37.3</ele><time>2026-05-21T19:12:35Z</time></trkpt>
			<trkpt lat="54.551630" lon="21.716810"><ele>37.3</ele><time>2026-05-21T19:12:44Z</time></trkpt>
			<trkpt lat="54.551070" lon="21.717780"><ele>37.1</ele><time>2026-05-21T19:12:54Z</time></trkpt>
			<trkpt lat="54.548630" lon="21.721770"><ele>36.4</ele><time>2026-05-21T19:13:04Z</time></trkpt>
			<trkpt lat="54.545570" lon="21.726540"><ele>36.1</ele><time>2026-05-21T19:13:14Z</time></trkpt>
			<trkpt lat="54.545150" lon="21.727000"><ele>36.3</ele><time>2026-05-21T19:13:24Z</time></trkpt>
			<trkpt lat="54.545000" lon="21.727210"><ele>36.3</ele><time>2026-05-21T19:13:33Z</time></trkpt>
			<trkpt lat="54.544870" lon="21.727420"><ele>36.3</ele><time>2026-05-21T19:13:43Z</time></trkpt>
			<trkpt lat="54.544670" lon="21.727880"><ele>36.4</ele><time>2026-05-21T19:13:53Z</time></trkpt>
			<trkpt lat="54.544430" lon="21.728460"><ele>36.5</ele><time>2026-05-21T19:14:03Z</time></trkpt>
			<trkpt lat="54.544290" lon="21.728770"><ele>36.6</ele><time>2026-05-21T19:14:13Z</time></trkpt>
			<trkpt lat="54.543960" lon="21.729480"><ele>36.7</ele><time>2026-05-21T19:14:22Z</time></trkpt>
			<trkpt lat="54.543810" lon="21.729790"><ele>36.8</ele><time>2026-05-21T19:14:32Z</time></trkpt>
			<trkpt lat="54.543550" lon="21.730350"><ele>36.9</ele><time>2026-05-21T19:14:42Z</time></trkpt>
			<trkpt lat="54.543380" lon="21.730700"><ele>36.9</ele><time>2026-05-21T19:14:52Z</time></trkpt>
			<trkpt lat="54.543190" lon="21.731160"><ele>37.0</ele><time>2026-05-21T19:15:02Z</time></trkpt>
			<trkpt lat="54.543020" lon="21.731640"><ele>37.1</ele><time>2026-05-21T19:15:11Z</time></trkpt>
			<trkpt lat="54.542710" lon="21.733030"><ele>37.2</ele><time>2026-05-21T19:15:21Z</time></trkpt>
			<trkpt lat="54.542440" lon="21.734260"><ele>37.3</ele><time>2026-05-21T19:15:31Z</time></trkpt>
			<trkpt lat="54.542140" lon="21.735790"><ele>37.4</ele><time>2026-05-21T19:15:41Z</time></trkpt>
			<trkpt lat="54.541740" lon="21.737560"><ele>37.6</ele><time>2026-05-21T19:15:51Z</time></trkpt>
			<trkpt lat="54.541160" lon="21.740020"><ele>37.8</ele><time>2026-05-21T19:16:00Z</time></trkpt>
			<trkpt lat="54.540880" lon="21.741050"><ele>37.9</ele><time>2026-05-21T19:16:10Z</time></trkpt>
			<trkpt lat="54.540460" lon="21.742420"><ele>38.4</ele><time>2026-05-21T19:16:20Z</time></trkpt>
			<trkpt lat="54.540260" lon="21.743100"><ele>38.6</ele><time>2026-05-21T19:16:30Z</time></trkpt>
			<trkpt lat="54.539840" lon="21.744500"><ele>39.0</ele><time>2026-05-21T19:16:40Z</time></trkpt>
			<trkpt lat="54.539460" lon="21.744970"><ele>39.2</ele><time>2026-05-21T19:16:49Z</time></trkpt>
			<trkpt lat="54.539030" lon="21.745460"><ele>39.5</ele><time>2026-05-21T19:16:59Z</time></trkpt>
			<trkpt lat="54.538760" lon="21.745640"><ele>39.6</ele><time>2026-05-21T19:17:09Z</time></trkpt>
			<trkpt lat="54.537840" lon="21.746040"><ele>40.0</ele><time>2026-05-21T19:17:19Z</time></trkpt>
			<trkpt lat="54.535090" lon="21.747150"><ele>39.1</ele><time>2026-05-21T19:17:29Z</time></trkpt>
			<trkpt lat="54.532240" lon="21.748230"><ele>37.5</ele><time>2026-05-21T19:17:38Z</time></trkpt>
			<trkpt lat="54.531780" lon="21.748370"><ele>37.3</ele><time>2026-05-21T19:17:48Z</time></trkpt>
			<trkpt lat="54.531340" lon="21.748490"><ele>37.1</ele><time>2026-05-21T19:17:58Z</time></trkpt>
			<trkpt lat="54.531070" lon="21.748480"><ele>37.1</ele><time>2026-05-21T19:18:08Z</time></trkpt>
			<trkpt lat="54.530000" lon="21.748420"><ele>36.7</ele><time>2026-05-21T19:18:18Z</time></trkpt>
			<trkpt lat="54.528630" lon="21.748480"><ele>36.3</ele><time>2026-05-21T19:18:27Z</time></trkpt>
			<trkpt lat="54.528420" lon="21.748490"><ele>36.3</ele><time>2026-05-21T19:18:37Z</time></trkpt>
			<trkpt lat="54.527820" lon="21.748510"><ele>36.1</ele><time>2026-05-21T19:18:47Z</time></trkpt>
			<trkpt lat="54.527390" lon="21.748720"><ele>36.0</ele><time>2026-05-21T19:18:57Z</time></trkpt>
			<trkpt lat="54.526470" lon="21.750070"><ele>35.9</ele><time>2026-05-21T19:19:07Z</time></trkpt>
			<trkpt lat="54.523350" lon="21.755060"><ele>37.7</ele><time>2026-05-21T19:19:16Z</time></trkpt>
			<trkpt lat="54.522950" lon="21.755490"><ele>37.9</ele><time>2026-05-21T19:19:26Z</time></trkpt>
			<trkpt lat="54.520400" lon="21.757660"><ele>39.0</ele><time>2026-05-21T19:19:36Z</time></trkpt>
			<trkpt lat="54.517210" lon="21.760340"><ele>40.8</ele><time>2026-05-21T19:19:46Z</time></trkpt>
			<trkpt lat="54.517020" lon="21.760680"><ele>41.1</ele><time>2026-05-21T19:19:56Z</time></trkpt>
			<trkpt lat="54.516620" lon="21.761950"><ele>41.9</ele><time>2026-05-21T19:20:05Z</time></trkpt>
			<trkpt lat="54.516270" lon="21.763380"><ele>42.8</ele><time>2026-05-21T19:20:15Z</time></trkpt>
			<trkpt lat="54.515880" lon="21.765460"><ele>44.1</ele><time>2026-05-21T19:20:25Z</time></trkpt>
			<trkpt lat="54.515660" lon="21.766470"><ele>44.8</ele><time>2026-05-21T19:20:35Z</time></trkpt>
			<trkpt lat="54.515370" lon="21.767340"><ele>45.4</ele><time>2026-05-21T19:20:45Z</time></trkpt>
			<trkpt lat="54.514710" lon="21.769060"><ele>44.7</ele><time>2026-05-21T19:20:54Z</time></trkpt>
			<trkpt lat="54.513860" lon="21.771480"><ele>43.1</ele><time>2026-05-21T19:21:04Z</time></trkpt>
			<trkpt lat="54.512950" lon="21.773260"><ele>41.9</ele><time>2026-05-21T19:21:14Z</time></trkpt>
			<trkpt lat="54.512800" lon="21.773440"><ele>41.7</ele><time>2026-05-21T19:21:24Z</time></trkpt>
			<trkpt lat="54.511760" lon="21.774800"><ele>40.5</ele><time>2026-05-21T19:21:34Z</time></trkpt>
			<trkpt lat="54.511760" lon="21.774800"><ele>40.5</ele><time>2026-05-21T19:21:45Z</time></trkpt>
			<trkpt lat="54.507840" lon="21.779900"><ele>38.3</ele><time>2026-05-21T19:21:56Z</time></trkpt>
			<trkpt lat="54.507360" lon="21.780580"><ele>38.3</ele><time>2026-05-21T19:22:07Z</time></trkpt>
			<trkpt lat="54.507230" lon="21.780770"><ele>38.5</ele><time>2026-05-21T19:22:18Z</time></trkpt>
			<trkpt lat="54.505850" lon="21.782730"><ele>40.2</ele><time>2026-05-21T19:22:29Z</time></trkpt>
			<trkpt lat="54.504870" lon="21.783500"><ele>41.3</ele><time>2026-05-21T19:22:40Z</time></trkpt>
			<trkpt lat="54.503330" lon="21.784240"><ele>42.8</ele><time>2026-05-21T19:22:51Z</time></trkpt>
			<trkpt lat="54.502500" lon="21.784960"><ele>43.2</ele><time>2026-05-21T19:23:02Z</time></trkpt>
			<trkpt lat="54.501720" lon="21.786180"><ele>43.0</ele><time>2026-05-21T19:23:13Z</time></trkpt>
			<trkpt lat="54.501100" lon="21.787620"><ele>42.8</ele><time>2026-05-21T19:23:24Z</time></trkpt>
			<trkpt lat="54.500490" lon="21.789280"><ele>42.6</ele><time>2026-05-21T19:23:35Z</time></trkpt>
			<trkpt lat="54.499630" lon="21.791460"><ele>42.3</ele><time>2026-05-21T19:23:46Z</time></trkpt>
			<trkpt lat="54.499560" lon="21.791750"><ele>42.3</ele><time>2026-05-21T19:23:58Z</time></trkpt>
			<trkpt lat="54.499400" lon="21.792650"><ele>42.4</ele><time>2026-05-21T19:24:09Z</time></trkpt>
			<trkpt lat="54.499180" lon="21.794100"><ele>42.5</ele><time>2026-05-21T19:24:20Z</time></trkpt>
			<trkpt lat="54.498920" lon="21.795760"><ele>42.7</ele><time>2026-05-21T19:24:31Z</time></trkpt>
			<trkpt lat="54.498820" lon="21.796200"><ele>42.8</ele><time>2026-05-21T19:24:42Z</time></trkpt>
			<trkpt lat="54.498700" lon="21.796590"><ele>42.8</ele><time>2026-05-21T19:24:53Z</time></trkpt>
			<trkpt lat="54.498550" lon="21.796970"><ele>42.8</ele><time>2026-05-21T19:25:04Z</time></trkpt>
			<trkpt lat="54.498370" lon="21.797330"><ele>42.9</ele><time>2026-05-21T19:25:15Z</time></trkpt>
			<trkpt lat="54.496960" lon="21.799840"><ele>43.2</ele><time>2026-05-21T19:25:26Z</time></trkpt>
			<trkpt lat="54.495890" lon="21.801730"><ele>42.9</ele><time>2026-05-21T19:25:37Z</time></trkpt>
			<trkpt lat="54.495710" lon="21.802040"><ele>42.9</ele><time>2026-05-21T19:25:48Z</time></trkpt>
			<trkpt lat="54.495510" lon="21.802320"><ele>42.8</ele><time>2026-05-21T19:25:59Z</time></trkpt>
			<trkpt lat="54.495200" lon="21.802720"><ele>42.8</ele><time>2026-05-21T19:26:10Z</time></trkpt>
			<trkpt lat="54.494590" lon="21.803340"><ele>42.7</ele><time>2026-05-21T19:26:21Z</time></trkpt>
			<trkpt lat="54.493270" lon="21.804310"><ele>42.4</ele><time>2026-05-21T19:26:32Z</time></trkpt>
			<trkpt lat="54.490850" lon="21.804650"><ele>43.1</ele><time>2026-05-21T19:26:44Z</time></trkpt>
			<trkpt lat="54.485630" lon="21.805070"><ele>44.8</ele><time>2026-05-21T19:26:55Z</time></trkpt>
			<trkpt lat="54.484690" lon="21.805490"><ele>44.7</ele><time>2026-05-21T19:27:06Z</time></trkpt>
			<trkpt lat="54.481410" lon="21.808180"><ele>44.8</ele><time>2026-05-21T19:27:17Z</time></trkpt>
			<trkpt lat="54.479200" lon="21.810030"><ele>46.1</ele><time>2026-05-21T19:27:28Z</time></trkpt>
			<trkpt lat="54.476480" lon="21.813400"><ele>49.0</ele><time>2026-05-21T19:27:39Z</time></trkpt>
			<trkpt lat="54.476000" lon="21.814140"><ele>50.0</ele><time>2026-05-21T19:27:50Z</time></trkpt>
			<trkpt lat="54.475750" lon="21.814510"><ele>50.5</ele><time>2026-05-21T19:28:01Z</time></trkpt>
			<trkpt lat="54.474620" lon="21.815310"><ele>52.4</ele><time>2026-05-21T19:28:12Z</time></trkpt>
			<trkpt lat="54.474820" lon="21.817130"><ele>54.1</ele><time>2026-05-21T19:28:23Z</time></trkpt>
			<trkpt lat="54.474040" lon="21.817870"><ele>55.5</ele><time>2026-05-21T19:28:34Z</time></trkpt>
			<trkpt lat="54.473240" lon="21.818520"><ele>56.6</ele><time>2026-05-21T19:28:45Z</time></trkpt>
			<trkpt lat="54.469330" lon="21.822470"><ele>62.1</ele><time>2026-05-21T19:28:56Z</time></trkpt>
			<trkpt lat="54.468680" lon="21.823120"><ele>63.0</ele><time>2026-05-21T19:29:07Z</time></trkpt>
			<trkpt lat="54.467940" lon="21.823550"><ele>63.9</ele><time>2026-05-21T19:29:19Z</time></trkpt>
			<trkpt lat="54.465870" lon="21.824530"><ele>66.4</ele><time>2026-05-21T19:29:30Z</time></trkpt>
			<trkpt lat="54.466820" lon="21.827430"><ele>68.4</ele><time>2026-05-21T19:29:41Z</time></trkpt>
			<trkpt lat="54.466820" lon="21.827430"><ele>68.4</ele><time>2026-05-21T19:29:56Z</time></trkpt>
			<trkpt lat="54.470020" lon="21.837150"><ele>67.4</ele><time>2026-05-21T19:30:11Z</time></trkpt>
			<trkpt lat="54.471290" lon="21.841170"><ele>65.9</ele><time>2026-05-21T19:30:27Z</time></trkpt>
			<trkpt lat="54.472370" lon="21.844170"><ele>65.6</ele><time>2026-05-21T19:30:42Z</time></trkpt>
			<trkpt lat="54.475020" lon="21.847750"><ele>68.8</ele><time>2026-05-21T19:30:58Z</time></trkpt>
			<trkpt lat="54.481630" lon="21.856740"><ele>68.1</ele><time>2026-05-21T19:31:13Z</time></trkpt>
			<trkpt lat="54.482430" lon="21.857790"><ele>67.7</ele><time>2026-05-21T19:31:29Z</time></trkpt>
			<trkpt lat="54.483210" lon="21.858880"><ele>67.4</ele><time>2026-05-21T19:31:44Z</time></trkpt>
			<trkpt lat="54.483370" lon="21.859140"><ele>67.3</ele><time>2026-05-21T19:31:59Z</time></trkpt>
			<trkpt lat="54.483520" lon="21.859420"><ele>67.2</ele><time>2026-05-21T19:32:15Z</time></trkpt>
			<trkpt lat="54.483880" lon="21.860230"><ele>67.0</ele><time>2026-05-21T19:32:30Z</time></trkpt>
			<trkpt lat="54.484170" lon="21.860950"><ele>66.8</ele><time>2026-05-21T19:32:46Z</time></trkpt>
			<trkpt lat="54.484290" lon="21.861250"><ele>66.8</ele><time>2026-05-21T19:33:01Z</time></trkpt>
			<trkpt lat="54.484510" lon="21.862040"><ele>67.3</ele><time>2026-05-21T19:33:16Z</time></trkpt>
			<trkpt lat="54.484830" lon="21.863320"><ele>68.4</ele><time>2026-05-21T19:33:32Z</time></trkpt>
			<trkpt lat="54.486290" lon="21.869170"><ele>73.3</ele><time>2026-05-21T19:33:47Z</time></trkpt>
			<trkpt lat="54.487730" lon="21.874100"><ele>73.2</ele><time>2026-05-21T19:34:03Z</time></trkpt>
			<trkpt lat="54.490120" lon="21.882120"><ele>72.0</ele><time>2026-05-21T19:34:18Z</time></trkpt>
			<trkpt lat="54.492360" lon="21.889670"><ele>73.5</ele><time>2026-05-21T19:34:33Z</time></trkpt>
			<trkpt lat="54.492410" lon="21.889890"><ele>73.6</ele><time>2026-05-21T19:34:49Z</time></trkpt>
			<trkpt lat="54.490240" lon="21.890660"><ele>75.6</ele><time>2026-05-21T19:35:04Z</time></trkpt>
			<trkpt lat="54.489960" lon="21.890850"><ele>75.9</ele><time>2026-05-21T19:35:20Z</time></trkpt>
			<trkpt lat="54.489480" lon="21.891310"><ele>76.4</ele><time>2026-05-21T19:35:35Z</time></trkpt>
			<trkpt lat="54.489180" lon="21.891700"><ele>76.5</ele><time>2026-05-21T19:35:50Z</time></trkpt>
			<trkpt lat="54.488900" lon="21.891910"><ele>76.5</ele><time>2026-05-21T19:36:06Z</time></trkpt>
			<trkpt lat="54.488580" lon="21.891980"><ele>76.5</ele><time>2026-05-21T19:36:21Z</time></trkpt>
			<trkpt lat="54.487920" lon="21.891840"><ele>76.5</ele><time>2026-05-21T19:36:37Z</time></trkpt>
			<trkpt lat="54.487240" lon="21.891800"><ele>76.6</ele><time>2026-05-21T19:36:52Z</time></trkpt>
			<trkpt lat="54.486750" lon="21.892080"><ele>76.6</ele><time>2026-05-21T19:37:07Z</time></trkpt>
			<trkpt lat="54.486420" lon="21.892280"><ele>76.6</ele><time>2026-05-21T19:37:23Z</time></trkpt>
			<trkpt lat="54.486070" lon="21.892880"><ele>76.6</ele><time>2026-05-21T19:37:38Z</time></trkpt>
			<trkpt lat="54.482620" lon="21.900440"><ele>79.0</ele><time>2026-05-21T19:37:54Z</time></trkpt>
			<trkpt lat="54.480190" lon="21.905720"><ele>80.4</ele><time>2026-05-21T19:38:09Z</time></trkpt>
			<trkpt lat="54.480190" lon="21.905720"><ele>80.4</ele><time>2026-05-21T19:38:15Z</time></trkpt>
			<trkpt lat="54.479340" lon="21.907570"><ele>80.7</ele><time>2026-05-21T19:38:20Z</time></trkpt>
			<trkpt lat="54.478310" lon="21.909740"><ele>81.1</ele><time>2026-05-21T19:38:26Z</time></trkpt>
			<trkpt lat="54.477820" lon="21.910920"><ele>80.5</ele><time>2026-05-21T19:38:32Z</time></trkpt>
			<trkpt lat="54.477550" lon="21.911560"><ele>80.1</ele><time>2026-05-21T19:38:37Z</time></trkpt>
			<trkpt lat="54.477250" lon="21.912190"><ele>79.8</ele><time>2026-05-21T19:38:43Z</time></trkpt>
			<trkpt lat="54.476790" lon="21.913230"><ele>79.3</ele><time>2026-05-21T19:38:48Z</time></trkpt>
			<trkpt lat="54.476260" lon="21.914140"><ele>78.7</ele><time>2026-05-21T19:38:54Z</time></trkpt>
			<trkpt lat="54.475560" lon="21.914680"><ele>78.2</ele><time>2026-05-21T19:39:00Z</time></trkpt>
			<trkpt lat="54.474960" lon="21.914870"><ele>77.7</ele><time>2026-05-21T19:39:05Z</time></trkpt>
			<trkpt lat="54.474760" lon="21.915140"><ele>77.5</ele><time>2026-05-21T19:39:11Z</time></trkpt>
			<trkpt lat="54.474600" lon="21.915470"><ele>77.3</ele><time>2026-05-21T19:39:16Z</time></trkpt>
			<trkpt lat="54.474590" lon="21.915900"><ele>77.2</ele><time>2026-05-21T19:39:22Z</time></trkpt>
			<trkpt lat="54.474650" lon="21.916300"><ele>77.5</ele><time>2026-05-21T19:39:28Z</time></trkpt>
			<trkpt lat="54.475080" lon="21.919060"><ele>80.5</ele><time>2026-05-21T19:39:33Z</time></trkpt>
			<trkpt lat="54.475480" lon="21.921180"><ele>82.8</ele><time>2026-05-21T19:39:39Z</time></trkpt>
			<trkpt lat="54.475740" lon="21.922350"><ele>84.1</ele><time>2026-05-21T19:39:44Z</time></trkpt>
			<trkpt lat="54.476350" lon="21.923250"><ele>85.6</ele><time>2026-05-21T19:39:50Z</time></trkpt>
			<trkpt lat="54.476600" lon="21.923710"><ele>86.2</ele><time>2026-05-21T19:39:56Z</time></trkpt>
			<trkpt lat="54.477150" lon="21.924690"><ele>87.1</ele><time>2026-05-21T19:40:01Z</time></trkpt>
			<trkpt lat="54.477880" lon="21.925990"><ele>87.9</ele><time>2026-05-21T19:40:07Z</time></trkpt>
			<trkpt lat="54.478290" lon="21.926660"><ele>88.3</ele><time>2026-05-21T19:40:12Z</time></trkpt>
			<trkpt lat="54.478700" lon="21.927360"><ele>88.7</ele><time>2026-05-21T19:40:18Z</time></trkpt>
			<trkpt lat="54.479030" lon="21.927870"><ele>89.0</ele><time>2026-05-21T19:40:24Z</time></trkpt>
			<trkpt lat="54.479320" lon="21.928450"><ele>89.3</ele><time>2026-05-21T19:40:29Z</time></trkpt>
			<trkpt lat="54.479460" lon="21.928820"><ele>89.5</ele><time>2026-05-21T19:40:35Z</time></trkpt>
			<trkpt lat="54.479560" lon="21.929210"><ele>89.7</ele><time>2026-05-21T19:40:40Z</time></trkpt>
			<trkpt lat="54.479640" lon="21.930030"><ele>90.0</ele><time>2026-05-21T19:40:46Z</time></trkpt>
			<trkpt lat="54.479640" lon="21.930420"><ele>90.1</ele><time>2026-05-21T19:40:52Z</time></trkpt>
			<trkpt lat="54.479600" lon="21.930820"><ele>90.3</ele><time>2026-05-21T19:40:57Z</time></trkpt>
			<trkpt lat="54.479510" lon="21.931320"><ele>90.5</ele><time>2026-05-21T19:41:03Z</time></trkpt>
			<trkpt lat="54.479360" lon="21.931930"><ele>90.3</ele><time>2026-05-21T19:41:08Z</time></trkpt>
			<trkpt lat="54.478790" lon="21.933710"><ele>89.1</ele><time>2026-05-21T19:41:14Z</time></trkpt>
			<trkpt lat="54.478640" lon="21.934070"><ele>88.9</ele><time>2026-05-21T19:41:20Z</time></trkpt>
			<trkpt lat="54.477810" lon="21.935930"><ele>87.5</ele><time>2026-05-21T19:41:25Z</time></trkpt>
			<trkpt lat="54.477740" lon="21.936110"><ele>87.4</ele><time>2026-05-21T19:41:31Z</time></trkpt>
			<trkpt lat="54.477680" lon="21.936270"><ele>87.2</ele><time>2026-05-21T19:41:36Z</time></trkpt>
			<trkpt lat="54.477610" lon="21.936600"><ele>87.0</ele><time>2026-05-21T19:41:42Z</time></trkpt>
			<trkpt lat="54.477550" lon="21.937000"><ele>86.8</ele><time>2026-05-21T19:41:48Z</time></trkpt>
			<trkpt lat="54.477530" lon="21.937410"><ele>86.6</ele><time>2026-05-21T19:41:53Z</time></trkpt>
			<trkpt lat="54.477550" lon="21.937830"><ele>86.3</ele><time>2026-05-21T19:41:59Z</time></trkpt>
			<trkpt lat="54.477610" lon="21.938250"><ele>86.1</ele><time>2026-05-21T19:42:04Z</time></trkpt>
			<trkpt lat="54.477710" lon="21.938660"><ele>85.8</ele><time>2026-05-21T19:42:10Z</time></trkpt>
			<trkpt lat="54.477840" lon="21.939040"><ele>85.5</ele><time>2026-05-21T19:42:16Z</time></trkpt>
			<trkpt lat="54.478660" lon="21.940690"><ele>85.2</ele><time>2026-05-21T19:42:21Z</time></trkpt>
			<trkpt lat="54.478800" lon="21.940990"><ele>85.2</ele><time>2026-05-21T19:42:27Z</time></trkpt>
			<trkpt lat="54.478920" lon="21.941310"><ele>85.2</ele><time>2026-05-21T19:42:33Z</time></trkpt>
			<trkpt lat="54.479010" lon="21.941670"><ele>85.2</ele><time>2026-05-21T19:42:38Z</time></trkpt>
			<trkpt lat="54.479090" lon="21.942060"><ele>85.2</ele><time>2026-05-21T19:42:44Z</time></trkpt>
			<trkpt lat="54.479270" lon="21.943210"><ele>85.3</ele><time>2026-05-21T19:42:49Z</time></trkpt>
			<trkpt lat="54.479350" lon="21.943700"><ele>85.3</ele><time>2026-05-21T19:42:55Z</time></trkpt>
			<trkpt lat="54.479420" lon="21.944000"><ele>85.3</ele><time>2026-05-21T19:43:01Z</time></trkpt>
			<trkpt lat="54.479510" lon="21.944320"><ele>85.3</ele><time>2026-05-21T19:43:06Z</time></trkpt>
			<trkpt lat="54.479620" lon="21.944600"><ele>85.3</ele><time>2026-05-21T19:43:12Z</time></trkpt>
			<trkpt lat="54.480530" lon="21.946480"><ele>85.4</ele><time>2026-05-21T19:43:17Z</time></trkpt>
			<trkpt lat="54.480620" lon="21.946720"><ele>85.4</ele><time>2026-05-21T19:43:23Z</time></trkpt>
			<trkpt lat="54.480670" lon="21.946950"><ele>85.4</ele><time>2026-05-21T19:43:29Z</time></trkpt>
			<trkpt lat="54.480700" lon="21.947230"><ele>85.4</ele><time>2026-05-21T19:43:34Z</time></trkpt>
			<trkpt lat="54.480710" lon="21.949980"><ele>85.8</ele><time>2026-05-21T19:43:40Z</time></trkpt>
			<trkpt lat="54.480700" lon="21.950260"><ele>85.8</ele><time>2026-05-21T19:43:45Z</time></trkpt>
			<trkpt lat="54.480670" lon="21.950560"><ele>85.9</ele><time>2026-05-21T19:43:51Z</time></trkpt>
			<trkpt lat="54.480620" lon="21.950890"><ele>85.9</ele><time>2026-05-21T19:43:57Z</time></trkpt>
			<trkpt lat="54.480520" lon="21.951280"><ele>86.0</ele><time>2026-05-21T19:44:02Z</time></trkpt>
			<trkpt lat="54.479470" lon="21.954950"><ele>86.7</ele><time>2026-05-21T19:44:08Z</time></trkpt>
			<trkpt lat="54.479380" lon="21.955120"><ele>86.7</ele><time>2026-05-21T19:44:13Z</time></trkpt>
			<trkpt lat="54.479260" lon="21.955310"><ele>86.8</ele><time>2026-05-21T19:44:19Z</time></trkpt>
			<trkpt lat="54.478790" lon="21.955920"><ele>87.0</ele><time>2026-05-21T19:44:25Z</time></trkpt>
			<trkpt lat="54.478700" lon="21.956070"><ele>87.1</ele><time>2026-05-21T19:44:30Z</time></trkpt>
			<trkpt lat="54.478600" lon="21.956300"><ele>87.3</ele><time>2026-05-21T19:44:36Z</time></trkpt>
			<trkpt lat="54.477570" lon="21.959770"><ele>89.2</ele><time>2026-05-21T19:44:41Z</time></trkpt>
			<trkpt lat="54.477510" lon="21.960020"><ele>89.3</ele><time>2026-05-21T19:44:47Z</time></trkpt>
			<trkpt lat="54.477490" lon="21.960410"><ele>89.5</ele><time>2026-05-21T19:44:53Z</time></trkpt>
			<trkpt lat="54.477630" lon="21.960910"><ele>89.8</ele><time>2026-05-21T19:44:58Z</time></trkpt>
			<trkpt lat="54.477750" lon="21.961240"><ele>90.0</ele><time>2026-05-21T19:45:04Z</time></trkpt>
			<trkpt lat="54.477940" lon="21.961640"><ele>90.3</ele><time>2026-05-21T19:45:09Z</time></trkpt>
			<trkpt lat="54.478080" lon="21.962000"><ele>90.5</ele><time>2026-05-21T19:45:15Z</time></trkpt>
			<trkpt lat="54.478200" lon="21.962420"><ele>90.7</ele><time>2026-05-21T19:45:21Z</time></trkpt>
			<trkpt lat="54.478280" lon="21.962900"><ele>91.0</ele><time>2026-05-21T19:45:26Z</time></trkpt>
			<trkpt lat="54.478440" lon="21.963940"><ele>91.5</ele><time>2026-05-21T19:45:32Z</time></trkpt>
			<trkpt lat="54.478880" lon="21.966670"><ele>95.2</ele><time>2026-05-21T19:45:37Z</time></trkpt>
			<trkpt lat="54.478920" lon="21.966970"><ele>95.6</ele><time>2026-05-21T19:45:43Z</time></trkpt>
			<trkpt lat="54.478950" lon="21.967400"><ele>96.2</ele><time>2026-05-21T19:45:49Z</time></trkpt>
			<trkpt lat="54.478960" lon="21.967970"><ele>97.0</ele><time>2026-05-21T19:45:54Z</time></trkpt>
			<trkpt lat="54.478950" lon="21.968950"><ele>98.3</ele><time>2026-05-21T19:46:00Z</time></trkpt>
			<trkpt lat="54.478960" lon="21.969340"><ele>98.8</ele><time>2026-05-21T19:46:05Z</time></trkpt>
			<trkpt lat="54.479020" lon="21.970200"><ele>99.9</ele><time>2026-05-21T19:46:11Z</time></trkpt>
			<trkpt lat="54.479160" lon="21.971510"><ele>101.7</ele><time>2026-05-21T19:46:17Z</time></trkpt>
			<trkpt lat="54.479290" lon="21.973290"><ele>103.9</ele><time>2026-05-21T19:46:22Z</time></trkpt>
			<trkpt lat="54.479340" lon="21.974060"><ele>103.7</ele><time>2026-05-21T19:46:28Z</time></trkpt>
			<trkpt lat="54.479780" lon="21.976980"><ele>103.1</ele><time>2026-05-21T19:46:34Z</time></trkpt>
			<trkpt lat="54.480110" lon="21.978080"><ele>102.9</ele><time>2026-05-21T19:46:39Z</time></trkpt>
			<trkpt lat="54.480270" lon="21.978770"><ele>102.7</ele><time>2026-05-21T19:46:45Z</time></trkpt>
			<trkpt lat="54.480590" lon="21.980470"><ele>102.3</ele><time>2026-05-21T19:46:50Z</time></trkpt>
			<trkpt lat="54.480120" lon="21.981070"><ele>102.1</ele><time>2026-05-21T19:46:56Z</time></trkpt>
			<trkpt lat="54.479620" lon="21.981590"><ele>102.2</ele><time>2026-05-21T19:47:02Z</time></trkpt>
			<trkpt lat="54.479350" lon="21.981750"><ele>102.4</ele><time>2026-05-21T19:47:07Z</time></trkpt>
			<trkpt lat="54.478900" lon="21.981900"><ele>102.7</ele><time>2026-05-21T19:47:13Z</time></trkpt>
			<trkpt lat="54.477530" lon="21.982260"><ele>103.6</ele><time>2026-05-21T19:47:18Z</time></trkpt>
			<trkpt lat="54.476430" lon="21.982630"><ele>104.3</ele><time>2026-05-21T19:47:24Z</time></trkpt>
			<trkpt lat="54.476280" lon="21.982730"><ele>104.4</ele><time>2026-05-21T19:47:30Z</time></trkpt>
			<trkpt lat="54.476160" lon="21.982900"><ele>104.5</ele><time>2026-05-21T19:47:35Z</time></trkpt>
			<trkpt lat="54.475930" lon="21.983360"><ele>104.8</ele><time>2026-05-21T19:47:41Z</time></trkpt>
			<trkpt lat="54.474320" lon="21.987210"><ele>110.8</ele><time>2026-05-21T19:47:46Z</time></trkpt>
			<trkpt lat="54.474200" lon="21.987430"><ele>111.4</ele><time>2026-05-21T19:47:52Z</time></trkpt>
			<trkpt lat="54.474090" lon="21.987570"><ele>111.9</ele><time>2026-05-21T19:47:58Z</time></trkpt>
			<trkpt lat="54.473910" lon="21.987700"><ele>112.5</ele><time>2026-05-21T19:48:03Z</time></trkpt>
			<trkpt lat="54.473540" lon="21.987890"><ele>113.9</ele><time>2026-05-21T19:48:09Z</time></trkpt>
			<trkpt lat="54.472960" lon="21.988110"><ele>115.9</ele><time>2026-05-21T19:48:14Z</time></trkpt>
			<trkpt lat="54.471830" lon="21.988520"><ele>119.9</ele><time>2026-05-21T19:48:20Z</time></trkpt>
			<trkpt lat="54.471630" lon="21.988540"><ele>120.6</ele><time>2026-05-21T19:48:26Z</time></trkpt>
			<trkpt lat="54.469860" lon="21.988390"><ele>121.1</ele><time>2026-05-21T19:48:31Z</time></trkpt>
			<trkpt lat="54.469900" lon="21.988790"><ele>120.1</ele><time>2026-05-21T19:48:37Z</time></trkpt>
			<trkpt lat="54.469960" lon="21.989980"><ele>117.4</ele><time>2026-05-21T19:48:42Z</time></trkpt>
			<trkpt lat="54.470600" lon="21.998240"><ele>103.1</ele><time>2026-05-21T19:48:48Z</time></trkpt>
			<trkpt lat="54.471020" lon="22.003870"><ele>104.5</ele><time>2026-05-21T19:48:54Z</time></trkpt>
			<trkpt lat="54.471420" lon="22.009740"><ele>98.5</ele><time>2026-05-21T19:48:59Z</time></trkpt>
			<trkpt lat="54.471610" lon="22.010520"><ele>97.3</ele><time>2026-05-21T19:49:05Z</time></trkpt>
			<trkpt lat="54.471730" lon="22.010840"><ele>96.7</ele><time>2026-05-21T19:49:10Z</time></trkpt>
			<trkpt lat="54.471910" lon="22.011170"><ele>96.0</ele><time>2026-05-21T19:49:16Z</time></trkpt>
			<trkpt lat="54.472100" lon="22.011460"><ele>95.4</ele><time>2026-05-21T19:49:22Z</time></trkpt>
			<trkpt lat="54.476470" lon="22.016850"><ele>80.7</ele><time>2026-05-21T19:49:27Z</time></trkpt>
			<trkpt lat="54.479610" lon="22.020620"><ele>76.0</ele><time>2026-05-21T19:49:33Z</time></trkpt>
			<trkpt lat="54.483480" lon="22.025260"><ele>77.9</ele><time>2026-05-21T19:49:38Z</time></trkpt>
			<trkpt lat="54.487820" lon="22.030520"><ele>82.3</ele><time>2026-05-21T19:49:44Z</time></trkpt>
			<trkpt lat="54.489630" lon="22.032760"><ele>81.3</ele><time>2026-05-21T19:49:50Z</time></trkpt>
			<trkpt lat="54.489630" lon="22.032760"><ele>81.3</ele><time>2026-05-21T19:49:57Z</time></trkpt>
			<trkpt lat="54.490970" lon="22.034420"><ele>80.6</ele><time>2026-05-21T19:50:04Z</time></trkpt>
			<trkpt lat="54.496050" lon="22.040530"><ele>77.2</ele><time>2026-05-21T19:50:11Z</time></trkpt>
			<trkpt lat="54.506210" lon="22.052780"><ele>76.7</ele><time>2026-05-21T19:50:18Z</time></trkpt>
			<trkpt lat="54.509300" lon="22.056500"><ele>75.9</ele><time>2026-05-21T19:50:25Z</time></trkpt>
			<trkpt lat="54.510160" lon="22.058350"><ele>73.3</ele><time>2026-05-21T19:50:32Z</time></trkpt>
			<trkpt lat="54.510400" lon="22.058790"><ele>72.7</ele><time>2026-05-21T19:50:39Z</time></trkpt>
			<trkpt lat="54.510680" lon="22.059090"><ele>72.1</ele><time>2026-05-21T19:50:46Z</time></trkpt>
			<trkpt lat="54.511330" lon="22.059560"><ele>70.8</ele><time>2026-05-21T19:50:53Z</time></trkpt>
			<trkpt lat="54.514110" lon="22.061560"><ele>67.0</ele><time>2026-05-21T19:51:00Z</time></trkpt>
			<trkpt lat="54.516110" lon="22.063000"><ele>66.8</ele><time>2026-05-21T19:51:07Z</time></trkpt>
			<trkpt lat="54.517160" lon="22.063710"><ele>66.7</ele><time>2026-05-21T19:51:14Z</time></trkpt>
			<trkpt lat="54.519390" lon="22.065330"><ele>66.2</ele><time>2026-05-21T19:51:21Z</time></trkpt>
			<trkpt lat="54.519640" lon="22.065510"><ele>66.1</ele><time>2026-05-21T19:51:28Z</time></trkpt>
			<trkpt lat="54.519790" lon="22.065590"><ele>66.1</ele><time>2026-05-21T19:51:35Z</time></trkpt>
			<trkpt lat="54.519860" lon="22.065640"><ele>66.1</ele><time>2026-05-21T19:51:42Z</time></trkpt>
			<trkpt lat="54.520540" lon="22.066130"><ele>65.8</ele><time>2026-05-21T19:51:49Z</time></trkpt>
			<trkpt lat="54.521410" lon="22.066770"><ele>65.6</ele><time>2026-05-21T19:51:56Z</time></trkpt>
			<trkpt lat="54.521550" lon="22.066890"><ele>65.5</ele><time>2026-05-21T19:52:03Z</time></trkpt>
			<trkpt lat="54.521660" lon="22.066960"><ele>65.5</ele><time>2026-05-21T19:52:10Z</time></trkpt>
			<trkpt lat="54.521960" lon="22.067190"><ele>65.4</ele><time>2026-05-21T19:52:17Z</time></trkpt>
			<trkpt lat="54.522590" lon="22.067700"><ele>65.2</ele><time>2026-05-21T19:52:24Z</time></trkpt>
			<trkpt lat="54.523050" lon="22.068040"><ele>65.0</ele><time>2026-05-21T19:52:31Z</time></trkpt>
			<trkpt lat="54.523220" lon="22.068200"><ele>64.6</ele><time>2026-05-21T19:52:38Z</time></trkpt>
			<trkpt lat="54.523330" lon="22.068320"><ele>64.2</ele><time>2026-05-21T19:52:45Z</time></trkpt>
			<trkpt lat="54.523420" lon="22.068470"><ele>63.7</ele><time>2026-05-21T19:52:52Z</time></trkpt>
			<trkpt lat="54.523530" lon="22.068680"><ele>63.1</ele><time>2026-05-21T19:52:59Z</time></trkpt>
			<trkpt lat="54.523680" lon="22.069090"><ele>62.1</ele><time>2026-05-21T19:53:06Z</time></trkpt>
			<trkpt lat="54.523790" lon="22.069520"><ele>61.1</ele><time>2026-05-21T19:53:13Z</time></trkpt>
			<trkpt lat="54.523830" lon="22.069830"><ele>60.4</ele><time>2026-05-21T19:53:20Z</time></trkpt>
			<trkpt lat="54.523970" lon="22.070970"><ele>58.0</ele><time>2026-05-21T19:53:27Z</time></trkpt>
			<trkpt lat="54.524020" lon="22.071780"><ele>56.2</ele><time>2026-05-21T19:53:34Z</time></trkpt>
			<trkpt lat="54.524010" lon="22.072010"><ele>55.8</ele><time>2026-05-21T19:53:41Z</time></trkpt>
			<trkpt lat="54.523990" lon="22.072210"><ele>55.3</ele><time>2026-05-21T19:53:48Z</time></trkpt>
			<trkpt lat="54.523940" lon="22.072450"><ele>54.8</ele><time>2026-05-21T19:53:55Z</time></trkpt>
			<trkpt lat="54.523910" lon="22.072580"><ele>54.5</ele><time>2026-05-21T19:54:02Z</time></trkpt>
			<trkpt lat="54.523860" lon="22.072760"><ele>54.1</ele><time>2026-05-21T19:54:09Z</time></trkpt>
			<trkpt lat="54.523820" lon="22.072880"><ele>53.8</ele><time>2026-05-21T19:54:16Z</time></trkpt>
			<trkpt lat="54.523700" lon="22.073190"><ele>53.0</ele><time>2026-05-21T19:54:23Z</time></trkpt>
			<trkpt lat="54.523230" lon="22.074270"><ele>50.2</ele><time>2026-05-21T19:54:30Z</time></trkpt>
			<trkpt lat="54.522830" lon="22.075170"><ele>47.8</ele><time>2026-05-21T19:54:37Z</time></trkpt>
			<trkpt lat="54.522540" lon="22.075830"><ele>46.0</ele><time>2026-05-21T19:54:44Z</time></trkpt>
			<trkpt lat="54.522470" lon="22.076160"><ele>45.5</ele><time>2026-05-21T19:54:51Z</time></trkpt>
			<trkpt lat="54.522440" lon="22.076310"><ele>45.9</ele><time>2026-05-21T19:54:59Z</time></trkpt>
			<trkpt lat="54.522290" lon="22.077860"><ele>49.5</ele><time>2026-05-21T19:55:06Z</time></trkpt>
			<trkpt lat="54.522190" lon="22.079200"><ele>52.6</ele><time>2026-05-21T19:55:13Z</time></trkpt>
			<trkpt lat="54.522200" lon="22.080380"><ele>55.3</ele><time>2026-05-21T19:55:20Z</time></trkpt>
			<trkpt lat="54.522230" lon="22.081510"><ele>57.9</ele><time>2026-05-21T19:55:27Z</time></trkpt>
			<trkpt lat="54.522560" lon="22.082970"><ele>61.5</ele><time>2026-05-21T19:55:34Z</time></trkpt>
			<trkpt lat="54.523210" lon="22.085060"><ele>66.8</ele><time>2026-05-21T19:55:41Z</time></trkpt>
			<trkpt lat="54.523970" lon="22.087680"><ele>67.0</ele><time>2026-05-21T19:55:48Z</time></trkpt>
			<trkpt lat="54.524440" lon="22.088960"><ele>67.1</ele><time>2026-05-21T19:55:55Z</time></trkpt>
			<trkpt lat="54.524770" lon="22.089640"><ele>67.2</ele><time>2026-05-21T19:56:02Z</time></trkpt>
			<trkpt lat="54.529390" lon="22.098840"><ele>64.9</ele><time>2026-05-21T19:56:09Z</time></trkpt>
			<trkpt lat="54.530600" lon="22.101280"><ele>64.9</ele><time>2026-05-21T19:56:16Z</time></trkpt>
			<trkpt lat="54.530600" lon="22.101280"><ele>64.9</ele><time>2026-05-21T19:56:28Z</time></trkpt>
			<trkpt lat="54.533590" lon="22.107290"><ele>65.8</ele><time>2026-05-21T19:56:40Z</time></trkpt>
			<trkpt lat="54.536870" lon="22.114290"><ele>63.9</ele><time>2026-05-21T19:56:52Z</time></trkpt>
			<trkpt lat="54.538110" lon="22.117000"><ele>63.5</ele><time>2026-05-21T19:57:04Z</time></trkpt>
			<trkpt lat="54.538340" lon="22.117990"><ele>63.3</ele><time>2026-05-21T19:57:16Z</time></trkpt>
			<trkpt lat="54.538550" lon="22.118920"><ele>63.2</ele><time>2026-05-21T19:57:28Z</time></trkpt>
			<trkpt lat="54.539290" lon="22.120540"><ele>62.9</ele><time>2026-05-21T19:57:40Z</time></trkpt>
			<trkpt lat="54.540800" lon="22.123010"><ele>63.0</ele><time>2026-05-21T19:57:52Z</time></trkpt>
			<trkpt lat="54.541870" lon="22.124720"><ele>63.4</ele><time>2026-05-21T19:58:04Z</time></trkpt>
			<trkpt lat="54.542230" lon="22.125470"><ele>63.5</ele><time>2026-05-21T19:58:16Z</time></trkpt>
			<trkpt lat="54.542880" lon="22.127540"><ele>63.8</ele><time>2026-05-21T19:58:28Z</time></trkpt>
			<trkpt lat="54.545520" lon="22.136990"><ele>63.1</ele><time>2026-05-21T19:58:40Z</time></trkpt>
			<trkpt lat="54.547020" lon="22.142360"><ele>61.5</ele><time>2026-05-21T19:58:53Z</time></trkpt>
			<trkpt lat="54.547710" lon="22.144740"><ele>60.8</ele><time>2026-05-21T19:59:05Z</time></trkpt>
			<trkpt lat="54.547780" lon="22.145070"><ele>60.7</ele><time>2026-05-21T19:59:17Z</time></trkpt>
			<trkpt lat="54.547930" lon="22.145420"><ele>60.5</ele><time>2026-05-21T19:59:29Z</time></trkpt>
			<trkpt lat="54.548360" lon="22.146330"><ele>60.2</ele><time>2026-05-21T19:59:41Z</time></trkpt>
			<trkpt lat="54.548360" lon="22.146330"><ele>60.2</ele><time>2026-05-21T19:59:45Z</time></trkpt>
			<trkpt lat="54.549470" lon="22.148700"><ele>59.3</ele><time>2026-05-21T19:59:49Z</time></trkpt>
			<trkpt lat="54.550560" lon="22.151050"><ele>58.5</ele><time>2026-05-21T19:59:54Z</time></trkpt>
			<trkpt lat="54.551030" lon="22.151890"><ele>58.1</ele><time>2026-05-21T19:59:58Z</time></trkpt>
			<trkpt lat="54.551190" lon="22.152200"><ele>58.0</ele><time>2026-05-21T20:00:02Z</time></trkpt>
			<trkpt lat="54.551240" lon="22.152400"><ele>58.0</ele><time>2026-05-21T20:00:06Z</time></trkpt>
			<trkpt lat="54.551260" lon="22.152600"><ele>58.0</ele><time>2026-05-21T20:00:11Z</time></trkpt>
			<trkpt lat="54.551270" lon="22.152740"><ele>58.1</ele><time>2026-05-21T20:00:15Z</time></trkpt>
			<trkpt lat="54.551320" lon="22.152880"><ele>58.2</ele><time>2026-05-21T20:00:19Z</time></trkpt>
			<trkpt lat="54.551460" lon="22.153180"><ele>58.4</ele><time>2026-05-21T20:00:23Z</time></trkpt>
			<trkpt lat="54.551740" lon="22.153760"><ele>58.7</ele><time>2026-05-21T20:00:28Z</time></trkpt>
			<trkpt lat="54.552200" lon="22.154700"><ele>59.3</ele><time>2026-05-21T20:00:32Z</time></trkpt>
			<trkpt lat="54.552970" lon="22.156410"><ele>60.4</ele><time>2026-05-21T20:00:36Z</time></trkpt>
			<trkpt lat="54.553620" lon="22.157820"><ele>61.3</ele><time>2026-05-21T20:00:41Z</time></trkpt>
			<trkpt lat="54.556310" lon="22.163870"><ele>61.6</ele><time>2026-05-21T20:00:45Z</time></trkpt>
			<trkpt lat="54.556460" lon="22.164180"><ele>61.5</ele><time>2026-05-21T20:00:49Z</time></trkpt>
			<trkpt lat="54.556530" lon="22.164310"><ele>61.5</ele><time>2026-05-21T20:00:53Z</time></trkpt>
			<trkpt lat="54.556610" lon="22.164410"><ele>61.4</ele><time>2026-05-21T20:00:58Z</time></trkpt>
			<trkpt lat="54.556780" lon="22.164570"><ele>61.4</ele><time>2026-05-21T20:01:02Z</time></trkpt>
			<trkpt lat="54.556940" lon="22.164690"><ele>61.3</ele><time>2026-05-21T20:01:06Z</time></trkpt>
			<trkpt lat="54.557420" lon="22.164950"><ele>61.1</ele><time>2026-05-21T20:01:10Z</time></trkpt>
			<trkpt lat="54.557600" lon="22.165130"><ele>61.1</ele><time>2026-05-21T20:01:15Z</time></trkpt>
			<trkpt lat="54.557920" lon="22.165420"><ele>60.9</ele><time>2026-05-21T20:01:19Z</time></trkpt>
			<trkpt lat="54.558250" lon="22.165820"><ele>60.8</ele><time>2026-05-21T20:01:23Z</time></trkpt>
			<trkpt lat="54.558960" lon="22.166810"><ele>59.5</ele><time>2026-05-21T20:01:28Z</time></trkpt>
			<trkpt lat="54.559070" lon="22.166950"><ele>59.3</ele><time>2026-05-21T20:01:32Z</time></trkpt>
			<trkpt lat="54.559180" lon="22.167050"><ele>59.1</ele><time>2026-05-21T20:01:36Z</time></trkpt>
			<trkpt lat="54.559400" lon="22.167190"><ele>58.7</ele><time>2026-05-21T20:01:40Z</time></trkpt>
			<trkpt lat="54.560710" lon="22.167810"><ele>56.4</ele><time>2026-05-21T20:01:45Z</time></trkpt>
			<trkpt lat="54.560850" lon="22.167900"><ele>56.1</ele><time>2026-05-21T20:01:49Z</time></trkpt>
			<trkpt lat="54.561000" lon="22.168010"><ele>55.9</ele><time>2026-05-21T20:01:53Z</time></trkpt>
			<trkpt lat="54.562670" lon="22.169500"><ele>52.7</ele><time>2026-05-21T20:01:57Z</time></trkpt>
			<trkpt lat="54.567020" lon="22.173320"><ele>55.1</ele><time>2026-05-21T20:02:02Z</time></trkpt>
			<trkpt lat="54.567890" lon="22.174100"><ele>55.9</ele><time>2026-05-21T20:02:06Z</time></trkpt>
			<trkpt lat="54.568340" lon="22.174530"><ele>55.4</ele><time>2026-05-21T20:02:10Z</time></trkpt>
			<trkpt lat="54.569410" lon="22.175470"><ele>53.5</ele><time>2026-05-21T20:02:14Z</time></trkpt>
			<trkpt lat="54.572110" lon="22.177830"><ele>48.6</ele><time>2026-05-21T20:02:19Z</time></trkpt>
			<trkpt lat="54.574390" lon="22.179810"><ele>46.4</ele><time>2026-05-21T20:02:23Z</time></trkpt>
			<trkpt lat="54.575840" lon="22.181130"><ele>45.5</ele><time>2026-05-21T20:02:27Z</time></trkpt>
			<trkpt lat="54.577440" lon="22.182550"><ele>44.5</ele><time>2026-05-21T20:02:32Z</time></trkpt>
			<trkpt lat="54.578660" lon="22.183660"><ele>45.8</ele><time>2026-05-21T20:02:36Z</time></trkpt>
			<trkpt lat="54.578750" lon="22.183780"><ele>45.9</ele><time>2026-05-21T20:02:40Z</time></trkpt>
			<trkpt lat="54.578950" lon="22.184160"><ele>46.3</ele><time>2026-05-21T20:02:44Z</time></trkpt>
			<trkpt lat="54.579040" lon="22.184350"><ele>46.4</ele><time>2026-05-21T20:02:49Z</time></trkpt>
			<trkpt lat="54.579090" lon="22.184530"><ele>46.6</ele><time>2026-05-21T20:02:53Z</time></trkpt>
			<trkpt lat="54.579140" lon="22.184760"><ele>46.7</ele><time>2026-05-21T20:02:57Z</time></trkpt>
			<trkpt lat="54.579190" lon="22.185220"><ele>47.1</ele><time>2026-05-21T20:03:01Z</time></trkpt>
			<trkpt lat="54.579420" lon="22.187040"><ele>48.4</ele><time>2026-05-21T20:03:06Z</time></trkpt>
			<trkpt lat="54.579550" lon="22.188240"><ele>49.2</ele><time>2026-05-21T20:03:10Z</time></trkpt>
			<trkpt lat="54.579680" lon="22.189190"><ele>49.9</ele><time>2026-05-21T20:03:14Z</time></trkpt>
			<trkpt lat="54.579760" lon="22.189510"><ele>50.1</ele><time>2026-05-21T20:03:19Z</time></trkpt>
			<trkpt lat="54.579820" lon="22.189660"><ele>50.2</ele><time>2026-05-21T20:03:23Z</time></trkpt>
			<trkpt lat="54.579910" lon="22.189780"><ele>50.4</ele><time>2026-05-21T20:03:27Z</time></trkpt>
			<trkpt lat="54.580090" lon="22.189960"><ele>50.6</ele><time>2026-05-21T20:03:31Z</time></trkpt>
			<trkpt lat="54.580400" lon="22.190250"><ele>50.5</ele><time>2026-05-21T20:03:36Z</time></trkpt>
			<trkpt lat="54.581140" lon="22.190990"><ele>49.6</ele><time>2026-05-21T20:03:40Z</time></trkpt>
			<trkpt lat="54.581250" lon="22.191100"><ele>49.5</ele><time>2026-05-21T20:03:44Z</time></trkpt>
			<trkpt lat="54.581630" lon="22.191480"><ele>49.0</ele><time>2026-05-21T20:03:48Z</time></trkpt>
			<trkpt lat="54.582770" lon="22.192520"><ele>47.7</ele><time>2026-05-21T20:03:53Z</time></trkpt>
			<trkpt lat="54.582840" lon="22.192580"><ele>47.6</ele><time>2026-05-21T20:03:57Z</time></trkpt>
			<trkpt lat="54.582890" lon="22.192630"><ele>47.5</ele><time>2026-05-21T20:04:01Z</time></trkpt>
			<trkpt lat="54.582920" lon="22.192650"><ele>47.5</ele><time>2026-05-21T20:04:06Z</time></trkpt>
			<trkpt lat="54.582940" lon="22.192670"><ele>47.5</ele><time>2026-05-21T20:04:10Z</time></trkpt>
			<trkpt lat="54.582980" lon="22.192710"><ele>47.4</ele><time>2026-05-21T20:04:14Z</time></trkpt>
			<trkpt lat="54.584440" lon="22.194150"><ele>45.6</ele><time>2026-05-21T20:04:18Z</time></trkpt>
			<trkpt lat="54.584770" lon="22.194460"><ele>45.2</ele><time>2026-05-21T20:04:23Z</time></trkpt>
			<trkpt lat="54.585280" lon="22.194940"><ele>45.0</ele><time>2026-05-21T20:04:27Z</time></trkpt>
			<trkpt lat="54.586060" lon="22.195690"><ele>44.9</ele><time>2026-05-21T20:04:31Z</time></trkpt>
			<trkpt lat="54.586590" lon="22.196190"><ele>44.8</ele><time>2026-05-21T20:04:35Z</time></trkpt>
			<trkpt lat="54.586820" lon="22.195460"><ele>44.7</ele><time>2026-05-21T20:04:40Z</time></trkpt>
			<trkpt lat="54.587150" lon="22.194380"><ele>44.6</ele><time>2026-05-21T20:04:44Z</time></trkpt>
			<trkpt lat="54.587320" lon="22.193830"><ele>44.5</ele><time>2026-05-21T20:04:48Z</time></trkpt>
			<trkpt lat="54.587460" lon="22.193390"><ele>44.5</ele><time>2026-05-21T20:04:52Z</time></trkpt>
			<trkpt lat="54.587510" lon="22.193440"><ele>44.5</ele><time>2026-05-21T20:04:57Z</time></trkpt>
			<trkpt lat="54.587640" lon="22.193560"><ele>44.5</ele><time>2026-05-21T20:05:01Z</time></trkpt>
			<trkpt lat="54.587640" lon="22.193560"><ele>44.5</ele><time>2026-05-21T20:05:04Z</time></trkpt>
			<trkpt lat="54.587990" lon="22.193900"><ele>44.4</ele><time>2026-05-21T20:05:08Z</time></trkpt>
			<trkpt lat="54.588110" lon="22.194030"><ele>44.4</ele><time>2026-05-21T20:05:11Z</time></trkpt>
			<trkpt lat="54.588590" lon="22.194490"><ele>44.3</ele><time>2026-05-21T20:05:14Z</time></trkpt>
			<trkpt lat="54.588620" lon="22.194510"><ele>44.3</ele><time>2026-05-21T20:05:17Z</time></trkpt>
			<trkpt lat="54.588650" lon="22.194540"><ele>44.3</ele><time>2026-05-21T20:05:21Z</time></trkpt>
			<trkpt lat="54.588800" lon="22.194680"><ele>44.3</ele><time>2026-05-21T20:05:24Z</time></trkpt>
			<trkpt lat="54.589150" lon="22.195020"><ele>44.2</ele><time>2026-05-21T20:05:27Z</time></trkpt>
			<trkpt lat="54.589960" lon="22.195803"><ele>44.1</ele><time>2026-05-21T20:07:36Z</time></trkpt>
			<trkpt lat="54.590779" lon="22.196599"><ele>44.0</ele><time>2026-05-21T20:09:47Z</time></trkpt>
			<trkpt lat="54.590955" lon="22.195988"><ele>43.9</ele><time>2026-05-21T20:10:42Z</time></trkpt>
			<trkpt lat="54.591367" lon="22.196370"><ele>43.9</ele><time>2026-05-21T20:11:47Z</time></trkpt>
			<trkpt lat="54.590957" lon="22.196017"><ele>43.8</ele><time>2026-05-21T20:12:51Z</time></trkpt>
			<trkpt lat="54.590794" lon="22.196618"><ele>43.8</ele><time>2026-05-21T20:13:44Z</time></trkpt>
			<trkpt lat="54.591203" lon="22.197020"><ele>43.7</ele><time>2026-05-21T20:14:49Z</time></trkpt>
			<trkpt lat="54.590304" lon="22.199653"><ele>44.0</ele><time>2026-05-21T20:18:55Z</time></trkpt>
			<trkpt lat="54.590304" lon="22.199653"><ele>44.0</ele><time>2026-05-21T20:18:57Z</time></trkpt>
			<trkpt lat="54.590310" lon="22.199660"><ele>44.0</ele><time>2026-05-21T20:18:59Z</time></trkpt>
			<trkpt lat="54.590380" lon="22.199730"><ele>44.1</ele><time>2026-05-21T20:19:00Z</time></trkpt>
			<trkpt lat="54.590530" lon="22.199900"><ele>44.2</ele><time>2026-05-21T20:19:02Z</time></trkpt>
			<trkpt lat="54.590570" lon="22.199950"><ele>44.2</ele><time>2026-05-21T20:19:03Z</time></trkpt>
			<trkpt lat="54.590940" lon="22.200300"><ele>44.5</ele><time>2026-05-21T20:19:05Z</time></trkpt>
			<trkpt lat="54.590990" lon="22.200340"><ele>44.5</ele><time>2026-05-21T20:19:07Z</time></trkpt>
			<trkpt lat="54.591200" lon="22.200510"><ele>44.6</ele><time>2026-05-21T20:19:08Z</time></trkpt>
			<trkpt lat="54.591490" lon="22.200790"><ele>44.8</ele><time>2026-05-21T20:19:10Z</time></trkpt>
			<trkpt lat="54.591530" lon="22.200850"><ele>44.9</ele><time>2026-05-21T20:19:11Z</time></trkpt>
			<trkpt lat="54.591600" lon="22.200980"><ele>44.9</ele><time>2026-05-21T20:19:13Z</time></trkpt>
			<trkpt lat="54.591660" lon="22.201100"><ele>45.0</ele><time>2026-05-21T20:19:15Z</time></trkpt>
			<trkpt lat="54.591700" lon="22.201250"><ele>45.1</ele><time>2026-05-21T20:19:16Z</time></trkpt>
			<trkpt lat="54.591720" lon="22.201470"><ele>45.1</ele><time>2026-05-21T20:19:18Z</time></trkpt>
			<trkpt lat="54.591670" lon="22.201690"><ele>45.2</ele><time>2026-05-21T20:19:19Z</time></trkpt>
			<trkpt lat="54.591600" lon="22.202010"><ele>45.3</ele><time>2026-05-21T20:19:21Z</time></trkpt>
			<trkpt lat="54.591400" lon="22.202690"><ele>45.6</ele><time>2026-05-21T20:19:23Z</time></trkpt>
			<trkpt lat="54.591310" lon="22.202960"><ele>45.7</ele><time>2026-05-21T20:19:24Z</time></trkpt>
			<trkpt lat="54.591230" lon="22.203220"><ele>45.8</ele><time>2026-05-21T20:19:26Z</time></trkpt>
			<trkpt lat="54.591200" lon="22.203360"><ele>45.9</ele><time>2026-05-21T20:19:27Z</time></trkpt>
			<trkpt lat="54.591190" lon="22.203520"><ele>45.9</ele><time>2026-05-21T20:19:29Z</time></trkpt>
			<trkpt lat="54.591190" lon="22.203690"><ele>46.0</ele><time>2026-05-21T20:19:31Z</time></trkpt>
			<trkpt lat="54.591330" lon="22.205320"><ele>46.6</ele><time>2026-05-21T20:19:32Z</time></trkpt>
			<trkpt lat="54.591510" lon="22.207440"><ele>47.6</ele><time>2026-05-21T20:19:34Z</time></trkpt>
			<trkpt lat="54.591510" lon="22.207490"><ele>47.6</ele><time>2026-05-21T20:19:36Z</time></trkpt>
			<trkpt lat="54.591610" lon="22.208490"><ele>48.2</ele><time>2026-05-21T20:19:37Z</time></trkpt>
			<trkpt lat="54.591690" lon="22.209430"><ele>48.7</ele><time>2026-05-21T20:19:39Z</time></trkpt>
			<trkpt lat="54.591720" lon="22.209770"><ele>48.9</ele><time>2026-05-21T20:19:40Z</time></trkpt>
			<trkpt lat="54.591780" lon="22.210130"><ele>49.1</ele><time>2026-05-21T20:19:42Z</time></trkpt>
			<trkpt lat="54.591820" lon="22.210400"><ele>49.3</ele><time>2026-05-21T20:19:44Z</time></trkpt>
			<trkpt lat="54.591860" lon="22.210580"><ele>49.4</ele><time>2026-05-21T20:19:45Z</time></trkpt>
			<trkpt lat="54.591950" lon="22.210900"><ele>49.6</ele><time>2026-05-21T20:19:47Z</time></trkpt>
			<trkpt lat="54.592190" lon="22.211870"><ele>50.2</ele><time>2026-05-21T20:19:48Z</time></trkpt>
			<trkpt lat="54.592620" lon="22.213520"><ele>51.2</ele><time>2026-05-21T20:19:50Z</time></trkpt>
			<trkpt lat="54.592630" lon="22.213610"><ele>51.2</ele><time>2026-05-21T20:19:52Z</time></trkpt>
			<trkpt lat="54.592810" lon="22.214540"><ele>51.8</ele><time>2026-05-21T20:19:53Z</time></trkpt>
			<trkpt lat="54.592870" lon="22.214790"><ele>51.9</ele><time>2026-05-21T20:19:55Z</time></trkpt>
			<trkpt lat="54.592790" lon="22.215010"><ele>52.1</ele><time>2026-05-21T20:19:56Z</time></trkpt>
			<trkpt lat="54.592520" lon="22.215620"><ele>51.8</ele><time>2026-05-21T20:19:58Z</time></trkpt>
			<trkpt lat="54.592440" lon="22.215820"><ele>51.7</ele><time>2026-05-21T20:20:00Z</time></trkpt>
			<trkpt lat="54.592400" lon="22.215980"><ele>51.7</ele><time>2026-05-21T20:20:01Z</time></trkpt>
			<trkpt lat="54.592370" lon="22.216110"><ele>51.6</ele><time>2026-05-21T20:20:03Z</time></trkpt>
			<trkpt lat="54.592340" lon="22.216550"><ele>51.5</ele><time>2026-05-21T20:20:04Z</time></trkpt>
			<trkpt lat="54.592330" lon="22.216880"><ele>51.4</ele><time>2026-05-21T20:20:06Z</time></trkpt>
			<trkpt lat="54.592330" lon="22.216880"><ele>51.4</ele><time>2026-05-21T20:20:10Z</time></trkpt>
			<trkpt lat="54.592280" lon="22.218010"><ele>51.0</ele><time>2026-05-21T20:20:13Z</time></trkpt>
			<trkpt lat="54.592220" lon="22.219240"><ele>50.7</ele><time>2026-05-21T20:20:17Z</time></trkpt>
			<trkpt lat="54.592190" lon="22.219890"><ele>50.5</ele><time>2026-05-21T20:20:21Z</time></trkpt>
			<trkpt lat="54.592190" lon="22.220050"><ele>50.4</ele><time>2026-05-21T20:20:24Z</time></trkpt>
			<trkpt lat="54.592170" lon="22.220300"><ele>50.3</ele><time>2026-05-21T20:20:28Z</time></trkpt>
			<trkpt lat="54.592140" lon="22.220790"><ele>50.2</ele><time>2026-05-21T20:20:32Z</time></trkpt>
			<trkpt lat="54.592090" lon="22.221110"><ele>50.1</ele><time>2026-05-21T20:20:35Z</time></trkpt>
			<trkpt lat="54.592020" lon="22.221480"><ele>50.0</ele><time>2026-05-21T20:20:39Z</time></trkpt>
			<trkpt lat="54.591990" lon="22.221650"><ele>49.9</ele><time>2026-05-21T20:20:43Z</time></trkpt>
			<trkpt lat="54.591890" lon="22.222110"><ele>49.7</ele><time>2026-05-21T20:20:46Z</time></trkpt>
			<trkpt lat="54.591680" lon="22.223000"><ele>49.4</ele><time>2026-05-21T20:20:50Z</time></trkpt>
			<trkpt lat="54.591350" lon="22.224610"><ele>48.7</ele><time>2026-05-21T20:20:54Z</time></trkpt>
			<trkpt lat="54.591220" lon="22.225220"><ele>48.4</ele><time>2026-05-21T20:20:58Z</time></trkpt>
			<trkpt lat="54.591150" lon="22.225590"><ele>48.1</ele><time>2026-05-21T20:21:01Z</time></trkpt>
			<trkpt lat="54.590870" lon="22.226990"><ele>47.3</ele><time>2026-05-21T20:21:05Z</time></trkpt>
			<trkpt lat="54.590530" lon="22.228600"><ele>46.4</ele><time>2026-05-21T20:21:09Z</time></trkpt>
			<trkpt lat="54.590240" lon="22.229970"><ele>45.6</ele><time>2026-05-21T20:21:12Z</time></trkpt>
			<trkpt lat="54.590180" lon="22.230340"><ele>45.4</ele><time>2026-05-21T20:21:16Z</time></trkpt>
			<trkpt lat="54.590110" lon="22.231010"><ele>45.0</ele><time>2026-05-21T20:21:20Z</time></trkpt>
			<trkpt lat="54.590090" lon="22.231480"><ele>44.7</ele><time>2026-05-21T20:21:23Z</time></trkpt>
			<trkpt lat="54.590080" lon="22.231700"><ele>44.6</ele><time>2026-05-21T20:21:27Z</time></trkpt>
			<trkpt lat="54.590060" lon="22.232080"><ele>44.4</ele><time>2026-05-21T20:21:31Z</time></trkpt>
			<trkpt lat="54.590030" lon="22.232520"><ele>44.1</ele><time>2026-05-21T20:21:34Z</time></trkpt>
			<trkpt lat="54.589960" lon="22.233140"><ele>44.1</ele><time>2026-05-21T20:21:38Z</time></trkpt>
			<trkpt lat="54.589920" lon="22.233440"><ele>44.1</ele><time>2026-05-21T20:21:42Z</time></trkpt>
			<trkpt lat="54.589880" lon="22.233700"><ele>44.2</ele><time>2026-05-21T20:21:45Z</time></trkpt>
			<trkpt lat="54.589850" lon="22.233870"><ele>44.2</ele><time>2026-05-21T20:21:49Z</time></trkpt>
			<trkpt lat="54.589790" lon="22.234080"><ele>44.2</ele><time>2026-05-21T20:21:53Z</time></trkpt>
			<trkpt lat="54.589720" lon="22.234310"><ele>44.3</ele><time>2026-05-21T20:21:56Z</time></trkpt>
			<trkpt lat="54.589630" lon="22.234510"><ele>44.3</ele><time>2026-05-21T20:22:00Z</time></trkpt>
			<trkpt lat="54.589440" lon="22.234850"><ele>44.4</ele><time>2026-05-21T20:22:04Z</time></trkpt>
			<trkpt lat="54.589340" lon="22.235140"><ele>44.4</ele><time>2026-05-21T20:22:07Z</time></trkpt>
			<trkpt lat="54.589320" lon="22.235230"><ele>44.4</ele><time>2026-05-21T20:22:11Z</time></trkpt>
			<trkpt lat="54.589170" lon="22.235980"><ele>44.6</ele><time>2026-05-21T20:22:15Z</time></trkpt>
			<trkpt lat="54.588990" lon="22.237070"><ele>44.8</ele><time>2026-05-21T20:22:18Z</time></trkpt>
			<trkpt lat="54.588890" lon="22.237660"><ele>44.9</ele><time>2026-05-21T20:22:22Z</time></trkpt>
			<trkpt lat="54.588880" lon="22.237980"><ele>44.9</ele><time>2026-05-21T20:22:26Z</time></trkpt>
			<trkpt lat="54.588910" lon="22.238270"><ele>44.9</ele><time>2026-05-21T20:22:29Z</time></trkpt>
			<trkpt lat="54.589240" lon="22.240200"><ele>45.3</ele><time>2026-05-21T20:22:33Z</time></trkpt>
			<trkpt lat="54.589330" lon="22.240930"><ele>45.4</ele><time>2026-05-21T20:22:37Z</time></trkpt>
			<trkpt lat="54.589460" lon="22.242490"><ele>45.6</ele><time>2026-05-21T20:22:41Z</time></trkpt>
			<trkpt lat="54.589590" lon="22.243660"><ele>45.8</ele><time>2026-05-21T20:22:44Z</time></trkpt>
			<trkpt lat="54.589780" lon="22.245380"><ele>46.0</ele><time>2026-05-21T20:22:48Z</time></trkpt>
			<trkpt lat="54.590180" lon="22.248480"><ele>46.4</ele><time>2026-05-21T20:22:52Z</time></trkpt>
			<trkpt lat="54.590210" lon="22.248910"><ele>46.5</ele><time>2026-05-21T20:22:55Z</time></trkpt>
			<trkpt lat="54.590270" lon="22.251080"><ele>46.8</ele><time>2026-05-21T20:22:59Z</time></trkpt>
			<trkpt lat="54.590330" lon="22.254730"><ele>47.3</ele><time>2026-05-21T20:23:03Z</time></trkpt>
			<trkpt lat="54.590350" lon="22.256190"><ele>47.5</ele><time>2026-05-21T20:23:06Z</time></trkpt>
			<trkpt lat="54.590420" lon="22.259730"><ele>48.0</ele><time>2026-05-21T20:23:10Z</time></trkpt>
			<trkpt lat="54.590490" lon="22.263530"><ele>47.1</ele><time>2026-05-21T20:23:14Z</time></trkpt>
			<trkpt lat="54.590500" lon="22.265030"><ele>46.8</ele><time>2026-05-21T20:23:17Z</time></trkpt>
			<trkpt lat="54.590530" lon="22.266430"><ele>46.4</ele><time>2026-05-21T20:23:21Z</time></trkpt>
			<trkpt lat="54.590550" lon="22.266760"><ele>46.3</ele><time>2026-05-21T20:23:25Z</time></trkpt>
			<trkpt lat="54.590620" lon="22.267230"><ele>46.2</ele><time>2026-05-21T20:23:28Z</time></trkpt>
			<trkpt lat="54.590750" lon="22.267870"><ele>46.1</ele><time>2026-05-21T20:23:32Z</time></trkpt>
			<trkpt lat="54.590940" lon="22.268750"><ele>45.8</ele><time>2026-05-21T20:23:36Z</time></trkpt>
			<trkpt lat="54.590940" lon="22.268750"><ele>45.8</ele><time>2026-05-21T20:23:42Z</time></trkpt>
			<trkpt lat="54.591160" lon="22.269770"><ele>45.6</ele><time>2026-05-21T20:23:48Z</time></trkpt>
			<trkpt lat="54.591240" lon="22.270190"><ele>45.6</ele><time>2026-05-21T20:23:54Z</time></trkpt>
			<trkpt lat="54.591430" lon="22.271560"><ele>45.4</ele><time>2026-05-21T20:24:01Z</time></trkpt>
			<trkpt lat="54.591450" lon="22.271820"><ele>45.4</ele><time>2026-05-21T20:24:07Z</time></trkpt>
			<trkpt lat="54.591460" lon="22.272000"><ele>45.4</ele><time>2026-05-21T20:24:13Z</time></trkpt>
			<trkpt lat="54.591430" lon="22.272150"><ele>45.3</ele><time>2026-05-21T20:24:19Z</time></trkpt>
			<trkpt lat="54.591260" lon="22.272760"><ele>45.3</ele><time>2026-05-21T20:24:26Z</time></trkpt>
			<trkpt lat="54.591190" lon="22.273240"><ele>45.2</ele><time>2026-05-21T20:24:32Z</time></trkpt>
			<trkpt lat="54.591150" lon="22.273760"><ele>45.1</ele><time>2026-05-21T20:24:38Z</time></trkpt>
			<trkpt lat="54.591170" lon="22.273960"><ele>45.1</ele><time>2026-05-21T20:24:44Z</time></trkpt>
			<trkpt lat="54.591220" lon="22.274230"><ele>45.1</ele><time>2026-05-21T20:24:51Z</time></trkpt>
			<trkpt lat="54.591530" lon="22.275270"><ele>45.0</ele><time>2026-05-21T20:24:57Z</time></trkpt>
			<trkpt lat="54.591800" lon="22.276080"><ele>44.8</ele><time>2026-05-21T20:25:03Z</time></trkpt>
			<trkpt lat="54.591840" lon="22.276270"><ele>44.8</ele><time>2026-05-21T20:25:09Z</time></trkpt>
			<trkpt lat="54.591870" lon="22.276530"><ele>44.8</ele><time>2026-05-21T20:25:16Z</time></trkpt>
			<trkpt lat="54.591900" lon="22.277060"><ele>44.7</ele><time>2026-05-21T20:25:22Z</time></trkpt>
			<trkpt lat="54.591960" lon="22.277950"><ele>44.6</ele><time>2026-05-21T20:25:28Z</time></trkpt>
			<trkpt lat="54.592000" lon="22.278200"><ele>44.6</ele><time>2026-05-21T20:25:34Z</time></trkpt>
			<trkpt lat="54.592050" lon="22.278420"><ele>44.6</ele><time>2026-05-21T20:25:41Z</time></trkpt>
			<trkpt lat="54.592130" lon="22.278670"><ele>44.6</ele><time>2026-05-21T20:25:47Z</time></trkpt>
			<trkpt lat="54.592590" lon="22.279690"><ele>44.5</ele><time>2026-05-21T20:25:53Z</time></trkpt>
			<trkpt lat="54.592650" lon="22.279870"><ele>44.5</ele><time>2026-05-21T20:25:59Z</time></trkpt>
			<trkpt lat="54.592730" lon="22.280140"><ele>44.5</ele><time>2026-05-21T20:26:06Z</time></trkpt>
			<trkpt lat="54.592850" lon="22.280860"><ele>44.4</ele><time>2026-05-21T20:26:12Z</time></trkpt>
			<trkpt lat="54.593330" lon="22.283910"><ele>44.2</ele><time>2026-05-21T20:26:18Z</time></trkpt>
			<trkpt lat="54.593440" lon="22.284730"><ele>44.2</ele><time>2026-05-21T20:26:24Z</time></trkpt>
			<trkpt lat="54.593480" lon="22.285220"><ele>44.2</ele><time>2026-05-21T20:26:31Z</time></trkpt>
			<trkpt lat="54.593490" lon="22.285640"><ele>44.1</ele><time>2026-05-21T20:26:37Z</time></trkpt>
			<trkpt lat="54.593460" lon="22.286170"><ele>44.1</ele><time>2026-05-21T20:26:43Z</time></trkpt>
			<trkpt lat="54.593410" lon="22.286600"><ele>44.1</ele><time>2026-05-21T20:26:49Z</time></trkpt>
			<trkpt lat="54.593300" lon="22.287130"><ele>44.2</ele><time>2026-05-21T20:26:56Z</time></trkpt>
			<trkpt lat="54.593200" lon="22.287560"><ele>44.3</ele><time>2026-05-21T20:27:02Z</time></trkpt>
			<trkpt lat="54.593080" lon="22.287950"><ele>44.4</ele><time>2026-05-21T20:27:08Z</time></trkpt>
			<trkpt lat="54.592940" lon="22.288330"><ele>44.6</ele><time>2026-05-21T20:27:14Z</time></trkpt>
			<trkpt lat="54.592720" lon="22.288770"><ele>44.7</ele><time>2026-05-21T20:27:21Z</time></trkpt>
			<trkpt lat="54.591840" lon="22.290260"><ele>45.3</ele><time>2026-05-21T20:27:27Z</time></trkpt>
			<trkpt lat="54.591670" lon="22.290600"><ele>45.5</ele><time>2026-05-21T20:27:33Z</time></trkpt>
			<trkpt lat="54.591580" lon="22.290990"><ele>45.6</ele><time>2026-05-21T20:27:39Z</time></trkpt>
			<trkpt lat="54.591560" lon="22.291480"><ele>45.7</ele><time>2026-05-21T20:27:46Z</time></trkpt>
			<trkpt lat="54.592050" lon="22.296930"><ele>46.7</ele><time>2026-05-21T20:27:52Z</time></trkpt>
			<trkpt lat="54.592130" lon="22.297920"><ele>46.7</ele><time>2026-05-21T20:27:58Z</time></trkpt>
			<trkpt lat="54.592180" lon="22.298200"><ele>46.7</ele><time>2026-05-21T20:28:04Z</time></trkpt>
			<trkpt lat="54.592380" lon="22.298850"><ele>46.8</ele><time>2026-05-21T20:28:11Z</time></trkpt>
			<trkpt lat="54.594150" lon="22.304040"><ele>46.9</ele><time>2026-05-21T20:28:17Z</time></trkpt>
			<trkpt lat="54.594200" lon="22.304220"><ele>46.9</ele><time>2026-05-21T20:28:23Z</time></trkpt>
			<trkpt lat="54.594230" lon="22.304380"><ele>46.9</ele><time>2026-05-21T20:28:29Z</time></trkpt>
			<trkpt lat="54.594260" lon="22.304580"><ele>46.9</ele><time>2026-05-21T20:28:36Z</time></trkpt>
			<trkpt lat="54.594280" lon="22.304880"><ele>46.9</ele><time>2026-05-21T20:28:42Z</time></trkpt>
			<trkpt lat="54.594390" lon="22.308140"><ele>47.1</ele><time>2026-05-21T20:28:48Z</time></trkpt>
			<trkpt lat="54.594480" lon="22.310740"><ele>47.2</ele><time>2026-05-21T20:28:54Z</time></trkpt>
			<trkpt lat="54.594510" lon="22.311040"><ele>47.2</ele><time>2026-05-21T20:29:01Z</time></trkpt>
			<trkpt lat="54.594820" lon="22.313250"><ele>47.7</ele><time>2026-05-21T20:29:07Z</time></trkpt>
			<trkpt lat="54.594850" lon="22.314090"><ele>48.2</ele><time>2026-05-21T20:29:13Z</time></trkpt>
			<trkpt lat="54.594840" lon="22.315560"><ele>49.0</ele><time>2026-05-21T20:29:19Z</time></trkpt>
			<trkpt lat="54.594860" lon="22.315950"><ele>49.2</ele><time>2026-05-21T20:29:26Z</time></trkpt>
			<trkpt lat="54.595040" lon="22.317120"><ele>49.8</ele><time>2026-05-21T20:29:32Z</time></trkpt>
			<trkpt lat="54.595080" lon="22.317350"><ele>49.9</ele><time>2026-05-21T20:29:38Z</time></trkpt>
			<trkpt lat="54.595140" lon="22.317560"><ele>50.1</ele><time>2026-05-21T20:29:44Z</time></trkpt>
			<trkpt lat="54.595230" lon="22.317650"><ele>50.2</ele><time>2026-05-21T20:29:51Z</time></trkpt>
			<trkpt lat="54.595330" lon="22.317650"><ele>50.2</ele><time>2026-05-21T20:29:57Z</time></trkpt>
			<trkpt lat="54.596740" lon="22.317290"><ele>51.6</ele><time>2026-05-21T20:30:03Z</time></trkpt>
			<trkpt lat="54.596860" lon="22.317310"><ele>51.7</ele><time>2026-05-21T20:30:09Z</time></trkpt>
			<trkpt lat="54.596950" lon="22.317360"><ele>51.7</ele><time>2026-05-21T20:30:16Z</time></trkpt>
			<trkpt lat="54.597040" lon="22.317470"><ele>51.8</ele><time>2026-05-21T20:30:22Z</time></trkpt>
			<trkpt lat="54.597140" lon="22.317690"><ele>52.0</ele><time>2026-05-21T20:30:28Z</time></trkpt>
			<trkpt lat="54.597450" lon="22.318240"><ele>52.2</ele><time>2026-05-21T20:30:34Z</time></trkpt>
			<trkpt lat="54.598500" lon="22.319390"><ele>52.0</ele><time>2026-05-21T20:30:41Z</time></trkpt>
			<trkpt lat="54.598870" lon="22.319830"><ele>51.9</ele><time>2026-05-21T20:30:47Z</time></trkpt>
			<trkpt lat="54.599430" lon="22.320560"><ele>51.8</ele><time>2026-05-21T20:30:53Z</time></trkpt>
			<trkpt lat="54.600350" lon="22.321690"><ele>51.6</ele><time>2026-05-21T20:30:59Z</time></trkpt>
			<trkpt lat="54.601560" lon="22.323270"><ele>51.3</ele><time>2026-05-21T20:31:06Z</time></trkpt>
			<trkpt lat="54.604630" lon="22.327170"><ele>52.1</ele><time>2026-05-21T20:31:12Z</time></trkpt>
			<trkpt lat="54.606010" lon="22.329060"><ele>52.5</ele><time>2026-05-21T20:31:18Z</time></trkpt>
			<trkpt lat="54.606470" lon="22.329880"><ele>52.6</ele><time>2026-05-21T20:31:24Z</time></trkpt>
			<trkpt lat="54.607910" lon="22.332290"><ele>52.8</ele><time>2026-05-21T20:31:31Z</time></trkpt>
			<trkpt lat="54.609180" lon="22.334380"><ele>52.9</ele><time>2026-05-21T20:31:37Z</time></trkpt>
			<trkpt lat="54.609320" lon="22.334610"><ele>52.9</ele><time>2026-05-21T20:31:43Z</time></trkpt>
			<trkpt lat="54.609420" lon="22.335100"><ele>53.0</ele><time>2026-05-21T20:31:49Z</time></trkpt>
			<trkpt lat="54.609560" lon="22.335940"><ele>53.0</ele><time>2026-05-21T20:31:56Z</time></trkpt>
			<trkpt lat="54.610210" lon="22.345660"><ele>50.2</ele><time>2026-05-21T20:32:02Z</time></trkpt>
			<trkpt lat="54.611960" lon="22.372190"><ele>50.1</ele><time>2026-05-21T20:32:08Z</time></trkpt>
			<trkpt lat="54.612280" lon="22.377120"><ele>51.1</ele><time>2026-05-21T20:32:14Z</time></trkpt>
			<trkpt lat="54.612660" lon="22.382740"><ele>52.3</ele><time>2026-05-21T20:32:21Z</time></trkpt>
			<trkpt lat="54.613050" lon="22.388450"><ele>51.9</ele><time>2026-05-21T20:32:27Z</time></trkpt>
			<trkpt lat="54.613140" lon="22.390000"><ele>51.8</ele><time>2026-05-21T20:32:33Z</time></trkpt>
			<trkpt lat="54.609010" lon="22.393940"><ele>49.4</ele><time>2026-05-21T20:32:39Z</time></trkpt>
			<trkpt lat="54.608190" lon="22.394730"><ele>48.9</ele><time>2026-05-21T20:32:46Z</time></trkpt>
			<trkpt lat="54.606890" lon="22.395910"><ele>48.3</ele><time>2026-05-21T20:32:52Z</time></trkpt>
			<trkpt lat="54.606890" lon="22.395920"><ele>48.3</ele><time>2026-05-21T20:33:03Z</time></trkpt>
			<trkpt lat="54.606400" lon="22.396360"><ele>48.2</ele><time>2026-05-21T20:33:15Z</time></trkpt>
			<trkpt lat="54.605440" lon="22.397060"><ele>48.0</ele><time>2026-05-21T20:33:27Z</time></trkpt>
			<trkpt lat="54.604620" lon="22.397750"><ele>47.8</ele><time>2026-05-21T20:33:38Z</time></trkpt>
			<trkpt lat="54.604340" lon="22.397990"><ele>47.8</ele><time>2026-05-21T20:33:50Z</time></trkpt>
			<trkpt lat="54.600100" lon="22.400960"><ele>47.2</ele><time>2026-05-21T20:34:01Z</time></trkpt>
			<trkpt lat="54.598100" lon="22.402280"><ele>47.0</ele><time>2026-05-21T20:34:13Z</time></trkpt>
			<trkpt lat="54.596370" lon="22.403500"><ele>46.6</ele><time>2026-05-21T20:34:24Z</time></trkpt>
			<trkpt lat="54.596050" lon="22.403730"><ele>46.5</ele><time>2026-05-21T20:34:36Z</time></trkpt>
			<trkpt lat="54.593950" lon="22.405320"><ele>45.9</ele><time>2026-05-21T20:34:47Z</time></trkpt>
			<trkpt lat="54.593840" lon="22.405460"><ele>45.8</ele><time>2026-05-21T20:34:59Z</time></trkpt>
			<trkpt lat="54.593120" lon="22.406390"><ele>45.6</ele><time>2026-05-21T20:35:11Z</time></trkpt>
			<trkpt lat="54.589700" lon="22.411560"><ele>47.0</ele><time>2026-05-21T20:35:22Z</time></trkpt>
			<trkpt lat="54.584930" lon="22.418950"><ele>47.8</ele><time>2026-05-21T20:35:34Z</time></trkpt>
			<trkpt lat="54.578500" lon="22.428480"><ele>51.5</ele><time>2026-05-21T20:35:45Z</time></trkpt>
			<trkpt lat="54.577350" lon="22.429970"><ele>52.2</ele><time>2026-05-21T20:35:57Z</time></trkpt>
			<trkpt lat="54.575480" lon="22.432420"><ele>53.4</ele><time>2026-05-21T20:36:08Z</time></trkpt>
			<trkpt lat="54.574020" lon="22.434800"><ele>54.3</ele><time>2026-05-21T20:36:20Z</time></trkpt>
			<trkpt lat="54.572980" lon="22.436550"><ele>55.0</ele><time>2026-05-21T20:36:31Z</time></trkpt>
			<trkpt lat="54.570810" lon="22.441280"><ele>59.4</ele><time>2026-05-21T20:36:43Z</time></trkpt>
			<trkpt lat="54.570250" lon="22.442520"><ele>60.7</ele><time>2026-05-21T20:36:55Z</time></trkpt>
			<trkpt lat="54.569970" lon="22.443130"><ele>61.3</ele><time>2026-05-21T20:37:06Z</time></trkpt>
			<trkpt lat="54.569820" lon="22.443350"><ele>61.6</ele><time>2026-05-21T20:37:18Z</time></trkpt>
			<trkpt lat="54.568240" lon="22.445560"><ele>63.3</ele><time>2026-05-21T20:37:29Z</time></trkpt>
			<trkpt lat="54.567940" lon="22.445980"><ele>63.4</ele><time>2026-05-21T20:37:41Z</time></trkpt>
			<trkpt lat="54.567910" lon="22.446070"><ele>63.5</ele><time>2026-05-21T20:37:52Z</time></trkpt>
			<trkpt lat="54.567880" lon="22.446190"><ele>63.5</ele><time>2026-05-21T20:38:04Z</time></trkpt>
			<trkpt lat="54.567840" lon="22.446470"><ele>63.6</ele><time>2026-05-21T20:38:15Z</time></trkpt>
			<trkpt lat="54.567260" lon="22.449790"><ele>64.4</ele><time>2026-05-21T20:38:27Z</time></trkpt>
			<trkpt lat="54.567150" lon="22.450790"><ele>64.7</ele><time>2026-05-21T20:38:39Z</time></trkpt>
			<trkpt lat="54.567100" lon="22.450960"><ele>64.7</ele><time>2026-05-21T20:38:50Z</time></trkpt>
			<trkpt lat="54.567070" lon="22.451020"><ele>64.8</ele><time>2026-05-21T20:39:02Z</time></trkpt>
			<trkpt lat="54.565990" lon="22.451800"><ele>65.3</ele><time>2026-05-21T20:39:13Z</time></trkpt>
			<trkpt lat="54.565540" lon="22.452170"><ele>65.6</ele><time>2026-05-21T20:39:25Z</time></trkpt>
			<trkpt lat="54.565380" lon="22.452370"><ele>65.8</ele><time>2026-05-21T20:39:36Z</time></trkpt>
			<trkpt lat="54.565260" lon="22.452620"><ele>65.9</ele><time>2026-05-21T20:39:48Z</time></trkpt>
			<trkpt lat="54.564870" lon="22.453550"><ele>66.3</ele><time>2026-05-21T20:39:59Z</time></trkpt>
			<trkpt lat="54.564110" lon="22.455290"><ele>67.0</ele><time>2026-05-21T20:40:11Z</time></trkpt>
			<trkpt lat="54.562970" lon="22.457850"><ele>68.1</ele><time>2026-05-21T20:40:23Z</time></trkpt>
			<trkpt lat="54.562860" lon="22.458050"><ele>68.2</ele><time>2026-05-21T20:40:34Z</time></trkpt>
			<trkpt lat="54.562760" lon="22.458180"><ele>68.3</ele><time>2026-05-21T20:40:46Z</time></trkpt>
			<trkpt lat="54.562640" lon="22.458310"><ele>68.5</ele><time>2026-05-21T20:40:57Z</time></trkpt>
			<trkpt lat="54.562210" lon="22.458570"><ele>69.0</ele><time>2026-05-21T20:41:09Z</time></trkpt>
			<trkpt lat="54.561420" lon="22.459010"><ele>70.0</ele><time>2026-05-21T20:41:20Z</time></trkpt>
			<trkpt lat="54.560450" lon="22.459550"><ele>71.2</ele><time>2026-05-21T20:41:32Z</time></trkpt>
			<trkpt lat="54.556810" lon="22.461900"><ele>74.5</ele><time>2026-05-21T20:41:43Z</time></trkpt>
			<trkpt lat="54.551450" lon="22.465240"><ele>74.8</ele><time>2026-05-21T20:41:55Z</time></trkpt>
			<trkpt lat="54.548690" lon="22.466850"><ele>78.3</ele><time>2026-05-21T20:42:07Z</time></trkpt>
			<trkpt lat="54.548540" lon="22.466980"><ele>78.5</ele><time>2026-05-21T20:42:18Z</time></trkpt>
			<trkpt lat="54.547420" lon="22.468120"><ele>79.6</ele><time>2026-05-21T20:42:30Z</time></trkpt>
			<trkpt lat="54.534950" lon="22.487060"><ele>79.9</ele><time>2026-05-21T20:42:41Z</time></trkpt>
			<trkpt lat="54.534690" lon="22.487580"><ele>80.3</ele><time>2026-05-21T20:42:53Z</time></trkpt>
			<trkpt lat="54.534410" lon="22.488120"><ele>80.6</ele><time>2026-05-21T20:43:04Z</time></trkpt>
			<trkpt lat="54.533280" lon="22.490740"><ele>82.2</ele><time>2026-05-21T20:43:16Z</time></trkpt>
			<trkpt lat="54.532560" lon="22.492370"><ele>83.1</ele><time>2026-05-21T20:43:27Z</time></trkpt>
			<trkpt lat="54.531900" lon="22.494030"><ele>83.9</ele><time>2026-05-21T20:43:39Z</time></trkpt>
			<trkpt lat="54.531770" lon="22.494670"><ele>84.0</ele><time>2026-05-21T20:43:51Z</time></trkpt>
			<trkpt lat="54.531640" lon="22.495470"><ele>84.1</ele><time>2026-05-21T20:44:02Z</time></trkpt>
			<trkpt lat="54.530820" lon="22.501980"><ele>85.1</ele><time>2026-05-21T20:44:14Z</time></trkpt>
			<trkpt lat="54.529990" lon="22.508340"><ele>89.3</ele><time>2026-05-21T20:44:25Z</time></trkpt>
			<trkpt lat="54.525300" lon="22.509580"><ele>95.1</ele><time>2026-05-21T20:44:37Z</time></trkpt>
			<trkpt lat="54.524520" lon="22.509800"><ele>96.1</ele><time>2026-05-21T20:44:48Z</time></trkpt>
			<trkpt lat="54.520650" lon="22.510910"><ele>98.3</ele><time>2026-05-21T20:45:00Z</time></trkpt>
			<trkpt lat="54.516690" lon="22.511990"><ele>99.1</ele><time>2026-05-21T20:45:11Z</time></trkpt>
			<trkpt lat="54.508140" lon="22.514450"><ele>105.9</ele><time>2026-05-21T20:45:23Z</time></trkpt>
			<trkpt lat="54.507990" lon="22.514470"><ele>105.9</ele><time>2026-05-21T20:45:35Z</time></trkpt>
			<trkpt lat="54.507610" lon="22.514510"><ele>105.9</ele><time>2026-05-21T20:45:46Z</time></trkpt>
			<trkpt lat="54.506260" lon="22.514600"><ele>106.4</ele><time>2026-05-21T20:45:58Z</time></trkpt>
			<trkpt lat="54.504870" lon="22.514700"><ele>107.3</ele><time>2026-05-21T20:46:09Z</time></trkpt>
			<trkpt lat="54.503550" lon="22.514690"><ele>108.1</ele><time>2026-05-21T20:46:21Z</time></trkpt>
			<trkpt lat="54.503440" lon="22.514690"><ele>108.2</ele><time>2026-05-21T20:46:32Z</time></trkpt>
			<trkpt lat="54.503030" lon="22.514680"><ele>108.4</ele><time>2026-05-21T20:46:44Z</time></trkpt>
			<trkpt lat="54.501380" lon="22.514660"><ele>109.5</ele><time>2026-05-21T20:46:55Z</time></trkpt>
			<trkpt lat="54.500360" lon="22.514650"><ele>111.4</ele><time>2026-05-21T20:47:07Z</time></trkpt>
			<trkpt lat="54.498620" lon="22.514650"><ele>114.8</ele><time>2026-05-21T20:47:18Z</time></trkpt>
			<trkpt lat="54.498620" lon="22.514650"><ele>114.8</ele><time>2026-05-21T20:47:25Z</time></trkpt>
			<trkpt lat="54.496130" lon="22.514650"><ele>119.6</ele><time>2026-05-21T20:47:32Z</time></trkpt>
			<trkpt lat="54.495360" lon="22.514650"><ele>119.6</ele><time>2026-05-21T20:47:39Z</time></trkpt>
			<trkpt lat="54.488890" lon="22.514580"><ele>118.9</ele><time>2026-05-21T20:47:46Z</time></trkpt>
			<trkpt lat="54.488080" lon="22.514550"><ele>119.8</ele><time>2026-05-21T20:47:53Z</time></trkpt>
			<trkpt lat="54.487280" lon="22.514420"><ele>120.8</ele><time>2026-05-21T20:47:59Z</time></trkpt>
			<trkpt lat="54.485410" lon="22.513770"><ele>123.0</ele><time>2026-05-21T20:48:06Z</time></trkpt>
			<trkpt lat="54.484640" lon="22.513560"><ele>123.9</ele><time>2026-05-21T20:48:13Z</time></trkpt>
			<trkpt lat="54.484300" lon="22.513520"><ele>124.3</ele><time>2026-05-21T20:48:20Z</time></trkpt>
			<trkpt lat="54.483820" lon="22.513590"><ele>124.9</ele><time>2026-05-21T20:48:27Z</time></trkpt>
			<trkpt lat="54.483330" lon="22.513710"><ele>125.5</ele><time>2026-05-21T20:48:34Z</time></trkpt>
			<trkpt lat="54.482830" lon="22.513930"><ele>126.1</ele><time>2026-05-21T20:48:40Z</time></trkpt>
			<trkpt lat="54.482620" lon="22.513900"><ele>126.3</ele><time>2026-05-21T20:48:47Z</time></trkpt>
			<trkpt lat="54.482510" lon="22.513840"><ele>126.5</ele><time>2026-05-21T20:48:54Z</time></trkpt>
			<trkpt lat="54.481300" lon="22.512960"><ele>128.0</ele><time>2026-05-21T20:49:01Z</time></trkpt>
			<trkpt lat="54.480850" lon="22.512700"><ele>128.6</ele><time>2026-05-21T20:49:08Z</time></trkpt>
			<trkpt lat="54.480410" lon="22.512500"><ele>129.1</ele><time>2026-05-21T20:49:14Z</time></trkpt>
			<trkpt lat="54.479630" lon="22.512180"><ele>129.9</ele><time>2026-05-21T20:49:21Z</time></trkpt>
			<trkpt lat="54.478800" lon="22.512270"><ele>130.7</ele><time>2026-05-21T20:49:28Z</time></trkpt>
			<trkpt lat="54.478580" lon="22.512290"><ele>130.9</ele><time>2026-05-21T20:49:35Z</time></trkpt>
			<trkpt lat="54.478020" lon="22.512360"><ele>131.4</ele><time>2026-05-21T20:49:42Z</time></trkpt>
			<trkpt lat="54.477160" lon="22.512510"><ele>132.2</ele><time>2026-05-21T20:49:49Z</time></trkpt>
			<trkpt lat="54.476580" lon="22.512480"><ele>132.8</ele><time>2026-05-21T20:49:55Z</time></trkpt>
			<trkpt lat="54.474700" lon="22.512080"><ele>134.5</ele><time>2026-05-21T20:50:02Z</time></trkpt>
			<trkpt lat="54.473630" lon="22.511870"><ele>134.4</ele><time>2026-05-21T20:50:09Z</time></trkpt>
			<trkpt lat="54.473250" lon="22.511820"><ele>134.4</ele><time>2026-05-21T20:50:16Z</time></trkpt>
			<trkpt lat="54.472820" lon="22.511850"><ele>134.3</ele><time>2026-05-21T20:50:23Z</time></trkpt>
			<trkpt lat="54.472460" lon="22.511950"><ele>134.3</ele><time>2026-05-21T20:50:29Z</time></trkpt>
			<trkpt lat="54.471100" lon="22.512610"><ele>134.1</ele><time>2026-05-21T20:50:36Z</time></trkpt>
			<trkpt lat="54.470110" lon="22.511970"><ele>133.9</ele><time>2026-05-21T20:50:43Z</time></trkpt>
			<trkpt lat="54.468980" lon="22.511190"><ele>133.2</ele><time>2026-05-21T20:50:50Z</time></trkpt>
			<trkpt lat="54.468830" lon="22.510940"><ele>132.9</ele><time>2026-05-21T20:50:57Z</time></trkpt>
			<trkpt lat="54.468700" lon="22.510400"><ele>132.4</ele><time>2026-05-21T20:51:04Z</time></trkpt>
			<trkpt lat="54.467210" lon="22.502890"><ele>126.4</ele><time>2026-05-21T20:51:10Z</time></trkpt>
			<trkpt lat="54.465110" lon="22.492460"><ele>125.5</ele><time>2026-05-21T20:51:17Z</time></trkpt>
			<trkpt lat="54.464780" lon="22.491410"><ele>125.2</ele><time>2026-05-21T20:51:24Z</time></trkpt>
			<trkpt lat="54.463800" lon="22.488730"><ele>124.3</ele><time>2026-05-21T20:51:31Z</time></trkpt>
			<trkpt lat="54.461660" lon="22.482930"><ele>126.4</ele><time>2026-05-21T20:51:38Z</time></trkpt>
			<trkpt lat="54.461540" lon="22.482480"><ele>126.7</ele><time>2026-05-21T20:51:44Z</time></trkpt>
			<trkpt lat="54.461360" lon="22.481320"><ele>127.5</ele><time>2026-05-21T20:51:51Z</time></trkpt>
			<trkpt lat="54.461330" lon="22.480770"><ele>127.9</ele><time>2026-05-21T20:51:58Z</time></trkpt>
			<trkpt lat="54.461330" lon="22.480250"><ele>128.3</ele><time>2026-05-21T20:52:05Z</time></trkpt>
			<trkpt lat="54.461420" lon="22.479360"><ele>128.9</ele><time>2026-05-21T20:52:12Z</time></trkpt>
			<trkpt lat="54.461480" lon="22.478630"><ele>129.4</ele><time>2026-05-21T20:52:19Z</time></trkpt>
			<trkpt lat="54.461690" lon="22.476820"><ele>129.8</ele><time>2026-05-21T20:52:25Z</time></trkpt>
			<trkpt lat="54.461740" lon="22.476330"><ele>129.8</ele><time>2026-05-21T20:52:32Z</time></trkpt>
			<trkpt lat="54.461750" lon="22.475950"><ele>129.8</ele><time>2026-05-21T20:52:39Z</time></trkpt>
			<trkpt lat="54.461670" lon="22.475570"><ele>129.8</ele><time>2026-05-21T20:52:46Z</time></trkpt>
			<trkpt lat="54.461510" lon="22.475210"><ele>129.8</ele><time>2026-05-21T20:52:53Z</time></trkpt>
			<trkpt lat="54.461040" lon="22.474360"><ele>129.7</ele><time>2026-05-21T20:53:00Z</time></trkpt>
			<trkpt lat="54.460290" lon="22.473200"><ele>129.6</ele><time>2026-05-21T20:53:06Z</time></trkpt>
			<trkpt lat="54.458870" lon="22.471000"><ele>129.5</ele><time>2026-05-21T20:53:13Z</time></trkpt>
			<trkpt lat="54.458810" lon="22.470750"><ele>129.4</ele><time>2026-05-21T20:53:20Z</time></trkpt>
			<trkpt lat="54.458810" lon="22.470340"><ele>129.4</ele><time>2026-05-21T20:53:27Z</time></trkpt>
			<trkpt lat="54.459520" lon="22.463390"><ele>127.7</ele><time>2026-05-21T20:53:34Z</time></trkpt>
			<trkpt lat="54.459910" lon="22.459290"><ele>125.3</ele><time>2026-05-21T20:53:40Z</time></trkpt>
			<trkpt lat="54.460270" lon="22.455760"><ele>122.3</ele><time>2026-05-21T20:53:47Z</time></trkpt>
			<trkpt lat="54.460280" lon="22.455550"><ele>122.1</ele><time>2026-05-21T20:53:54Z</time></trkpt>
			<trkpt lat="54.460270" lon="22.455310"><ele>121.9</ele><time>2026-05-21T20:54:01Z</time></trkpt>
			<trkpt lat="54.459330" lon="22.448410"><ele>121.4</ele><time>2026-05-21T20:54:08Z</time></trkpt>
			<trkpt lat="54.458560" lon="22.442820"><ele>123.3</ele><time>2026-05-21T20:54:15Z</time></trkpt>
			<trkpt lat="54.458540" lon="22.442560"><ele>123.1</ele><time>2026-05-21T20:54:21Z</time></trkpt>
			<trkpt lat="54.458580" lon="22.442310"><ele>122.9</ele><time>2026-05-21T20:54:28Z</time></trkpt>
			<trkpt lat="54.458690" lon="22.441970"><ele>122.7</ele><time>2026-05-21T20:54:35Z</time></trkpt>
			<trkpt lat="54.459140" lon="22.440550"><ele>121.5</ele><time>2026-05-21T20:54:42Z</time></trkpt>
			<trkpt lat="54.459220" lon="22.440190"><ele>121.3</ele><time>2026-05-21T20:54:49Z</time></trkpt>
			<trkpt lat="54.459290" lon="22.439340"><ele>120.7</ele><time>2026-05-21T20:54:55Z</time></trkpt>
			<trkpt lat="54.459250" lon="22.438560"><ele>120.1</ele><time>2026-05-21T20:55:02Z</time></trkpt>
			<trkpt lat="54.459250" lon="22.437520"><ele>119.4</ele><time>2026-05-21T20:55:09Z</time></trkpt>
			<trkpt lat="54.459240" lon="22.437330"><ele>119.3</ele><time>2026-05-21T20:55:16Z</time></trkpt>
			<trkpt lat="54.459210" lon="22.437150"><ele>119.1</ele><time>2026-05-21T20:55:23Z</time></trkpt>
			<trkpt lat="54.459150" lon="22.436940"><ele>119.0</ele><time>2026-05-21T20:55:30Z</time></trkpt>
			<trkpt lat="54.459090" lon="22.436800"><ele>118.9</ele><time>2026-05-21T20:55:36Z</time></trkpt>
			<trkpt lat="54.459010" lon="22.436670"><ele>118.7</ele><time>2026-05-21T20:55:43Z</time></trkpt>
			<trkpt lat="54.458660" lon="22.436240"><ele>118.2</ele><time>2026-05-21T20:55:50Z</time></trkpt>
			<trkpt lat="54.458430" lon="22.435920"><ele>117.8</ele><time>2026-05-21T20:55:57Z</time></trkpt>
			<trkpt lat="54.457710" lon="22.434820"><ele>117.9</ele><time>2026-05-21T20:56:04Z</time></trkpt>
			<trkpt lat="54.457500" lon="22.434450"><ele>118.3</ele><time>2026-05-21T20:56:10Z</time></trkpt>
			<trkpt lat="54.457330" lon="22.434140"><ele>118.7</ele><time>2026-05-21T20:56:17Z</time></trkpt>
			<trkpt lat="54.456750" lon="22.433090"><ele>119.7</ele><time>2026-05-21T20:56:24Z</time></trkpt>
			<trkpt lat="54.456140" lon="22.431950"><ele>120.9</ele><time>2026-05-21T20:56:31Z</time></trkpt>
			<trkpt lat="54.455990" lon="22.431580"><ele>121.3</ele><time>2026-05-21T20:56:38Z</time></trkpt>
			<trkpt lat="54.455910" lon="22.431260"><ele>121.5</ele><time>2026-05-21T20:56:45Z</time></trkpt>
			<trkpt lat="54.455860" lon="22.430880"><ele>121.8</ele><time>2026-05-21T20:56:51Z</time></trkpt>
			<trkpt lat="54.456000" lon="22.430070"><ele>122.5</ele><time>2026-05-21T20:56:58Z</time></trkpt>
			<trkpt lat="54.456270" lon="22.428620"><ele>123.6</ele><time>2026-05-21T20:57:05Z</time></trkpt>
			<trkpt lat="54.456570" lon="22.427000"><ele>125.6</ele><time>2026-05-21T20:57:12Z</time></trkpt>
			<trkpt lat="54.456710" lon="22.426260"><ele>126.8</ele><time>2026-05-21T20:57:19Z</time></trkpt>
			<trkpt lat="54.457060" lon="22.424510"><ele>129.8</ele><time>2026-05-21T20:57:25Z</time></trkpt>
			<trkpt lat="54.457300" lon="22.423210"><ele>132.1</ele><time>2026-05-21T20:57:32Z</time></trkpt>
			<trkpt lat="54.457300" lon="22.423210"><ele>132.1</ele><time>2026-05-21T20:57:41Z</time></trkpt>
			<trkpt lat="54.457360" lon="22.422910"><ele>132.6</ele><time>2026-05-21T20:57:49Z</time></trkpt>
			<trkpt lat="54.457730" lon="22.420900"><ele>136.0</ele><time>2026-05-21T20:57:57Z</time></trkpt>
			<trkpt lat="54.457840" lon="22.420340"><ele>137.0</ele><time>2026-05-21T20:58:05Z</time></trkpt>
			<trkpt lat="54.458240" lon="22.418030"><ele>138.7</ele><time>2026-05-21T20:58:13Z</time></trkpt>
			<trkpt lat="54.458350" lon="22.417090"><ele>138.1</ele><time>2026-05-21T20:58:21Z</time></trkpt>
			<trkpt lat="54.458410" lon="22.416360"><ele>137.5</ele><time>2026-05-21T20:58:30Z</time></trkpt>
			<trkpt lat="54.458610" lon="22.414480"><ele>136.2</ele><time>2026-05-21T20:58:38Z</time></trkpt>
			<trkpt lat="54.458780" lon="22.413150"><ele>135.2</ele><time>2026-05-21T20:58:46Z</time></trkpt>
			<trkpt lat="54.458800" lon="22.412250"><ele>134.5</ele><time>2026-05-21T20:58:54Z</time></trkpt>
			<trkpt lat="54.458800" lon="22.411400"><ele>133.9</ele><time>2026-05-21T20:59:02Z</time></trkpt>
			<trkpt lat="54.458750" lon="22.410130"><ele>133.0</ele><time>2026-05-21T20:59:11Z</time></trkpt>
			<trkpt lat="54.458490" lon="22.404880"><ele>131.2</ele><time>2026-05-21T20:59:19Z</time></trkpt>
			<trkpt lat="54.458480" lon="22.403930"><ele>130.9</ele><time>2026-05-21T20:59:27Z</time></trkpt>
			<trkpt lat="54.458750" lon="22.402470"><ele>130.5</ele><time>2026-05-21T20:59:35Z</time></trkpt>
			<trkpt lat="54.459650" lon="22.398580"><ele>129.4</ele><time>2026-05-21T20:59:43Z</time></trkpt>
			<trkpt lat="54.460280" lon="22.395670"><ele>128.7</ele><time>2026-05-21T20:59:52Z</time></trkpt>
			<trkpt lat="54.460450" lon="22.394650"><ele>128.5</ele><time>2026-05-21T21:00:00Z</time></trkpt>
			<trkpt lat="54.460700" lon="22.392100"><ele>127.9</ele><time>2026-05-21T21:00:08Z</time></trkpt>
			<trkpt lat="54.460950" lon="22.389760"><ele>127.1</ele><time>2026-05-21T21:00:16Z</time></trkpt>
			<trkpt lat="54.460910" lon="22.388630"><ele>126.7</ele><time>2026-05-21T21:00:24Z</time></trkpt>
			<trkpt lat="54.460710" lon="22.386620"><ele>125.9</ele><time>2026-05-21T21:00:32Z</time></trkpt>
			<trkpt lat="54.460510" lon="22.384980"><ele>125.3</ele><time>2026-05-21T21:00:41Z</time></trkpt>
			<trkpt lat="54.460310" lon="22.384040"><ele>125.0</ele><time>2026-05-21T21:00:49Z</time></trkpt>
			<trkpt lat="54.460160" lon="22.383350"><ele>124.7</ele><time>2026-05-21T21:00:57Z</time></trkpt>
			<trkpt lat="54.459800" lon="22.382060"><ele>123.6</ele><time>2026-05-21T21:01:05Z</time></trkpt>
			<trkpt lat="54.459590" lon="22.381520"><ele>122.9</ele><time>2026-05-21T21:01:13Z</time></trkpt>
			<trkpt lat="54.459150" lon="22.380410"><ele>121.4</ele><time>2026-05-21T21:01:22Z</time></trkpt>
			<trkpt lat="54.458540" lon="22.378790"><ele>119.3</ele><time>2026-05-21T21:01:30Z</time></trkpt>
			<trkpt lat="54.458270" lon="22.377410"><ele>117.8</ele><time>2026-05-21T21:01:38Z</time></trkpt>
			<trkpt lat="54.458040" lon="22.376110"><ele>116.3</ele><time>2026-05-21T21:01:46Z</time></trkpt>
			<trkpt lat="54.457830" lon="22.374310"><ele>114.6</ele><time>2026-05-21T21:01:54Z</time></trkpt>
			<trkpt lat="54.457700" lon="22.373130"><ele>115.0</ele><time>2026-05-21T21:02:03Z</time></trkpt>
			<trkpt lat="54.457670" lon="22.372350"><ele>115.3</ele><time>2026-05-21T21:02:11Z</time></trkpt>
			<trkpt lat="54.457620" lon="22.370950"><ele>115.9</ele><time>2026-05-21T21:02:19Z</time></trkpt>
			<trkpt lat="54.457730" lon="22.368260"><ele>116.9</ele><time>2026-05-21T21:02:27Z</time></trkpt>
			<trkpt lat="54.457750" lon="22.367340"><ele>117.3</ele><time>2026-05-21T21:02:35Z</time></trkpt>
			<trkpt lat="54.457760" lon="22.367070"><ele>117.4</ele><time>2026-05-21T21:02:43Z</time></trkpt>
			<trkpt lat="54.457770" lon="22.366760"><ele>117.5</ele><time>2026-05-21T21:02:52Z</time></trkpt>
			<trkpt lat="54.457670" lon="22.365910"><ele>117.8</ele><time>2026-05-21T21:03:00Z</time></trkpt>
			<trkpt lat="54.456020" lon="22.361270"><ele>118.2</ele><time>2026-05-21T21:03:08Z</time></trkpt>
			<trkpt lat="54.455340" lon="22.359070"><ele>118.2</ele><time>2026-05-21T21:03:16Z</time></trkpt>
			<trkpt lat="54.454120" lon="22.353870"><ele>117.4</ele><time>2026-05-21T21:03:24Z</time></trkpt>
			<trkpt lat="54.452310" lon="22.346060"><ele>115.1</ele><time>2026-05-21T21:03:33Z</time></trkpt>
			<trkpt lat="54.451550" lon="22.342780"><ele>113.7</ele><time>2026-05-21T21:03:41Z</time></trkpt>
			<trkpt lat="54.451420" lon="22.341820"><ele>113.3</ele><time>2026-05-21T21:03:49Z</time></trkpt>
			<trkpt lat="54.451430" lon="22.336130"><ele>105.1</ele><time>2026-05-21T21:03:57Z</time></trkpt>
			<trkpt lat="54.450600" lon="22.334720"><ele>101.0</ele><time>2026-05-21T21:04:05Z</time></trkpt>
			<trkpt lat="54.449720" lon="22.333460"><ele>97.0</ele><time>2026-05-21T21:04:14Z</time></trkpt>
			<trkpt lat="54.448940" lon="22.332250"><ele>93.6</ele><time>2026-05-21T21:04:22Z</time></trkpt>
			<trkpt lat="54.448380" lon="22.331230"><ele>93.5</ele><time>2026-05-21T21:04:30Z</time></trkpt>
			<trkpt lat="54.447960" lon="22.329830"><ele>93.4</ele><time>2026-05-21T21:04:38Z</time></trkpt>
			<trkpt lat="54.447900" lon="22.328970"><ele>93.3</ele><time>2026-05-21T21:04:46Z</time></trkpt>
			<trkpt lat="54.448220" lon="22.327900"><ele>93.2</ele><time>2026-05-21T21:04:55Z</time></trkpt>
			<trkpt lat="54.448910" lon="22.325810"><ele>93.0</ele><time>2026-05-21T21:05:03Z</time></trkpt>
			<trkpt lat="54.449190" lon="22.325450"><ele>93.0</ele><time>2026-05-21T21:05:11Z</time></trkpt>
			<trkpt lat="54.449720" lon="22.325100"><ele>92.9</ele><time>2026-05-21T21:05:19Z</time></trkpt>
			<trkpt lat="54.449950" lon="22.324710"><ele>93.4</ele><time>2026-05-21T21:05:27Z</time></trkpt>
			<trkpt lat="54.450010" lon="22.323800"><ele>94.5</ele><time>2026-05-21T21:05:35Z</time></trkpt>
			<trkpt lat="54.449900" lon="22.321570"><ele>97.2</ele><time>2026-05-21T21:05:44Z</time></trkpt>
			<trkpt lat="54.449760" lon="22.320750"><ele>98.3</ele><time>2026-05-21T21:05:52Z</time></trkpt>
			<trkpt lat="54.449740" lon="22.320610"><ele>98.4</ele><time>2026-05-21T21:06:00Z</time></trkpt>
			<trkpt lat="54.449310" lon="22.319810"><ele>99.8</ele><time>2026-05-21T21:06:08Z</time></trkpt>
			<trkpt lat="54.448970" lon="22.319130"><ele>100.9</ele><time>2026-05-21T21:06:16Z</time></trkpt>
			<trkpt lat="54.448650" lon="22.317530"><ele>102.9</ele><time>2026-05-21T21:06:25Z</time></trkpt>
			<trkpt lat="54.448230" lon="22.315110"><ele>103.4</ele><time>2026-05-21T21:06:33Z</time></trkpt>
			<trkpt lat="54.448170" lon="22.311010"><ele>101.5</ele><time>2026-05-21T21:06:41Z</time></trkpt>
			<trkpt lat="54.448280" lon="22.310270"><ele>101.1</ele><time>2026-05-21T21:06:49Z</time></trkpt>
			<trkpt lat="54.449100" lon="22.307680"><ele>99.8</ele><time>2026-05-21T21:06:57Z</time></trkpt>
			<trkpt lat="54.449180" lon="22.306970"><ele>99.4</ele><time>2026-05-21T21:07:06Z</time></trkpt>
			<trkpt lat="54.449270" lon="22.306330"><ele>99.1</ele><time>2026-05-21T21:07:14Z</time></trkpt>
			<trkpt lat="54.449260" lon="22.304540"><ele>98.2</ele><time>2026-05-21T21:07:22Z</time></trkpt>
			<trkpt lat="54.449110" lon="22.303060"><ele>97.4</ele><time>2026-05-21T21:07:30Z</time></trkpt>
			<trkpt lat="54.448920" lon="22.301570"><ele>96.7</ele><time>2026-05-21T21:07:38Z</time></trkpt>
			<trkpt lat="54.448680" lon="22.300390"><ele>96.0</ele><time>2026-05-21T21:07:46Z</time></trkpt>
			<trkpt lat="54.448570" lon="22.299480"><ele>95.6</ele><time>2026-05-21T21:07:55Z</time></trkpt>
			<trkpt lat="54.448650" lon="22.299040"><ele>95.3</ele><time>2026-05-21T21:08:03Z</time></trkpt>
			<trkpt lat="54.449210" lon="22.297690"><ele>94.9</ele><time>2026-05-21T21:08:11Z</time></trkpt>
			<trkpt lat="54.449160" lon="22.297030"><ele>94.7</ele><time>2026-05-21T21:08:19Z</time></trkpt>
			<trkpt lat="54.449110" lon="22.296240"><ele>94.6</ele><time>2026-05-21T21:08:27Z</time></trkpt>
			<trkpt lat="54.448940" lon="22.295110"><ele>94.3</ele><time>2026-05-21T21:08:36Z</time></trkpt>
			<trkpt lat="54.448820" lon="22.295010"><ele>94.3</ele><time>2026-05-21T21:08:44Z</time></trkpt>
			<trkpt lat="54.445940" lon="22.292500"><ele>93.4</ele><time>2026-05-21T21:08:52Z</time></trkpt>
			<trkpt lat="54.445540" lon="22.292200"><ele>94.0</ele><time>2026-05-21T21:09:00Z</time></trkpt>
			<trkpt lat="54.445230" lon="22.292050"><ele>94.3</ele><time>2026-05-21T21:09:08Z</time></trkpt>
			<trkpt lat="54.443070" lon="22.291750"><ele>96.9</ele><time>2026-05-21T21:09:17Z</time></trkpt>
			<trkpt lat="54.442640" lon="22.291700"><ele>97.4</ele><time>2026-05-21T21:09:25Z</time></trkpt>
			<trkpt lat="54.441410" lon="22.291990"><ele>98.9</ele><time>2026-05-21T21:09:33Z</time></trkpt>
			<trkpt lat="54.440720" lon="22.292190"><ele>99.7</ele><time>2026-05-21T21:09:41Z</time></trkpt>
			<trkpt lat="54.440330" lon="22.292370"><ele>100.1</ele><time>2026-05-21T21:09:49Z</time></trkpt>
			<trkpt lat="54.434720" lon="22.296920"><ele>107.1</ele><time>2026-05-21T21:09:58Z</time></trkpt>
			<trkpt lat="54.434720" lon="22.296920"><ele>107.1</ele><time>2026-05-21T21:10:01Z</time></trkpt>
			<trkpt lat="54.432530" lon="22.298690"><ele>110.7</ele><time>2026-05-21T21:10:05Z</time></trkpt>
			<trkpt lat="54.428140" lon="22.302240"><ele>117.5</ele><time>2026-05-21T21:10:09Z</time></trkpt>
			<trkpt lat="54.426190" lon="22.303830"><ele>120.5</ele><time>2026-05-21T21:10:13Z</time></trkpt>
			<trkpt lat="54.423360" lon="22.306140"><ele>110.0</ele><time>2026-05-21T21:10:16Z</time></trkpt>
			<trkpt lat="54.421480" lon="22.307690"><ele>103.0</ele><time>2026-05-21T21:10:20Z</time></trkpt>
			<trkpt lat="54.420650" lon="22.308430"><ele>102.6</ele><time>2026-05-21T21:10:24Z</time></trkpt>
			<trkpt lat="54.420220" lon="22.308700"><ele>102.8</ele><time>2026-05-21T21:10:28Z</time></trkpt>
			<trkpt lat="54.419800" lon="22.308800"><ele>103.0</ele><time>2026-05-21T21:10:31Z</time></trkpt>
			<trkpt lat="54.418530" lon="22.308960"><ele>103.5</ele><time>2026-05-21T21:10:35Z</time></trkpt>
			<trkpt lat="54.418000" lon="22.309010"><ele>103.7</ele><time>2026-05-21T21:10:39Z</time></trkpt>
			<trkpt lat="54.416230" lon="22.309220"><ele>104.4</ele><time>2026-05-21T21:10:43Z</time></trkpt>
			<trkpt lat="54.416150" lon="22.309220"><ele>104.4</ele><time>2026-05-21T21:10:47Z</time></trkpt>
			<trkpt lat="54.416030" lon="22.309200"><ele>104.5</ele><time>2026-05-21T21:10:50Z</time></trkpt>
			<trkpt lat="54.415950" lon="22.309190"><ele>104.4</ele><time>2026-05-21T21:10:54Z</time></trkpt>
			<trkpt lat="54.415540" lon="22.309040"><ele>104.2</ele><time>2026-05-21T21:10:58Z</time></trkpt>
			<trkpt lat="54.415190" lon="22.308930"><ele>104.0</ele><time>2026-05-21T21:11:02Z</time></trkpt>
			<trkpt lat="54.415000" lon="22.308900"><ele>103.9</ele><time>2026-05-21T21:11:05Z</time></trkpt>
			<trkpt lat="54.414880" lon="22.308910"><ele>103.8</ele><time>2026-05-21T21:11:09Z</time></trkpt>
			<trkpt lat="54.414740" lon="22.308950"><ele>103.7</ele><time>2026-05-21T21:11:13Z</time></trkpt>
			<trkpt lat="54.414580" lon="22.309130"><ele>103.6</ele><time>2026-05-21T21:11:17Z</time></trkpt>
			<trkpt lat="54.414530" lon="22.309240"><ele>103.6</ele><time>2026-05-21T21:11:21Z</time></trkpt>
			<trkpt lat="54.414320" lon="22.309780"><ele>103.4</ele><time>2026-05-21T21:11:24Z</time></trkpt>
			<trkpt lat="54.413960" lon="22.311150"><ele>102.9</ele><time>2026-05-21T21:11:28Z</time></trkpt>
			<trkpt lat="54.413850" lon="22.311590"><ele>102.7</ele><time>2026-05-21T21:11:32Z</time></trkpt>
			<trkpt lat="54.413790" lon="22.311770"><ele>102.7</ele><time>2026-05-21T21:11:36Z</time></trkpt>
			<trkpt lat="54.413290" lon="22.313670"><ele>102.0</ele><time>2026-05-21T21:11:39Z</time></trkpt>
			<trkpt lat="54.412330" lon="22.317230"><ele>104.3</ele><time>2026-05-21T21:11:43Z</time></trkpt>
			<trkpt lat="54.412080" lon="22.318120"><ele>105.5</ele><time>2026-05-21T21:11:47Z</time></trkpt>
			<trkpt lat="54.411810" lon="22.318800"><ele>106.6</ele><time>2026-05-21T21:11:51Z</time></trkpt>
			<trkpt lat="54.410900" lon="22.320600"><ele>109.5</ele><time>2026-05-21T21:11:55Z</time></trkpt>
			<trkpt lat="54.410810" lon="22.320780"><ele>109.8</ele><time>2026-05-21T21:11:58Z</time></trkpt>
			<trkpt lat="54.410170" lon="22.322080"><ele>111.9</ele><time>2026-05-21T21:12:02Z</time></trkpt>
			<trkpt lat="54.409930" lon="22.322610"><ele>112.7</ele><time>2026-05-21T21:12:06Z</time></trkpt>
			<trkpt lat="54.409760" lon="22.323270"><ele>113.0</ele><time>2026-05-21T21:12:10Z</time></trkpt>
			<trkpt lat="54.409710" lon="22.323860"><ele>113.0</ele><time>2026-05-21T21:12:13Z</time></trkpt>
			<trkpt lat="54.409720" lon="22.324360"><ele>113.0</ele><time>2026-05-21T21:12:17Z</time></trkpt>
			<trkpt lat="54.409830" lon="22.325020"><ele>113.0</ele><time>2026-05-21T21:12:21Z</time></trkpt>
			<trkpt lat="54.409860" lon="22.325430"><ele>113.0</ele><time>2026-05-21T21:12:25Z</time></trkpt>
			<trkpt lat="54.409860" lon="22.325520"><ele>113.0</ele><time>2026-05-21T21:12:28Z</time></trkpt>
			<trkpt lat="54.409860" lon="22.325680"><ele>113.0</ele><time>2026-05-21T21:12:32Z</time></trkpt>
			<trkpt lat="54.409870" lon="22.325750"><ele>113.0</ele><time>2026-05-21T21:12:36Z</time></trkpt>
			<trkpt lat="54.409770" lon="22.325940"><ele>113.0</ele><time>2026-05-21T21:12:40Z</time></trkpt>
			<trkpt lat="54.409100" lon="22.326680"><ele>113.0</ele><time>2026-05-21T21:12:44Z</time></trkpt>
			<trkpt lat="54.408260" lon="22.327800"><ele>113.1</ele><time>2026-05-21T21:12:47Z</time></trkpt>
			<trkpt lat="54.406720" lon="22.329800"><ele>113.7</ele><time>2026-05-21T21:12:51Z</time></trkpt>
			<trkpt lat="54.404620" lon="22.331570"><ele>117.8</ele><time>2026-05-21T21:12:55Z</time></trkpt>
			<trkpt lat="54.402500" lon="22.333310"><ele>121.8</ele><time>2026-05-21T21:12:59Z</time></trkpt>
			<trkpt lat="54.401550" lon="22.334080"><ele>122.0</ele><time>2026-05-21T21:13:02Z</time></trkpt>
			<trkpt lat="54.401130" lon="22.334440"><ele>121.6</ele><time>2026-05-21T21:13:06Z</time></trkpt>
			<trkpt lat="54.400370" lon="22.335140"><ele>121.0</ele><time>2026-05-21T21:13:10Z</time></trkpt>
			<trkpt lat="54.400150" lon="22.335340"><ele>120.8</ele><time>2026-05-21T21:13:14Z</time></trkpt>
			<trkpt lat="54.399170" lon="22.336050"><ele>120.1</ele><time>2026-05-21T21:13:18Z</time></trkpt>
			<trkpt lat="54.398550" lon="22.336380"><ele>119.6</ele><time>2026-05-21T21:13:21Z</time></trkpt>
			<trkpt lat="54.397930" lon="22.336680"><ele>119.2</ele><time>2026-05-21T21:13:25Z</time></trkpt>
			<trkpt lat="54.397530" lon="22.336790"><ele>118.9</ele><time>2026-05-21T21:13:29Z</time></trkpt>
			<trkpt lat="54.397080" lon="22.336870"><ele>119.0</ele><time>2026-05-21T21:13:33Z</time></trkpt>
			<trkpt lat="54.396230" lon="22.336980"><ele>123.5</ele><time>2026-05-21T21:13:36Z</time></trkpt>
			<trkpt lat="54.393970" lon="22.337160"><ele>135.5</ele><time>2026-05-21T21:13:40Z</time></trkpt>
			<trkpt lat="54.392820" lon="22.337210"><ele>141.6</ele><time>2026-05-21T21:13:44Z</time></trkpt>
			<trkpt lat="54.391690" lon="22.337400"><ele>147.3</ele><time>2026-05-21T21:13:48Z</time></trkpt>
			<trkpt lat="54.389830" lon="22.337550"><ele>150.0</ele><time>2026-05-21T21:13:52Z</time></trkpt>
			<trkpt lat="54.388140" lon="22.337720"><ele>152.4</ele><time>2026-05-21T21:13:55Z</time></trkpt>
			<trkpt lat="54.387680" lon="22.337750"><ele>153.1</ele><time>2026-05-21T21:13:59Z</time></trkpt>
			<trkpt lat="54.387250" lon="22.337720"><ele>153.7</ele><time>2026-05-21T21:14:03Z</time></trkpt>
			<trkpt lat="54.385690" lon="22.337540"><ele>154.7</ele><time>2026-05-21T21:14:07Z</time></trkpt>
			<trkpt lat="54.384750" lon="22.337340"><ele>154.5</ele><time>2026-05-21T21:14:10Z</time></trkpt>
			<trkpt lat="54.384250" lon="22.337190"><ele>154.3</ele><time>2026-05-21T21:14:14Z</time></trkpt>
			<trkpt lat="54.383290" lon="22.336820"><ele>154.1</ele><time>2026-05-21T21:14:18Z</time></trkpt>
			<trkpt lat="54.382250" lon="22.336310"><ele>153.8</ele><time>2026-05-21T21:14:22Z</time></trkpt>
			<trkpt lat="54.381710" lon="22.336010"><ele>153.6</ele><time>2026-05-21T21:14:26Z</time></trkpt>
			<trkpt lat="54.380740" lon="22.335380"><ele>154.8</ele><time>2026-05-21T21:14:29Z</time></trkpt>
			<trkpt lat="54.380250" lon="22.335040"><ele>156.4</ele><time>2026-05-21T21:14:33Z</time></trkpt>
			<trkpt lat="54.379660" lon="22.334570"><ele>158.4</ele><time>2026-05-21T21:14:37Z</time></trkpt>
			<trkpt lat="54.379320" lon="22.334260"><ele>159.6</ele><time>2026-05-21T21:14:41Z</time></trkpt>
			<trkpt lat="54.377980" lon="22.332940"><ele>164.3</ele><time>2026-05-21T21:14:44Z</time></trkpt>
			<trkpt lat="54.377760" lon="22.332700"><ele>165.2</ele><time>2026-05-21T21:14:48Z</time></trkpt>
			<trkpt lat="54.376940" lon="22.331680"><ele>168.3</ele><time>2026-05-21T21:14:52Z</time></trkpt>
			<trkpt lat="54.376430" lon="22.330980"><ele>170.2</ele><time>2026-05-21T21:14:56Z</time></trkpt>
			<trkpt lat="54.375680" lon="22.329880"><ele>171.5</ele><time>2026-05-21T21:14:59Z</time></trkpt>
			<trkpt lat="54.375210" lon="22.329130"><ele>172.3</ele><time>2026-05-21T21:15:03Z</time></trkpt>
			<trkpt lat="54.374920" lon="22.328640"><ele>172.9</ele><time>2026-05-21T21:15:07Z</time></trkpt>
			<trkpt lat="54.374610" lon="22.328100"><ele>173.4</ele><time>2026-05-21T21:15:11Z</time></trkpt>
			<trkpt lat="54.374300" lon="22.327530"><ele>174.0</ele><time>2026-05-21T21:15:15Z</time></trkpt>
			<trkpt lat="54.373100" lon="22.325220"><ele>176.4</ele><time>2026-05-21T21:15:18Z</time></trkpt>
			<trkpt lat="54.372650" lon="22.324410"><ele>177.2</ele><time>2026-05-21T21:15:22Z</time></trkpt>
			<trkpt lat="54.371740" lon="22.322850"><ele>177.5</ele><time>2026-05-21T21:15:26Z</time></trkpt>
			<trkpt lat="54.371120" lon="22.321870"><ele>177.6</ele><time>2026-05-21T21:15:30Z</time></trkpt>
			<trkpt lat="54.370630" lon="22.321160"><ele>177.7</ele><time>2026-05-21T21:15:33Z</time></trkpt>
			<trkpt lat="54.368200" lon="22.317780"><ele>178.4</ele><time>2026-05-21T21:15:37Z</time></trkpt>
			<trkpt lat="54.367800" lon="22.317320"><ele>178.6</ele><time>2026-05-21T21:15:41Z</time></trkpt>
			<trkpt lat="54.367460" lon="22.316970"><ele>178.7</ele><time>2026-05-21T21:15:45Z</time></trkpt>
			<trkpt lat="54.367340" lon="22.316870"><ele>178.7</ele><time>2026-05-21T21:15:49Z</time></trkpt>
			<trkpt lat="54.366900" lon="22.316520"><ele>178.9</ele><time>2026-05-21T21:15:52Z</time></trkpt>
			<trkpt lat="54.366560" lon="22.316280"><ele>179.0</ele><time>2026-05-21T21:15:56Z</time></trkpt>
			<trkpt lat="54.366230" lon="22.316100"><ele>179.2</ele><time>2026-05-21T21:16:00Z</time></trkpt>
			<trkpt lat="54.366000" lon="22.315980"><ele>179.2</ele><time>2026-05-21T21:16:04Z</time></trkpt>
			<trkpt lat="54.365310" lon="22.315730"><ele>179.5</ele><time>2026-05-21T21:16:07Z</time></trkpt>
			<trkpt lat="54.364440" lon="22.315440"><ele>179.8</ele><time>2026-05-21T21:16:11Z</time></trkpt>
			<trkpt lat="54.364090" lon="22.315300"><ele>179.9</ele><time>2026-05-21T21:16:15Z</time></trkpt>
			<trkpt lat="54.363320" lon="22.314920"><ele>179.9</ele><time>2026-05-21T21:16:19Z</time></trkpt>
			<trkpt lat="54.363080" lon="22.314770"><ele>179.7</ele><time>2026-05-21T21:16:23Z</time></trkpt>
			<trkpt lat="54.362640" lon="22.314450"><ele>179.5</ele><time>2026-05-21T21:16:26Z</time></trkpt>
			<trkpt lat="54.362120" lon="22.314020"><ele>179.2</ele><time>2026-05-21T21:16:30Z</time></trkpt>
			<trkpt lat="54.361150" lon="22.313140"><ele>178.6</ele><time>2026-05-21T21:16:34Z</time></trkpt>
			<trkpt lat="54.360530" lon="22.312650"><ele>178.2</ele><time>2026-05-21T21:16:38Z</time></trkpt>
			<trkpt lat="54.359940" lon="22.312300"><ele>177.9</ele><time>2026-05-21T21:16:41Z</time></trkpt>
			<trkpt lat="54.359610" lon="22.312140"><ele>177.7</ele><time>2026-05-21T21:16:45Z</time></trkpt>
			<trkpt lat="54.359110" lon="22.311960"><ele>177.4</ele><time>2026-05-21T21:16:49Z</time></trkpt>
			<trkpt lat="54.358340" lon="22.311810"><ele>176.6</ele><time>2026-05-21T21:16:53Z</time></trkpt>
			<trkpt lat="54.357330" lon="22.311650"><ele>174.7</ele><time>2026-05-21T21:16:56Z</time></trkpt>
			<trkpt lat="54.354730" lon="22.311280"><ele>169.9</ele><time>2026-05-21T21:17:00Z</time></trkpt>
			<trkpt lat="54.354040" lon="22.311150"><ele>168.6</ele><time>2026-05-21T21:17:04Z</time></trkpt>
			<trkpt lat="54.353570" lon="22.311020"><ele>167.7</ele><time>2026-05-21T21:17:08Z</time></trkpt>
			<trkpt lat="54.353230" lon="22.310870"><ele>167.1</ele><time>2026-05-21T21:17:12Z</time></trkpt>
			<trkpt lat="54.352880" lon="22.310670"><ele>166.2</ele><time>2026-05-21T21:17:15Z</time></trkpt>
			<trkpt lat="54.352480" lon="22.310370"><ele>165.3</ele><time>2026-05-21T21:17:19Z</time></trkpt>
			<trkpt lat="54.352020" lon="22.309950"><ele>164.1</ele><time>2026-05-21T21:17:23Z</time></trkpt>
			<trkpt lat="54.351490" lon="22.309390"><ele>162.8</ele><time>2026-05-21T21:17:27Z</time></trkpt>
			<trkpt lat="54.351050" lon="22.308830"><ele>161.6</ele><time>2026-05-21T21:17:30Z</time></trkpt>
			<trkpt lat="54.350350" lon="22.307740"><ele>159.5</ele><time>2026-05-21T21:17:34Z</time></trkpt>
			<trkpt lat="54.349280" lon="22.305900"><ele>156.1</ele><time>2026-05-21T21:17:38Z</time></trkpt>
			<trkpt lat="54.348940" lon="22.305260"><ele>155.8</ele><time>2026-05-21T21:17:42Z</time></trkpt>
			<trkpt lat="54.348700" lon="22.304720"><ele>157.4</ele><time>2026-05-21T21:17:46Z</time></trkpt>
			<trkpt lat="54.348430" lon="22.303960"><ele>159.5</ele><time>2026-05-21T21:17:49Z</time></trkpt>
			<trkpt lat="54.348260" lon="22.303410"><ele>161.0</ele><time>2026-05-21T21:17:53Z</time></trkpt>
			<trkpt lat="54.347660" lon="22.301230"><ele>166.6</ele><time>2026-05-21T21:17:57Z</time></trkpt>
			<trkpt lat="54.347380" lon="22.300140"><ele>169.4</ele><time>2026-05-21T21:18:01Z</time></trkpt>
			<trkpt lat="54.347110" lon="22.299280"><ele>171.7</ele><time>2026-05-21T21:18:04Z</time></trkpt>
			<trkpt lat="54.347060" lon="22.299180"><ele>172.0</ele><time>2026-05-21T21:18:08Z</time></trkpt>
			<trkpt lat="54.346920" lon="22.298790"><ele>173.1</ele><time>2026-05-21T21:18:12Z</time></trkpt>
			<trkpt lat="54.346940" lon="22.298740"><ele>173.2</ele><time>2026-05-21T21:18:16Z</time></trkpt>
			<trkpt lat="54.346950" lon="22.298690"><ele>173.4</ele><time>2026-05-21T21:18:20Z</time></trkpt>
			<trkpt lat="54.346940" lon="22.298640"><ele>173.5</ele><time>2026-05-21T21:18:23Z</time></trkpt>
			<trkpt lat="54.346920" lon="22.298600"><ele>173.6</ele><time>2026-05-21T21:18:27Z</time></trkpt>
			<trkpt lat="54.346980" lon="22.298520"><ele>173.9</ele><time>2026-05-21T21:18:31Z</time></trkpt>
			<trkpt lat="54.347190" lon="22.298320"><ele>174.9</ele><time>2026-05-21T21:18:35Z</time></trkpt>
			<trkpt lat="54.347270" lon="22.298220"><ele>175.3</ele><time>2026-05-21T21:18:38Z</time></trkpt>
			<trkpt lat="54.347370" lon="22.298150"><ele>175.7</ele><time>2026-05-21T21:18:42Z</time></trkpt>
			<trkpt lat="54.347500" lon="22.298060"><ele>176.3</ele><time>2026-05-21T21:18:46Z</time></trkpt>
			<trkpt lat="54.347600" lon="22.298020"><ele>176.7</ele><time>2026-05-21T21:18:50Z</time></trkpt>
			<trkpt lat="54.347710" lon="22.297970"><ele>177.1</ele><time>2026-05-21T21:18:54Z</time></trkpt>
			<trkpt lat="54.347940" lon="22.297920"><ele>177.4</ele><time>2026-05-21T21:18:57Z</time></trkpt>
			<trkpt lat="54.347940" lon="22.297920"><ele>177.4</ele><time>2026-05-21T21:19:02Z</time></trkpt>
			<trkpt lat="54.348360" lon="22.297920"><ele>178.0</ele><time>2026-05-21T21:19:07Z</time></trkpt>
			<trkpt lat="54.349130" lon="22.297810"><ele>179.1</ele><time>2026-05-21T21:19:12Z</time></trkpt>
			<trkpt lat="54.349890" lon="22.297120"><ele>180.4</ele><time>2026-05-21T21:19:17Z</time></trkpt>
			<trkpt lat="54.350380" lon="22.296370"><ele>181.3</ele><time>2026-05-21T21:19:21Z</time></trkpt>
			<trkpt lat="54.350950" lon="22.296040"><ele>182.2</ele><time>2026-05-21T21:19:26Z</time></trkpt>
			<trkpt lat="54.352400" lon="22.296060"><ele>184.3</ele><time>2026-05-21T21:19:31Z</time></trkpt>
			<trkpt lat="54.352860" lon="22.295810"><ele>184.7</ele><time>2026-05-21T21:19:36Z</time></trkpt>
			<trkpt lat="54.354110" lon="22.294640"><ele>183.9</ele><time>2026-05-21T21:19:41Z</time></trkpt>
			<trkpt lat="54.355050" lon="22.294170"><ele>183.3</ele><time>2026-05-21T21:19:46Z</time></trkpt>
			<trkpt lat="54.356100" lon="22.293100"><ele>182.5</ele><time>2026-05-21T21:19:50Z</time></trkpt>
			<trkpt lat="54.357560" lon="22.290480"><ele>179.0</ele><time>2026-05-21T21:19:55Z</time></trkpt>
			<trkpt lat="54.358770" lon="22.288710"><ele>170.2</ele><time>2026-05-21T21:20:00Z</time></trkpt>
			<trkpt lat="54.359680" lon="22.287300"><ele>163.4</ele><time>2026-05-21T21:20:05Z</time></trkpt>
			<trkpt lat="54.359980" lon="22.286330"><ele>159.8</ele><time>2026-05-21T21:20:10Z</time></trkpt>
			<trkpt lat="54.360040" lon="22.286140"><ele>159.1</ele><time>2026-05-21T21:20:15Z</time></trkpt>
			<trkpt lat="54.360410" lon="22.284910"><ele>154.6</ele><time>2026-05-21T21:20:19Z</time></trkpt>
			<trkpt lat="54.360620" lon="22.284490"><ele>152.9</ele><time>2026-05-21T21:20:24Z</time></trkpt>
			<trkpt lat="54.360880" lon="22.284170"><ele>151.3</ele><time>2026-05-21T21:20:29Z</time></trkpt>
			<trkpt lat="54.361130" lon="22.283870"><ele>150.4</ele><time>2026-05-21T21:20:34Z</time></trkpt>
			<trkpt lat="54.361550" lon="22.283620"><ele>149.0</ele><time>2026-05-21T21:20:39Z</time></trkpt>
			<trkpt lat="54.362080" lon="22.283250"><ele>147.2</ele><time>2026-05-21T21:20:44Z</time></trkpt>
			<trkpt lat="54.363400" lon="22.282340"><ele>142.9</ele><time>2026-05-21T21:20:48Z</time></trkpt>
			<trkpt lat="54.363830" lon="22.281940"><ele>141.4</ele><time>2026-05-21T21:20:53Z</time></trkpt>
			<trkpt lat="54.364040" lon="22.281640"><ele>140.5</ele><time>2026-05-21T21:20:58Z</time></trkpt>
			<trkpt lat="54.364680" lon="22.280830"><ele>138.1</ele><time>2026-05-21T21:21:03Z</time></trkpt>
			<trkpt lat="54.364860" lon="22.280580"><ele>137.4</ele><time>2026-05-21T21:21:08Z</time></trkpt>
			<trkpt lat="54.364880" lon="22.280540"><ele>137.3</ele><time>2026-05-21T21:21:13Z</time></trkpt>
			<trkpt lat="54.364930" lon="22.280400"><ele>137.0</ele><time>2026-05-21T21:21:17Z</time></trkpt>
			<trkpt lat="54.364980" lon="22.280280"><ele>136.7</ele><time>2026-05-21T21:21:22Z</time></trkpt>
			<trkpt lat="54.365010" lon="22.280000"><ele>136.2</ele><time>2026-05-21T21:21:27Z</time></trkpt>
			<trkpt lat="54.365000" lon="22.279510"><ele>135.3</ele><time>2026-05-21T21:21:32Z</time></trkpt>
			<trkpt lat="54.364980" lon="22.279100"><ele>135.3</ele><time>2026-05-21T21:21:37Z</time></trkpt>
			<trkpt lat="54.364960" lon="22.278570"><ele>136.1</ele><time>2026-05-21T21:21:42Z</time></trkpt>
			<trkpt lat="54.364960" lon="22.278170"><ele>136.8</ele><time>2026-05-21T21:21:46Z</time></trkpt>
			<trkpt lat="54.365000" lon="22.277730"><ele>137.4</ele><time>2026-05-21T21:21:51Z</time></trkpt>
			<trkpt lat="54.365030" lon="22.277470"><ele>137.9</ele><time>2026-05-21T21:21:56Z</time></trkpt>
			<trkpt lat="54.365310" lon="22.275870"><ele>140.4</ele><time>2026-05-21T21:22:01Z</time></trkpt>
			<trkpt lat="54.365590" lon="22.274530"><ele>142.6</ele><time>2026-05-21T21:22:06Z</time></trkpt>
			<trkpt lat="54.365750" lon="22.273900"><ele>143.7</ele><time>2026-05-21T21:22:11Z</time></trkpt>
			<trkpt lat="54.366000" lon="22.273050"><ele>145.1</ele><time>2026-05-21T21:22:15Z</time></trkpt>
			<trkpt lat="54.366170" lon="22.272450"><ele>146.2</ele><time>2026-05-21T21:22:20Z</time></trkpt>
			<trkpt lat="54.366240" lon="22.272250"><ele>146.5</ele><time>2026-05-21T21:22:25Z</time></trkpt>
			<trkpt lat="54.366350" lon="22.272070"><ele>146.9</ele><time>2026-05-21T21:22:30Z</time></trkpt>
			<trkpt lat="54.368180" lon="22.269860"><ele>146.4</ele><time>2026-05-21T21:22:35Z</time></trkpt>
			<trkpt lat="54.368370" lon="22.269690"><ele>146.0</ele><time>2026-05-21T21:22:40Z</time></trkpt>
			<trkpt lat="54.368790" lon="22.269390"><ele>145.0</ele><time>2026-05-21T21:22:44Z</time></trkpt>
			<trkpt lat="54.369260" lon="22.269130"><ele>144.0</ele><time>2026-05-21T21:22:49Z</time></trkpt>
			<trkpt lat="54.370750" lon="22.268220"><ele>140.7</ele><time>2026-05-21T21:22:54Z</time></trkpt>
			<trkpt lat="54.370910" lon="22.268070"><ele>140.3</ele><time>2026-05-21T21:22:59Z</time></trkpt>
			<trkpt lat="54.371030" lon="22.267920"><ele>140.0</ele><time>2026-05-21T21:23:04Z</time></trkpt>
			<trkpt lat="54.371190" lon="22.267630"><ele>139.5</ele><time>2026-05-21T21:23:09Z</time></trkpt>
			<trkpt lat="54.372330" lon="22.265250"><ele>137.5</ele><time>2026-05-21T21:23:13Z</time></trkpt>
			<trkpt lat="54.377220" lon="22.257090"><ele>127.7</ele><time>2026-05-21T21:23:18Z</time></trkpt>
			<trkpt lat="54.378140" lon="22.255530"><ele>123.5</ele><time>2026-05-21T21:23:23Z</time></trkpt>
			<trkpt lat="54.379260" lon="22.253660"><ele>118.5</ele><time>2026-05-21T21:23:28Z</time></trkpt>
			<trkpt lat="54.379350" lon="22.253510"><ele>118.2</ele><time>2026-05-21T21:23:33Z</time></trkpt>
			<trkpt lat="54.379480" lon="22.253380"><ele>117.9</ele><time>2026-05-21T21:23:38Z</time></trkpt>
			<trkpt lat="54.379670" lon="22.253280"><ele>117.6</ele><time>2026-05-21T21:23:42Z</time></trkpt>
			<trkpt lat="54.380080" lon="22.253130"><ele>116.9</ele><time>2026-05-21T21:23:47Z</time></trkpt>
			<trkpt lat="54.380270" lon="22.253100"><ele>116.6</ele><time>2026-05-21T21:23:52Z</time></trkpt>
			<trkpt lat="54.380480" lon="22.253120"><ele>116.2</ele><time>2026-05-21T21:23:57Z</time></trkpt>
			<trkpt lat="54.380940" lon="22.253390"><ele>115.4</ele><time>2026-05-21T21:24:02Z</time></trkpt>
			<trkpt lat="54.381110" lon="22.253530"><ele>115.1</ele><time>2026-05-21T21:24:06Z</time></trkpt>
			<trkpt lat="54.381250" lon="22.253690"><ele>114.8</ele><time>2026-05-21T21:24:11Z</time></trkpt>
			<trkpt lat="54.381370" lon="22.253790"><ele>114.6</ele><time>2026-05-21T21:24:16Z</time></trkpt>
			<trkpt lat="54.381540" lon="22.253900"><ele>114.3</ele><time>2026-05-21T21:24:21Z</time></trkpt>
			<trkpt lat="54.381730" lon="22.253980"><ele>113.9</ele><time>2026-05-21T21:24:26Z</time></trkpt>
			<trkpt lat="54.381950" lon="22.254020"><ele>113.6</ele><time>2026-05-21T21:24:31Z</time></trkpt>
			<trkpt lat="54.382240" lon="22.254010"><ele>113.1</ele><time>2026-05-21T21:24:35Z</time></trkpt>
			<trkpt lat="54.382910" lon="22.253880"><ele>111.9</ele><time>2026-05-21T21:24:40Z</time></trkpt>
			<trkpt lat="54.383090" lon="22.253900"><ele>111.6</ele><time>2026-05-21T21:24:45Z</time></trkpt>
			<trkpt lat="54.383250" lon="22.253940"><ele>111.3</ele><time>2026-05-21T21:24:50Z</time></trkpt>
			<trkpt lat="54.383450" lon="22.254020"><ele>111.0</ele><time>2026-05-21T21:24:55Z</time></trkpt>
			<trkpt lat="54.383650" lon="22.254150"><ele>110.6</ele><time>2026-05-21T21:25:00Z</time></trkpt>
			<trkpt lat="54.383820" lon="22.254320"><ele>110.3</ele><time>2026-05-21T21:25:04Z</time></trkpt>
			<trkpt lat="54.384060" lon="22.254630"><ele>109.8</ele><time>2026-05-21T21:25:09Z</time></trkpt>
			<trkpt lat="54.384890" lon="22.255940"><ele>108.5</ele><time>2026-05-21T21:25:14Z</time></trkpt>
			<trkpt lat="54.385570" lon="22.256790"><ele>107.8</ele><time>2026-05-21T21:25:19Z</time></trkpt>
			<trkpt lat="54.385730" lon="22.256900"><ele>107.7</ele><time>2026-05-21T21:25:24Z</time></trkpt>
			<trkpt lat="54.387760" lon="22.257720"><ele>105.8</ele><time>2026-05-21T21:25:29Z</time></trkpt>
			<trkpt lat="54.387920" lon="22.257740"><ele>105.7</ele><time>2026-05-21T21:25:33Z</time></trkpt>
			<trkpt lat="54.388080" lon="22.257710"><ele>105.6</ele><time>2026-05-21T21:25:38Z</time></trkpt>
			<trkpt lat="54.388210" lon="22.257630"><ele>105.4</ele><time>2026-05-21T21:25:43Z</time></trkpt>
			<trkpt lat="54.388340" lon="22.257500"><ele>105.3</ele><time>2026-05-21T21:25:48Z</time></trkpt>
			<trkpt lat="54.388450" lon="22.257300"><ele>105.2</ele><time>2026-05-21T21:25:53Z</time></trkpt>
			<trkpt lat="54.388530" lon="22.257130"><ele>105.1</ele><time>2026-05-21T21:25:58Z</time></trkpt>
			<trkpt lat="54.388620" lon="22.256900"><ele>104.9</ele><time>2026-05-21T21:26:02Z</time></trkpt>
			<trkpt lat="54.389810" lon="22.253420"><ele>105.7</ele><time>2026-05-21T21:26:07Z</time></trkpt>
			<trkpt lat="54.391510" lon="22.249590"><ele>107.3</ele><time>2026-05-21T21:26:12Z</time></trkpt>
			<trkpt lat="54.391670" lon="22.249090"><ele>107.5</ele><time>2026-05-21T21:26:17Z</time></trkpt>
			<trkpt lat="54.391880" lon="22.248290"><ele>107.7</ele><time>2026-05-21T21:26:22Z</time></trkpt>
			<trkpt lat="54.392390" lon="22.246360"><ele>107.2</ele><time>2026-05-21T21:26:27Z</time></trkpt>
			<trkpt lat="54.392470" lon="22.246120"><ele>107.1</ele><time>2026-05-21T21:26:31Z</time></trkpt>
			<trkpt lat="54.392550" lon="22.245930"><ele>107.1</ele><time>2026-05-21T21:26:36Z</time></trkpt>
			<trkpt lat="54.392640" lon="22.245780"><ele>107.0</ele><time>2026-05-21T21:26:41Z</time></trkpt>
			<trkpt lat="54.392820" lon="22.245550"><ele>106.9</ele><time>2026-05-21T21:26:46Z</time></trkpt>
			<trkpt lat="54.394240" lon="22.243920"><ele>106.2</ele><time>2026-05-21T21:26:51Z</time></trkpt>
			<trkpt lat="54.394450" lon="22.243650"><ele>106.1</ele><time>2026-05-21T21:26:56Z</time></trkpt>
			<trkpt lat="54.395080" lon="22.242900"><ele>105.8</ele><time>2026-05-21T21:27:00Z</time></trkpt>
			<trkpt lat="54.395340" lon="22.242700"><ele>105.6</ele><time>2026-05-21T21:27:05Z</time></trkpt>
			<trkpt lat="54.395810" lon="22.242480"><ele>105.7</ele><time>2026-05-21T21:27:10Z</time></trkpt>
			<trkpt lat="54.396050" lon="22.242330"><ele>106.1</ele><time>2026-05-21T21:27:15Z</time></trkpt>
			<trkpt lat="54.396670" lon="22.241950"><ele>107.2</ele><time>2026-05-21T21:27:20Z</time></trkpt>
			<trkpt lat="54.396810" lon="22.241760"><ele>107.5</ele><time>2026-05-21T21:27:25Z</time></trkpt>
			<trkpt lat="54.396950" lon="22.241520"><ele>107.9</ele><time>2026-05-21T21:27:29Z</time></trkpt>
			<trkpt lat="54.397080" lon="22.241150"><ele>108.3</ele><time>2026-05-21T21:27:34Z</time></trkpt>
			<trkpt lat="54.397610" lon="22.240050"><ele>109.6</ele><time>2026-05-21T21:27:39Z</time></trkpt>
			<trkpt lat="54.397840" lon="22.239540"><ele>110.3</ele><time>2026-05-21T21:27:44Z</time></trkpt>
			<trkpt lat="54.398180" lon="22.238700"><ele>111.3</ele><time>2026-05-21T21:27:49Z</time></trkpt>
			<trkpt lat="54.398390" lon="22.238280"><ele>111.8</ele><time>2026-05-21T21:27:54Z</time></trkpt>
			<trkpt lat="54.398610" lon="22.237940"><ele>112.3</ele><time>2026-05-21T21:27:58Z</time></trkpt>
			<trkpt lat="54.398650" lon="22.237610"><ele>112.6</ele><time>2026-05-21T21:28:03Z</time></trkpt>
			<trkpt lat="54.398680" lon="22.237260"><ele>112.9</ele><time>2026-05-21T21:28:08Z</time></trkpt>
			<trkpt lat="54.398700" lon="22.236960"><ele>113.2</ele><time>2026-05-21T21:28:13Z</time></trkpt>
			<trkpt lat="54.398720" lon="22.236700"><ele>113.5</ele><time>2026-05-21T21:28:18Z</time></trkpt>
			<trkpt lat="54.398890" lon="22.234290"><ele>113.3</ele><time>2026-05-21T21:28:23Z</time></trkpt>
			<trkpt lat="54.399620" lon="22.230670"><ele>110.4</ele><time>2026-05-21T21:28:27Z</time></trkpt>
			<trkpt lat="54.399820" lon="22.230050"><ele>109.9</ele><time>2026-05-21T21:28:32Z</time></trkpt>
			<trkpt lat="54.400040" lon="22.229470"><ele>109.4</ele><time>2026-05-21T21:28:37Z</time></trkpt>
			<trkpt lat="54.401300" lon="22.225940"><ele>108.4</ele><time>2026-05-21T21:28:42Z</time></trkpt>
			<trkpt lat="54.401830" lon="22.224240"><ele>109.7</ele><time>2026-05-21T21:28:47Z</time></trkpt>
			<trkpt lat="54.402880" lon="22.220270"><ele>112.4</ele><time>2026-05-21T21:28:52Z</time></trkpt>
			<trkpt lat="54.404260" lon="22.215940"><ele>110.6</ele><time>2026-05-21T21:28:56Z</time></trkpt>
			<trkpt lat="54.404500" lon="22.215030"><ele>109.9</ele><time>2026-05-21T21:29:01Z</time></trkpt>
			<trkpt lat="54.405420" lon="22.211280"><ele>106.8</ele><time>2026-05-21T21:29:06Z</time></trkpt>
			<trkpt lat="54.405450" lon="22.211080"><ele>106.6</ele><time>2026-05-21T21:29:11Z</time></trkpt>
			<trkpt lat="54.405460" lon="22.210880"><ele>106.5</ele><time>2026-05-21T21:29:16Z</time></trkpt>
			<trkpt lat="54.405450" lon="22.210600"><ele>106.2</ele><time>2026-05-21T21:29:21Z</time></trkpt>
			<trkpt lat="54.405410" lon="22.209880"><ele>106.2</ele><time>2026-05-21T21:29:25Z</time></trkpt>
			<trkpt lat="54.405340" lon="22.207950"><ele>106.2</ele><time>2026-05-21T21:29:30Z</time></trkpt>
			<trkpt lat="54.405220" lon="22.205370"><ele>106.2</ele><time>2026-05-21T21:29:35Z</time></trkpt>
			<trkpt lat="54.405080" lon="22.202950"><ele>106.1</ele><time>2026-05-21T21:29:40Z</time></trkpt>
			<trkpt lat="54.405080" lon="22.202630"><ele>106.1</ele><time>2026-05-21T21:29:45Z</time></trkpt>
			<trkpt lat="54.405170" lon="22.202090"><ele>106.1</ele><time>2026-05-21T21:29:50Z</time></trkpt>
			<trkpt lat="54.405770" lon="22.199680"><ele>101.6</ele><time>2026-05-21T21:29:54Z</time></trkpt>
			<trkpt lat="54.405860" lon="22.199360"><ele>100.8</ele><time>2026-05-21T21:29:59Z</time></trkpt>
			<trkpt lat="54.405980" lon="22.199190"><ele>100.1</ele><time>2026-05-21T21:30:04Z</time></trkpt>
			<trkpt lat="54.407280" lon="22.197810"><ele>93.9</ele><time>2026-05-21T21:30:09Z</time></trkpt>
			<trkpt lat="54.407510" lon="22.197650"><ele>92.9</ele><time>2026-05-21T21:30:14Z</time></trkpt>
			<trkpt lat="54.409660" lon="22.197270"><ele>84.2</ele><time>2026-05-21T21:30:19Z</time></trkpt>
			<trkpt lat="54.409970" lon="22.197250"><ele>84.4</ele><time>2026-05-21T21:30:23Z</time></trkpt>
			<trkpt lat="54.410380" lon="22.197330"><ele>84.7</ele><time>2026-05-21T21:30:28Z</time></trkpt>
			<trkpt lat="54.411090" lon="22.197540"><ele>85.2</ele><time>2026-05-21T21:30:33Z</time></trkpt>
			<trkpt lat="54.411330" lon="22.197580"><ele>85.4</ele><time>2026-05-21T21:30:38Z</time></trkpt>
			<trkpt lat="54.411480" lon="22.197550"><ele>85.5</ele><time>2026-05-21T21:30:43Z</time></trkpt>
			<trkpt lat="54.411630" lon="22.197430"><ele>85.6</ele><time>2026-05-21T21:30:48Z</time></trkpt>
			<trkpt lat="54.413640" lon="22.194070"><ele>87.6</ele><time>2026-05-21T21:30:52Z</time></trkpt>
			<trkpt lat="54.413870" lon="22.193640"><ele>87.8</ele><time>2026-05-21T21:30:57Z</time></trkpt>
			<trkpt lat="54.413980" lon="22.193240"><ele>87.9</ele><time>2026-05-21T21:31:02Z</time></trkpt>
			<trkpt lat="54.414500" lon="22.189320"><ele>83.7</ele><time>2026-05-21T21:31:07Z</time></trkpt>
			<trkpt lat="54.414660" lon="22.188740"><ele>83.0</ele><time>2026-05-21T21:31:12Z</time></trkpt>
			<trkpt lat="54.414900" lon="22.187970"><ele>82.1</ele><time>2026-05-21T21:31:17Z</time></trkpt>
			<trkpt lat="54.415150" lon="22.187270"><ele>81.2</ele><time>2026-05-21T21:31:21Z</time></trkpt>
			<trkpt lat="54.415410" lon="22.186750"><ele>80.5</ele><time>2026-05-21T21:31:26Z</time></trkpt>
			<trkpt lat="54.415620" lon="22.186220"><ele>79.8</ele><time>2026-05-21T21:31:31Z</time></trkpt>
			<trkpt lat="54.415650" lon="22.185930"><ele>79.5</ele><time>2026-05-21T21:31:36Z</time></trkpt>
			<trkpt lat="54.415630" lon="22.185660"><ele>79.2</ele><time>2026-05-21T21:31:41Z</time></trkpt>
			<trkpt lat="54.415560" lon="22.185430"><ele>78.9</ele><time>2026-05-21T21:31:45Z</time></trkpt>
			<trkpt lat="54.415420" lon="22.185270"><ele>78.6</ele><time>2026-05-21T21:31:50Z</time></trkpt>
			<trkpt lat="54.415270" lon="22.185140"><ele>78.3</ele><time>2026-05-21T21:31:55Z</time></trkpt>
			<trkpt lat="54.415050" lon="22.184990"><ele>78.2</ele><time>2026-05-21T21:32:00Z</time></trkpt>
			<trkpt lat="54.414740" lon="22.184720"><ele>78.3</ele><time>2026-05-21T21:32:05Z</time></trkpt>
			<trkpt lat="54.413930" lon="22.184010"><ele>78.6</ele><time>2026-05-21T21:32:10Z</time></trkpt>
			<trkpt lat="54.413800" lon="22.183810"><ele>78.7</ele><time>2026-05-21T21:32:14Z</time></trkpt>
			<trkpt lat="54.413770" lon="22.183550"><ele>78.7</ele><time>2026-05-21T21:32:19Z</time></trkpt>
			<trkpt lat="54.413770" lon="22.183170"><ele>78.8</ele><time>2026-05-21T21:32:24Z</time></trkpt>
			<trkpt lat="54.414180" lon="22.167790"><ele>84.4</ele><time>2026-05-21T21:32:29Z</time></trkpt>
			<trkpt lat="54.414190" lon="22.167180"><ele>84.6</ele><time>2026-05-21T21:32:34Z</time></trkpt>
			<trkpt lat="54.414080" lon="22.165230"><ele>85.1</ele><time>2026-05-21T21:32:39Z</time></trkpt>
			<trkpt lat="54.414070" lon="22.164960"><ele>85.2</ele><time>2026-05-21T21:32:43Z</time></trkpt>
			<trkpt lat="54.414090" lon="22.164640"><ele>85.3</ele><time>2026-05-21T21:32:48Z</time></trkpt>
			<trkpt lat="54.414460" lon="22.162950"><ele>85.7</ele><time>2026-05-21T21:32:53Z</time></trkpt>
			<trkpt lat="54.414690" lon="22.161920"><ele>86.0</ele><time>2026-05-21T21:32:58Z</time></trkpt>
			<trkpt lat="54.414730" lon="22.161540"><ele>86.1</ele><time>2026-05-21T21:33:03Z</time></trkpt>
			<trkpt lat="54.414720" lon="22.161210"><ele>86.2</ele><time>2026-05-21T21:33:08Z</time></trkpt>
			<trkpt lat="54.414600" lon="22.160360"><ele>86.4</ele><time>2026-05-21T21:33:12Z</time></trkpt>
			<trkpt lat="54.414210" lon="22.158050"><ele>87.4</ele><time>2026-05-21T21:33:17Z</time></trkpt>
			<trkpt lat="54.414190" lon="22.157970"><ele>87.5</ele><time>2026-05-21T21:33:22Z</time></trkpt>
			<trkpt lat="54.414090" lon="22.157280"><ele>87.9</ele><time>2026-05-21T21:33:27Z</time></trkpt>
			<trkpt lat="54.413950" lon="22.156200"><ele>88.6</ele><time>2026-05-21T21:33:32Z</time></trkpt>
			<trkpt lat="54.413870" lon="22.155360"><ele>89.1</ele><time>2026-05-21T21:33:37Z</time></trkpt>
			<trkpt lat="54.413820" lon="22.154760"><ele>89.5</ele><time>2026-05-21T21:33:41Z</time></trkpt>
			<trkpt lat="54.413860" lon="22.154230"><ele>89.9</ele><time>2026-05-21T21:33:46Z</time></trkpt>
			<trkpt lat="54.413950" lon="22.153470"><ele>90.3</ele><time>2026-05-21T21:33:51Z</time></trkpt>
			<trkpt lat="54.414040" lon="22.152370"><ele>91.0</ele><time>2026-05-21T21:33:56Z</time></trkpt>
			<trkpt lat="54.414370" lon="22.148310"><ele>91.6</ele><time>2026-05-21T21:34:01Z</time></trkpt>
			<trkpt lat="54.414550" lon="22.145970"><ele>90.3</ele><time>2026-05-21T21:34:06Z</time></trkpt>
			<trkpt lat="54.414550" lon="22.145480"><ele>90.0</ele><time>2026-05-21T21:34:10Z</time></trkpt>
			<trkpt lat="54.414160" lon="22.137630"><ele>87.4</ele><time>2026-05-21T21:34:15Z</time></trkpt>
			<trkpt lat="54.413780" lon="22.131230"><ele>87.6</ele><time>2026-05-21T21:34:20Z</time></trkpt>
			<trkpt lat="54.413780" lon="22.131230"><ele>87.6</ele><time>2026-05-21T21:34:25Z</time></trkpt>
			<trkpt lat="54.413260" lon="22.120970"><ele>91.1</ele><time>2026-05-21T21:34:29Z</time></trkpt>
			<trkpt lat="54.413010" lon="22.115940"><ele>89.1</ele><time>2026-05-21T21:34:34Z</time></trkpt>
			<trkpt lat="54.412930" lon="22.114080"><ele>88.3</ele><time>2026-05-21T21:34:39Z</time></trkpt>
			<trkpt lat="54.412960" lon="22.113580"><ele>88.1</ele><time>2026-05-21T21:34:43Z</time></trkpt>
			<trkpt lat="54.413460" lon="22.111660"><ele>87.8</ele><time>2026-05-21T21:34:48Z</time></trkpt>
			<trkpt lat="54.413710" lon="22.110640"><ele>87.8</ele><time>2026-05-21T21:34:53Z</time></trkpt>
			<trkpt lat="54.414150" lon="22.108990"><ele>87.8</ele><time>2026-05-21T21:34:57Z</time></trkpt>
			<trkpt lat="54.415380" lon="22.105730"><ele>87.7</ele><time>2026-05-21T21:35:02Z</time></trkpt>
			<trkpt lat="54.415950" lon="22.104360"><ele>87.6</ele><time>2026-05-21T21:35:07Z</time></trkpt>
			<trkpt lat="54.418270" lon="22.099420"><ele>86.3</ele><time>2026-05-21T21:35:11Z</time></trkpt>
			<trkpt lat="54.418330" lon="22.099310"><ele>86.2</ele><time>2026-05-21T21:35:16Z</time></trkpt>
			<trkpt lat="54.418560" lon="22.098560"><ele>86.1</ele><time>2026-05-21T21:35:21Z</time></trkpt>
			<trkpt lat="54.418620" lon="22.098140"><ele>86.0</ele><time>2026-05-21T21:35:25Z</time></trkpt>
			<trkpt lat="54.418470" lon="22.095970"><ele>86.0</ele><time>2026-05-21T21:35:30Z</time></trkpt>
			<trkpt lat="54.419430" lon="22.079620"><ele>87.9</ele><time>2026-05-21T21:35:35Z</time></trkpt>
			<trkpt lat="54.419410" lon="22.079370"><ele>87.9</ele><time>2026-05-21T21:35:39Z</time></trkpt>
			<trkpt lat="54.418600" lon="22.074040"><ele>87.9</ele><time>2026-05-21T21:35:44Z</time></trkpt>
			<trkpt lat="54.418140" lon="22.071040"><ele>87.9</ele><time>2026-05-21T21:35:49Z</time></trkpt>
			<trkpt lat="54.418080" lon="22.070760"><ele>87.9</ele><time>2026-05-21T21:35:53Z</time></trkpt>
			<trkpt lat="54.417990" lon="22.070490"><ele>87.9</ele><time>2026-05-21T21:35:58Z</time></trkpt>
			<trkpt lat="54.417880" lon="22.070270"><ele>87.9</ele><time>2026-05-21T21:36:03Z</time></trkpt>
			<trkpt lat="54.417730" lon="22.070040"><ele>87.9</ele><time>2026-05-21T21:36:07Z</time></trkpt>
			<trkpt lat="54.417560" lon="22.069820"><ele>87.9</ele><time>2026-05-21T21:36:12Z</time></trkpt>
			<trkpt lat="54.417070" lon="22.069420"><ele>88.0</ele><time>2026-05-21T21:36:17Z</time></trkpt>
			<trkpt lat="54.415650" lon="22.068440"><ele>88.3</ele><time>2026-05-21T21:36:21Z</time></trkpt>
			<trkpt lat="54.415410" lon="22.068210"><ele>88.4</ele><time>2026-05-21T21:36:26Z</time></trkpt>
			<trkpt lat="54.415330" lon="22.067990"><ele>88.4</ele><time>2026-05-21T21:36:31Z</time></trkpt>
			<trkpt lat="54.415170" lon="22.067660"><ele>88.5</ele><time>2026-05-21T21:36:35Z</time></trkpt>
			<trkpt lat="54.414690" lon="22.066870"><ele>88.6</ele><time>2026-05-21T21:36:40Z</time></trkpt>
			<trkpt lat="54.414550" lon="22.066620"><ele>88.6</ele><time>2026-05-21T21:36:45Z</time></trkpt>
			<trkpt lat="54.414380" lon="22.066220"><ele>88.7</ele><time>2026-05-21T21:36:49Z</time></trkpt>
			<trkpt lat="54.414010" lon="22.065160"><ele>88.8</ele><time>2026-05-21T21:36:54Z</time></trkpt>
			<trkpt lat="54.412910" lon="22.061620"><ele>89.8</ele><time>2026-05-21T21:36:59Z</time></trkpt>
			<trkpt lat="54.412440" lon="22.060090"><ele>90.2</ele><time>2026-05-21T21:37:03Z</time></trkpt>
			<trkpt lat="54.411920" lon="22.058540"><ele>90.7</ele><time>2026-05-21T21:37:08Z</time></trkpt>
			<trkpt lat="54.411540" lon="22.057490"><ele>91.1</ele><time>2026-05-21T21:37:13Z</time></trkpt>
			<trkpt lat="54.410910" lon="22.055810"><ele>91.5</ele><time>2026-05-21T21:37:17Z</time></trkpt>
			<trkpt lat="54.409330" lon="22.051810"><ele>92.3</ele><time>2026-05-21T21:37:22Z</time></trkpt>
			<trkpt lat="54.408190" lon="22.048810"><ele>92.9</ele><time>2026-05-21T21:37:27Z</time></trkpt>
			<trkpt lat="54.406820" lon="22.045270"><ele>93.1</ele><time>2026-05-21T21:37:31Z</time></trkpt>
			<trkpt lat="54.406750" lon="22.045120"><ele>93.1</ele><time>2026-05-21T21:37:36Z</time></trkpt>
			<trkpt lat="54.406660" lon="22.044980"><ele>93.1</ele><time>2026-05-21T21:37:41Z</time></trkpt>
			<trkpt lat="54.406440" lon="22.044720"><ele>93.1</ele><time>2026-05-21T21:37:45Z</time></trkpt>
			<trkpt lat="54.406130" lon="22.044430"><ele>93.1</ele><time>2026-05-21T21:37:50Z</time></trkpt>
			<trkpt lat="54.406030" lon="22.044320"><ele>93.1</ele><time>2026-05-21T21:37:55Z</time></trkpt>
			<trkpt lat="54.405960" lon="22.044220"><ele>93.1</ele><time>2026-05-21T21:37:59Z</time></trkpt>
			<trkpt lat="54.405780" lon="22.043930"><ele>93.1</ele><time>2026-05-21T21:38:04Z</time></trkpt>
			<trkpt lat="54.405740" lon="22.043860"><ele>93.1</ele><time>2026-05-21T21:38:09Z</time></trkpt>
			<trkpt lat="54.405720" lon="22.043780"><ele>93.1</ele><time>2026-05-21T21:38:13Z</time></trkpt>
			<trkpt lat="54.405730" lon="22.043580"><ele>93.1</ele><time>2026-05-21T21:38:18Z</time></trkpt>
			<trkpt lat="54.405750" lon="22.043530"><ele>93.1</ele><time>2026-05-21T21:38:23Z</time></trkpt>
			<trkpt lat="54.406190" lon="22.042750"><ele>93.2</ele><time>2026-05-21T21:38:27Z</time></trkpt>
			<trkpt lat="54.406650" lon="22.042010"><ele>93.2</ele><time>2026-05-21T21:38:32Z</time></trkpt>
			<trkpt lat="54.407220" lon="22.041030"><ele>92.8</ele><time>2026-05-21T21:38:37Z</time></trkpt>
			<trkpt lat="54.407240" lon="22.040900"><ele>92.8</ele><time>2026-05-21T21:38:41Z</time></trkpt>
			<trkpt lat="54.407230" lon="22.040770"><ele>92.7</ele><time>2026-05-21T21:38:46Z</time></trkpt>
			<trkpt lat="54.407170" lon="22.040670"><ele>92.7</ele><time>2026-05-21T21:38:51Z</time></trkpt>
			<trkpt lat="54.407100" lon="22.040570"><ele>92.6</ele><time>2026-05-21T21:38:55Z</time></trkpt>
			<trkpt lat="54.403660" lon="22.036210"><ele>90.0</ele><time>2026-05-21T21:39:00Z</time></trkpt>
			<trkpt lat="54.403620" lon="22.035760"><ele>90.0</ele><time>2026-05-21T21:39:05Z</time></trkpt>
			<trkpt lat="54.402850" lon="22.031950"><ele>93.5</ele><time>2026-05-21T21:39:09Z</time></trkpt>
			<trkpt lat="54.402670" lon="22.031070"><ele>94.3</ele><time>2026-05-21T21:39:14Z</time></trkpt>
			<trkpt lat="54.402640" lon="22.030800"><ele>94.5</ele><time>2026-05-21T21:39:19Z</time></trkpt>
			<trkpt lat="54.402640" lon="22.030460"><ele>94.8</ele><time>2026-05-21T21:39:23Z</time></trkpt>
			<trkpt lat="54.402670" lon="22.030040"><ele>95.2</ele><time>2026-05-21T21:39:28Z</time></trkpt>
			<trkpt lat="54.402850" lon="22.028690"><ele>96.4</ele><time>2026-05-21T21:39:33Z</time></trkpt>
			<trkpt lat="54.403090" lon="22.026670"><ele>97.8</ele><time>2026-05-21T21:39:37Z</time></trkpt>
			<trkpt lat="54.403250" lon="22.025410"><ele>97.4</ele><time>2026-05-21T21:39:42Z</time></trkpt>
			<trkpt lat="54.403270" lon="22.024660"><ele>97.2</ele><time>2026-05-21T21:39:47Z</time></trkpt>
			<trkpt lat="54.403260" lon="22.024490"><ele>97.2</ele><time>2026-05-21T21:39:51Z</time></trkpt>
			<trkpt lat="54.403140" lon="22.021250"><ele>96.3</ele><time>2026-05-21T21:39:56Z</time></trkpt>
			<trkpt lat="54.403130" lon="22.020750"><ele>96.2</ele><time>2026-05-21T21:40:01Z</time></trkpt>
			<trkpt lat="54.403140" lon="22.020550"><ele>96.1</ele><time>2026-05-21T21:40:05Z</time></trkpt>
			<trkpt lat="54.403170" lon="22.020340"><ele>96.1</ele><time>2026-05-21T21:40:10Z</time></trkpt>
			<trkpt lat="54.403230" lon="22.020130"><ele>96.0</ele><time>2026-05-21T21:40:15Z</time></trkpt>
			<trkpt lat="54.403360" lon="22.019830"><ele>95.9</ele><time>2026-05-21T21:40:19Z</time></trkpt>
			<trkpt lat="54.403480" lon="22.019490"><ele>95.8</ele><time>2026-05-21T21:40:24Z</time></trkpt>
			<trkpt lat="54.403550" lon="22.019280"><ele>95.7</ele><time>2026-05-21T21:40:29Z</time></trkpt>
			<trkpt lat="54.403620" lon="22.018950"><ele>95.6</ele><time>2026-05-21T21:40:33Z</time></trkpt>
			<trkpt lat="54.403690" lon="22.018490"><ele>95.5</ele><time>2026-05-21T21:40:38Z</time></trkpt>
			<trkpt lat="54.403760" lon="22.017620"><ele>94.4</ele><time>2026-05-21T21:40:43Z</time></trkpt>
			<trkpt lat="54.403770" lon="22.017550"><ele>94.2</ele><time>2026-05-21T21:40:47Z</time></trkpt>
			<trkpt lat="54.403850" lon="22.016800"><ele>92.3</ele><time>2026-05-21T21:40:52Z</time></trkpt>
			<trkpt lat="54.403940" lon="22.015940"><ele>90.1</ele><time>2026-05-21T21:40:57Z</time></trkpt>
			<trkpt lat="54.404040" lon="22.015640"><ele>89.3</ele><time>2026-05-21T21:41:01Z</time></trkpt>
			<trkpt lat="54.404110" lon="22.015530"><ele>88.9</ele><time>2026-05-21T21:41:06Z</time></trkpt>
			<trkpt lat="54.404130" lon="22.015510"><ele>88.8</ele><time>2026-05-21T21:41:11Z</time></trkpt>
			<trkpt lat="54.404130" lon="22.015510"><ele>88.8</ele><time>2026-05-21T21:41:12Z</time></trkpt>
			<trkpt lat="54.404300" lon="22.015380"><ele>88.0</ele><time>2026-05-21T21:41:14Z</time></trkpt>
			<trkpt lat="54.404530" lon="22.015380"><ele>87.0</ele><time>2026-05-21T21:41:16Z</time></trkpt>
			<trkpt lat="54.404900" lon="22.015420"><ele>85.4</ele><time>2026-05-21T21:41:18Z</time></trkpt>
			<trkpt lat="54.405170" lon="22.015460"><ele>84.3</ele><time>2026-05-21T21:41:19Z</time></trkpt>
			<trkpt lat="54.405440" lon="22.015510"><ele>83.1</ele><time>2026-05-21T21:41:21Z</time></trkpt>
			<trkpt lat="54.405590" lon="22.015640"><ele>82.4</ele><time>2026-05-21T21:41:23Z</time></trkpt>
			<trkpt lat="54.405690" lon="22.015820"><ele>81.8</ele><time>2026-05-21T21:41:24Z</time></trkpt>
			<trkpt lat="54.405760" lon="22.016050"><ele>81.1</ele><time>2026-05-21T21:41:26Z</time></trkpt>
			<trkpt lat="54.405780" lon="22.016320"><ele>80.4</ele><time>2026-05-21T21:41:28Z</time></trkpt>
			<trkpt lat="54.405770" lon="22.017160"><ele>78.3</ele><time>2026-05-21T21:41:30Z</time></trkpt>
			<trkpt lat="54.405770" lon="22.017380"><ele>77.8</ele><time>2026-05-21T21:41:31Z</time></trkpt>
			<trkpt lat="54.405800" lon="22.017550"><ele>77.3</ele><time>2026-05-21T21:41:33Z</time></trkpt>
			<trkpt lat="54.405860" lon="22.017690"><ele>76.9</ele><time>2026-05-21T21:41:35Z</time></trkpt>
			<trkpt lat="54.405930" lon="22.017770"><ele>76.6</ele><time>2026-05-21T21:41:36Z</time></trkpt>
			<trkpt lat="54.406010" lon="22.017840"><ele>76.2</ele><time>2026-05-21T21:41:38Z</time></trkpt>
			<trkpt lat="54.406080" lon="22.017880"><ele>75.9</ele><time>2026-05-21T21:41:40Z</time></trkpt>
			<trkpt lat="54.406160" lon="22.017880"><ele>75.5</ele><time>2026-05-21T21:41:42Z</time></trkpt>
			<trkpt lat="54.406260" lon="22.017860"><ele>75.1</ele><time>2026-05-21T21:41:43Z</time></trkpt>
			<trkpt lat="54.406530" lon="22.017750"><ele>73.9</ele><time>2026-05-21T21:41:45Z</time></trkpt>
			<trkpt lat="54.406780" lon="22.017650"><ele>72.8</ele><time>2026-05-21T21:41:47Z</time></trkpt>
			<trkpt lat="54.407010" lon="22.017600"><ele>72.5</ele><time>2026-05-21T21:41:48Z</time></trkpt>
			<trkpt lat="54.407340" lon="22.017510"><ele>72.9</ele><time>2026-05-21T21:41:50Z</time></trkpt>
			<trkpt lat="54.407810" lon="22.017390"><ele>73.6</ele><time>2026-05-21T21:41:52Z</time></trkpt>
			<trkpt lat="54.407920" lon="22.017350"><ele>73.7</ele><time>2026-05-21T21:41:53Z</time></trkpt>
			<trkpt lat="54.408030" lon="22.017270"><ele>73.9</ele><time>2026-05-21T21:41:55Z</time></trkpt>
			<trkpt lat="54.408140" lon="22.017110"><ele>74.1</ele><time>2026-05-21T21:41:57Z</time></trkpt>
			<trkpt lat="54.408320" lon="22.016890"><ele>74.4</ele><time>2026-05-21T21:41:59Z</time></trkpt>
			<trkpt lat="54.408690" lon="22.016560"><ele>74.9</ele><time>2026-05-21T21:42:00Z</time></trkpt>
			<trkpt lat="54.409540" lon="22.016210"><ele>76.1</ele><time>2026-05-21T21:42:02Z</time></trkpt>
			<trkpt lat="54.409090" lon="22.014830"><ele>77.4</ele><time>2026-05-21T21:42:04Z</time></trkpt>
			<trkpt lat="54.409050" lon="22.014650"><ele>77.5</ele><time>2026-05-21T21:42:05Z</time></trkpt>
			<trkpt lat="54.408920" lon="22.013780"><ele>78.2</ele><time>2026-05-21T21:42:07Z</time></trkpt>
			<trkpt lat="54.408900" lon="22.013630"><ele>78.4</ele><time>2026-05-21T21:42:09Z</time></trkpt>
			<trkpt lat="54.408880" lon="22.013510"><ele>78.5</ele><time>2026-05-21T21:42:11Z</time></trkpt>
			<trkpt lat="54.408830" lon="22.013260"><ele>78.7</ele><time>2026-05-21T21:42:12Z</time></trkpt>
			<trkpt lat="54.408780" lon="22.012810"><ele>79.0</ele><time>2026-05-21T21:42:14Z</time></trkpt>
			<trkpt lat="54.408690" lon="22.012740"><ele>79.2</ele><time>2026-05-21T21:42:16Z</time></trkpt>
			<trkpt lat="54.408630" lon="22.012750"><ele>79.2</ele><time>2026-05-21T21:42:17Z</time></trkpt>
			<trkpt lat="54.408540" lon="22.012780"><ele>79.4</ele><time>2026-05-21T21:42:19Z</time></trkpt>
			<trkpt lat="54.408340" lon="22.012790"><ele>79.7</ele><time>2026-05-21T21:42:21Z</time></trkpt>
			<trkpt lat="54.408210" lon="22.012750"><ele>80.0</ele><time>2026-05-21T21:42:23Z</time></trkpt>
			<trkpt lat="54.408120" lon="22.012050"><ele>81.0</ele><time>2026-05-21T21:42:24Z</time></trkpt>
			<trkpt lat="54.408110" lon="22.011930"><ele>81.2</ele><time>2026-05-21T21:42:26Z</time></trkpt>
			<trkpt lat="54.408050" lon="22.011440"><ele>81.9</ele><time>2026-05-21T21:42:28Z</time></trkpt>
			<trkpt lat="54.407850" lon="22.009850"><ele>84.3</ele><time>2026-05-21T21:42:29Z</time></trkpt>
			<trkpt lat="54.407810" lon="22.009560"><ele>84.7</ele><time>2026-05-21T21:42:31Z</time></trkpt>
			<trkpt lat="54.407590" lon="22.008000"><ele>87.0</ele><time>2026-05-21T21:42:33Z</time></trkpt>
			<trkpt lat="54.407500" lon="22.007260"><ele>88.1</ele><time>2026-05-21T21:42:34Z</time></trkpt>
			<trkpt lat="54.407500" lon="22.007260"><ele>88.1</ele><time>2026-05-21T21:42:44Z</time></trkpt>
			<trkpt lat="54.407260" lon="22.005510"><ele>90.7</ele><time>2026-05-21T21:42:53Z</time></trkpt>
			<trkpt lat="54.407130" lon="22.004520"><ele>92.2</ele><time>2026-05-21T21:43:03Z</time></trkpt>
			<trkpt lat="54.406990" lon="22.003280"><ele>93.4</ele><time>2026-05-21T21:43:12Z</time></trkpt>
			<trkpt lat="54.407000" lon="22.002860"><ele>93.6</ele><time>2026-05-21T21:43:21Z</time></trkpt>
			<trkpt lat="54.406990" lon="22.002800"><ele>93.6</ele><time>2026-05-21T21:43:31Z</time></trkpt>
			<trkpt lat="54.407350" lon="22.000370"><ele>94.8</ele><time>2026-05-21T21:43:40Z</time></trkpt>
			<trkpt lat="54.407640" lon="21.998440"><ele>95.8</ele><time>2026-05-21T21:43:49Z</time></trkpt>
			<trkpt lat="54.407730" lon="21.997820"><ele>96.1</ele><time>2026-05-21T21:43:59Z</time></trkpt>
			<trkpt lat="54.408350" lon="21.993760"><ele>98.2</ele><time>2026-05-21T21:44:08Z</time></trkpt>
			<trkpt lat="54.408390" lon="21.993200"><ele>98.4</ele><time>2026-05-21T21:44:17Z</time></trkpt>
			<trkpt lat="54.408300" lon="21.991770"><ele>99.2</ele><time>2026-05-21T21:44:27Z</time></trkpt>
			<trkpt lat="54.408140" lon="21.990780"><ele>99.7</ele><time>2026-05-21T21:44:36Z</time></trkpt>
			<trkpt lat="54.406990" lon="21.984440"><ele>102.2</ele><time>2026-05-21T21:44:45Z</time></trkpt>
			<trkpt lat="54.406340" lon="21.981100"><ele>102.2</ele><time>2026-05-21T21:44:55Z</time></trkpt>
			<trkpt lat="54.405510" lon="21.976860"><ele>102.5</ele><time>2026-05-21T21:45:04Z</time></trkpt>
			<trkpt lat="54.405330" lon="21.975980"><ele>103.0</ele><time>2026-05-21T21:45:14Z</time></trkpt>
			<trkpt lat="54.404920" lon="21.973960"><ele>104.2</ele><time>2026-05-21T21:45:23Z</time></trkpt>
			<trkpt lat="54.404510" lon="21.971840"><ele>105.5</ele><time>2026-05-21T21:45:32Z</time></trkpt>
			<trkpt lat="54.404040" lon="21.969940"><ele>106.7</ele><time>2026-05-21T21:45:42Z</time></trkpt>
			<trkpt lat="54.403230" lon="21.966740"><ele>108.0</ele><time>2026-05-21T21:45:51Z</time></trkpt>
			<trkpt lat="54.403140" lon="21.966260"><ele>108.1</ele><time>2026-05-21T21:46:00Z</time></trkpt>
			<trkpt lat="54.402930" lon="21.964530"><ele>108.5</ele><time>2026-05-21T21:46:10Z</time></trkpt>
			<trkpt lat="54.402760" lon="21.962680"><ele>108.9</ele><time>2026-05-21T21:46:19Z</time></trkpt>
			<trkpt lat="54.402710" lon="21.961950"><ele>109.0</ele><time>2026-05-21T21:46:28Z</time></trkpt>
			<trkpt lat="54.402460" lon="21.959090"><ele>109.7</ele><time>2026-05-21T21:46:38Z</time></trkpt>
			<trkpt lat="54.402430" lon="21.958430"><ele>109.9</ele><time>2026-05-21T21:46:47Z</time></trkpt>
			<trkpt lat="54.402340" lon="21.957070"><ele>110.3</ele><time>2026-05-21T21:46:56Z</time></trkpt>
			<trkpt lat="54.402220" lon="21.954560"><ele>111.1</ele><time>2026-05-21T21:47:06Z</time></trkpt>
			<trkpt lat="54.402100" lon="21.952340"><ele>111.8</ele><time>2026-05-21T21:47:15Z</time></trkpt>
			<trkpt lat="54.401930" lon="21.949670"><ele>112.4</ele><time>2026-05-21T21:47:25Z</time></trkpt>
			<trkpt lat="54.401890" lon="21.948720"><ele>112.4</ele><time>2026-05-21T21:47:34Z</time></trkpt>
			<trkpt lat="54.401740" lon="21.946150"><ele>112.5</ele><time>2026-05-21T21:47:43Z</time></trkpt>
			<trkpt lat="54.401630" lon="21.944740"><ele>112.5</ele><time>2026-05-21T21:47:53Z</time></trkpt>
			<trkpt lat="54.401500" lon="21.942250"><ele>112.6</ele><time>2026-05-21T21:48:02Z</time></trkpt>
			<trkpt lat="54.401340" lon="21.939770"><ele>113.4</ele><time>2026-05-21T21:48:11Z</time></trkpt>
			<trkpt lat="54.401260" lon="21.938930"><ele>113.9</ele><time>2026-05-21T21:48:21Z</time></trkpt>
			<trkpt lat="54.401060" lon="21.937750"><ele>114.7</ele><time>2026-05-21T21:48:30Z</time></trkpt>
			<trkpt lat="54.400610" lon="21.935930"><ele>115.9</ele><time>2026-05-21T21:48:39Z</time></trkpt>
			<trkpt lat="54.400310" lon="21.934770"><ele>116.6</ele><time>2026-05-21T21:48:49Z</time></trkpt>
			<trkpt lat="54.398350" lon="21.930180"><ele>119.1</ele><time>2026-05-21T21:48:58Z</time></trkpt>
			<trkpt lat="54.396640" lon="21.926080"><ele>120.6</ele><time>2026-05-21T21:49:07Z</time></trkpt>
			<trkpt lat="54.396320" lon="21.925400"><ele>120.9</ele><time>2026-05-21T21:49:17Z</time></trkpt>
			<trkpt lat="54.396010" lon="21.925000"><ele>121.1</ele><time>2026-05-21T21:49:26Z</time></trkpt>
			<trkpt lat="54.394170" lon="21.923220"><ele>122.7</ele><time>2026-05-21T21:49:36Z</time></trkpt>
			<trkpt lat="54.388910" lon="21.916740"><ele>127.4</ele><time>2026-05-21T21:49:45Z</time></trkpt>
			<trkpt lat="54.388600" lon="21.916320"><ele>127.7</ele><time>2026-05-21T21:49:54Z</time></trkpt>
			<trkpt lat="54.388350" lon="21.915830"><ele>127.9</ele><time>2026-05-21T21:50:04Z</time></trkpt>
			<trkpt lat="54.388200" lon="21.915410"><ele>128.1</ele><time>2026-05-21T21:50:13Z</time></trkpt>
			<trkpt lat="54.386820" lon="21.910710"><ele>128.2</ele><time>2026-05-21T21:50:22Z</time></trkpt>
			<trkpt lat="54.386710" lon="21.910370"><ele>128.1</ele><time>2026-05-21T21:50:32Z</time></trkpt>
			<trkpt lat="54.386580" lon="21.910050"><ele>128.0</ele><time>2026-05-21T21:50:41Z</time></trkpt>
			<trkpt lat="54.386340" lon="21.909670"><ele>127.9</ele><time>2026-05-21T21:50:50Z</time></trkpt>
			<trkpt lat="54.385480" lon="21.908870"><ele>127.7</ele><time>2026-05-21T21:51:00Z</time></trkpt>
			<trkpt lat="54.385110" lon="21.908400"><ele>127.5</ele><time>2026-05-21T21:51:09Z</time></trkpt>
			<trkpt lat="54.384830" lon="21.907840"><ele>127.4</ele><time>2026-05-21T21:51:18Z</time></trkpt>
			<trkpt lat="54.381640" lon="21.900400"><ele>128.6</ele><time>2026-05-21T21:51:28Z</time></trkpt>
			<trkpt lat="54.381170" lon="21.899280"><ele>128.4</ele><time>2026-05-21T21:51:37Z</time></trkpt>
			<trkpt lat="54.380880" lon="21.898370"><ele>127.2</ele><time>2026-05-21T21:51:46Z</time></trkpt>
			<trkpt lat="54.380130" lon="21.895050"><ele>123.2</ele><time>2026-05-21T21:51:56Z</time></trkpt>
			<trkpt lat="54.379930" lon="21.894270"><ele>122.2</ele><time>2026-05-21T21:52:05Z</time></trkpt>
			<trkpt lat="54.376840" lon="21.885610"><ele>115.4</ele><time>2026-05-21T21:52:15Z</time></trkpt>
			<trkpt lat="54.374170" lon="21.878060"><ele>113.3</ele><time>2026-05-21T21:52:24Z</time></trkpt>
			<trkpt lat="54.374150" lon="21.877980"><ele>113.3</ele><time>2026-05-21T21:52:33Z</time></trkpt>
			<trkpt lat="54.373810" lon="21.877030"><ele>113.1</ele><time>2026-05-21T21:52:43Z</time></trkpt>
			<trkpt lat="54.373610" lon="21.876350"><ele>113.0</ele><time>2026-05-21T21:52:52Z</time></trkpt>
			<trkpt lat="54.373480" lon="21.875660"><ele>112.9</ele><time>2026-05-21T21:53:01Z</time></trkpt>
			<trkpt lat="54.372410" lon="21.868270"><ele>112.6</ele><time>2026-05-21T21:53:11Z</time></trkpt>
			<trkpt lat="54.372270" lon="21.867400"><ele>112.5</ele><time>2026-05-21T21:53:20Z</time></trkpt>
			<trkpt lat="54.372020" lon="21.866520"><ele>112.5</ele><time>2026-05-21T21:53:29Z</time></trkpt>
			<trkpt lat="54.370620" lon="21.861200"><ele>119.2</ele><time>2026-05-21T21:53:39Z</time></trkpt>
			<trkpt lat="54.369220" lon="21.855670"><ele>126.7</ele><time>2026-05-21T21:53:48Z</time></trkpt>
			<trkpt lat="54.368520" lon="21.852940"><ele>130.9</ele><time>2026-05-21T21:53:57Z</time></trkpt>
			<trkpt lat="54.367710" lon="21.850180"><ele>135.2</ele><time>2026-05-21T21:54:07Z</time></trkpt>
			<trkpt lat="54.366630" lon="21.845920"><ele>138.5</ele><time>2026-05-21T21:54:16Z</time></trkpt>
			<trkpt lat="54.366310" lon="21.844770"><ele>139.2</ele><time>2026-05-21T21:54:26Z</time></trkpt>
			<trkpt lat="54.365960" lon="21.843840"><ele>139.9</ele><time>2026-05-21T21:54:35Z</time></trkpt>
			<trkpt lat="54.364520" lon="21.840760"><ele>141.2</ele><time>2026-05-21T21:54:44Z</time></trkpt>
			<trkpt lat="54.363050" lon="21.837180"><ele>139.5</ele><time>2026-05-21T21:54:54Z</time></trkpt>
			<trkpt lat="54.362680" lon="21.836020"><ele>139.0</ele><time>2026-05-21T21:55:03Z</time></trkpt>
			<trkpt lat="54.362170" lon="21.832730"><ele>138.7</ele><time>2026-05-21T21:55:12Z</time></trkpt>
			<trkpt lat="54.361700" lon="21.829580"><ele>141.4</ele><time>2026-05-21T21:55:22Z</time></trkpt>
			<trkpt lat="54.361670" lon="21.824530"><ele>145.6</ele><time>2026-05-21T21:55:31Z</time></trkpt>
			<trkpt lat="54.361540" lon="21.821770"><ele>144.6</ele><time>2026-05-21T21:55:40Z</time></trkpt>
			<trkpt lat="54.361590" lon="21.821080"><ele>144.3</ele><time>2026-05-21T21:55:50Z</time></trkpt>
			<trkpt lat="54.361690" lon="21.820570"><ele>144.1</ele><time>2026-05-21T21:55:59Z</time></trkpt>
			<trkpt lat="54.361860" lon="21.820080"><ele>143.9</ele><time>2026-05-21T21:56:08Z</time></trkpt>
			<trkpt lat="54.364850" lon="21.812220"><ele>135.1</ele><time>2026-05-21T21:56:18Z</time></trkpt>
			<trkpt lat="54.365250" lon="21.811050"><ele>133.1</ele><time>2026-05-21T21:56:27Z</time></trkpt>
			<trkpt lat="54.365830" lon="21.808680"><ele>129.3</ele><time>2026-05-21T21:56:37Z</time></trkpt>
			<trkpt lat="54.365890" lon="21.808470"><ele>128.9</ele><time>2026-05-21T21:56:46Z</time></trkpt>
			<trkpt lat="54.367210" lon="21.803590"><ele>125.3</ele><time>2026-05-21T21:56:55Z</time></trkpt>
			<trkpt lat="54.367460" lon="21.803200"><ele>124.9</ele><time>2026-05-21T21:57:05Z</time></trkpt>
			<trkpt lat="54.372420" lon="21.798040"><ele>114.0</ele><time>2026-05-21T21:57:14Z</time></trkpt>
			<trkpt lat="54.372710" lon="21.797540"><ele>113.0</ele><time>2026-05-21T21:57:23Z</time></trkpt>
			<trkpt lat="54.372800" lon="21.797020"><ele>112.2</ele><time>2026-05-21T21:57:33Z</time></trkpt>
			<trkpt lat="54.372890" lon="21.796120"><ele>110.9</ele><time>2026-05-21T21:57:42Z</time></trkpt>
			<trkpt lat="54.373070" lon="21.795420"><ele>109.9</ele><time>2026-05-21T21:57:51Z</time></trkpt>
			<trkpt lat="54.373390" lon="21.794960"><ele>109.6</ele><time>2026-05-21T21:58:01Z</time></trkpt>
			<trkpt lat="54.376660" lon="21.793090"><ele>109.9</ele><time>2026-05-21T21:58:10Z</time></trkpt>
			<trkpt lat="54.376960" lon="21.792650"><ele>110.0</ele><time>2026-05-21T21:58:19Z</time></trkpt>
			<trkpt lat="54.377150" lon="21.791960"><ele>110.0</ele><time>2026-05-21T21:58:29Z</time></trkpt>
			<trkpt lat="54.377510" lon="21.771070"><ele>108.2</ele><time>2026-05-21T21:58:38Z</time></trkpt>
			<trkpt lat="54.377590" lon="21.765910"><ele>104.2</ele><time>2026-05-21T21:58:48Z</time></trkpt>
			<trkpt lat="54.377590" lon="21.765440"><ele>103.8</ele><time>2026-05-21T21:58:57Z</time></trkpt>
			<trkpt lat="54.377490" lon="21.762920"><ele>101.9</ele><time>2026-05-21T21:59:06Z</time></trkpt>
			<trkpt lat="54.376880" lon="21.751450"><ele>96.1</ele><time>2026-05-21T21:59:16Z</time></trkpt>
			<trkpt lat="54.375990" lon="21.734620"><ele>93.0</ele><time>2026-05-21T21:59:25Z</time></trkpt>
			<trkpt lat="54.375870" lon="21.731510"><ele>93.3</ele><time>2026-05-21T21:59:34Z</time></trkpt>
			<trkpt lat="54.375810" lon="21.731100"><ele>93.3</ele><time>2026-05-21T21:59:44Z</time></trkpt>
			<trkpt lat="54.375670" lon="21.729880"><ele>93.4</ele><time>2026-05-21T21:59:53Z</time></trkpt>
			<trkpt lat="54.375550" lon="21.728890"><ele>93.6</ele><time>2026-05-21T22:00:02Z</time></trkpt>
			<trkpt lat="54.374660" lon="21.722450"><ele>92.6</ele><time>2026-05-21T22:00:12Z</time></trkpt>
			<trkpt lat="54.373730" lon="21.716000"><ele>89.8</ele><time>2026-05-21T22:00:21Z</time></trkpt>
			<trkpt lat="54.373510" lon="21.714850"><ele>88.7</ele><time>2026-05-21T22:00:30Z</time></trkpt>
			<trkpt lat="54.371880" lon="21.708120"><ele>82.7</ele><time>2026-05-21T22:00:40Z</time></trkpt>
			<trkpt lat="54.369950" lon="21.700120"><ele>88.0</ele><time>2026-05-21T22:00:49Z</time></trkpt>
			<trkpt lat="54.369300" lon="21.697450"><ele>88.2</ele><time>2026-05-21T22:00:58Z</time></trkpt>
			<trkpt lat="54.368010" lon="21.694180"><ele>88.3</ele><time>2026-05-21T22:01:08Z</time></trkpt>
			<trkpt lat="54.365290" lon="21.687880"><ele>83.4</ele><time>2026-05-21T22:01:17Z</time></trkpt>
			<trkpt lat="54.365090" lon="21.686860"><ele>82.4</ele><time>2026-05-21T22:01:27Z</time></trkpt>
			<trkpt lat="54.365010" lon="21.686240"><ele>81.8</ele><time>2026-05-21T22:01:36Z</time></trkpt>
			<trkpt lat="54.365040" lon="21.685580"><ele>81.2</ele><time>2026-05-21T22:01:45Z</time></trkpt>
			<trkpt lat="54.367400" lon="21.655940"><ele>79.6</ele><time>2026-05-21T22:01:55Z</time></trkpt>
			<trkpt lat="54.367490" lon="21.653050"><ele>77.4</ele><time>2026-05-21T22:02:04Z</time></trkpt>
			<trkpt lat="54.367520" lon="21.650940"><ele>75.8</ele><time>2026-05-21T22:02:13Z</time></trkpt>
			<trkpt lat="54.367520" lon="21.649530"><ele>74.7</ele><time>2026-05-21T22:02:23Z</time></trkpt>
			<trkpt lat="54.367700" lon="21.648300"><ele>73.7</ele><time>2026-05-21T22:02:32Z</time></trkpt>
			<trkpt lat="54.372960" lon="21.622520"><ele>64.8</ele><time>2026-05-21T22:02:41Z</time></trkpt>
			<trkpt lat="54.373090" lon="21.621710"><ele>64.8</ele><time>2026-05-21T22:02:51Z</time></trkpt>
			<trkpt lat="54.373160" lon="21.620850"><ele>64.8</ele><time>2026-05-21T22:03:00Z</time></trkpt>
			<trkpt lat="54.373310" lon="21.615880"><ele>67.5</ele><time>2026-05-21T22:03:09Z</time></trkpt>
			<trkpt lat="54.373370" lon="21.611990"><ele>69.6</ele><time>2026-05-21T22:03:19Z</time></trkpt>
			<trkpt lat="54.373500" lon="21.610610"><ele>70.4</ele><time>2026-05-21T22:03:28Z</time></trkpt>
			<trkpt lat="54.373830" lon="21.607900"><ele>71.9</ele><time>2026-05-21T22:03:38Z</time></trkpt>
			<trkpt lat="54.373900" lon="21.606760"><ele>72.5</ele><time>2026-05-21T22:03:47Z</time></trkpt>
			<trkpt lat="54.373310" lon="21.590970"><ele>62.6</ele><time>2026-05-21T22:03:56Z</time></trkpt>
			<trkpt lat="54.375300" lon="21.583580"><ele>59.0</ele><time>2026-05-21T22:04:06Z</time></trkpt>
			<trkpt lat="54.369770" lon="21.577570"><ele>58.8</ele><time>2026-05-21T22:04:15Z</time></trkpt>
			<trkpt lat="54.370760" lon="21.576630"><ele>58.6</ele><time>2026-05-21T22:04:24Z</time></trkpt>
			<trkpt lat="54.372780" lon="21.574630"><ele>58.2</ele><time>2026-05-21T22:04:34Z</time></trkpt>
			<trkpt lat="54.374040" lon="21.572490"><ele>57.5</ele><time>2026-05-21T22:04:43Z</time></trkpt>
			<trkpt lat="54.375870" lon="21.568930"><ele>56.3</ele><time>2026-05-21T22:04:52Z</time></trkpt>
			<trkpt lat="54.376910" lon="21.566860"><ele>55.8</ele><time>2026-05-21T22:05:02Z</time></trkpt>
			<trkpt lat="54.378120" lon="21.565160"><ele>55.7</ele><time>2026-05-21T22:05:11Z</time></trkpt>
			<trkpt lat="54.379910" lon="21.563110"><ele>55.5</ele><time>2026-05-21T22:05:20Z</time></trkpt>
			<trkpt lat="54.384010" lon="21.558970"><ele>55.9</ele><time>2026-05-21T22:05:30Z</time></trkpt>
			<trkpt lat="54.388240" lon="21.553550"><ele>56.4</ele><time>2026-05-21T22:05:39Z</time></trkpt>
			<trkpt lat="54.389400" lon="21.551760"><ele>56.5</ele><time>2026-05-21T22:05:49Z</time></trkpt>
			<trkpt lat="54.395610" lon="21.539520"><ele>52.7</ele><time>2026-05-21T22:05:58Z</time></trkpt>
			<trkpt lat="54.396740" lon="21.537320"><ele>53.7</ele><time>2026-05-21T22:06:07Z</time></trkpt>
			<trkpt lat="54.397000" lon="21.536970"><ele>53.5</ele><time>2026-05-21T22:06:17Z</time></trkpt>
			<trkpt lat="54.398510" lon="21.535400"><ele>52.3</ele><time>2026-05-21T22:06:26Z</time></trkpt>
			<trkpt lat="54.399990" lon="21.533850"><ele>51.1</ele><time>2026-05-21T22:06:35Z</time></trkpt>
			<trkpt lat="54.400080" lon="21.533640"><ele>51.0</ele><time>2026-05-21T22:06:45Z</time></trkpt>
			<trkpt lat="54.400110" lon="21.533240"><ele>50.8</ele><time>2026-05-21T22:06:54Z</time></trkpt>
			<trkpt lat="54.400090" lon="21.525500"><ele>48.2</ele><time>2026-05-21T22:07:03Z</time></trkpt>
			<trkpt lat="54.400190" lon="21.524480"><ele>47.9</ele><time>2026-05-21T22:07:13Z</time></trkpt>
			<trkpt lat="54.400390" lon="21.523590"><ele>47.6</ele><time>2026-05-21T22:07:22Z</time></trkpt>
			<trkpt lat="54.400870" lon="21.522820"><ele>47.2</ele><time>2026-05-21T22:07:31Z</time></trkpt>
			<trkpt lat="54.402900" lon="21.520140"><ele>46.6</ele><time>2026-05-21T22:07:41Z</time></trkpt>
			<trkpt lat="54.404050" lon="21.518680"><ele>46.2</ele><time>2026-05-21T22:07:50Z</time></trkpt>
			<trkpt lat="54.407700" lon="21.514050"><ele>47.9</ele><time>2026-05-21T22:08:00Z</time></trkpt>
			<trkpt lat="54.407920" lon="21.513770"><ele>48.1</ele><time>2026-05-21T22:08:09Z</time></trkpt>
			<trkpt lat="54.415630" lon="21.506270"><ele>43.8</ele><time>2026-05-21T22:08:18Z</time></trkpt>
			<trkpt lat="54.419590" lon="21.502470"><ele>41.1</ele><time>2026-05-21T22:08:28Z</time></trkpt>
			<trkpt lat="54.419790" lon="21.502320"><ele>41.2</ele><time>2026-05-21T22:08:37Z</time></trkpt>
			<trkpt lat="54.419950" lon="21.502260"><ele>41.2</ele><time>2026-05-21T22:08:46Z</time></trkpt>
			<trkpt lat="54.420080" lon="21.502280"><ele>41.2</ele><time>2026-05-21T22:08:56Z</time></trkpt>
			<trkpt lat="54.420260" lon="21.502380"><ele>41.3</ele><time>2026-05-21T22:09:05Z</time></trkpt>
			<trkpt lat="54.420400" lon="21.502410"><ele>41.3</ele><time>2026-05-21T22:09:14Z</time></trkpt>
			<trkpt lat="54.420530" lon="21.502310"><ele>41.3</ele><time>2026-05-21T22:09:24Z</time></trkpt>
			<trkpt lat="54.421190" lon="21.501440"><ele>41.5</ele><time>2026-05-21T22:09:33Z</time></trkpt>
			<trkpt lat="54.422030" lon="21.500190"><ele>41.8</ele><time>2026-05-21T22:09:42Z</time></trkpt>
			<trkpt lat="54.431710" lon="21.486800"><ele>40.8</ele><time>2026-05-21T22:09:52Z</time></trkpt>
			<trkpt lat="54.434740" lon="21.482490"><ele>37.3</ele><time>2026-05-21T22:10:01Z</time></trkpt>
			<trkpt lat="54.434950" lon="21.482250"><ele>37.1</ele><time>2026-05-21T22:10:11Z</time></trkpt>
			<trkpt lat="54.435150" lon="21.482070"><ele>36.9</ele><time>2026-05-21T22:10:20Z</time></trkpt>
			<trkpt lat="54.435390" lon="21.481940"><ele>36.6</ele><time>2026-05-21T22:10:29Z</time></trkpt>
			<trkpt lat="54.435550" lon="21.481880"><ele>36.5</ele><time>2026-05-21T22:10:39Z</time></trkpt>
			<trkpt lat="54.435820" lon="21.481860"><ele>36.2</ele><time>2026-05-21T22:10:48Z</time></trkpt>
			<trkpt lat="54.436070" lon="21.481930"><ele>36.0</ele><time>2026-05-21T22:10:57Z</time></trkpt>
			<trkpt lat="54.436170" lon="21.481990"><ele>35.9</ele><time>2026-05-21T22:11:07Z</time></trkpt>
			<trkpt lat="54.436260" lon="21.482070"><ele>35.8</ele><time>2026-05-21T22:11:16Z</time></trkpt>
			<trkpt lat="54.436350" lon="21.482160"><ele>35.7</ele><time>2026-05-21T22:11:25Z</time></trkpt>
			<trkpt lat="54.436480" lon="21.482330"><ele>35.7</ele><time>2026-05-21T22:11:35Z</time></trkpt>
			<trkpt lat="54.436900" lon="21.482910"><ele>36.2</ele><time>2026-05-21T22:11:44Z</time></trkpt>
			<trkpt lat="54.437610" lon="21.483930"><ele>37.1</ele><time>2026-05-21T22:11:53Z</time></trkpt>
			<trkpt lat="54.438170" lon="21.484670"><ele>37.8</ele><time>2026-05-21T22:12:03Z</time></trkpt>
			<trkpt lat="54.438240" lon="21.484760"><ele>37.9</ele><time>2026-05-21T22:12:12Z</time></trkpt>
			<trkpt lat="54.438830" lon="21.484740"><ele>38.5</ele><time>2026-05-21T22:12:21Z</time></trkpt>
			<trkpt lat="54.439590" lon="21.484070"><ele>39.3</ele><time>2026-05-21T22:12:31Z</time></trkpt>
			<trkpt lat="54.440280" lon="21.483370"><ele>40.1</ele><time>2026-05-21T22:12:40Z</time></trkpt>
			<trkpt lat="54.441880" lon="21.480960"><ele>40.5</ele><time>2026-05-21T22:12:50Z</time></trkpt>
			<trkpt lat="54.443430" lon="21.478430"><ele>39.9</ele><time>2026-05-21T22:12:59Z</time></trkpt>
			<trkpt lat="54.443480" lon="21.478340"><ele>39.9</ele><time>2026-05-21T22:13:08Z</time></trkpt>
			<trkpt lat="54.443860" lon="21.477750"><ele>39.7</ele><time>2026-05-21T22:13:18Z</time></trkpt>
			<trkpt lat="54.444660" lon="21.476430"><ele>39.4</ele><time>2026-05-21T22:13:27Z</time></trkpt>
			<trkpt lat="54.445280" lon="21.475410"><ele>39.2</ele><time>2026-05-21T22:13:36Z</time></trkpt>
			<trkpt lat="54.445890" lon="21.474410"><ele>39.0</ele><time>2026-05-21T22:13:46Z</time></trkpt>
			<trkpt lat="54.446310" lon="21.473730"><ele>38.8</ele><time>2026-05-21T22:13:55Z</time></trkpt>
			<trkpt lat="54.446380" lon="21.473600"><ele>38.8</ele><time>2026-05-21T22:14:04Z</time></trkpt>
			<trkpt lat="54.448140" lon="21.470760"><ele>38.2</ele><time>2026-05-21T22:14:14Z</time></trkpt>
			<trkpt lat="54.448530" lon="21.470130"><ele>38.0</ele><time>2026-05-21T22:14:23Z</time></trkpt>
			<trkpt lat="54.449730" lon="21.468110"><ele>37.7</ele><time>2026-05-21T22:14:32Z</time></trkpt>
			<trkpt lat="54.453930" lon="21.461180"><ele>36.2</ele><time>2026-05-21T22:14:42Z</time></trkpt>
			<trkpt lat="54.454950" lon="21.459550"><ele>35.8</ele><time>2026-05-21T22:14:51Z</time></trkpt>
			<trkpt lat="54.456690" lon="21.457370"><ele>35.1</ele><time>2026-05-21T22:15:01Z</time></trkpt>
			<trkpt lat="54.456880" lon="21.457140"><ele>35.2</ele><time>2026-05-21T22:15:10Z</time></trkpt>
			<trkpt lat="54.457790" lon="21.456000"><ele>35.5</ele><time>2026-05-21T22:15:19Z</time></trkpt>
			<trkpt lat="54.459480" lon="21.453890"><ele>36.1</ele><time>2026-05-21T22:15:29Z</time></trkpt>
			<trkpt lat="54.459660" lon="21.453730"><ele>36.1</ele><time>2026-05-21T22:15:38Z</time></trkpt>
			<trkpt lat="54.459850" lon="21.453610"><ele>36.2</ele><time>2026-05-21T22:15:47Z</time></trkpt>
			<trkpt lat="54.461550" lon="21.452870"><ele>36.6</ele><time>2026-05-21T22:15:57Z</time></trkpt>
			<trkpt lat="54.462940" lon="21.452290"><ele>36.2</ele><time>2026-05-21T22:16:06Z</time></trkpt>
			<trkpt lat="54.469180" lon="21.449610"><ele>36.4</ele><time>2026-05-21T22:16:15Z</time></trkpt>
			<trkpt lat="54.469990" lon="21.449270"><ele>36.9</ele><time>2026-05-21T22:16:25Z</time></trkpt>
			<trkpt lat="54.472150" lon="21.448350"><ele>37.6</ele><time>2026-05-21T22:16:34Z</time></trkpt>
			<trkpt lat="54.473250" lon="21.447860"><ele>35.9</ele><time>2026-05-21T22:16:43Z</time></trkpt>
			<trkpt lat="54.474320" lon="21.447510"><ele>34.4</ele><time>2026-05-21T22:16:53Z</time></trkpt>
			<trkpt lat="54.482300" lon="21.444990"><ele>33.8</ele><time>2026-05-21T22:17:02Z</time></trkpt>
			<trkpt lat="54.493910" lon="21.441360"><ele>28.9</ele><time>2026-05-21T22:17:12Z</time></trkpt>
			<trkpt lat="54.496830" lon="21.440460"><ele>27.0</ele><time>2026-05-21T22:17:21Z</time></trkpt>
			<trkpt lat="54.497610" lon="21.440190"><ele>26.5</ele><time>2026-05-21T22:17:30Z</time></trkpt>
			<trkpt lat="54.497870" lon="21.440000"><ele>26.4</ele><time>2026-05-21T22:17:40Z</time></trkpt>
			<trkpt lat="54.498110" lon="21.439780"><ele>26.2</ele><time>2026-05-21T22:17:49Z</time></trkpt>
			<trkpt lat="54.498410" lon="21.439400"><ele>26.0</ele><time>2026-05-21T22:17:58Z</time></trkpt>
			<trkpt lat="54.498760" lon="21.438830"><ele>26.0</ele><time>2026-05-21T22:18:08Z</time></trkpt>
			<trkpt lat="54.498980" lon="21.438330"><ele>26.0</ele><time>2026-05-21T22:18:17Z</time></trkpt>
			<trkpt lat="54.500150" lon="21.435450"><ele>26.1</ele><time>2026-05-21T22:18:26Z</time></trkpt>
			<trkpt lat="54.500550" lon="21.434390"><ele>26.1</ele><time>2026-05-21T22:18:36Z</time></trkpt>
			<trkpt lat="54.500590" lon="21.434250"><ele>26.1</ele><time>2026-05-21T22:18:45Z</time></trkpt>
			<trkpt lat="54.500620" lon="21.434110"><ele>26.1</ele><time>2026-05-21T22:18:54Z</time></trkpt>
			<trkpt lat="54.500630" lon="21.433960"><ele>26.1</ele><time>2026-05-21T22:19:04Z</time></trkpt>
			<trkpt lat="54.500640" lon="21.433810"><ele>26.1</ele><time>2026-05-21T22:19:13Z</time></trkpt>
			<trkpt lat="54.500620" lon="21.433340"><ele>26.1</ele><time>2026-05-21T22:19:23Z</time></trkpt>
			<trkpt lat="54.500360" lon="21.430680"><ele>26.6</ele><time>2026-05-21T22:19:32Z</time></trkpt>
			<trkpt lat="54.500250" lon="21.429810"><ele>27.0</ele><time>2026-05-21T22:19:41Z</time></trkpt>
			<trkpt lat="54.500190" lon="21.429550"><ele>27.2</ele><time>2026-05-21T22:19:51Z</time></trkpt>
			<trkpt lat="54.499700" lon="21.427610"><ele>28.2</ele><time>2026-05-21T22:20:00Z</time></trkpt>
			<trkpt lat="54.499590" lon="21.427200"><ele>28.5</ele><time>2026-05-21T22:20:09Z</time></trkpt>
			<trkpt lat="54.499510" lon="21.426780"><ele>28.7</ele><time>2026-05-21T22:20:19Z</time></trkpt>
			<trkpt lat="54.499450" lon="21.426390"><ele>28.9</ele><time>2026-05-21T22:20:28Z</time></trkpt>
			<trkpt lat="54.499420" lon="21.426000"><ele>29.1</ele><time>2026-05-21T22:20:37Z</time></trkpt>
			<trkpt lat="54.499350" lon="21.423910"><ele>30.1</ele><time>2026-05-21T22:20:47Z</time></trkpt>
			<trkpt lat="54.499340" lon="21.422860"><ele>30.7</ele><time>2026-05-21T22:20:56Z</time></trkpt>
			<trkpt lat="54.499340" lon="21.422380"><ele>30.7</ele><time>2026-05-21T22:21:05Z</time></trkpt>
			<trkpt lat="54.499360" lon="21.422000"><ele>30.5</ele><time>2026-05-21T22:21:15Z</time></trkpt>
			<trkpt lat="54.499440" lon="21.421650"><ele>30.3</ele><time>2026-05-21T22:21:24Z</time></trkpt>
			<trkpt lat="54.499520" lon="21.421390"><ele>30.1</ele><time>2026-05-21T22:21:33Z</time></trkpt>
			<trkpt lat="54.500090" lon="21.420050"><ele>29.1</ele><time>2026-05-21T22:21:43Z</time></trkpt>
			<trkpt lat="54.502390" lon="21.414530"><ele>25.4</ele><time>2026-05-21T22:21:52Z</time></trkpt>
			<trkpt lat="54.502860" lon="21.413360"><ele>25.4</ele><time>2026-05-21T22:22:02Z</time></trkpt>
			<trkpt lat="54.503680" lon="21.411400"><ele>25.5</ele><time>2026-05-21T22:22:11Z</time></trkpt>
			<trkpt lat="54.504200" lon="21.410180"><ele>25.5</ele><time>2026-05-21T22:22:20Z</time></trkpt>
			<trkpt lat="54.504500" lon="21.409290"><ele>25.5</ele><time>2026-05-21T22:22:30Z</time></trkpt>
			<trkpt lat="54.504950" lon="21.407560"><ele>25.6</ele><time>2026-05-21T22:22:39Z</time></trkpt>
			<trkpt lat="54.505500" lon="21.405370"><ele>26.3</ele><time>2026-05-21T22:22:48Z</time></trkpt>
			<trkpt lat="54.505580" lon="21.404730"><ele>26.6</ele><time>2026-05-21T22:22:58Z</time></trkpt>
			<trkpt lat="54.505590" lon="21.404290"><ele>26.7</ele><time>2026-05-21T22:23:07Z</time></trkpt>
			<trkpt lat="54.505580" lon="21.402110"><ele>27.6</ele><time>2026-05-21T22:23:16Z</time></trkpt>
			<trkpt lat="54.505570" lon="21.399720"><ele>28.6</ele><time>2026-05-21T22:23:26Z</time></trkpt>
			<trkpt lat="54.505500" lon="21.389440"><ele>30.5</ele><time>2026-05-21T22:23:35Z</time></trkpt>
			<trkpt lat="54.505500" lon="21.382260"><ele>29.2</ele><time>2026-05-21T22:23:44Z</time></trkpt>
			<trkpt lat="54.505490" lon="21.380890"><ele>28.9</ele><time>2026-05-21T22:23:54Z</time></trkpt>
			<trkpt lat="54.506340" lon="21.353030"><ele>24.9</ele><time>2026-05-21T22:24:03Z</time></trkpt>
			<trkpt lat="54.506490" lon="21.348190"><ele>25.0</ele><time>2026-05-21T22:24:13Z</time></trkpt>
			<trkpt lat="54.506690" lon="21.342230"><ele>25.4</ele><time>2026-05-21T22:24:22Z</time></trkpt>
			<trkpt lat="54.506750" lon="21.340350"><ele>25.6</ele><time>2026-05-21T22:24:31Z</time></trkpt>
			<trkpt lat="54.506860" lon="21.337320"><ele>25.9</ele><time>2026-05-21T22:24:41Z</time></trkpt>
			<trkpt lat="54.506920" lon="21.336660"><ele>25.9</ele><time>2026-05-21T22:24:50Z</time></trkpt>
			<trkpt lat="54.507280" lon="21.335460"><ele>26.0</ele><time>2026-05-21T22:24:59Z</time></trkpt>
			<trkpt lat="54.507410" lon="21.334680"><ele>26.1</ele><time>2026-05-21T22:25:09Z</time></trkpt>
			<trkpt lat="54.507590" lon="21.333240"><ele>26.3</ele><time>2026-05-21T22:25:18Z</time></trkpt>
			<trkpt lat="54.508020" lon="21.330460"><ele>23.8</ele><time>2026-05-21T22:25:27Z</time></trkpt>
			<trkpt lat="54.508130" lon="21.330050"><ele>23.4</ele><time>2026-05-21T22:25:37Z</time></trkpt>
			<trkpt lat="54.508240" lon="21.329790"><ele>23.1</ele><time>2026-05-21T22:25:46Z</time></trkpt>
			<trkpt lat="54.508160" lon="21.328940"><ele>22.4</ele><time>2026-05-21T22:25:55Z</time></trkpt>
			<trkpt lat="54.508130" lon="21.328680"><ele>22.1</ele><time>2026-05-21T22:26:05Z</time></trkpt>
			<trkpt lat="54.508000" lon="21.328460"><ele>21.9</ele><time>2026-05-21T22:26:14Z</time></trkpt>
			<trkpt lat="54.507560" lon="21.328020"><ele>21.1</ele><time>2026-05-21T22:26:24Z</time></trkpt>
			<trkpt lat="54.507440" lon="21.327780"><ele>20.8</ele><time>2026-05-21T22:26:33Z</time></trkpt>
			<trkpt lat="54.507290" lon="21.327240"><ele>20.3</ele><time>2026-05-21T22:26:42Z</time></trkpt>
			<trkpt lat="54.507220" lon="21.326880"><ele>19.9</ele><time>2026-05-21T22:26:52Z</time></trkpt>
			<trkpt lat="54.507150" lon="21.326570"><ele>19.6</ele><time>2026-05-21T22:27:01Z</time></trkpt>
			<trkpt lat="54.507130" lon="21.326350"><ele>19.4</ele><time>2026-05-21T22:27:10Z</time></trkpt>
			<trkpt lat="54.507180" lon="21.326060"><ele>19.2</ele><time>2026-05-21T22:27:20Z</time></trkpt>
			<trkpt lat="54.507240" lon="21.325990"><ele>19.1</ele><time>2026-05-21T22:27:29Z</time></trkpt>
			<trkpt lat="54.507390" lon="21.325940"><ele>18.8</ele><time>2026-05-21T22:27:38Z</time></trkpt>
			<trkpt lat="54.507770" lon="21.325900"><ele>18.2</ele><time>2026-05-21T22:27:48Z</time></trkpt>
			<trkpt lat="54.507940" lon="21.325800"><ele>18.0</ele><time>2026-05-21T22:27:57Z</time></trkpt>
			<trkpt lat="54.508200" lon="21.325100"><ele>18.6</ele><time>2026-05-21T22:28:06Z</time></trkpt>
			<trkpt lat="54.508490" lon="21.324080"><ele>19.3</ele><time>2026-05-21T22:28:16Z</time></trkpt>
			<trkpt lat="54.508740" lon="21.322840"><ele>20.1</ele><time>2026-05-21T22:28:25Z</time></trkpt>
			<trkpt lat="54.508770" lon="21.322410"><ele>20.4</ele><time>2026-05-21T22:28:35Z</time></trkpt>
			<trkpt lat="54.508740" lon="21.322000"><ele>20.7</ele><time>2026-05-21T22:28:44Z</time></trkpt>
			<trkpt lat="54.507880" lon="21.317140"><ele>23.9</ele><time>2026-05-21T22:28:53Z</time></trkpt>
			<trkpt lat="54.506640" lon="21.310130"><ele>23.9</ele><time>2026-05-21T22:29:03Z</time></trkpt>
			<trkpt lat="54.505950" lon="21.306440"><ele>24.2</ele><time>2026-05-21T22:29:12Z</time></trkpt>
			<trkpt lat="54.505100" lon="21.302220"><ele>24.7</ele><time>2026-05-21T22:29:21Z</time></trkpt>
			<trkpt lat="54.504940" lon="21.301240"><ele>24.9</ele><time>2026-05-21T22:29:31Z</time></trkpt>
			<trkpt lat="54.504900" lon="21.301000"><ele>24.9</ele><time>2026-05-21T22:29:40Z</time></trkpt>
			<trkpt lat="54.504560" lon="21.298160"><ele>25.5</ele><time>2026-05-21T22:29:49Z</time></trkpt>
			<trkpt lat="54.504380" lon="21.297410"><ele>25.8</ele><time>2026-05-21T22:29:59Z</time></trkpt>
			<trkpt lat="54.503660" lon="21.296390"><ele>26.4</ele><time>2026-05-21T22:30:08Z</time></trkpt>
			<trkpt lat="54.503360" lon="21.295540"><ele>26.8</ele><time>2026-05-21T22:30:17Z</time></trkpt>
			<trkpt lat="54.503170" lon="21.294010"><ele>27.4</ele><time>2026-05-21T22:30:27Z</time></trkpt>
			<trkpt lat="54.503090" lon="21.292220"><ele>28.0</ele><time>2026-05-21T22:30:36Z</time></trkpt>
			<trkpt lat="54.502850" lon="21.289290"><ele>28.9</ele><time>2026-05-21T22:30:46Z</time></trkpt>
			<trkpt lat="54.502670" lon="21.287750"><ele>29.2</ele><time>2026-05-21T22:30:55Z</time></trkpt>
			<trkpt lat="54.502410" lon="21.286080"><ele>29.6</ele><time>2026-05-21T22:31:04Z</time></trkpt>
			<trkpt lat="54.502270" lon="21.285010"><ele>29.9</ele><time>2026-05-21T22:31:14Z</time></trkpt>
			<trkpt lat="54.502230" lon="21.283900"><ele>30.1</ele><time>2026-05-21T22:31:23Z</time></trkpt>
			<trkpt lat="54.502300" lon="21.282630"><ele>30.4</ele><time>2026-05-21T22:31:32Z</time></trkpt>
			<trkpt lat="54.502490" lon="21.281830"><ele>30.6</ele><time>2026-05-21T22:31:42Z</time></trkpt>
			<trkpt lat="54.502820" lon="21.280870"><ele>29.6</ele><time>2026-05-21T22:31:51Z</time></trkpt>
			<trkpt lat="54.503100" lon="21.279840"><ele>28.7</ele><time>2026-05-21T22:32:00Z</time></trkpt>
			<trkpt lat="54.503800" lon="21.270470"><ele>20.4</ele><time>2026-05-21T22:32:10Z</time></trkpt>
			<trkpt lat="54.504350" lon="21.261580"><ele>14.1</ele><time>2026-05-21T22:32:19Z</time></trkpt>
			<trkpt lat="54.504470" lon="21.259160"><ele>14.4</ele><time>2026-05-21T22:32:28Z</time></trkpt>
			<trkpt lat="54.504480" lon="21.258780"><ele>14.4</ele><time>2026-05-21T22:32:38Z</time></trkpt>
			<trkpt lat="54.504450" lon="21.258440"><ele>14.4</ele><time>2026-05-21T22:32:47Z</time></trkpt>
			<trkpt lat="54.504420" lon="21.258330"><ele>14.5</ele><time>2026-05-21T22:32:56Z</time></trkpt>
			<trkpt lat="54.504250" lon="21.257610"><ele>14.5</ele><time>2026-05-21T22:33:06Z</time></trkpt>
			<trkpt lat="54.504240" lon="21.257540"><ele>14.5</ele><time>2026-05-21T22:33:15Z</time></trkpt>
			<trkpt lat="54.504170" lon="21.257320"><ele>14.6</ele><time>2026-05-21T22:33:25Z</time></trkpt>
			<trkpt lat="54.504080" lon="21.257080"><ele>14.6</ele><time>2026-05-21T22:33:34Z</time></trkpt>
			<trkpt lat="54.503870" lon="21.256740"><ele>14.6</ele><time>2026-05-21T22:33:43Z</time></trkpt>
			<trkpt lat="54.503770" lon="21.256510"><ele>14.7</ele><time>2026-05-21T22:33:53Z</time></trkpt>
			<trkpt lat="54.503650" lon="21.256220"><ele>14.7</ele><time>2026-05-21T22:34:02Z</time></trkpt>
			<trkpt lat="54.503490" lon="21.255800"><ele>14.8</ele><time>2026-05-21T22:34:11Z</time></trkpt>
			<trkpt lat="54.502880" lon="21.254040"><ele>14.6</ele><time>2026-05-21T22:34:21Z</time></trkpt>
			<trkpt lat="54.501570" lon="21.250230"><ele>13.8</ele><time>2026-05-21T22:34:30Z</time></trkpt>
			<trkpt lat="54.501130" lon="21.248460"><ele>13.4</ele><time>2026-05-21T22:34:39Z</time></trkpt>
			<trkpt lat="54.499920" lon="21.242350"><ele>13.6</ele><time>2026-05-21T22:34:49Z</time></trkpt>
			<trkpt lat="54.498120" lon="21.233060"><ele>10.0</ele><time>2026-05-21T22:34:58Z</time></trkpt>
			<trkpt lat="54.498120" lon="21.232510"><ele>9.5</ele><time>2026-05-21T22:35:07Z</time></trkpt>
			<trkpt lat="54.498350" lon="21.231150"><ele>8.4</ele><time>2026-05-21T22:35:17Z</time></trkpt>
			<trkpt lat="54.498670" lon="21.229590"><ele>7.1</ele><time>2026-05-21T22:35:26Z</time></trkpt>
			<trkpt lat="54.498750" lon="21.228420"><ele>7.3</ele><time>2026-05-21T22:35:36Z</time></trkpt>
			<trkpt lat="54.498760" lon="21.227880"><ele>7.9</ele><time>2026-05-21T22:35:45Z</time></trkpt>
			<trkpt lat="54.498760" lon="21.227090"><ele>8.8</ele><time>2026-05-21T22:35:54Z</time></trkpt>
			<trkpt lat="54.498760" lon="21.226690"><ele>9.2</ele><time>2026-05-21T22:36:04Z</time></trkpt>
			<trkpt lat="54.498570" lon="21.225550"><ele>10.5</ele><time>2026-05-21T22:36:13Z</time></trkpt>
			<trkpt lat="54.498170" lon="21.224030"><ele>12.3</ele><time>2026-05-21T22:36:22Z</time></trkpt>
			<trkpt lat="54.497970" lon="21.223330"><ele>13.2</ele><time>2026-05-21T22:36:32Z</time></trkpt>
			<trkpt lat="54.497840" lon="21.222870"><ele>13.7</ele><time>2026-05-21T22:36:41Z</time></trkpt>
			<trkpt lat="54.497550" lon="21.221740"><ele>15.1</ele><time>2026-05-21T22:36:50Z</time></trkpt>
			<trkpt lat="54.497290" lon="21.220680"><ele>16.3</ele><time>2026-05-21T22:37:00Z</time></trkpt>
			<trkpt lat="54.495940" lon="21.213280"><ele>17.0</ele><time>2026-05-21T22:37:09Z</time></trkpt>
			<trkpt lat="54.494540" lon="21.205690"><ele>11.5</ele><time>2026-05-21T22:37:18Z</time></trkpt>
			<trkpt lat="54.494230" lon="21.204110"><ele>10.0</ele><time>2026-05-21T22:37:28Z</time></trkpt>
			<trkpt lat="54.494160" lon="21.203650"><ele>9.5</ele><time>2026-05-21T22:37:37Z</time></trkpt>
			<trkpt lat="54.494170" lon="21.203450"><ele>9.4</ele><time>2026-05-21T22:37:47Z</time></trkpt>
			<trkpt lat="54.494280" lon="21.202840"><ele>8.8</ele><time>2026-05-21T22:37:56Z</time></trkpt>
			<trkpt lat="54.494280" lon="21.202310"><ele>8.5</ele><time>2026-05-21T22:38:05Z</time></trkpt>
			<trkpt lat="54.493830" lon="21.197530"><ele>8.1</ele><time>2026-05-21T22:38:15Z</time></trkpt>
			<trkpt lat="54.493800" lon="21.197200"><ele>8.1</ele><time>2026-05-21T22:38:24Z</time></trkpt>
			<trkpt lat="54.493760" lon="21.196700"><ele>8.0</ele><time>2026-05-21T22:38:33Z</time></trkpt>
			<trkpt lat="54.493740" lon="21.194850"><ele>7.9</ele><time>2026-05-21T22:38:43Z</time></trkpt>
			<trkpt lat="54.493700" lon="21.194470"><ele>7.8</ele><time>2026-05-21T22:38:52Z</time></trkpt>
			<trkpt lat="54.493630" lon="21.194240"><ele>7.8</ele><time>2026-05-21T22:39:01Z</time></trkpt>
			<trkpt lat="54.493540" lon="21.194010"><ele>7.8</ele><time>2026-05-21T22:39:11Z</time></trkpt>
			<trkpt lat="54.493180" lon="21.193250"><ele>8.0</ele><time>2026-05-21T22:39:20Z</time></trkpt>
			<trkpt lat="54.492890" lon="21.192750"><ele>8.5</ele><time>2026-05-21T22:39:29Z</time></trkpt>
			<trkpt lat="54.492800" lon="21.192660"><ele>8.6</ele><time>2026-05-21T22:39:39Z</time></trkpt>
			<trkpt lat="54.492720" lon="21.192570"><ele>8.7</ele><time>2026-05-21T22:39:48Z</time></trkpt>
			<trkpt lat="54.492580" lon="21.192440"><ele>8.9</ele><time>2026-05-21T22:39:58Z</time></trkpt>
			<trkpt lat="54.492070" lon="21.192160"><ele>9.5</ele><time>2026-05-21T22:40:07Z</time></trkpt>
			<trkpt lat="54.491930" lon="21.192070"><ele>9.7</ele><time>2026-05-21T22:40:16Z</time></trkpt>
			<trkpt lat="54.491650" lon="21.191780"><ele>10.0</ele><time>2026-05-21T22:40:26Z</time></trkpt>
			<trkpt lat="54.491560" lon="21.191690"><ele>10.2</ele><time>2026-05-21T22:40:35Z</time></trkpt>
			<trkpt lat="54.491110" lon="21.192610"><ele>11.0</ele><time>2026-05-21T22:40:44Z</time></trkpt>
			<trkpt lat="54.490700" lon="21.193480"><ele>11.7</ele><time>2026-05-21T22:40:54Z</time></trkpt>
			<trkpt lat="54.490010" lon="21.195230"><ele>13.1</ele><time>2026-05-21T22:41:03Z</time></trkpt>
			<trkpt lat="54.489700" lon="21.196160"><ele>13.8</ele><time>2026-05-21T22:41:12Z</time></trkpt>
			<trkpt lat="54.489030" lon="21.198110"><ele>11.9</ele><time>2026-05-21T22:41:22Z</time></trkpt>
			<trkpt lat="54.488820" lon="21.198770"><ele>11.3</ele><time>2026-05-21T22:41:31Z</time></trkpt>
			<trkpt lat="54.488660" lon="21.198550"><ele>10.9</ele><time>2026-05-21T22:41:40Z</time></trkpt>
			<trkpt lat="54.485950" lon="21.194670"><ele>5.5</ele><time>2026-05-21T22:41:50Z</time></trkpt>
			<trkpt lat="54.485810" lon="21.194490"><ele>5.6</ele><time>2026-05-21T22:41:59Z</time></trkpt>
			<trkpt lat="54.485670" lon="21.194340"><ele>5.8</ele><time>2026-05-21T22:42:08Z</time></trkpt>
			<trkpt lat="54.485500" lon="21.194280"><ele>5.9</ele><time>2026-05-21T22:42:18Z</time></trkpt>
			<trkpt lat="54.483510" lon="21.195110"><ele>7.7</ele><time>2026-05-21T22:42:27Z</time></trkpt>
			<trkpt lat="54.483000" lon="21.195290"><ele>8.1</ele><time>2026-05-21T22:42:37Z</time></trkpt>
			<trkpt lat="54.482660" lon="21.195280"><ele>8.4</ele><time>2026-05-21T22:42:46Z</time></trkpt>
			<trkpt lat="54.482260" lon="21.195220"><ele>8.8</ele><time>2026-05-21T22:42:55Z</time></trkpt>
			<trkpt lat="54.481900" lon="21.195070"><ele>9.1</ele><time>2026-05-21T22:43:05Z</time></trkpt>
			<trkpt lat="54.481350" lon="21.194710"><ele>9.6</ele><time>2026-05-21T22:43:14Z</time></trkpt>
			<trkpt lat="54.480800" lon="21.194250"><ele>10.1</ele><time>2026-05-21T22:43:23Z</time></trkpt>
			<trkpt lat="54.480240" lon="21.193740"><ele>10.0</ele><time>2026-05-21T22:43:33Z</time></trkpt>
			<trkpt lat="54.479820" lon="21.193250"><ele>9.9</ele><time>2026-05-21T22:43:42Z</time></trkpt>
			<trkpt lat="54.479520" lon="21.192710"><ele>9.8</ele><time>2026-05-21T22:43:51Z</time></trkpt>
			<trkpt lat="54.479110" lon="21.191600"><ele>9.6</ele><time>2026-05-21T22:44:01Z</time></trkpt>
			<trkpt lat="54.478800" lon="21.190530"><ele>9.5</ele><time>2026-05-21T22:44:10Z</time></trkpt>
			<trkpt lat="54.471340" lon="21.156980"><ele>18.3</ele><time>2026-05-21T22:44:19Z</time></trkpt>
			<trkpt lat="54.469430" lon="21.148390"><ele>19.2</ele><time>2026-05-21T22:44:29Z</time></trkpt>
			<trkpt lat="54.469430" lon="21.148390"><ele>19.2</ele><time>2026-05-21T22:44:35Z</time></trkpt>
			<trkpt lat="54.468040" lon="21.142190"><ele>20.0</ele><time>2026-05-21T22:44:41Z</time></trkpt>
			<trkpt lat="54.467810" lon="21.140860"><ele>20.0</ele><time>2026-05-21T22:44:48Z</time></trkpt>
			<trkpt lat="54.467400" lon="21.137390"><ele>20.0</ele><time>2026-05-21T22:44:54Z</time></trkpt>
			<trkpt lat="54.466860" lon="21.132540"><ele>21.2</ele><time>2026-05-21T22:45:00Z</time></trkpt>
			<trkpt lat="54.466730" lon="21.131260"><ele>22.1</ele><time>2026-05-21T22:45:07Z</time></trkpt>
			<trkpt lat="54.466310" lon="21.127380"><ele>24.7</ele><time>2026-05-21T22:45:13Z</time></trkpt>
			<trkpt lat="54.466240" lon="21.126600"><ele>25.2</ele><time>2026-05-21T22:45:19Z</time></trkpt>
			<trkpt lat="54.466060" lon="21.124340"><ele>25.7</ele><time>2026-05-21T22:45:25Z</time></trkpt>
			<trkpt lat="54.466010" lon="21.123530"><ele>25.3</ele><time>2026-05-21T22:45:32Z</time></trkpt>
			<trkpt lat="54.466010" lon="21.123460"><ele>25.2</ele><time>2026-05-21T22:45:38Z</time></trkpt>
			<trkpt lat="54.465890" lon="21.121610"><ele>24.3</ele><time>2026-05-21T22:45:44Z</time></trkpt>
			<trkpt lat="54.465580" lon="21.114610"><ele>21.7</ele><time>2026-05-21T22:45:51Z</time></trkpt>
			<trkpt lat="54.465210" lon="21.107070"><ele>22.5</ele><time>2026-05-21T22:45:57Z</time></trkpt>
			<trkpt lat="54.464870" lon="21.099300"><ele>22.4</ele><time>2026-05-21T22:46:03Z</time></trkpt>
			<trkpt lat="54.464840" lon="21.098760"><ele>22.4</ele><time>2026-05-21T22:46:09Z</time></trkpt>
			<trkpt lat="54.464580" lon="21.096200"><ele>22.5</ele><time>2026-05-21T22:46:16Z</time></trkpt>
			<trkpt lat="54.464390" lon="21.094330"><ele>22.7</ele><time>2026-05-21T22:46:22Z</time></trkpt>
			<trkpt lat="54.463910" lon="21.089900"><ele>23.2</ele><time>2026-05-21T22:46:28Z</time></trkpt>
			<trkpt lat="54.463800" lon="21.089190"><ele>23.3</ele><time>2026-05-21T22:46:35Z</time></trkpt>
			<trkpt lat="54.463040" lon="21.086550"><ele>23.4</ele><time>2026-05-21T22:46:41Z</time></trkpt>
			<trkpt lat="54.461330" lon="21.081010"><ele>23.7</ele><time>2026-05-21T22:46:47Z</time></trkpt>
			<trkpt lat="54.461150" lon="21.080350"><ele>23.8</ele><time>2026-05-21T22:46:53Z</time></trkpt>
			<trkpt lat="54.460940" lon="21.079430"><ele>24.0</ele><time>2026-05-21T22:47:00Z</time></trkpt>
			<trkpt lat="54.460690" lon="21.078190"><ele>24.4</ele><time>2026-05-21T22:47:06Z</time></trkpt>
			<trkpt lat="54.460580" lon="21.077390"><ele>24.6</ele><time>2026-05-21T22:47:12Z</time></trkpt>
			<trkpt lat="54.460510" lon="21.076660"><ele>24.8</ele><time>2026-05-21T22:47:19Z</time></trkpt>
			<trkpt lat="54.460330" lon="21.074470"><ele>25.4</ele><time>2026-05-21T22:47:25Z</time></trkpt>
			<trkpt lat="54.460170" lon="21.071700"><ele>26.2</ele><time>2026-05-21T22:47:31Z</time></trkpt>
			<trkpt lat="54.460050" lon="21.070420"><ele>26.7</ele><time>2026-05-21T22:47:38Z</time></trkpt>
			<trkpt lat="54.459990" lon="21.070020"><ele>26.8</ele><time>2026-05-21T22:47:44Z</time></trkpt>
			<trkpt lat="54.459880" lon="21.069430"><ele>27.1</ele><time>2026-05-21T22:47:50Z</time></trkpt>
			<trkpt lat="54.459600" lon="21.068180"><ele>27.7</ele><time>2026-05-21T22:47:56Z</time></trkpt>
			<trkpt lat="54.459130" lon="21.065780"><ele>28.8</ele><time>2026-05-21T22:48:03Z</time></trkpt>
			<trkpt lat="54.458500" lon="21.062840"><ele>30.2</ele><time>2026-05-21T22:48:09Z</time></trkpt>
			<trkpt lat="54.457990" lon="21.060360"><ele>29.4</ele><time>2026-05-21T22:48:15Z</time></trkpt>
			<trkpt lat="54.457670" lon="21.058990"><ele>28.7</ele><time>2026-05-21T22:48:22Z</time></trkpt>
			<trkpt lat="54.457370" lon="21.057900"><ele>28.2</ele><time>2026-05-21T22:48:28Z</time></trkpt>
			<trkpt lat="54.457250" lon="21.057500"><ele>27.9</ele><time>2026-05-21T22:48:34Z</time></trkpt>
			<trkpt lat="54.456830" lon="21.056340"><ele>27.3</ele><time>2026-05-21T22:48:40Z</time></trkpt>
			<trkpt lat="54.456290" lon="21.055080"><ele>26.5</ele><time>2026-05-21T22:48:47Z</time></trkpt>
			<trkpt lat="54.454620" lon="21.051510"><ele>25.5</ele><time>2026-05-21T22:48:53Z</time></trkpt>
			<trkpt lat="54.452960" lon="21.047920"><ele>24.8</ele><time>2026-05-21T22:48:59Z</time></trkpt>
			<trkpt lat="54.451910" lon="21.045620"><ele>25.0</ele><time>2026-05-21T22:49:06Z</time></trkpt>
			<trkpt lat="54.449730" lon="21.041000"><ele>26.3</ele><time>2026-05-21T22:49:12Z</time></trkpt>
			<trkpt lat="54.449000" lon="21.039360"><ele>26.7</ele><time>2026-05-21T22:49:18Z</time></trkpt>
			<trkpt lat="54.447270" lon="21.034780"><ele>26.8</ele><time>2026-05-21T22:49:24Z</time></trkpt>
			<trkpt lat="54.446710" lon="21.033270"><ele>26.8</ele><time>2026-05-21T22:49:31Z</time></trkpt>
			<trkpt lat="54.446440" lon="21.032570"><ele>26.8</ele><time>2026-05-21T22:49:37Z</time></trkpt>
			<trkpt lat="54.446300" lon="21.032180"><ele>26.8</ele><time>2026-05-21T22:49:43Z</time></trkpt>
			<trkpt lat="54.445820" lon="21.030880"><ele>25.8</ele><time>2026-05-21T22:49:50Z</time></trkpt>
			<trkpt lat="54.445780" lon="21.030760"><ele>25.7</ele><time>2026-05-21T22:49:56Z</time></trkpt>
			<trkpt lat="54.444850" lon="21.028270"><ele>23.1</ele><time>2026-05-21T22:50:02Z</time></trkpt>
			<trkpt lat="54.444670" lon="21.027670"><ele>22.6</ele><time>2026-05-21T22:50:08Z</time></trkpt>
			<trkpt lat="54.444560" lon="21.027120"><ele>22.1</ele><time>2026-05-21T22:50:15Z</time></trkpt>
			<trkpt lat="54.444250" lon="21.024460"><ele>19.8</ele><time>2026-05-21T22:50:21Z</time></trkpt>
			<trkpt lat="54.444150" lon="21.023710"><ele>19.1</ele><time>2026-05-21T22:50:27Z</time></trkpt>
			<trkpt lat="54.444200" lon="21.023450"><ele>19.0</ele><time>2026-05-21T22:50:34Z</time></trkpt>
			<trkpt lat="54.444350" lon="21.023110"><ele>19.4</ele><time>2026-05-21T22:50:40Z</time></trkpt>
			<trkpt lat="54.444500" lon="21.022860"><ele>19.7</ele><time>2026-05-21T22:50:46Z</time></trkpt>
			<trkpt lat="54.444590" lon="21.022780"><ele>19.8</ele><time>2026-05-21T22:50:52Z</time></trkpt>
			<trkpt lat="54.445280" lon="21.022220"><ele>20.9</ele><time>2026-05-21T22:50:59Z</time></trkpt>
			<trkpt lat="54.445780" lon="21.021790"><ele>21.8</ele><time>2026-05-21T22:51:05Z</time></trkpt>
			<trkpt lat="54.446070" lon="21.021510"><ele>22.2</ele><time>2026-05-21T22:51:11Z</time></trkpt>
			<trkpt lat="54.446290" lon="21.021280"><ele>22.6</ele><time>2026-05-21T22:51:18Z</time></trkpt>
			<trkpt lat="54.446500" lon="21.021120"><ele>22.9</ele><time>2026-05-21T22:51:24Z</time></trkpt>
			<trkpt lat="54.446630" lon="21.020650"><ele>23.4</ele><time>2026-05-21T22:51:30Z</time></trkpt>
			<trkpt lat="54.446730" lon="21.020490"><ele>23.6</ele><time>2026-05-21T22:51:37Z</time></trkpt>
			<trkpt lat="54.446750" lon="21.020340"><ele>23.7</ele><time>2026-05-21T22:51:43Z</time></trkpt>
			<trkpt lat="54.446770" lon="21.020250"><ele>23.8</ele><time>2026-05-21T22:51:49Z</time></trkpt>
			<trkpt lat="54.446770" lon="21.019990"><ele>24.0</ele><time>2026-05-21T22:51:55Z</time></trkpt>
			<trkpt lat="54.446630" lon="21.018930"><ele>24.9</ele><time>2026-05-21T22:52:02Z</time></trkpt>
			<trkpt lat="54.446620" lon="21.018850"><ele>25.0</ele><time>2026-05-21T22:52:08Z</time></trkpt>
			<trkpt lat="54.446590" lon="21.018630"><ele>25.2</ele><time>2026-05-21T22:52:14Z</time></trkpt>
			<trkpt lat="54.446550" lon="21.018310"><ele>25.5</ele><time>2026-05-21T22:52:21Z</time></trkpt>
			<trkpt lat="54.446510" lon="21.018000"><ele>25.7</ele><time>2026-05-21T22:52:27Z</time></trkpt>
			<trkpt lat="54.446430" lon="21.017400"><ele>26.2</ele><time>2026-05-21T22:52:33Z</time></trkpt>
			<trkpt lat="54.446390" lon="21.017150"><ele>26.5</ele><time>2026-05-21T22:52:39Z</time></trkpt>
			<trkpt lat="54.446370" lon="21.017060"><ele>26.5</ele><time>2026-05-21T22:52:46Z</time></trkpt>
			<trkpt lat="54.446040" lon="21.016320"><ele>26.8</ele><time>2026-05-21T22:52:52Z</time></trkpt>
			<trkpt lat="54.445630" lon="21.014250"><ele>26.8</ele><time>2026-05-21T22:52:58Z</time></trkpt>
			<trkpt lat="54.445460" lon="21.013390"><ele>26.8</ele><time>2026-05-21T22:53:05Z</time></trkpt>
			<trkpt lat="54.445180" lon="21.011950"><ele>26.8</ele><time>2026-05-21T22:53:11Z</time></trkpt>
			<trkpt lat="54.445090" lon="21.011530"><ele>26.8</ele><time>2026-05-21T22:53:17Z</time></trkpt>
			<trkpt lat="54.444940" lon="21.010930"><ele>26.8</ele><time>2026-05-21T22:53:23Z</time></trkpt>
			<trkpt lat="54.444710" lon="21.010120"><ele>26.8</ele><time>2026-05-21T22:53:30Z</time></trkpt>
			<trkpt lat="54.444400" lon="21.009340"><ele>26.8</ele><time>2026-05-21T22:53:36Z</time></trkpt>
			<trkpt lat="54.443950" lon="21.007900"><ele>27.1</ele><time>2026-05-21T22:53:42Z</time></trkpt>
			<trkpt lat="54.443420" lon="21.006040"><ele>28.1</ele><time>2026-05-21T22:53:49Z</time></trkpt>
			<trkpt lat="54.443390" lon="21.005890"><ele>28.2</ele><time>2026-05-21T22:53:55Z</time></trkpt>
			<trkpt lat="54.443050" lon="21.004300"><ele>29.0</ele><time>2026-05-21T22:54:01Z</time></trkpt>
			<trkpt lat="54.442740" lon="21.002760"><ele>29.9</ele><time>2026-05-21T22:54:07Z</time></trkpt>
			<trkpt lat="54.442390" lon="21.001050"><ele>30.8</ele><time>2026-05-21T22:54:14Z</time></trkpt>
			<trkpt lat="54.442120" lon="20.999660"><ele>31.5</ele><time>2026-05-21T22:54:20Z</time></trkpt>
			<trkpt lat="54.441990" lon="20.999440"><ele>31.5</ele><time>2026-05-21T22:54:26Z</time></trkpt>
			<trkpt lat="54.441760" lon="20.999380"><ele>31.5</ele><time>2026-05-21T22:54:33Z</time></trkpt>
			<trkpt lat="54.441620" lon="20.999220"><ele>31.5</ele><time>2026-05-21T22:54:39Z</time></trkpt>
			<trkpt lat="54.441600" lon="20.998990"><ele>31.5</ele><time>2026-05-21T22:54:45Z</time></trkpt>
			<trkpt lat="54.441600" lon="20.998570"><ele>31.5</ele><time>2026-05-21T22:54:51Z</time></trkpt>
			<trkpt lat="54.441630" lon="20.997850"><ele>31.5</ele><time>2026-05-21T22:54:58Z</time></trkpt>
			<trkpt lat="54.441630" lon="20.997330"><ele>31.5</ele><time>2026-05-21T22:55:04Z</time></trkpt>
			<trkpt lat="54.441300" lon="20.995710"><ele>31.5</ele><time>2026-05-21T22:55:10Z</time></trkpt>
			<trkpt lat="54.440920" lon="20.993780"><ele>31.5</ele><time>2026-05-21T22:55:17Z</time></trkpt>
			<trkpt lat="54.440320" lon="20.990720"><ele>31.5</ele><time>2026-05-21T22:55:23Z</time></trkpt>
			<trkpt lat="54.439990" lon="20.989030"><ele>31.4</ele><time>2026-05-21T22:55:29Z</time></trkpt>
			<trkpt lat="54.439900" lon="20.988570"><ele>31.4</ele><time>2026-05-21T22:55:36Z</time></trkpt>
			<trkpt lat="54.439680" lon="20.987470"><ele>31.4</ele><time>2026-05-21T22:55:42Z</time></trkpt>
			<trkpt lat="54.439520" lon="20.986650"><ele>31.4</ele><time>2026-05-21T22:55:48Z</time></trkpt>
			<trkpt lat="54.439490" lon="20.986490"><ele>31.4</ele><time>2026-05-21T22:55:54Z</time></trkpt>
			<trkpt lat="54.439390" lon="20.985950"><ele>31.4</ele><time>2026-05-21T22:56:01Z</time></trkpt>
			<trkpt lat="54.438800" lon="20.983020"><ele>31.3</ele><time>2026-05-21T22:56:07Z</time></trkpt>
			<trkpt lat="54.438650" lon="20.982230"><ele>31.3</ele><time>2026-05-21T22:56:13Z</time></trkpt>
			<trkpt lat="54.438510" lon="20.981340"><ele>31.4</ele><time>2026-05-21T22:56:20Z</time></trkpt>
			<trkpt lat="54.438320" lon="20.980740"><ele>31.4</ele><time>2026-05-21T22:56:26Z</time></trkpt>
			<trkpt lat="54.437620" lon="20.978770"><ele>31.6</ele><time>2026-05-21T22:56:32Z</time></trkpt>
			<trkpt lat="54.437620" lon="20.978770"><ele>31.6</ele><time>2026-05-21T22:56:41Z</time></trkpt>
			<trkpt lat="54.436620" lon="20.975920"><ele>31.9</ele><time>2026-05-21T22:56:50Z</time></trkpt>
			<trkpt lat="54.435480" lon="20.972710"><ele>30.9</ele><time>2026-05-21T22:56:59Z</time></trkpt>
			<trkpt lat="54.435070" lon="20.971420"><ele>30.1</ele><time>2026-05-21T22:57:08Z</time></trkpt>
			<trkpt lat="54.434390" lon="20.969490"><ele>28.9</ele><time>2026-05-21T22:57:17Z</time></trkpt>
			<trkpt lat="54.434140" lon="20.968650"><ele>28.5</ele><time>2026-05-21T22:57:26Z</time></trkpt>
			<trkpt lat="54.433790" lon="20.966960"><ele>27.5</ele><time>2026-05-21T22:57:34Z</time></trkpt>
			<trkpt lat="54.433530" lon="20.966070"><ele>27.5</ele><time>2026-05-21T22:57:43Z</time></trkpt>
			<trkpt lat="54.433090" lon="20.964950"><ele>28.6</ele><time>2026-05-21T22:57:52Z</time></trkpt>
			<trkpt lat="54.432430" lon="20.963440"><ele>30.2</ele><time>2026-05-21T22:58:01Z</time></trkpt>
			<trkpt lat="54.432100" lon="20.962780"><ele>30.9</ele><time>2026-05-21T22:58:10Z</time></trkpt>
			<trkpt lat="54.431690" lon="20.962250"><ele>31.6</ele><time>2026-05-21T22:58:19Z</time></trkpt>
			<trkpt lat="54.428700" lon="20.958890"><ele>34.2</ele><time>2026-05-21T22:58:28Z</time></trkpt>
			<trkpt lat="54.427450" lon="20.957460"><ele>33.4</ele><time>2026-05-21T22:58:37Z</time></trkpt>
			<trkpt lat="54.426930" lon="20.956510"><ele>33.0</ele><time>2026-05-21T22:58:46Z</time></trkpt>
			<trkpt lat="54.426350" lon="20.955350"><ele>32.5</ele><time>2026-05-21T22:58:54Z</time></trkpt>
			<trkpt lat="54.425480" lon="20.953730"><ele>32.2</ele><time>2026-05-21T22:59:03Z</time></trkpt>
			<trkpt lat="54.424880" lon="20.952550"><ele>33.0</ele><time>2026-05-21T22:59:12Z</time></trkpt>
			<trkpt lat="54.424110" lon="20.950310"><ele>34.3</ele><time>2026-05-21T22:59:21Z</time></trkpt>
			<trkpt lat="54.423060" lon="20.947530"><ele>36.0</ele><time>2026-05-21T22:59:30Z</time></trkpt>
			<trkpt lat="54.422220" lon="20.945140"><ele>36.4</ele><time>2026-05-21T22:59:39Z</time></trkpt>
			<trkpt lat="54.421900" lon="20.944210"><ele>36.2</ele><time>2026-05-21T22:59:48Z</time></trkpt>
			<trkpt lat="54.421720" lon="20.943770"><ele>36.2</ele><time>2026-05-21T22:59:57Z</time></trkpt>
			<trkpt lat="54.421440" lon="20.943410"><ele>36.1</ele><time>2026-05-21T23:00:06Z</time></trkpt>
			<trkpt lat="54.420840" lon="20.942950"><ele>35.9</ele><time>2026-05-21T23:00:15Z</time></trkpt>
			<trkpt lat="54.418870" lon="20.941500"><ele>35.5</ele><time>2026-05-21T23:00:23Z</time></trkpt>
			<trkpt lat="54.418410" lon="20.941180"><ele>35.4</ele><time>2026-05-21T23:00:32Z</time></trkpt>
			<trkpt lat="54.416210" lon="20.939610"><ele>36.5</ele><time>2026-05-21T23:00:41Z</time></trkpt>
			<trkpt lat="54.413710" lon="20.937900"><ele>37.8</ele><time>2026-05-21T23:00:50Z</time></trkpt>
			<trkpt lat="54.412070" lon="20.936710"><ele>38.4</ele><time>2026-05-21T23:00:59Z</time></trkpt>
			<trkpt lat="54.407990" lon="20.934640"><ele>40.1</ele><time>2026-05-21T23:01:08Z</time></trkpt>
			<trkpt lat="54.406740" lon="20.934100"><ele>40.9</ele><time>2026-05-21T23:01:17Z</time></trkpt>
			<trkpt lat="54.406420" lon="20.933930"><ele>41.1</ele><time>2026-05-21T23:01:26Z</time></trkpt>
			<trkpt lat="54.406180" lon="20.933570"><ele>41.3</ele><time>2026-05-21T23:01:35Z</time></trkpt>
			<trkpt lat="54.406170" lon="20.933540"><ele>41.3</ele><time>2026-05-21T23:01:43Z</time></trkpt>
			<trkpt lat="54.406000" lon="20.933030"><ele>41.5</ele><time>2026-05-21T23:01:52Z</time></trkpt>
			<trkpt lat="54.405950" lon="20.932390"><ele>41.7</ele><time>2026-05-21T23:02:01Z</time></trkpt>
			<trkpt lat="54.406040" lon="20.931660"><ele>42.0</ele><time>2026-05-21T23:02:10Z</time></trkpt>
			<trkpt lat="54.406380" lon="20.928930"><ele>43.0</ele><time>2026-05-21T23:02:19Z</time></trkpt>
			<trkpt lat="54.406780" lon="20.925640"><ele>39.9</ele><time>2026-05-21T23:02:28Z</time></trkpt>
			<trkpt lat="54.407140" lon="20.922770"><ele>36.6</ele><time>2026-05-21T23:02:37Z</time></trkpt>
			<trkpt lat="54.407740" lon="20.917710"><ele>33.3</ele><time>2026-05-21T23:02:46Z</time></trkpt>
			<trkpt lat="54.407770" lon="20.917350"><ele>33.4</ele><time>2026-05-21T23:02:55Z</time></trkpt>
			<trkpt lat="54.407760" lon="20.916950"><ele>33.5</ele><time>2026-05-21T23:03:04Z</time></trkpt>
			<trkpt lat="54.407700" lon="20.916340"><ele>33.7</ele><time>2026-05-21T23:03:12Z</time></trkpt>
			<trkpt lat="54.407580" lon="20.915550"><ele>33.9</ele><time>2026-05-21T23:03:21Z</time></trkpt>
			<trkpt lat="54.407530" lon="20.914650"><ele>34.2</ele><time>2026-05-21T23:03:30Z</time></trkpt>
			<trkpt lat="54.407410" lon="20.907440"><ele>38.8</ele><time>2026-05-21T23:03:39Z</time></trkpt>
			<trkpt lat="54.407350" lon="20.903950"><ele>43.0</ele><time>2026-05-21T23:03:48Z</time></trkpt>
			<trkpt lat="54.407290" lon="20.893320"><ele>46.6</ele><time>2026-05-21T23:03:57Z</time></trkpt>
			<trkpt lat="54.407280" lon="20.891190"><ele>46.6</ele><time>2026-05-21T23:04:06Z</time></trkpt>
			<trkpt lat="54.407270" lon="20.889110"><ele>46.5</ele><time>2026-05-21T23:04:15Z</time></trkpt>
			<trkpt lat="54.407170" lon="20.879140"><ele>48.4</ele><time>2026-05-21T23:04:24Z</time></trkpt>
			<trkpt lat="54.407570" lon="20.875940"><ele>50.4</ele><time>2026-05-21T23:04:32Z</time></trkpt>
			<trkpt lat="54.408060" lon="20.871460"><ele>54.0</ele><time>2026-05-21T23:04:41Z</time></trkpt>
			<trkpt lat="54.408780" lon="20.864820"><ele>60.7</ele><time>2026-05-21T23:04:50Z</time></trkpt>
			<trkpt lat="54.409010" lon="20.862660"><ele>62.5</ele><time>2026-05-21T23:04:59Z</time></trkpt>
			<trkpt lat="54.409320" lon="20.860030"><ele>64.5</ele><time>2026-05-21T23:05:08Z</time></trkpt>
			<trkpt lat="54.410300" lon="20.855460"><ele>68.0</ele><time>2026-05-21T23:05:17Z</time></trkpt>
			<trkpt lat="54.411530" lon="20.850230"><ele>73.2</ele><time>2026-05-21T23:05:26Z</time></trkpt>
			<trkpt lat="54.411640" lon="20.849850"><ele>73.5</ele><time>2026-05-21T23:05:35Z</time></trkpt>
			<trkpt lat="54.412750" lon="20.846150"><ele>75.9</ele><time>2026-05-21T23:05:44Z</time></trkpt>
			<trkpt lat="54.413870" lon="20.843400"><ele>72.9</ele><time>2026-05-21T23:05:53Z</time></trkpt>
			<trkpt lat="54.414040" lon="20.843000"><ele>72.5</ele><time>2026-05-21T23:06:01Z</time></trkpt>
			<trkpt lat="54.414340" lon="20.842970"><ele>72.0</ele><time>2026-05-21T23:06:10Z</time></trkpt>
			<trkpt lat="54.415020" lon="20.842910"><ele>70.9</ele><time>2026-05-21T23:06:19Z</time></trkpt>
			<trkpt lat="54.416860" lon="20.840280"><ele>69.1</ele><time>2026-05-21T23:06:28Z</time></trkpt>
			<trkpt lat="54.417710" lon="20.839060"><ele>70.5</ele><time>2026-05-21T23:06:37Z</time></trkpt>
			<trkpt lat="54.419610" lon="20.836010"><ele>73.8</ele><time>2026-05-21T23:06:46Z</time></trkpt>
			<trkpt lat="54.420620" lon="20.834190"><ele>75.1</ele><time>2026-05-21T23:06:55Z</time></trkpt>
			<trkpt lat="54.421190" lon="20.833270"><ele>75.3</ele><time>2026-05-21T23:07:04Z</time></trkpt>
			<trkpt lat="54.421670" lon="20.832730"><ele>75.4</ele><time>2026-05-21T23:07:13Z</time></trkpt>
			<trkpt lat="54.422010" lon="20.832560"><ele>75.5</ele><time>2026-05-21T23:07:21Z</time></trkpt>
			<trkpt lat="54.422500" lon="20.832430"><ele>75.6</ele><time>2026-05-21T23:07:30Z</time></trkpt>
			<trkpt lat="54.423040" lon="20.832130"><ele>75.7</ele><time>2026-05-21T23:07:39Z</time></trkpt>
			<trkpt lat="54.423210" lon="20.831940"><ele>75.8</ele><time>2026-05-21T23:07:48Z</time></trkpt>
			<trkpt lat="54.423320" lon="20.831740"><ele>75.8</ele><time>2026-05-21T23:07:57Z</time></trkpt>
			<trkpt lat="54.423380" lon="20.831510"><ele>75.8</ele><time>2026-05-21T23:08:06Z</time></trkpt>
			<trkpt lat="54.423410" lon="20.831210"><ele>75.9</ele><time>2026-05-21T23:08:15Z</time></trkpt>
			<trkpt lat="54.423340" lon="20.830420"><ele>76.0</ele><time>2026-05-21T23:08:24Z</time></trkpt>
			<trkpt lat="54.423380" lon="20.829280"><ele>76.1</ele><time>2026-05-21T23:08:33Z</time></trkpt>
			<trkpt lat="54.423440" lon="20.828590"><ele>76.2</ele><time>2026-05-21T23:08:42Z</time></trkpt>
			<trkpt lat="54.423600" lon="20.828190"><ele>76.4</ele><time>2026-05-21T23:08:50Z</time></trkpt>
			<trkpt lat="54.423770" lon="20.827950"><ele>76.5</ele><time>2026-05-21T23:08:59Z</time></trkpt>
			<trkpt lat="54.423920" lon="20.827750"><ele>76.6</ele><time>2026-05-21T23:09:08Z</time></trkpt>
			<trkpt lat="54.423790" lon="20.827120"><ele>76.7</ele><time>2026-05-21T23:09:17Z</time></trkpt>
			<trkpt lat="54.423740" lon="20.826900"><ele>76.8</ele><time>2026-05-21T23:09:26Z</time></trkpt>
			<trkpt lat="54.423660" lon="20.826520"><ele>76.9</ele><time>2026-05-21T23:09:35Z</time></trkpt>
			<trkpt lat="54.423640" lon="20.826350"><ele>77.0</ele><time>2026-05-21T23:09:44Z</time></trkpt>
			<trkpt lat="54.423700" lon="20.826140"><ele>77.0</ele><time>2026-05-21T23:09:53Z</time></trkpt>
			<trkpt lat="54.423840" lon="20.825830"><ele>77.1</ele><time>2026-05-21T23:10:02Z</time></trkpt>
			<trkpt lat="54.423960" lon="20.825440"><ele>77.3</ele><time>2026-05-21T23:10:10Z</time></trkpt>
			<trkpt lat="54.423990" lon="20.825230"><ele>77.3</ele><time>2026-05-21T23:10:19Z</time></trkpt>
			<trkpt lat="54.423990" lon="20.825020"><ele>77.4</ele><time>2026-05-21T23:10:28Z</time></trkpt>
			<trkpt lat="54.423970" lon="20.824730"><ele>77.5</ele><time>2026-05-21T23:10:37Z</time></trkpt>
			<trkpt lat="54.423910" lon="20.824420"><ele>77.5</ele><time>2026-05-21T23:10:46Z</time></trkpt>
			<trkpt lat="54.423790" lon="20.824080"><ele>77.7</ele><time>2026-05-21T23:10:55Z</time></trkpt>
			<trkpt lat="54.423060" lon="20.823340"><ele>78.1</ele><time>2026-05-21T23:11:04Z</time></trkpt>
			<trkpt lat="54.422870" lon="20.823120"><ele>78.2</ele><time>2026-05-21T23:11:13Z</time></trkpt>
			<trkpt lat="54.422500" lon="20.822590"><ele>78.4</ele><time>2026-05-21T23:11:22Z</time></trkpt>
			<trkpt lat="54.422070" lon="20.821680"><ele>78.7</ele><time>2026-05-21T23:11:31Z</time></trkpt>
			<trkpt lat="54.421800" lon="20.820370"><ele>78.7</ele><time>2026-05-21T23:11:39Z</time></trkpt>
			<trkpt lat="54.421650" lon="20.819910"><ele>78.7</ele><time>2026-05-21T23:11:48Z</time></trkpt>
			<trkpt lat="54.421620" lon="20.819810"><ele>78.7</ele><time>2026-05-21T23:11:57Z</time></trkpt>
			<trkpt lat="54.419390" lon="20.817980"><ele>78.5</ele><time>2026-05-21T23:12:06Z</time></trkpt>
			<trkpt lat="54.417580" lon="20.816480"><ele>78.7</ele><time>2026-05-21T23:12:15Z</time></trkpt>
			<trkpt lat="54.414410" lon="20.813880"><ele>84.7</ele><time>2026-05-21T23:12:24Z</time></trkpt>
			<trkpt lat="54.412790" lon="20.812900"><ele>87.6</ele><time>2026-05-21T23:12:33Z</time></trkpt>
			<trkpt lat="54.411170" lon="20.812110"><ele>89.3</ele><time>2026-05-21T23:12:42Z</time></trkpt>
			<trkpt lat="54.410570" lon="20.811690"><ele>89.9</ele><time>2026-05-21T23:12:51Z</time></trkpt>
			<trkpt lat="54.410430" lon="20.811510"><ele>90.0</ele><time>2026-05-21T23:13:00Z</time></trkpt>
			<trkpt lat="54.405730" lon="20.805710"><ele>91.6</ele><time>2026-05-21T23:13:08Z</time></trkpt>
			<trkpt lat="54.404930" lon="20.804710"><ele>91.2</ele><time>2026-05-21T23:13:17Z</time></trkpt>
			<trkpt lat="54.404550" lon="20.804110"><ele>91.0</ele><time>2026-05-21T23:13:26Z</time></trkpt>
			<trkpt lat="54.403470" lon="20.797520"><ele>94.5</ele><time>2026-05-21T23:13:35Z</time></trkpt>
			<trkpt lat="54.403160" lon="20.795700"><ele>96.0</ele><time>2026-05-21T23:13:44Z</time></trkpt>
			<trkpt lat="54.402840" lon="20.794250"><ele>97.1</ele><time>2026-05-21T23:13:53Z</time></trkpt>
			<trkpt lat="54.402430" lon="20.792750"><ele>97.7</ele><time>2026-05-21T23:14:02Z</time></trkpt>
			<trkpt lat="54.402140" lon="20.791350"><ele>97.7</ele><time>2026-05-21T23:14:11Z</time></trkpt>
			<trkpt lat="54.401900" lon="20.790610"><ele>97.7</ele><time>2026-05-21T23:14:20Z</time></trkpt>
			<trkpt lat="54.401820" lon="20.790500"><ele>97.7</ele><time>2026-05-21T23:14:28Z</time></trkpt>
			<trkpt lat="54.401380" lon="20.789820"><ele>97.7</ele><time>2026-05-21T23:14:37Z</time></trkpt>
			<trkpt lat="54.398920" lon="20.786850"><ele>97.9</ele><time>2026-05-21T23:14:46Z</time></trkpt>
			<trkpt lat="54.398390" lon="20.786330"><ele>98.1</ele><time>2026-05-21T23:14:55Z</time></trkpt>
			<trkpt lat="54.397540" lon="20.785740"><ele>98.5</ele><time>2026-05-21T23:15:04Z</time></trkpt>
			<trkpt lat="54.396480" lon="20.785240"><ele>98.9</ele><time>2026-05-21T23:15:13Z</time></trkpt>
			<trkpt lat="54.396030" lon="20.785030"><ele>99.1</ele><time>2026-05-21T23:15:22Z</time></trkpt>
			<trkpt lat="54.391440" lon="20.782740"><ele>97.7</ele><time>2026-05-21T23:15:31Z</time></trkpt>
			<trkpt lat="54.390440" lon="20.782350"><ele>96.9</ele><time>2026-05-21T23:15:40Z</time></trkpt>
			<trkpt lat="54.390270" lon="20.782000"><ele>96.7</ele><time>2026-05-21T23:15:49Z</time></trkpt>
			<trkpt lat="54.390080" lon="20.780970"><ele>96.1</ele><time>2026-05-21T23:15:57Z</time></trkpt>
			<trkpt lat="54.389830" lon="20.778810"><ele>94.6</ele><time>2026-05-21T23:16:06Z</time></trkpt>
			<trkpt lat="54.389640" lon="20.775840"><ele>91.3</ele><time>2026-05-21T23:16:15Z</time></trkpt>
			<trkpt lat="54.389610" lon="20.774630"><ele>89.9</ele><time>2026-05-21T23:16:24Z</time></trkpt>
			<trkpt lat="54.388890" lon="20.756660"><ele>78.7</ele><time>2026-05-21T23:16:33Z</time></trkpt>
			<trkpt lat="54.388860" lon="20.755260"><ele>77.5</ele><time>2026-05-21T23:16:42Z</time></trkpt>
			<trkpt lat="54.388520" lon="20.753980"><ele>76.3</ele><time>2026-05-21T23:16:51Z</time></trkpt>
			<trkpt lat="54.387730" lon="20.752360"><ele>74.8</ele><time>2026-05-21T23:17:00Z</time></trkpt>
			<trkpt lat="54.386530" lon="20.750060"><ele>75.3</ele><time>2026-05-21T23:17:09Z</time></trkpt>
			<trkpt lat="54.384900" lon="20.746950"><ele>76.1</ele><time>2026-05-21T23:17:17Z</time></trkpt>
			<trkpt lat="54.384450" lon="20.746160"><ele>76.3</ele><time>2026-05-21T23:17:26Z</time></trkpt>
			<trkpt lat="54.384140" lon="20.744980"><ele>75.6</ele><time>2026-05-21T23:17:35Z</time></trkpt>
			<trkpt lat="54.381090" lon="20.730000"><ele>62.7</ele><time>2026-05-21T23:17:44Z</time></trkpt>
			<trkpt lat="54.381010" lon="20.729010"><ele>62.5</ele><time>2026-05-21T23:17:53Z</time></trkpt>
			<trkpt lat="54.381110" lon="20.725450"><ele>62.5</ele><time>2026-05-21T23:18:02Z</time></trkpt>
			<trkpt lat="54.381060" lon="20.724660"><ele>62.6</ele><time>2026-05-21T23:18:11Z</time></trkpt>
			<trkpt lat="54.380950" lon="20.723930"><ele>62.6</ele><time>2026-05-21T23:18:20Z</time></trkpt>
			<trkpt lat="54.380840" lon="20.723230"><ele>62.7</ele><time>2026-05-21T23:18:29Z</time></trkpt>
			<trkpt lat="54.380690" lon="20.722330"><ele>62.8</ele><time>2026-05-21T23:18:38Z</time></trkpt>
			<trkpt lat="54.380730" lon="20.721230"><ele>62.9</ele><time>2026-05-21T23:18:46Z</time></trkpt>
			<trkpt lat="54.380900" lon="20.718340"><ele>63.4</ele><time>2026-05-21T23:18:55Z</time></trkpt>
			<trkpt lat="54.380810" lon="20.717020"><ele>64.0</ele><time>2026-05-21T23:19:04Z</time></trkpt>
			<trkpt lat="54.380780" lon="20.716030"><ele>64.5</ele><time>2026-05-21T23:19:13Z</time></trkpt>
			<trkpt lat="54.380820" lon="20.715760"><ele>64.6</ele><time>2026-05-21T23:19:22Z</time></trkpt>
			<trkpt lat="54.380960" lon="20.714730"><ele>65.1</ele><time>2026-05-21T23:19:31Z</time></trkpt>
			<trkpt lat="54.381890" lon="20.709830"><ele>67.5</ele><time>2026-05-21T23:19:40Z</time></trkpt>
			<trkpt lat="54.382760" lon="20.704600"><ele>65.1</ele><time>2026-05-21T23:19:49Z</time></trkpt>
			<trkpt lat="54.382960" lon="20.702540"><ele>64.2</ele><time>2026-05-21T23:19:58Z</time></trkpt>
			<trkpt lat="54.383740" lon="20.695480"><ele>67.4</ele><time>2026-05-21T23:20:06Z</time></trkpt>
			<trkpt lat="54.383760" lon="20.694210"><ele>68.3</ele><time>2026-05-21T23:20:15Z</time></trkpt>
			<trkpt lat="54.383450" lon="20.692800"><ele>69.3</ele><time>2026-05-21T23:20:24Z</time></trkpt>
			<trkpt lat="54.383130" lon="20.691620"><ele>70.1</ele><time>2026-05-21T23:20:33Z</time></trkpt>
			<trkpt lat="54.383120" lon="20.690520"><ele>70.3</ele><time>2026-05-21T23:20:42Z</time></trkpt>
			<trkpt lat="54.383350" lon="20.689310"><ele>70.5</ele><time>2026-05-21T23:20:51Z</time></trkpt>
			<trkpt lat="54.383840" lon="20.688400"><ele>70.7</ele><time>2026-05-21T23:21:00Z</time></trkpt>
			<trkpt lat="54.384280" lon="20.687810"><ele>70.8</ele><time>2026-05-21T23:21:09Z</time></trkpt>
			<trkpt lat="54.384700" lon="20.687070"><ele>71.0</ele><time>2026-05-21T23:21:18Z</time></trkpt>
			<trkpt lat="54.384880" lon="20.685520"><ele>71.2</ele><time>2026-05-21T23:21:27Z</time></trkpt>
			<trkpt lat="54.385060" lon="20.677560"><ele>75.5</ele><time>2026-05-21T23:21:35Z</time></trkpt>
			<trkpt lat="54.385260" lon="20.672000"><ele>77.0</ele><time>2026-05-21T23:21:44Z</time></trkpt>
			<trkpt lat="54.385270" lon="20.671180"><ele>76.9</ele><time>2026-05-21T23:21:53Z</time></trkpt>
			<trkpt lat="54.385330" lon="20.669210"><ele>76.5</ele><time>2026-05-21T23:22:02Z</time></trkpt>
			<trkpt lat="54.385380" lon="20.667250"><ele>76.1</ele><time>2026-05-21T23:22:11Z</time></trkpt>
			<trkpt lat="54.385390" lon="20.666740"><ele>76.0</ele><time>2026-05-21T23:22:20Z</time></trkpt>
			<trkpt lat="54.385420" lon="20.665870"><ele>75.8</ele><time>2026-05-21T23:22:29Z</time></trkpt>
			<trkpt lat="54.385450" lon="20.665000"><ele>75.7</ele><time>2026-05-21T23:22:38Z</time></trkpt>
			<trkpt lat="54.385450" lon="20.664900"><ele>75.7</ele><time>2026-05-21T23:22:47Z</time></trkpt>
			<trkpt lat="54.385460" lon="20.664470"><ele>75.7</ele><time>2026-05-21T23:22:55Z</time></trkpt>
			<trkpt lat="54.385480" lon="20.663620"><ele>75.6</ele><time>2026-05-21T23:23:04Z</time></trkpt>
			<trkpt lat="54.385500" lon="20.662740"><ele>75.5</ele><time>2026-05-21T23:23:13Z</time></trkpt>
			<trkpt lat="54.385550" lon="20.661200"><ele>75.4</ele><time>2026-05-21T23:23:22Z</time></trkpt>
			<trkpt lat="54.385590" lon="20.660750"><ele>75.4</ele><time>2026-05-21T23:23:31Z</time></trkpt>
			<trkpt lat="54.385640" lon="20.660340"><ele>75.3</ele><time>2026-05-21T23:23:40Z</time></trkpt>
			<trkpt lat="54.385800" lon="20.659660"><ele>75.3</ele><time>2026-05-21T23:23:49Z</time></trkpt>
			<trkpt lat="54.386900" lon="20.655460"><ele>75.0</ele><time>2026-05-21T23:23:58Z</time></trkpt>
			<trkpt lat="54.387010" lon="20.654890"><ele>75.0</ele><time>2026-05-21T23:24:07Z</time></trkpt>
			<trkpt lat="54.387250" lon="20.653610"><ele>75.0</ele><time>2026-05-21T23:24:16Z</time></trkpt>
			<trkpt lat="54.387520" lon="20.651990"><ele>75.0</ele><time>2026-05-21T23:24:24Z</time></trkpt>
			<trkpt lat="54.388220" lon="20.648280"><ele>75.1</ele><time>2026-05-21T23:24:33Z</time></trkpt>
			<trkpt lat="54.388270" lon="20.648040"><ele>75.1</ele><time>2026-05-21T23:24:42Z</time></trkpt>
			<trkpt lat="54.388270" lon="20.647470"><ele>75.1</ele><time>2026-05-21T23:24:51Z</time></trkpt>
			<trkpt lat="54.388267" lon="20.646956"><ele>75.4</ele><time>2026-05-21T23:25:00Z</time></trkpt>
			<trkpt lat="54.388270" lon="20.646960"><ele>75.4</ele><time>2026-05-21T23:25:23Z</time></trkpt>
			<trkpt lat="54.388270" lon="20.646830"><ele>75.5</ele><time>2026-05-21T23:25:46Z</time></trkpt>
			<trkpt lat="54.388230" lon="20.646680"><ele>75.6</ele><time>2026-05-21T23:26:08Z</time></trkpt>
			<trkpt lat="54.387880" lon="20.645780"><ele>76.1</ele><time>2026-05-21T23:26:31Z</time></trkpt>
			<trkpt lat="54.387440" lon="20.644620"><ele>76.9</ele><time>2026-05-21T23:26:54Z</time></trkpt>
			<trkpt lat="54.387340" lon="20.644310"><ele>77.0</ele><time>2026-05-21T23:27:17Z</time></trkpt>
			<trkpt lat="54.387310" lon="20.644160"><ele>77.1</ele><time>2026-05-21T23:27:39Z</time></trkpt>
			<trkpt lat="54.387290" lon="20.644040"><ele>77.2</ele><time>2026-05-21T23:28:02Z</time></trkpt>
			<trkpt lat="54.387230" lon="20.643550"><ele>77.4</ele><time>2026-05-21T23:28:25Z</time></trkpt>
			<trkpt lat="54.387230" lon="20.643550"><ele>77.4</ele><time>2026-05-21T23:28:50Z</time></trkpt>
			<trkpt lat="54.387160" lon="20.642950"><ele>77.8</ele><time>2026-05-21T23:29:16Z</time></trkpt>
			<trkpt lat="54.387130" lon="20.642810"><ele>77.8</ele><time>2026-05-21T23:29:41Z</time></trkpt>
			<trkpt lat="54.387010" lon="20.642480"><ele>78.0</ele><time>2026-05-21T23:30:07Z</time></trkpt>
			<trkpt lat="54.386800" lon="20.641960"><ele>78.4</ele><time>2026-05-21T23:30:33Z</time></trkpt>
			<trkpt lat="54.386320" lon="20.640840"><ele>79.1</ele><time>2026-05-21T23:30:58Z</time></trkpt>
			<trkpt lat="54.386220" lon="20.640650"><ele>79.2</ele><time>2026-05-21T23:31:24Z</time></trkpt>
			<trkpt lat="54.386570" lon="20.639660"><ele>79.8</ele><time>2026-05-21T23:31:49Z</time></trkpt>
			<trkpt lat="54.386490" lon="20.639530"><ele>79.9</ele><time>2026-05-21T23:32:15Z</time></trkpt>
			<trkpt lat="54.386430" lon="20.639430"><ele>79.8</ele><time>2026-05-21T23:32:40Z</time></trkpt>
			<trkpt lat="54.386432" lon="20.639429"><ele>79.8</ele><time>2026-05-21T23:32:44Z</time></trkpt>
			<trkpt lat="54.386110" lon="20.638880"><ele>79.0</ele><time>2026-05-21T23:32:48Z</time></trkpt>
			<trkpt lat="54.386020" lon="20.638680"><ele>78.8</ele><time>2026-05-21T23:32:51Z</time></trkpt>
			<trkpt lat="54.385850" lon="20.638030"><ele>78.1</ele><time>2026-05-21T23:32:55Z</time></trkpt>
			<trkpt lat="54.385690" lon="20.637400"><ele>77.4</ele><time>2026-05-21T23:32:59Z</time></trkpt>
			<trkpt lat="54.385650" lon="20.637070"><ele>77.1</ele><time>2026-05-21T23:33:02Z</time></trkpt>
			<trkpt lat="54.385510" lon="20.636070"><ele>76.0</ele><time>2026-05-21T23:33:06Z</time></trkpt>
			<trkpt lat="54.385530" lon="20.635840"><ele>75.8</ele><time>2026-05-21T23:33:10Z</time></trkpt>
			<trkpt lat="54.385580" lon="20.635650"><ele>75.6</ele><time>2026-05-21T23:33:13Z</time></trkpt>
			<trkpt lat="54.385940" lon="20.634770"><ele>74.5</ele><time>2026-05-21T23:33:17Z</time></trkpt>
			<trkpt lat="54.386180" lon="20.634320"><ele>73.9</ele><time>2026-05-21T23:33:21Z</time></trkpt>
			<trkpt lat="54.386240" lon="20.634150"><ele>73.8</ele><time>2026-05-21T23:33:24Z</time></trkpt>
			<trkpt lat="54.386280" lon="20.634010"><ele>73.6</ele><time>2026-05-21T23:33:28Z</time></trkpt>
			<trkpt lat="54.386320" lon="20.633690"><ele>73.3</ele><time>2026-05-21T23:33:31Z</time></trkpt>
			<trkpt lat="54.386400" lon="20.632700"><ele>72.3</ele><time>2026-05-21T23:33:35Z</time></trkpt>
			<trkpt lat="54.386490" lon="20.631770"><ele>71.4</ele><time>2026-05-21T23:33:39Z</time></trkpt>
			<trkpt lat="54.386550" lon="20.631530"><ele>71.1</ele><time>2026-05-21T23:33:42Z</time></trkpt>
			<trkpt lat="54.387190" lon="20.629470"><ele>71.7</ele><time>2026-05-21T23:33:46Z</time></trkpt>
			<trkpt lat="54.387270" lon="20.629200"><ele>71.8</ele><time>2026-05-21T23:33:50Z</time></trkpt>
			<trkpt lat="54.387440" lon="20.628710"><ele>72.1</ele><time>2026-05-21T23:33:53Z</time></trkpt>
			<trkpt lat="54.387530" lon="20.628500"><ele>72.2</ele><time>2026-05-21T23:33:57Z</time></trkpt>
			<trkpt lat="54.387680" lon="20.628250"><ele>72.4</ele><time>2026-05-21T23:34:01Z</time></trkpt>
			<trkpt lat="54.388090" lon="20.627660"><ele>72.8</ele><time>2026-05-21T23:34:04Z</time></trkpt>
			<trkpt lat="54.388210" lon="20.627450"><ele>72.9</ele><time>2026-05-21T23:34:08Z</time></trkpt>
			<trkpt lat="54.388290" lon="20.627270"><ele>73.0</ele><time>2026-05-21T23:34:12Z</time></trkpt>
			<trkpt lat="54.388340" lon="20.627120"><ele>73.1</ele><time>2026-05-21T23:34:15Z</time></trkpt>
			<trkpt lat="54.388390" lon="20.626960"><ele>73.2</ele><time>2026-05-21T23:34:19Z</time></trkpt>
			<trkpt lat="54.388490" lon="20.626380"><ele>73.4</ele><time>2026-05-21T23:34:23Z</time></trkpt>
			<trkpt lat="54.388510" lon="20.626130"><ele>73.5</ele><time>2026-05-21T23:34:26Z</time></trkpt>
			<trkpt lat="54.388530" lon="20.625890"><ele>73.6</ele><time>2026-05-21T23:34:30Z</time></trkpt>
			<trkpt lat="54.388560" lon="20.625300"><ele>73.9</ele><time>2026-05-21T23:34:34Z</time></trkpt>
			<trkpt lat="54.388570" lon="20.624890"><ele>74.1</ele><time>2026-05-21T23:34:37Z</time></trkpt>
			<trkpt lat="54.388530" lon="20.624450"><ele>74.3</ele><time>2026-05-21T23:34:41Z</time></trkpt>
			<trkpt lat="54.388250" lon="20.622010"><ele>73.8</ele><time>2026-05-21T23:34:45Z</time></trkpt>
			<trkpt lat="54.387960" lon="20.620310"><ele>71.9</ele><time>2026-05-21T23:34:48Z</time></trkpt>
			<trkpt lat="54.387850" lon="20.619690"><ele>71.2</ele><time>2026-05-21T23:34:52Z</time></trkpt>
			<trkpt lat="54.387830" lon="20.619480"><ele>71.0</ele><time>2026-05-21T23:34:55Z</time></trkpt>
			<trkpt lat="54.387820" lon="20.619360"><ele>70.9</ele><time>2026-05-21T23:34:59Z</time></trkpt>
			<trkpt lat="54.387820" lon="20.619020"><ele>70.5</ele><time>2026-05-21T23:35:03Z</time></trkpt>
			<trkpt lat="54.387860" lon="20.618820"><ele>70.3</ele><time>2026-05-21T23:35:06Z</time></trkpt>
			<trkpt lat="54.387950" lon="20.618440"><ele>69.9</ele><time>2026-05-21T23:35:10Z</time></trkpt>
			<trkpt lat="54.388350" lon="20.617090"><ele>68.3</ele><time>2026-05-21T23:35:14Z</time></trkpt>
			<trkpt lat="54.389330" lon="20.613690"><ele>64.8</ele><time>2026-05-21T23:35:17Z</time></trkpt>
			<trkpt lat="54.389970" lon="20.611510"><ele>63.9</ele><time>2026-05-21T23:35:21Z</time></trkpt>
			<trkpt lat="54.390590" lon="20.609350"><ele>63.1</ele><time>2026-05-21T23:35:25Z</time></trkpt>
			<trkpt lat="54.391020" lon="20.607880"><ele>62.5</ele><time>2026-05-21T23:35:28Z</time></trkpt>
			<trkpt lat="54.391910" lon="20.604880"><ele>62.2</ele><time>2026-05-21T23:35:32Z</time></trkpt>
			<trkpt lat="54.392090" lon="20.604150"><ele>62.5</ele><time>2026-05-21T23:35:36Z</time></trkpt>
			<trkpt lat="54.392330" lon="20.602550"><ele>63.0</ele><time>2026-05-21T23:35:39Z</time></trkpt>
			<trkpt lat="54.392680" lon="20.599850"><ele>63.9</ele><time>2026-05-21T23:35:43Z</time></trkpt>
			<trkpt lat="54.392680" lon="20.599850"><ele>63.9</ele><time>2026-05-21T23:35:51Z</time></trkpt>
			<trkpt lat="54.392950" lon="20.597790"><ele>64.6</ele><time>2026-05-21T23:35:59Z</time></trkpt>
			<trkpt lat="54.393670" lon="20.592410"><ele>72.8</ele><time>2026-05-21T23:36:07Z</time></trkpt>
			<trkpt lat="54.394040" lon="20.588280"><ele>79.5</ele><time>2026-05-21T23:36:15Z</time></trkpt>
			<trkpt lat="54.394110" lon="20.586960"><ele>79.8</ele><time>2026-05-21T23:36:24Z</time></trkpt>
			<trkpt lat="54.394220" lon="20.586430"><ele>79.9</ele><time>2026-05-21T23:36:32Z</time></trkpt>
			<trkpt lat="54.394350" lon="20.585990"><ele>80.0</ele><time>2026-05-21T23:36:40Z</time></trkpt>
			<trkpt lat="54.396070" lon="20.581880"><ele>80.8</ele><time>2026-05-21T23:36:48Z</time></trkpt>
			<trkpt lat="54.396410" lon="20.580970"><ele>81.0</ele><time>2026-05-21T23:36:56Z</time></trkpt>
			<trkpt lat="54.396590" lon="20.580400"><ele>81.1</ele><time>2026-05-21T23:37:04Z</time></trkpt>
			<trkpt lat="54.397040" lon="20.578980"><ele>81.3</ele><time>2026-05-21T23:37:12Z</time></trkpt>
			<trkpt lat="54.397330" lon="20.578200"><ele>81.5</ele><time>2026-05-21T23:37:20Z</time></trkpt>
			<trkpt lat="54.397800" lon="20.577220"><ele>81.6</ele><time>2026-05-21T23:37:28Z</time></trkpt>
			<trkpt lat="54.398400" lon="20.576150"><ele>81.9</ele><time>2026-05-21T23:37:37Z</time></trkpt>
			<trkpt lat="54.398900" lon="20.575190"><ele>82.0</ele><time>2026-05-21T23:37:45Z</time></trkpt>
			<trkpt lat="54.399240" lon="20.574420"><ele>82.2</ele><time>2026-05-21T23:37:53Z</time></trkpt>
			<trkpt lat="54.399480" lon="20.573610"><ele>82.3</ele><time>2026-05-21T23:38:01Z</time></trkpt>
			<trkpt lat="54.399610" lon="20.572850"><ele>82.4</ele><time>2026-05-21T23:38:09Z</time></trkpt>
			<trkpt lat="54.399810" lon="20.571260"><ele>83.1</ele><time>2026-05-21T23:38:17Z</time></trkpt>
			<trkpt lat="54.400000" lon="20.569610"><ele>83.9</ele><time>2026-05-21T23:38:25Z</time></trkpt>
			<trkpt lat="54.400070" lon="20.569190"><ele>84.1</ele><time>2026-05-21T23:38:33Z</time></trkpt>
			<trkpt lat="54.400550" lon="20.568160"><ele>84.7</ele><time>2026-05-21T23:38:41Z</time></trkpt>
			<trkpt lat="54.400720" lon="20.567750"><ele>85.0</ele><time>2026-05-21T23:38:50Z</time></trkpt>
			<trkpt lat="54.401110" lon="20.566850"><ele>85.5</ele><time>2026-05-21T23:38:58Z</time></trkpt>
			<trkpt lat="54.401220" lon="20.566560"><ele>85.7</ele><time>2026-05-21T23:39:06Z</time></trkpt>
			<trkpt lat="54.401340" lon="20.566200"><ele>85.9</ele><time>2026-05-21T23:39:14Z</time></trkpt>
			<trkpt lat="54.401460" lon="20.565620"><ele>86.1</ele><time>2026-05-21T23:39:22Z</time></trkpt>
			<trkpt lat="54.401540" lon="20.565400"><ele>86.3</ele><time>2026-05-21T23:39:30Z</time></trkpt>
			<trkpt lat="54.401630" lon="20.565200"><ele>86.4</ele><time>2026-05-21T23:39:38Z</time></trkpt>
			<trkpt lat="54.401760" lon="20.565090"><ele>86.5</ele><time>2026-05-21T23:39:46Z</time></trkpt>
			<trkpt lat="54.402140" lon="20.564840"><ele>86.7</ele><time>2026-05-21T23:39:54Z</time></trkpt>
			<trkpt lat="54.404780" lon="20.563190"><ele>79.1</ele><time>2026-05-21T23:40:03Z</time></trkpt>
			<trkpt lat="54.408650" lon="20.560780"><ele>67.5</ele><time>2026-05-21T23:40:11Z</time></trkpt>
			<trkpt lat="54.408840" lon="20.560660"><ele>66.8</ele><time>2026-05-21T23:40:19Z</time></trkpt>
			<trkpt lat="54.410890" lon="20.559400"><ele>60.1</ele><time>2026-05-21T23:40:27Z</time></trkpt>
			<trkpt lat="54.411040" lon="20.559300"><ele>59.6</ele><time>2026-05-21T23:40:35Z</time></trkpt>
			<trkpt lat="54.411850" lon="20.558770"><ele>56.9</ele><time>2026-05-21T23:40:43Z</time></trkpt>
			<trkpt lat="54.412040" lon="20.558640"><ele>56.3</ele><time>2026-05-21T23:40:51Z</time></trkpt>
			<trkpt lat="54.412260" lon="20.558450"><ele>55.6</ele><time>2026-05-21T23:40:59Z</time></trkpt>
			<trkpt lat="54.415080" lon="20.553840"><ele>54.0</ele><time>2026-05-21T23:41:07Z</time></trkpt>
			<trkpt lat="54.416220" lon="20.552010"><ele>53.4</ele><time>2026-05-21T23:41:16Z</time></trkpt>
			<trkpt lat="54.416920" lon="20.550840"><ele>54.3</ele><time>2026-05-21T23:41:24Z</time></trkpt>
			<trkpt lat="54.419480" lon="20.546730"><ele>57.6</ele><time>2026-05-21T23:41:32Z</time></trkpt>
			<trkpt lat="54.419710" lon="20.546250"><ele>57.9</ele><time>2026-05-21T23:41:40Z</time></trkpt>
			<trkpt lat="54.419840" lon="20.545320"><ele>58.4</ele><time>2026-05-21T23:41:48Z</time></trkpt>
			<trkpt lat="54.420330" lon="20.541090"><ele>60.9</ele><time>2026-05-21T23:41:56Z</time></trkpt>
			<trkpt lat="54.420350" lon="20.540810"><ele>61.1</ele><time>2026-05-21T23:42:04Z</time></trkpt>
			<trkpt lat="54.420460" lon="20.538690"><ele>62.3</ele><time>2026-05-21T23:42:12Z</time></trkpt>
			<trkpt lat="54.420510" lon="20.537520"><ele>63.0</ele><time>2026-05-21T23:42:20Z</time></trkpt>
			<trkpt lat="54.420460" lon="20.536740"><ele>63.5</ele><time>2026-05-21T23:42:29Z</time></trkpt>
			<trkpt lat="54.420250" lon="20.534980"><ele>64.9</ele><time>2026-05-21T23:42:37Z</time></trkpt>
			<trkpt lat="54.420180" lon="20.534330"><ele>65.5</ele><time>2026-05-21T23:42:45Z</time></trkpt>
			<trkpt lat="54.420160" lon="20.533260"><ele>66.5</ele><time>2026-05-21T23:42:53Z</time></trkpt>
			<trkpt lat="54.420210" lon="20.531770"><ele>67.8</ele><time>2026-05-21T23:43:01Z</time></trkpt>
			<trkpt lat="54.420430" lon="20.529740"><ele>69.6</ele><time>2026-05-21T23:43:09Z</time></trkpt>
			<trkpt lat="54.421120" lon="20.525580"><ele>71.7</ele><time>2026-05-21T23:43:17Z</time></trkpt>
			<trkpt lat="54.421440" lon="20.523790"><ele>71.5</ele><time>2026-05-21T23:43:25Z</time></trkpt>
			<trkpt lat="54.421520" lon="20.523280"><ele>71.5</ele><time>2026-05-21T23:43:33Z</time></trkpt>
			<trkpt lat="54.421630" lon="20.522630"><ele>71.4</ele><time>2026-05-21T23:43:42Z</time></trkpt>
			<trkpt lat="54.421690" lon="20.522330"><ele>71.4</ele><time>2026-05-21T23:43:50Z</time></trkpt>
			<trkpt lat="54.421840" lon="20.521380"><ele>71.3</ele><time>2026-05-21T23:43:58Z</time></trkpt>
			<trkpt lat="54.422030" lon="20.520340"><ele>71.1</ele><time>2026-05-21T23:44:06Z</time></trkpt>
			<trkpt lat="54.422110" lon="20.519900"><ele>71.1</ele><time>2026-05-21T23:44:14Z</time></trkpt>
			<trkpt lat="54.422180" lon="20.519200"><ele>71.0</ele><time>2026-05-21T23:44:22Z</time></trkpt>
			<trkpt lat="54.422010" lon="20.518060"><ele>71.1</ele><time>2026-05-21T23:44:30Z</time></trkpt>
			<trkpt lat="54.421640" lon="20.515590"><ele>72.7</ele><time>2026-05-21T23:44:38Z</time></trkpt>
			<trkpt lat="54.421420" lon="20.513340"><ele>74.2</ele><time>2026-05-21T23:44:46Z</time></trkpt>
			<trkpt lat="54.421300" lon="20.511410"><ele>75.5</ele><time>2026-05-21T23:44:55Z</time></trkpt>
			<trkpt lat="54.421080" lon="20.507970"><ele>77.9</ele><time>2026-05-21T23:45:03Z</time></trkpt>
			<trkpt lat="54.420760" lon="20.502580"><ele>82.0</ele><time>2026-05-21T23:45:11Z</time></trkpt>
			<trkpt lat="54.420650" lon="20.501750"><ele>82.7</ele><time>2026-05-21T23:45:19Z</time></trkpt>
			<trkpt lat="54.420590" lon="20.500680"><ele>83.5</ele><time>2026-05-21T23:45:27Z</time></trkpt>
			<trkpt lat="54.420450" lon="20.498170"><ele>86.2</ele><time>2026-05-21T23:45:35Z</time></trkpt>
			<trkpt lat="54.420070" lon="20.491780"><ele>93.8</ele><time>2026-05-21T23:45:43Z</time></trkpt>
			<trkpt lat="54.419960" lon="20.490190"><ele>95.3</ele><time>2026-05-21T23:45:51Z</time></trkpt>
			<trkpt lat="54.419810" lon="20.488630"><ele>96.2</ele><time>2026-05-21T23:45:59Z</time></trkpt>
			<trkpt lat="54.418920" lon="20.481210"><ele>100.9</ele><time>2026-05-21T23:46:08Z</time></trkpt>
			<trkpt lat="54.418100" lon="20.474290"><ele>111.9</ele><time>2026-05-21T23:46:16Z</time></trkpt>
			<trkpt lat="54.418010" lon="20.473160"><ele>113.7</ele><time>2026-05-21T23:46:24Z</time></trkpt>
			<trkpt lat="54.418040" lon="20.471540"><ele>115.5</ele><time>2026-05-21T23:46:32Z</time></trkpt>
			<trkpt lat="54.418620" lon="20.466920"><ele>119.1</ele><time>2026-05-21T23:46:40Z</time></trkpt>
			<trkpt lat="54.418760" lon="20.465390"><ele>120.3</ele><time>2026-05-21T23:46:48Z</time></trkpt>
			<trkpt lat="54.418760" lon="20.465390"><ele>120.3</ele><time>2026-05-21T23:46:57Z</time></trkpt>
			<trkpt lat="54.418890" lon="20.463900"><ele>121.4</ele><time>2026-05-21T23:47:06Z</time></trkpt>
			<trkpt lat="54.419240" lon="20.458060"><ele>131.3</ele><time>2026-05-21T23:47:15Z</time></trkpt>
			<trkpt lat="54.419400" lon="20.455820"><ele>135.3</ele><time>2026-05-21T23:47:23Z</time></trkpt>
			<trkpt lat="54.419470" lon="20.454730"><ele>137.3</ele><time>2026-05-21T23:47:32Z</time></trkpt>
			<trkpt lat="54.419510" lon="20.454460"><ele>137.8</ele><time>2026-05-21T23:47:41Z</time></trkpt>
			<trkpt lat="54.419570" lon="20.454280"><ele>138.1</ele><time>2026-05-21T23:47:50Z</time></trkpt>
			<trkpt lat="54.419650" lon="20.454130"><ele>138.1</ele><time>2026-05-21T23:47:59Z</time></trkpt>
			<trkpt lat="54.419740" lon="20.454030"><ele>137.8</ele><time>2026-05-21T23:48:08Z</time></trkpt>
			<trkpt lat="54.419860" lon="20.453980"><ele>137.6</ele><time>2026-05-21T23:48:16Z</time></trkpt>
			<trkpt lat="54.420000" lon="20.453980"><ele>137.3</ele><time>2026-05-21T23:48:25Z</time></trkpt>
			<trkpt lat="54.421310" lon="20.454650"><ele>134.5</ele><time>2026-05-21T23:48:34Z</time></trkpt>
			<trkpt lat="54.421700" lon="20.454860"><ele>133.6</ele><time>2026-05-21T23:48:43Z</time></trkpt>
			<trkpt lat="54.422070" lon="20.455040"><ele>132.8</ele><time>2026-05-21T23:48:52Z</time></trkpt>
			<trkpt lat="54.422460" lon="20.455150"><ele>132.0</ele><time>2026-05-21T23:49:01Z</time></trkpt>
			<trkpt lat="54.422890" lon="20.455140"><ele>131.1</ele><time>2026-05-21T23:49:09Z</time></trkpt>
			<trkpt lat="54.424560" lon="20.454860"><ele>127.6</ele><time>2026-05-21T23:49:18Z</time></trkpt>
			<trkpt lat="54.426730" lon="20.454470"><ele>125.9</ele><time>2026-05-21T23:49:27Z</time></trkpt>
			<trkpt lat="54.427020" lon="20.454430"><ele>125.8</ele><time>2026-05-21T23:49:36Z</time></trkpt>
			<trkpt lat="54.427530" lon="20.454410"><ele>125.5</ele><time>2026-05-21T23:49:45Z</time></trkpt>
			<trkpt lat="54.427680" lon="20.454390"><ele>125.4</ele><time>2026-05-21T23:49:53Z</time></trkpt>
			<trkpt lat="54.428200" lon="20.454270"><ele>125.0</ele><time>2026-05-21T23:50:02Z</time></trkpt>
			<trkpt lat="54.429300" lon="20.454230"><ele>124.4</ele><time>2026-05-21T23:50:11Z</time></trkpt>
			<trkpt lat="54.429830" lon="20.454230"><ele>124.1</ele><time>2026-05-21T23:50:20Z</time></trkpt>
			<trkpt lat="54.429930" lon="20.454250"><ele>124.0</ele><time>2026-05-21T23:50:29Z</time></trkpt>
			<trkpt lat="54.430040" lon="20.454290"><ele>124.0</ele><time>2026-05-21T23:50:38Z</time></trkpt>
			<trkpt lat="54.430240" lon="20.454420"><ele>123.8</ele><time>2026-05-21T23:50:46Z</time></trkpt>
			<trkpt lat="54.430370" lon="20.454560"><ele>123.7</ele><time>2026-05-21T23:50:55Z</time></trkpt>
			<trkpt lat="54.431110" lon="20.455640"><ele>122.9</ele><time>2026-05-21T23:51:04Z</time></trkpt>
			<trkpt lat="54.433130" lon="20.458760"><ele>120.5</ele><time>2026-05-21T23:51:13Z</time></trkpt>
			<trkpt lat="54.435910" lon="20.462930"><ele>114.0</ele><time>2026-05-21T23:51:22Z</time></trkpt>
			<trkpt lat="54.440960" lon="20.470440"><ele>98.2</ele><time>2026-05-21T23:51:31Z</time></trkpt>
			<trkpt lat="54.442430" lon="20.472820"><ele>93.8</ele><time>2026-05-21T23:51:39Z</time></trkpt>
			<trkpt lat="54.442500" lon="20.472930"><ele>93.7</ele><time>2026-05-21T23:51:48Z</time></trkpt>
			<trkpt lat="54.444350" lon="20.475860"><ele>91.1</ele><time>2026-05-21T23:51:57Z</time></trkpt>
			<trkpt lat="54.445790" lon="20.478260"><ele>89.0</ele><time>2026-05-21T23:52:06Z</time></trkpt>
			<trkpt lat="54.445790" lon="20.478260"><ele>89.0</ele><time>2026-05-21T23:52:14Z</time></trkpt>
			<trkpt lat="54.446840" lon="20.480020"><ele>88.8</ele><time>2026-05-21T23:52:22Z</time></trkpt>
			<trkpt lat="54.448770" lon="20.483280"><ele>90.5</ele><time>2026-05-21T23:52:30Z</time></trkpt>
			<trkpt lat="54.450100" lon="20.485580"><ele>91.6</ele><time>2026-05-21T23:52:39Z</time></trkpt>
			<trkpt lat="54.454390" lon="20.493040"><ele>81.6</ele><time>2026-05-21T23:52:47Z</time></trkpt>
			<trkpt lat="54.454440" lon="20.493120"><ele>81.5</ele><time>2026-05-21T23:52:55Z</time></trkpt>
			<trkpt lat="54.455080" lon="20.494180"><ele>79.9</ele><time>2026-05-21T23:53:03Z</time></trkpt>
			<trkpt lat="54.455390" lon="20.494600"><ele>79.3</ele><time>2026-05-21T23:53:11Z</time></trkpt>
			<trkpt lat="54.455730" lon="20.494990"><ele>78.5</ele><time>2026-05-21T23:53:19Z</time></trkpt>
			<trkpt lat="54.456020" lon="20.495550"><ele>77.8</ele><time>2026-05-21T23:53:27Z</time></trkpt>
			<trkpt lat="54.456340" lon="20.496230"><ele>76.9</ele><time>2026-05-21T23:53:36Z</time></trkpt>
			<trkpt lat="54.456620" lon="20.496640"><ele>76.3</ele><time>2026-05-21T23:53:44Z</time></trkpt>
			<trkpt lat="54.459040" lon="20.499580"><ele>72.3</ele><time>2026-05-21T23:53:52Z</time></trkpt>
			<trkpt lat="54.459950" lon="20.501080"><ele>71.1</ele><time>2026-05-21T23:54:00Z</time></trkpt>
			<trkpt lat="54.461540" lon="20.503900"><ele>69.1</ele><time>2026-05-21T23:54:08Z</time></trkpt>
			<trkpt lat="54.461810" lon="20.504390"><ele>68.8</ele><time>2026-05-21T23:54:16Z</time></trkpt>
			<trkpt lat="54.463130" lon="20.506730"><ele>65.6</ele><time>2026-05-21T23:54:25Z</time></trkpt>
			<trkpt lat="54.463380" lon="20.507200"><ele>64.9</ele><time>2026-05-21T23:54:33Z</time></trkpt>
			<trkpt lat="54.464350" lon="20.508950"><ele>62.5</ele><time>2026-05-21T23:54:41Z</time></trkpt>
			<trkpt lat="54.464600" lon="20.509560"><ele>61.7</ele><time>2026-05-21T23:54:49Z</time></trkpt>
			<trkpt lat="54.464730" lon="20.509910"><ele>61.3</ele><time>2026-05-21T23:54:57Z</time></trkpt>
			<trkpt lat="54.464780" lon="20.510090"><ele>61.1</ele><time>2026-05-21T23:55:05Z</time></trkpt>
			<trkpt lat="54.464930" lon="20.510660"><ele>60.4</ele><time>2026-05-21T23:55:13Z</time></trkpt>
			<trkpt lat="54.467150" lon="20.518850"><ele>53.1</ele><time>2026-05-21T23:55:22Z</time></trkpt>
			<trkpt lat="54.467870" lon="20.521440"><ele>51.2</ele><time>2026-05-21T23:55:30Z</time></trkpt>
			<trkpt lat="54.468510" lon="20.523800"><ele>49.6</ele><time>2026-05-21T23:55:38Z</time></trkpt>
			<trkpt lat="54.469150" lon="20.526240"><ele>48.0</ele><time>2026-05-21T23:55:46Z</time></trkpt>
			<trkpt lat="54.469340" lon="20.526850"><ele>47.6</ele><time>2026-05-21T23:55:54Z</time></trkpt>
			<trkpt lat="54.469600" lon="20.527360"><ele>47.2</ele><time>2026-05-21T23:56:02Z</time></trkpt>
			<trkpt lat="54.469870" lon="20.527820"><ele>46.8</ele><time>2026-05-21T23:56:11Z</time></trkpt>
			<trkpt lat="54.470160" lon="20.528210"><ele>46.4</ele><time>2026-05-21T23:56:19Z</time></trkpt>
			<trkpt lat="54.470460" lon="20.528480"><ele>46.1</ele><time>2026-05-21T23:56:27Z</time></trkpt>
			<trkpt lat="54.470730" lon="20.528670"><ele>45.8</ele><time>2026-05-21T23:56:35Z</time></trkpt>
			<trkpt lat="54.470920" lon="20.528760"><ele>45.6</ele><time>2026-05-21T23:56:43Z</time></trkpt>
			<trkpt lat="54.471210" lon="20.528860"><ele>45.3</ele><time>2026-05-21T23:56:51Z</time></trkpt>
			<trkpt lat="54.471600" lon="20.528940"><ele>44.9</ele><time>2026-05-21T23:57:00Z</time></trkpt>
			<trkpt lat="54.471830" lon="20.528970"><ele>44.7</ele><time>2026-05-21T23:57:08Z</time></trkpt>
			<trkpt lat="54.472450" lon="20.528890"><ele>44.1</ele><time>2026-05-21T23:57:16Z</time></trkpt>
			<trkpt lat="54.472810" lon="20.528820"><ele>43.7</ele><time>2026-05-21T23:57:24Z</time></trkpt>
			<trkpt lat="54.473200" lon="20.528770"><ele>43.3</ele><time>2026-05-21T23:57:32Z</time></trkpt>
			<trkpt lat="54.473460" lon="20.528770"><ele>43.1</ele><time>2026-05-21T23:57:40Z</time></trkpt>
			<trkpt lat="54.473770" lon="20.528850"><ele>42.8</ele><time>2026-05-21T23:57:48Z</time></trkpt>
			<trkpt lat="54.474020" lon="20.528990"><ele>42.5</ele><time>2026-05-21T23:57:57Z</time></trkpt>
			<trkpt lat="54.474320" lon="20.529230"><ele>42.2</ele><time>2026-05-21T23:58:05Z</time></trkpt>
			<trkpt lat="54.474530" lon="20.529460"><ele>42.0</ele><time>2026-05-21T23:58:13Z</time></trkpt>
			<trkpt lat="54.474730" lon="20.529730"><ele>41.7</ele><time>2026-05-21T23:58:21Z</time></trkpt>
			<trkpt lat="54.474920" lon="20.530060"><ele>41.4</ele><time>2026-05-21T23:58:29Z</time></trkpt>
			<trkpt lat="54.475400" lon="20.531300"><ele>42.2</ele><time>2026-05-21T23:58:37Z</time></trkpt>
			<trkpt lat="54.475760" lon="20.532020"><ele>43.3</ele><time>2026-05-21T23:58:46Z</time></trkpt>
			<trkpt lat="54.476130" lon="20.532680"><ele>44.3</ele><time>2026-05-21T23:58:54Z</time></trkpt>
			<trkpt lat="54.477180" lon="20.534180"><ele>47.0</ele><time>2026-05-21T23:59:02Z</time></trkpt>
			<trkpt lat="54.478090" lon="20.535460"><ele>49.3</ele><time>2026-05-21T23:59:10Z</time></trkpt>
			<trkpt lat="54.479840" lon="20.537900"><ele>51.8</ele><time>2026-05-21T23:59:18Z</time></trkpt>
			<trkpt lat="54.481160" lon="20.539760"><ele>51.9</ele><time>2026-05-21T23:59:26Z</time></trkpt>
			<trkpt lat="54.481300" lon="20.539370"><ele>51.9</ele><time>2026-05-21T23:59:34Z</time></trkpt>
			<trkpt lat="54.482540" lon="20.535270"><ele>52.0</ele><time>2026-05-21T23:59:43Z</time></trkpt>
			<trkpt lat="54.483610" lon="20.531860"><ele>52.1</ele><time>2026-05-21T23:59:51Z</time></trkpt>
			<trkpt lat="54.484240" lon="20.529700"><ele>52.1</ele><time>2026-05-21T23:59:59Z</time></trkpt>
			<trkpt lat="54.484470" lon="20.528970"><ele>52.1</ele><time>2026-05-22T00:00:07Z</time></trkpt>
			<trkpt lat="54.484470" lon="20.528970"><ele>52.1</ele><time>2026-05-22T00:00:15Z</time></trkpt>
			<trkpt lat="54.484520" lon="20.528810"><ele>52.1</ele><time>2026-05-22T00:00:23Z</time></trkpt>
			<trkpt lat="54.484710" lon="20.528320"><ele>52.1</ele><time>2026-05-22T00:00:32Z</time></trkpt>
			<trkpt lat="54.488360" lon="20.520880"><ele>50.6</ele><time>2026-05-22T00:00:40Z</time></trkpt>
			<trkpt lat="54.488560" lon="20.520340"><ele>50.4</ele><time>2026-05-22T00:00:48Z</time></trkpt>
			<trkpt lat="54.488590" lon="20.519600"><ele>49.9</ele><time>2026-05-22T00:00:56Z</time></trkpt>
			<trkpt lat="54.488290" lon="20.511480"><ele>44.5</ele><time>2026-05-22T00:01:04Z</time></trkpt>
			<trkpt lat="54.488300" lon="20.510960"><ele>44.1</ele><time>2026-05-22T00:01:12Z</time></trkpt>
			<trkpt lat="54.488450" lon="20.510420"><ele>43.6</ele><time>2026-05-22T00:01:20Z</time></trkpt>
			<trkpt lat="54.490970" lon="20.503710"><ele>37.3</ele><time>2026-05-22T00:01:29Z</time></trkpt>
			<trkpt lat="54.491550" lon="20.501950"><ele>37.6</ele><time>2026-05-22T00:01:37Z</time></trkpt>
			<trkpt lat="54.492330" lon="20.499400"><ele>38.7</ele><time>2026-05-22T00:01:45Z</time></trkpt>
			<trkpt lat="54.492640" lon="20.498190"><ele>39.3</ele><time>2026-05-22T00:01:53Z</time></trkpt>
			<trkpt lat="54.493030" lon="20.496690"><ele>39.9</ele><time>2026-05-22T00:02:01Z</time></trkpt>
			<trkpt lat="54.493830" lon="20.493670"><ele>40.3</ele><time>2026-05-22T00:02:09Z</time></trkpt>
			<trkpt lat="54.495210" lon="20.488330"><ele>39.0</ele><time>2026-05-22T00:02:17Z</time></trkpt>
			<trkpt lat="54.495300" lon="20.487770"><ele>38.9</ele><time>2026-05-22T00:02:26Z</time></trkpt>
			<trkpt lat="54.495220" lon="20.487060"><ele>38.7</ele><time>2026-05-22T00:02:34Z</time></trkpt>
			<trkpt lat="54.495000" lon="20.485700"><ele>38.6</ele><time>2026-05-22T00:02:42Z</time></trkpt>
			<trkpt lat="54.495000" lon="20.485410"><ele>38.7</ele><time>2026-05-22T00:02:50Z</time></trkpt>
			<trkpt lat="54.495010" lon="20.485330"><ele>38.7</ele><time>2026-05-22T00:02:58Z</time></trkpt>
			<trkpt lat="54.495060" lon="20.484980"><ele>38.7</ele><time>2026-05-22T00:03:06Z</time></trkpt>
			<trkpt lat="54.495240" lon="20.484520"><ele>38.8</ele><time>2026-05-22T00:03:15Z</time></trkpt>
			<trkpt lat="54.495650" lon="20.483580"><ele>38.9</ele><time>2026-05-22T00:03:23Z</time></trkpt>
			<trkpt lat="54.495960" lon="20.482810"><ele>39.0</ele><time>2026-05-22T00:03:31Z</time></trkpt>
			<trkpt lat="54.496230" lon="20.482040"><ele>39.1</ele><time>2026-05-22T00:03:39Z</time></trkpt>
			<trkpt lat="54.496440" lon="20.481350"><ele>39.2</ele><time>2026-05-22T00:03:47Z</time></trkpt>
			<trkpt lat="54.496610" lon="20.480640"><ele>39.2</ele><time>2026-05-22T00:03:55Z</time></trkpt>
			<trkpt lat="54.496780" lon="20.480030"><ele>39.3</ele><time>2026-05-22T00:04:03Z</time></trkpt>
			<trkpt lat="54.497030" lon="20.479440"><ele>39.4</ele><time>2026-05-22T00:04:12Z</time></trkpt>
			<trkpt lat="54.497340" lon="20.478840"><ele>39.5</ele><time>2026-05-22T00:04:20Z</time></trkpt>
			<trkpt lat="54.497730" lon="20.478170"><ele>39.3</ele><time>2026-05-22T00:04:28Z</time></trkpt>
			<trkpt lat="54.498030" lon="20.477480"><ele>39.0</ele><time>2026-05-22T00:04:36Z</time></trkpt>
			<trkpt lat="54.498700" lon="20.474570"><ele>37.8</ele><time>2026-05-22T00:04:44Z</time></trkpt>
			<trkpt lat="54.499390" lon="20.472080"><ele>36.8</ele><time>2026-05-22T00:04:52Z</time></trkpt>
			<trkpt lat="54.499900" lon="20.470650"><ele>36.1</ele><time>2026-05-22T00:05:00Z</time></trkpt>
			<trkpt lat="54.500290" lon="20.469580"><ele>35.9</ele><time>2026-05-22T00:05:09Z</time></trkpt>
			<trkpt lat="54.500430" lon="20.469090"><ele>35.8</ele><time>2026-05-22T00:05:17Z</time></trkpt>
			<trkpt lat="54.501390" lon="20.464370"><ele>35.0</ele><time>2026-05-22T00:05:25Z</time></trkpt>
			<trkpt lat="54.501990" lon="20.461350"><ele>34.4</ele><time>2026-05-22T00:05:33Z</time></trkpt>
			<trkpt lat="54.502350" lon="20.458770"><ele>33.1</ele><time>2026-05-22T00:05:41Z</time></trkpt>
			<trkpt lat="54.502420" lon="20.458190"><ele>32.8</ele><time>2026-05-22T00:05:49Z</time></trkpt>
			<trkpt lat="54.502460" lon="20.457710"><ele>32.5</ele><time>2026-05-22T00:05:58Z</time></trkpt>
			<trkpt lat="54.502530" lon="20.457210"><ele>32.2</ele><time>2026-05-22T00:06:06Z</time></trkpt>
			<trkpt lat="54.502650" lon="20.456600"><ele>31.9</ele><time>2026-05-22T00:06:14Z</time></trkpt>
			<trkpt lat="54.503060" lon="20.454970"><ele>31.0</ele><time>2026-05-22T00:06:22Z</time></trkpt>
			<trkpt lat="54.503440" lon="20.453310"><ele>30.0</ele><time>2026-05-22T00:06:30Z</time></trkpt>
			<trkpt lat="54.503800" lon="20.451740"><ele>29.9</ele><time>2026-05-22T00:06:38Z</time></trkpt>
			<trkpt lat="54.503820" lon="20.451490"><ele>29.9</ele><time>2026-05-22T00:06:46Z</time></trkpt>
			<trkpt lat="54.503820" lon="20.451250"><ele>29.9</ele><time>2026-05-22T00:06:55Z</time></trkpt>
			<trkpt lat="54.503800" lon="20.450870"><ele>29.9</ele><time>2026-05-22T00:07:03Z</time></trkpt>
			<trkpt lat="54.503680" lon="20.449670"><ele>30.0</ele><time>2026-05-22T00:07:11Z</time></trkpt>
			<trkpt lat="54.503570" lon="20.448750"><ele>30.1</ele><time>2026-05-22T00:07:19Z</time></trkpt>
			<trkpt lat="54.503480" lon="20.447820"><ele>30.2</ele><time>2026-05-22T00:07:27Z</time></trkpt>
			<trkpt lat="54.503480" lon="20.447560"><ele>30.2</ele><time>2026-05-22T00:07:35Z</time></trkpt>
			<trkpt lat="54.503900" lon="20.447660"><ele>30.2</ele><time>2026-05-22T00:07:43Z</time></trkpt>
			<trkpt lat="54.504430" lon="20.446660"><ele>30.4</ele><time>2026-05-22T00:07:52Z</time></trkpt>
			<trkpt lat="54.504540" lon="20.446440"><ele>30.4</ele><time>2026-05-22T00:08:00Z</time></trkpt>
			<trkpt lat="54.504630" lon="20.446210"><ele>30.4</ele><time>2026-05-22T00:08:08Z</time></trkpt>
			<trkpt lat="54.504720" lon="20.445940"><ele>30.4</ele><time>2026-05-22T00:08:16Z</time></trkpt>
			<trkpt lat="54.504850" lon="20.445520"><ele>30.5</ele><time>2026-05-22T00:08:24Z</time></trkpt>
			<trkpt lat="54.506460" lon="20.438320"><ele>30.6</ele><time>2026-05-22T00:08:32Z</time></trkpt>
			<trkpt lat="54.508650" lon="20.428460"><ele>17.7</ele><time>2026-05-22T00:08:41Z</time></trkpt>
			<trkpt lat="54.509040" lon="20.426970"><ele>17.3</ele><time>2026-05-22T00:08:49Z</time></trkpt>
			<trkpt lat="54.509320" lon="20.426230"><ele>18.1</ele><time>2026-05-22T00:08:57Z</time></trkpt>
			<trkpt lat="54.509690" lon="20.425400"><ele>19.1</ele><time>2026-05-22T00:09:05Z</time></trkpt>
			<trkpt lat="54.510380" lon="20.424070"><ele>20.7</ele><time>2026-05-22T00:09:13Z</time></trkpt>
			<trkpt lat="54.510740" lon="20.423500"><ele>21.4</ele><time>2026-05-22T00:09:21Z</time></trkpt>
			<trkpt lat="54.513720" lon="20.419340"><ele>23.7</ele><time>2026-05-22T00:09:29Z</time></trkpt>
			<trkpt lat="54.516140" lon="20.415910"><ele>21.5</ele><time>2026-05-22T00:09:38Z</time></trkpt>
			<trkpt lat="54.520330" lon="20.409260"><ele>23.9</ele><time>2026-05-22T00:09:46Z</time></trkpt>
			<trkpt lat="54.521970" lon="20.406810"><ele>25.0</ele><time>2026-05-22T00:09:54Z</time></trkpt>
			<trkpt lat="54.525470" lon="20.402160"><ele>25.2</ele><time>2026-05-22T00:10:02Z</time></trkpt>
			<trkpt lat="54.528280" lon="20.397590"><ele>17.8</ele><time>2026-05-22T00:10:10Z</time></trkpt>
			<trkpt lat="54.528620" lon="20.396870"><ele>16.8</ele><time>2026-05-22T00:10:18Z</time></trkpt>
			<trkpt lat="54.528910" lon="20.395910"><ele>16.0</ele><time>2026-05-22T00:10:27Z</time></trkpt>
			<trkpt lat="54.529320" lon="20.393820"><ele>14.5</ele><time>2026-05-22T00:10:35Z</time></trkpt>
			<trkpt lat="54.529510" lon="20.392740"><ele>13.8</ele><time>2026-05-22T00:10:43Z</time></trkpt>
			<trkpt lat="54.529650" lon="20.391990"><ele>13.3</ele><time>2026-05-22T00:10:51Z</time></trkpt>
			<trkpt lat="54.529730" lon="20.391540"><ele>13.0</ele><time>2026-05-22T00:10:59Z</time></trkpt>
			<trkpt lat="54.529940" lon="20.389830"><ele>11.9</ele><time>2026-05-22T00:11:07Z</time></trkpt>
			<trkpt lat="54.530030" lon="20.388920"><ele>11.3</ele><time>2026-05-22T00:11:15Z</time></trkpt>
			<trkpt lat="54.530180" lon="20.388340"><ele>10.9</ele><time>2026-05-22T00:11:24Z</time></trkpt>
			<trkpt lat="54.530340" lon="20.388010"><ele>10.6</ele><time>2026-05-22T00:11:32Z</time></trkpt>
			<trkpt lat="54.532610" lon="20.385280"><ele>13.3</ele><time>2026-05-22T00:11:40Z</time></trkpt>
			<trkpt lat="54.532820" lon="20.384990"><ele>13.5</ele><time>2026-05-22T00:11:48Z</time></trkpt>
			<trkpt lat="54.532920" lon="20.384620"><ele>13.8</ele><time>2026-05-22T00:11:56Z</time></trkpt>
			<trkpt lat="54.532980" lon="20.384110"><ele>14.1</ele><time>2026-05-22T00:12:04Z</time></trkpt>
			<trkpt lat="54.533620" lon="20.377970"><ele>14.5</ele><time>2026-05-22T00:12:12Z</time></trkpt>
			<trkpt lat="54.533650" lon="20.376740"><ele>13.8</ele><time>2026-05-22T00:12:21Z</time></trkpt>
			<trkpt lat="54.533690" lon="20.372690"><ele>11.6</ele><time>2026-05-22T00:12:29Z</time></trkpt>
			<trkpt lat="54.533710" lon="20.371770"><ele>11.1</ele><time>2026-05-22T00:12:37Z</time></trkpt>
			<trkpt lat="54.533710" lon="20.371520"><ele>11.0</ele><time>2026-05-22T00:12:45Z</time></trkpt>
			<trkpt lat="54.533640" lon="20.371340"><ele>11.0</ele><time>2026-05-22T00:12:53Z</time></trkpt>
			<trkpt lat="54.534390" lon="20.370410"><ele>10.5</ele><time>2026-05-22T00:13:01Z</time></trkpt>
			<trkpt lat="54.534620" lon="20.370120"><ele>10.4</ele><time>2026-05-22T00:13:10Z</time></trkpt>
			<trkpt lat="54.535630" lon="20.369450"><ele>9.8</ele><time>2026-05-22T00:13:18Z</time></trkpt>
			<trkpt lat="54.537060" lon="20.368580"><ele>9.1</ele><time>2026-05-22T00:13:26Z</time></trkpt>
			<trkpt lat="54.537250" lon="20.368550"><ele>9.0</ele><time>2026-05-22T00:13:34Z</time></trkpt>
			<trkpt lat="54.537790" lon="20.368570"><ele>8.7</ele><time>2026-05-22T00:13:42Z</time></trkpt>
			<trkpt lat="54.537970" lon="20.368600"><ele>8.6</ele><time>2026-05-22T00:13:50Z</time></trkpt>
			<trkpt lat="54.538480" lon="20.368580"><ele>8.4</ele><time>2026-05-22T00:13:58Z</time></trkpt>
			<trkpt lat="54.538870" lon="20.368450"><ele>8.4</ele><time>2026-05-22T00:14:07Z</time></trkpt>
			<trkpt lat="54.539250" lon="20.368240"><ele>8.4</ele><time>2026-05-22T00:14:15Z</time></trkpt>
			<trkpt lat="54.539520" lon="20.368070"><ele>8.4</ele><time>2026-05-22T00:14:23Z</time></trkpt>
			<trkpt lat="54.539610" lon="20.368010"><ele>8.4</ele><time>2026-05-22T00:14:31Z</time></trkpt>
			<trkpt lat="54.540830" lon="20.367220"><ele>8.3</ele><time>2026-05-22T00:14:39Z</time></trkpt>
			<trkpt lat="54.541080" lon="20.367130"><ele>8.3</ele><time>2026-05-22T00:14:47Z</time></trkpt>
			<trkpt lat="54.541330" lon="20.367140"><ele>8.3</ele><time>2026-05-22T00:14:55Z</time></trkpt>
			<trkpt lat="54.541540" lon="20.367250"><ele>8.3</ele><time>2026-05-22T00:15:04Z</time></trkpt>
			<trkpt lat="54.541750" lon="20.367450"><ele>8.3</ele><time>2026-05-22T00:15:12Z</time></trkpt>
			<trkpt lat="54.542600" lon="20.368330"><ele>8.2</ele><time>2026-05-22T00:15:20Z</time></trkpt>
			<trkpt lat="54.543460" lon="20.369170"><ele>8.2</ele><time>2026-05-22T00:15:28Z</time></trkpt>
			<trkpt lat="54.544290" lon="20.369620"><ele>7.8</ele><time>2026-05-22T00:15:36Z</time></trkpt>
			<trkpt lat="54.544490" lon="20.369710"><ele>7.7</ele><time>2026-05-22T00:15:44Z</time></trkpt>
			<trkpt lat="54.548650" lon="20.371780"><ele>5.9</ele><time>2026-05-22T00:15:53Z</time></trkpt>
			<trkpt lat="54.549330" lon="20.371870"><ele>5.3</ele><time>2026-05-22T00:16:01Z</time></trkpt>
			<trkpt lat="54.549620" lon="20.371870"><ele>5.0</ele><time>2026-05-22T00:16:09Z</time></trkpt>
			<trkpt lat="54.549870" lon="20.371840"><ele>4.8</ele><time>2026-05-22T00:16:17Z</time></trkpt>
			<trkpt lat="54.552810" lon="20.371080"><ele>2.2</ele><time>2026-05-22T00:16:25Z</time></trkpt>
			<trkpt lat="54.553840" lon="20.370730"><ele>1.2</ele><time>2026-05-22T00:16:33Z</time></trkpt>
			<trkpt lat="54.554620" lon="20.370350"><ele>1.2</ele><time>2026-05-22T00:16:41Z</time></trkpt>
			<trkpt lat="54.554960" lon="20.370160"><ele>1.2</ele><time>2026-05-22T00:16:50Z</time></trkpt>
			<trkpt lat="54.555180" lon="20.370010"><ele>1.2</ele><time>2026-05-22T00:16:58Z</time></trkpt>
			<trkpt lat="54.555370" lon="20.369810"><ele>1.2</ele><time>2026-05-22T00:17:06Z</time></trkpt>
			<trkpt lat="54.555520" lon="20.369610"><ele>1.2</ele><time>2026-05-22T00:17:14Z</time></trkpt>
			<trkpt lat="54.555850" lon="20.369130"><ele>1.2</ele><time>2026-05-22T00:17:22Z</time></trkpt>
			<trkpt lat="54.556030" lon="20.368930"><ele>1.2</ele><time>2026-05-22T00:17:30Z</time></trkpt>
			<trkpt lat="54.556230" lon="20.368840"><ele>1.2</ele><time>2026-05-22T00:17:38Z</time></trkpt>
			<trkpt lat="54.556720" lon="20.368670"><ele>1.2</ele><time>2026-05-22T00:17:47Z</time></trkpt>
			<trkpt lat="54.557360" lon="20.369980"><ele>1.1</ele><time>2026-05-22T00:17:55Z</time></trkpt>
			<trkpt lat="54.557760" lon="20.370790"><ele>1.1</ele><time>2026-05-22T00:18:03Z</time></trkpt>
			<trkpt lat="54.558080" lon="20.371440"><ele>1.1</ele><time>2026-05-22T00:18:11Z</time></trkpt>
			<trkpt lat="54.558650" lon="20.372600"><ele>1.1</ele><time>2026-05-22T00:18:19Z</time></trkpt>
			<trkpt lat="54.558650" lon="20.372600"><ele>1.1</ele><time>2026-05-22T00:18:34Z</time></trkpt>
			<trkpt lat="54.559880" lon="20.375100"><ele>1.1</ele><time>2026-05-22T00:18:50Z</time></trkpt>
			<trkpt lat="54.563730" lon="20.382740"><ele>0.8</ele><time>2026-05-22T00:19:05Z</time></trkpt>
			<trkpt lat="54.565720" lon="20.386770"><ele>0.7</ele><time>2026-05-22T00:19:20Z</time></trkpt>
			<trkpt lat="54.570080" lon="20.395520"><ele>2.4</ele><time>2026-05-22T00:19:35Z</time></trkpt>
			<trkpt lat="54.570750" lon="20.396900"><ele>3.0</ele><time>2026-05-22T00:19:50Z</time></trkpt>
			<trkpt lat="54.571590" lon="20.398520"><ele>3.9</ele><time>2026-05-22T00:20:06Z</time></trkpt>
			<trkpt lat="54.573100" lon="20.401480"><ele>5.6</ele><time>2026-05-22T00:20:21Z</time></trkpt>
			<trkpt lat="54.572980" lon="20.401690"><ele>5.8</ele><time>2026-05-22T00:20:36Z</time></trkpt>
			<trkpt lat="54.572680" lon="20.402470"><ele>6.3</ele><time>2026-05-22T00:20:51Z</time></trkpt>
			<trkpt lat="54.573780" lon="20.404250"><ele>7.6</ele><time>2026-05-22T00:21:06Z</time></trkpt>
			<trkpt lat="54.574250" lon="20.406690"><ele>8.9</ele><time>2026-05-22T00:21:21Z</time></trkpt>
			<trkpt lat="54.574490" lon="20.408090"><ele>8.7</ele><time>2026-05-22T00:21:37Z</time></trkpt>
			<trkpt lat="54.574690" lon="20.414200"><ele>3.8</ele><time>2026-05-22T00:21:52Z</time></trkpt>
			<trkpt lat="54.574780" lon="20.419290"><ele>2.0</ele><time>2026-05-22T00:22:07Z</time></trkpt>
			<trkpt lat="54.574810" lon="20.420340"><ele>2.1</ele><time>2026-05-22T00:22:22Z</time></trkpt>
			<trkpt lat="54.574830" lon="20.421520"><ele>2.3</ele><time>2026-05-22T00:22:37Z</time></trkpt>
			<trkpt lat="54.574860" lon="20.422580"><ele>2.4</ele><time>2026-05-22T00:22:53Z</time></trkpt>
			<trkpt lat="54.574940" lon="20.424830"><ele>2.6</ele><time>2026-05-22T00:23:08Z</time></trkpt>
			<trkpt lat="54.574960" lon="20.425550"><ele>2.7</ele><time>2026-05-22T00:23:23Z</time></trkpt>
			<trkpt lat="54.575130" lon="20.431010"><ele>2.7</ele><time>2026-05-22T00:23:38Z</time></trkpt>
			<trkpt lat="54.575220" lon="20.434140"><ele>2.7</ele><time>2026-05-22T00:23:53Z</time></trkpt>
			<trkpt lat="54.575300" lon="20.436210"><ele>2.7</ele><time>2026-05-22T00:24:08Z</time></trkpt>
			<trkpt lat="54.575300" lon="20.436210"><ele>2.7</ele><time>2026-05-22T00:24:18Z</time></trkpt>
			<trkpt lat="54.575650" lon="20.445760"><ele>2.9</ele><time>2026-05-22T00:24:27Z</time></trkpt>
			<trkpt lat="54.575720" lon="20.446650"><ele>3.1</ele><time>2026-05-22T00:24:37Z</time></trkpt>
			<trkpt lat="54.575870" lon="20.447620"><ele>3.4</ele><time>2026-05-22T00:24:46Z</time></trkpt>
			<trkpt lat="54.576170" lon="20.448770"><ele>3.7</ele><time>2026-05-22T00:24:55Z</time></trkpt>
			<trkpt lat="54.578240" lon="20.454270"><ele>5.3</ele><time>2026-05-22T00:25:05Z</time></trkpt>
			<trkpt lat="54.578360" lon="20.454430"><ele>5.3</ele><time>2026-05-22T00:25:14Z</time></trkpt>
			<trkpt lat="54.578610" lon="20.454640"><ele>5.3</ele><time>2026-05-22T00:25:23Z</time></trkpt>
			<trkpt lat="54.579490" lon="20.454810"><ele>5.5</ele><time>2026-05-22T00:25:33Z</time></trkpt>
			<trkpt lat="54.579640" lon="20.454880"><ele>5.5</ele><time>2026-05-22T00:25:42Z</time></trkpt>
			<trkpt lat="54.579820" lon="20.455090"><ele>5.6</ele><time>2026-05-22T00:25:51Z</time></trkpt>
			<trkpt lat="54.579930" lon="20.455340"><ele>5.6</ele><time>2026-05-22T00:26:01Z</time></trkpt>
			<trkpt lat="54.579980" lon="20.455530"><ele>5.6</ele><time>2026-05-22T00:26:10Z</time></trkpt>
			<trkpt lat="54.580190" lon="20.456510"><ele>5.7</ele><time>2026-05-22T00:26:20Z</time></trkpt>
			<trkpt lat="54.580300" lon="20.456820"><ele>5.8</ele><time>2026-05-22T00:26:29Z</time></trkpt>
			<trkpt lat="54.580820" lon="20.457700"><ele>5.9</ele><time>2026-05-22T00:26:38Z</time></trkpt>
			<trkpt lat="54.581010" lon="20.458070"><ele>5.9</ele><time>2026-05-22T00:26:48Z</time></trkpt>
			<trkpt lat="54.581140" lon="20.458430"><ele>6.0</ele><time>2026-05-22T00:26:57Z</time></trkpt>
			<trkpt lat="54.581240" lon="20.458710"><ele>6.0</ele><time>2026-05-22T00:27:06Z</time></trkpt>
			<trkpt lat="54.581330" lon="20.459030"><ele>6.1</ele><time>2026-05-22T00:27:16Z</time></trkpt>
			<trkpt lat="54.581740" lon="20.460860"><ele>6.2</ele><time>2026-05-22T00:27:25Z</time></trkpt>
			<trkpt lat="54.581880" lon="20.461340"><ele>6.3</ele><time>2026-05-22T00:27:34Z</time></trkpt>
			<trkpt lat="54.582030" lon="20.461720"><ele>6.3</ele><time>2026-05-22T00:27:44Z</time></trkpt>
			<trkpt lat="54.582200" lon="20.462010"><ele>6.4</ele><time>2026-05-22T00:27:53Z</time></trkpt>
			<trkpt lat="54.582430" lon="20.462350"><ele>6.4</ele><time>2026-05-22T00:28:03Z</time></trkpt>
			<trkpt lat="54.583920" lon="20.464070"><ele>6.7</ele><time>2026-05-22T00:28:12Z</time></trkpt>
			<trkpt lat="54.587580" lon="20.468370"><ele>9.0</ele><time>2026-05-22T00:28:21Z</time></trkpt>
			<trkpt lat="54.592610" lon="20.474260"><ele>11.5</ele><time>2026-05-22T00:28:31Z</time></trkpt>
			<trkpt lat="54.592790" lon="20.475290"><ele>11.6</ele><time>2026-05-22T00:28:40Z</time></trkpt>
			<trkpt lat="54.594030" lon="20.482450"><ele>12.6</ele><time>2026-05-22T00:28:49Z</time></trkpt>
			<trkpt lat="54.595000" lon="20.488680"><ele>14.1</ele><time>2026-05-22T00:28:59Z</time></trkpt>
			<trkpt lat="54.595030" lon="20.489270"><ele>14.3</ele><time>2026-05-22T00:29:08Z</time></trkpt>
			<trkpt lat="54.595040" lon="20.489760"><ele>14.5</ele><time>2026-05-22T00:29:17Z</time></trkpt>
			<trkpt lat="54.595120" lon="20.500040"><ele>19.0</ele><time>2026-05-22T00:29:27Z</time></trkpt>
			<trkpt lat="54.595290" lon="20.510650"><ele>20.6</ele><time>2026-05-22T00:29:36Z</time></trkpt>
			<trkpt lat="54.595270" lon="20.511610"><ele>20.5</ele><time>2026-05-22T00:29:46Z</time></trkpt>
			<trkpt lat="54.595130" lon="20.512440"><ele>20.4</ele><time>2026-05-22T00:29:55Z</time></trkpt>
			<trkpt lat="54.594430" lon="20.516150"><ele>20.8</ele><time>2026-05-22T00:30:04Z</time></trkpt>
			<trkpt lat="54.593170" lon="20.522960"><ele>21.9</ele><time>2026-05-22T00:30:14Z</time></trkpt>
			<trkpt lat="54.592700" lon="20.525390"><ele>21.7</ele><time>2026-05-22T00:30:23Z</time></trkpt>
			<trkpt lat="54.591290" lon="20.532980"><ele>22.4</ele><time>2026-05-22T00:30:32Z</time></trkpt>
			<trkpt lat="54.591240" lon="20.533220"><ele>22.6</ele><time>2026-05-22T00:30:42Z</time></trkpt>
			<trkpt lat="54.591150" lon="20.533620"><ele>22.9</ele><time>2026-05-22T00:30:51Z</time></trkpt>
			<trkpt lat="54.590940" lon="20.534300"><ele>23.5</ele><time>2026-05-22T00:31:01Z</time></trkpt>
			<trkpt lat="54.590340" lon="20.536230"><ele>25.0</ele><time>2026-05-22T00:31:10Z</time></trkpt>
			<trkpt lat="54.589710" lon="20.538170"><ele>26.5</ele><time>2026-05-22T00:31:19Z</time></trkpt>
			<trkpt lat="54.589000" lon="20.540480"><ele>27.9</ele><time>2026-05-22T00:31:29Z</time></trkpt>
			<trkpt lat="54.588730" lon="20.541330"><ele>28.0</ele><time>2026-05-22T00:31:38Z</time></trkpt>
			<trkpt lat="54.588500" lon="20.542010"><ele>28.1</ele><time>2026-05-22T00:31:47Z</time></trkpt>
			<trkpt lat="54.588410" lon="20.542250"><ele>28.1</ele><time>2026-05-22T00:31:57Z</time></trkpt>
			<trkpt lat="54.588190" lon="20.542730"><ele>28.2</ele><time>2026-05-22T00:32:06Z</time></trkpt>
			<trkpt lat="54.587860" lon="20.543380"><ele>28.3</ele><time>2026-05-22T00:32:15Z</time></trkpt>
			<trkpt lat="54.586880" lon="20.545120"><ele>28.6</ele><time>2026-05-22T00:32:25Z</time></trkpt>
			<trkpt lat="54.586810" lon="20.545260"><ele>28.7</ele><time>2026-05-22T00:32:34Z</time></trkpt>
			<trkpt lat="54.585570" lon="20.547530"><ele>28.9</ele><time>2026-05-22T00:32:44Z</time></trkpt>
			<trkpt lat="54.585010" lon="20.548540"><ele>28.8</ele><time>2026-05-22T00:32:53Z</time></trkpt>
			<trkpt lat="54.584750" lon="20.549100"><ele>28.8</ele><time>2026-05-22T00:33:02Z</time></trkpt>
			<trkpt lat="54.584670" lon="20.549340"><ele>28.8</ele><time>2026-05-22T00:33:12Z</time></trkpt>
			<trkpt lat="54.584650" lon="20.549450"><ele>28.8</ele><time>2026-05-22T00:33:21Z</time></trkpt>
			<trkpt lat="54.584630" lon="20.549610"><ele>28.8</ele><time>2026-05-22T00:33:30Z</time></trkpt>
			<trkpt lat="54.584310" lon="20.560340"><ele>28.6</ele><time>2026-05-22T00:33:40Z</time></trkpt>
			<trkpt lat="54.584290" lon="20.560970"><ele>28.6</ele><time>2026-05-22T00:33:49Z</time></trkpt>
			<trkpt lat="54.584230" lon="20.561610"><ele>28.7</ele><time>2026-05-22T00:33:58Z</time></trkpt>
			<trkpt lat="54.584130" lon="20.562050"><ele>28.7</ele><time>2026-05-22T00:34:08Z</time></trkpt>
			<trkpt lat="54.584020" lon="20.562450"><ele>28.7</ele><time>2026-05-22T00:34:17Z</time></trkpt>
			<trkpt lat="54.584030" lon="20.562730"><ele>28.7</ele><time>2026-05-22T00:34:27Z</time></trkpt>
			<trkpt lat="54.584330" lon="20.564680"><ele>28.7</ele><time>2026-05-22T00:34:36Z</time></trkpt>
			<trkpt lat="54.584410" lon="20.565420"><ele>28.6</ele><time>2026-05-22T00:34:45Z</time></trkpt>
			<trkpt lat="54.584440" lon="20.568130"><ele>28.1</ele><time>2026-05-22T00:34:55Z</time></trkpt>
			<trkpt lat="54.584750" lon="20.568100"><ele>28.0</ele><time>2026-05-22T00:35:04Z</time></trkpt>
			<trkpt lat="54.585060" lon="20.568020"><ele>27.9</ele><time>2026-05-22T00:35:13Z</time></trkpt>
			<trkpt lat="54.585390" lon="20.567890"><ele>27.8</ele><time>2026-05-22T00:35:23Z</time></trkpt>
			<trkpt lat="54.585950" lon="20.567580"><ele>27.6</ele><time>2026-05-22T00:35:32Z</time></trkpt>
			<trkpt lat="54.585970" lon="20.567550"><ele>27.6</ele><time>2026-05-22T00:35:41Z</time></trkpt>
			<trkpt lat="54.586260" lon="20.567390"><ele>27.5</ele><time>2026-05-22T00:35:51Z</time></trkpt>
			<trkpt lat="54.586530" lon="20.567270"><ele>27.4</ele><time>2026-05-22T00:36:00Z</time></trkpt>
			<trkpt lat="54.588330" lon="20.566490"><ele>27.3</ele><time>2026-05-22T00:36:10Z</time></trkpt>
			<trkpt lat="54.588640" lon="20.566320"><ele>27.4</ele><time>2026-05-22T00:36:19Z</time></trkpt>
			<trkpt lat="54.589600" lon="20.565870"><ele>27.8</ele><time>2026-05-22T00:36:28Z</time></trkpt>
			<trkpt lat="54.590790" lon="20.565430"><ele>28.3</ele><time>2026-05-22T00:36:38Z</time></trkpt>
			<trkpt lat="54.591010" lon="20.565340"><ele>28.4</ele><time>2026-05-22T00:36:47Z</time></trkpt>
			<trkpt lat="54.594030" lon="20.564030"><ele>29.0</ele><time>2026-05-22T00:36:56Z</time></trkpt>
			<trkpt lat="54.594850" lon="20.563700"><ele>28.8</ele><time>2026-05-22T00:37:06Z</time></trkpt>
			<trkpt lat="54.594850" lon="20.563700"><ele>28.8</ele><time>2026-05-22T00:37:11Z</time></trkpt>
			<trkpt lat="54.596700" lon="20.562960"><ele>28.5</ele><time>2026-05-22T00:37:16Z</time></trkpt>
			<trkpt lat="54.598990" lon="20.562040"><ele>28.0</ele><time>2026-05-22T00:37:21Z</time></trkpt>
			<trkpt lat="54.600890" lon="20.561250"><ele>27.5</ele><time>2026-05-22T00:37:27Z</time></trkpt>
			<trkpt lat="54.606940" lon="20.558790"><ele>28.1</ele><time>2026-05-22T00:37:32Z</time></trkpt>
			<trkpt lat="54.614030" lon="20.555850"><ele>26.7</ele><time>2026-05-22T00:37:37Z</time></trkpt>
			<trkpt lat="54.616050" lon="20.555020"><ele>26.4</ele><time>2026-05-22T00:37:42Z</time></trkpt>
			<trkpt lat="54.616680" lon="20.554760"><ele>26.3</ele><time>2026-05-22T00:37:47Z</time></trkpt>
			<trkpt lat="54.616790" lon="20.554710"><ele>26.3</ele><time>2026-05-22T00:37:53Z</time></trkpt>
			<trkpt lat="54.617900" lon="20.554270"><ele>26.2</ele><time>2026-05-22T00:37:58Z</time></trkpt>
			<trkpt lat="54.617980" lon="20.554220"><ele>26.2</ele><time>2026-05-22T00:38:03Z</time></trkpt>
			<trkpt lat="54.618450" lon="20.554030"><ele>26.1</ele><time>2026-05-22T00:38:08Z</time></trkpt>
			<trkpt lat="54.619060" lon="20.553800"><ele>26.0</ele><time>2026-05-22T00:38:13Z</time></trkpt>
			<trkpt lat="54.619190" lon="20.553750"><ele>26.0</ele><time>2026-05-22T00:38:19Z</time></trkpt>
			<trkpt lat="54.620270" lon="20.553290"><ele>25.2</ele><time>2026-05-22T00:38:24Z</time></trkpt>
			<trkpt lat="54.621130" lon="20.552930"><ele>24.5</ele><time>2026-05-22T00:38:29Z</time></trkpt>
			<trkpt lat="54.626020" lon="20.550950"><ele>21.2</ele><time>2026-05-22T00:38:34Z</time></trkpt>
			<trkpt lat="54.626520" lon="20.550750"><ele>21.0</ele><time>2026-05-22T00:38:40Z</time></trkpt>
			<trkpt lat="54.626850" lon="20.550590"><ele>20.8</ele><time>2026-05-22T00:38:45Z</time></trkpt>
			<trkpt lat="54.627280" lon="20.550330"><ele>20.6</ele><time>2026-05-22T00:38:50Z</time></trkpt>
			<trkpt lat="54.627580" lon="20.550080"><ele>20.5</ele><time>2026-05-22T00:38:55Z</time></trkpt>
			<trkpt lat="54.628120" lon="20.549560"><ele>20.2</ele><time>2026-05-22T00:39:00Z</time></trkpt>
			<trkpt lat="54.628390" lon="20.549350"><ele>20.0</ele><time>2026-05-22T00:39:06Z</time></trkpt>
			<trkpt lat="54.628670" lon="20.549240"><ele>19.9</ele><time>2026-05-22T00:39:11Z</time></trkpt>
			<trkpt lat="54.628790" lon="20.549190"><ele>19.8</ele><time>2026-05-22T00:39:16Z</time></trkpt>
			<trkpt lat="54.629880" lon="20.548850"><ele>19.5</ele><time>2026-05-22T00:39:21Z</time></trkpt>
			<trkpt lat="54.631080" lon="20.548470"><ele>19.3</ele><time>2026-05-22T00:39:26Z</time></trkpt>
			<trkpt lat="54.631770" lon="20.548240"><ele>19.3</ele><time>2026-05-22T00:39:32Z</time></trkpt>
			<trkpt lat="54.632150" lon="20.548130"><ele>19.2</ele><time>2026-05-22T00:39:37Z</time></trkpt>
			<trkpt lat="54.632300" lon="20.548100"><ele>19.2</ele><time>2026-05-22T00:39:42Z</time></trkpt>
			<trkpt lat="54.632470" lon="20.548100"><ele>19.2</ele><time>2026-05-22T00:39:47Z</time></trkpt>
			<trkpt lat="54.632880" lon="20.548160"><ele>19.2</ele><time>2026-05-22T00:39:52Z</time></trkpt>
			<trkpt lat="54.633380" lon="20.548260"><ele>19.1</ele><time>2026-05-22T00:39:58Z</time></trkpt>
			<trkpt lat="54.634360" lon="20.548470"><ele>19.0</ele><time>2026-05-22T00:40:03Z</time></trkpt>
			<trkpt lat="54.634700" lon="20.548550"><ele>19.0</ele><time>2026-05-22T00:40:08Z</time></trkpt>
			<trkpt lat="54.635370" lon="20.548620"><ele>18.9</ele><time>2026-05-22T00:40:13Z</time></trkpt>
			<trkpt lat="54.635440" lon="20.548600"><ele>18.9</ele><time>2026-05-22T00:40:18Z</time></trkpt>
			<trkpt lat="54.636280" lon="20.548430"><ele>18.7</ele><time>2026-05-22T00:40:24Z</time></trkpt>
			<trkpt lat="54.636310" lon="20.548420"><ele>18.7</ele><time>2026-05-22T00:40:29Z</time></trkpt>
			<trkpt lat="54.637000" lon="20.548330"><ele>18.5</ele><time>2026-05-22T00:40:34Z</time></trkpt>
			<trkpt lat="54.637890" lon="20.548200"><ele>18.3</ele><time>2026-05-22T00:40:39Z</time></trkpt>
			<trkpt lat="54.638090" lon="20.548140"><ele>18.3</ele><time>2026-05-22T00:40:44Z</time></trkpt>
			<trkpt lat="54.638340" lon="20.548030"><ele>18.2</ele><time>2026-05-22T00:40:50Z</time></trkpt>
			<trkpt lat="54.638800" lon="20.547780"><ele>18.1</ele><time>2026-05-22T00:40:55Z</time></trkpt>
			<trkpt lat="54.640330" lon="20.546760"><ele>17.7</ele><time>2026-05-22T00:41:00Z</time></trkpt>
			<trkpt lat="54.641090" lon="20.546230"><ele>17.6</ele><time>2026-05-22T00:41:05Z</time></trkpt>
			<trkpt lat="54.642230" lon="20.545780"><ele>17.4</ele><time>2026-05-22T00:41:11Z</time></trkpt>
			<trkpt lat="54.642610" lon="20.545680"><ele>17.3</ele><time>2026-05-22T00:41:16Z</time></trkpt>
			<trkpt lat="54.644150" lon="20.545330"><ele>17.1</ele><time>2026-05-22T00:41:21Z</time></trkpt>
			<trkpt lat="54.644490" lon="20.545250"><ele>17.0</ele><time>2026-05-22T00:41:26Z</time></trkpt>
			<trkpt lat="54.645590" lon="20.545040"><ele>16.8</ele><time>2026-05-22T00:41:31Z</time></trkpt>
			<trkpt lat="54.645820" lon="20.544970"><ele>16.8</ele><time>2026-05-22T00:41:37Z</time></trkpt>
			<trkpt lat="54.646030" lon="20.544900"><ele>16.8</ele><time>2026-05-22T00:41:42Z</time></trkpt>
			<trkpt lat="54.646410" lon="20.544800"><ele>16.7</ele><time>2026-05-22T00:41:47Z</time></trkpt>
			<trkpt lat="54.646520" lon="20.544760"><ele>16.7</ele><time>2026-05-22T00:41:52Z</time></trkpt>
			<trkpt lat="54.646650" lon="20.544720"><ele>16.7</ele><time>2026-05-22T00:41:57Z</time></trkpt>
			<trkpt lat="54.646750" lon="20.544680"><ele>16.7</ele><time>2026-05-22T00:42:03Z</time></trkpt>
			<trkpt lat="54.646840" lon="20.544650"><ele>16.7</ele><time>2026-05-22T00:42:08Z</time></trkpt>
			<trkpt lat="54.647340" lon="20.544530"><ele>16.6</ele><time>2026-05-22T00:42:13Z</time></trkpt>
			<trkpt lat="54.647480" lon="20.544500"><ele>16.6</ele><time>2026-05-22T00:42:18Z</time></trkpt>
			<trkpt lat="54.647690" lon="20.544450"><ele>16.6</ele><time>2026-05-22T00:42:23Z</time></trkpt>
			<trkpt lat="54.649640" lon="20.543950"><ele>16.4</ele><time>2026-05-22T00:42:29Z</time></trkpt>
			<trkpt lat="54.649800" lon="20.543910"><ele>16.4</ele><time>2026-05-22T00:42:34Z</time></trkpt>
			<trkpt lat="54.650000" lon="20.543860"><ele>16.3</ele><time>2026-05-22T00:42:39Z</time></trkpt>
			<trkpt lat="54.650810" lon="20.543650"><ele>16.2</ele><time>2026-05-22T00:42:44Z</time></trkpt>
			<trkpt lat="54.650990" lon="20.543610"><ele>16.2</ele><time>2026-05-22T00:42:49Z</time></trkpt>
			<trkpt lat="54.651250" lon="20.543520"><ele>16.2</ele><time>2026-05-22T00:42:55Z</time></trkpt>
			<trkpt lat="54.651350" lon="20.543500"><ele>16.2</ele><time>2026-05-22T00:43:00Z</time></trkpt>
			<trkpt lat="54.652780" lon="20.543140"><ele>15.9</ele><time>2026-05-22T00:43:05Z</time></trkpt>
			<trkpt lat="54.653620" lon="20.542920"><ele>15.8</ele><time>2026-05-22T00:43:10Z</time></trkpt>
			<trkpt lat="54.653810" lon="20.542870"><ele>15.7</ele><time>2026-05-22T00:43:15Z</time></trkpt>
			<trkpt lat="54.654150" lon="20.542800"><ele>15.7</ele><time>2026-05-22T00:43:21Z</time></trkpt>
			<trkpt lat="54.654390" lon="20.542740"><ele>15.6</ele><time>2026-05-22T00:43:26Z</time></trkpt>
			<trkpt lat="54.655470" lon="20.542470"><ele>15.5</ele><time>2026-05-22T00:43:31Z</time></trkpt>
			<trkpt lat="54.656280" lon="20.542270"><ele>15.4</ele><time>2026-05-22T00:43:36Z</time></trkpt>
			<trkpt lat="54.656420" lon="20.542240"><ele>15.4</ele><time>2026-05-22T00:43:42Z</time></trkpt>
			<trkpt lat="54.656700" lon="20.542160"><ele>15.4</ele><time>2026-05-22T00:43:47Z</time></trkpt>
			<trkpt lat="54.657410" lon="20.541960"><ele>15.6</ele><time>2026-05-22T00:43:52Z</time></trkpt>
			<trkpt lat="54.657570" lon="20.541930"><ele>15.6</ele><time>2026-05-22T00:43:57Z</time></trkpt>
			<trkpt lat="54.657810" lon="20.541870"><ele>15.6</ele><time>2026-05-22T00:44:02Z</time></trkpt>
			<trkpt lat="54.663140" lon="20.540560"><ele>15.3</ele><time>2026-05-22T00:44:08Z</time></trkpt>
			<trkpt lat="54.663280" lon="20.540510"><ele>15.2</ele><time>2026-05-22T00:44:13Z</time></trkpt>
			<trkpt lat="54.663690" lon="20.540530"><ele>15.0</ele><time>2026-05-22T00:44:18Z</time></trkpt>
			<trkpt lat="54.663930" lon="20.540610"><ele>14.9</ele><time>2026-05-22T00:44:23Z</time></trkpt>
			<trkpt lat="54.664190" lon="20.540740"><ele>14.8</ele><time>2026-05-22T00:44:28Z</time></trkpt>
			<trkpt lat="54.664290" lon="20.540800"><ele>14.7</ele><time>2026-05-22T00:44:34Z</time></trkpt>
			<trkpt lat="54.664410" lon="20.540900"><ele>14.7</ele><time>2026-05-22T00:44:39Z</time></trkpt>
			<trkpt lat="54.664490" lon="20.540960"><ele>14.6</ele><time>2026-05-22T00:44:44Z</time></trkpt>
			<trkpt lat="54.664490" lon="20.540960"><ele>14.6</ele><time>2026-05-22T00:44:47Z</time></trkpt>
			<trkpt lat="54.664990" lon="20.541340"><ele>14.3</ele><time>2026-05-22T00:44:50Z</time></trkpt>
			<trkpt lat="54.665360" lon="20.541620"><ele>14.1</ele><time>2026-05-22T00:44:54Z</time></trkpt>
			<trkpt lat="54.665680" lon="20.541910"><ele>14.0</ele><time>2026-05-22T00:44:57Z</time></trkpt>
			<trkpt lat="54.665760" lon="20.541980"><ele>13.9</ele><time>2026-05-22T00:45:00Z</time></trkpt>
			<trkpt lat="54.666070" lon="20.542290"><ele>13.7</ele><time>2026-05-22T00:45:03Z</time></trkpt>
			<trkpt lat="54.666240" lon="20.542440"><ele>13.6</ele><time>2026-05-22T00:45:06Z</time></trkpt>
			<trkpt lat="54.667070" lon="20.543190"><ele>13.2</ele><time>2026-05-22T00:45:09Z</time></trkpt>
			<trkpt lat="54.667570" lon="20.543660"><ele>13.0</ele><time>2026-05-22T00:45:13Z</time></trkpt>
			<trkpt lat="54.667700" lon="20.543790"><ele>12.9</ele><time>2026-05-22T00:45:16Z</time></trkpt>
			<trkpt lat="54.668010" lon="20.544050"><ele>12.7</ele><time>2026-05-22T00:45:19Z</time></trkpt>
			<trkpt lat="54.668140" lon="20.544170"><ele>12.7</ele><time>2026-05-22T00:45:22Z</time></trkpt>
			<trkpt lat="54.668490" lon="20.544520"><ele>12.5</ele><time>2026-05-22T00:45:25Z</time></trkpt>
			<trkpt lat="54.668890" lon="20.544910"><ele>12.3</ele><time>2026-05-22T00:45:29Z</time></trkpt>
			<trkpt lat="54.669010" lon="20.545010"><ele>12.2</ele><time>2026-05-22T00:45:32Z</time></trkpt>
			<trkpt lat="54.669330" lon="20.545290"><ele>12.1</ele><time>2026-05-22T00:45:35Z</time></trkpt>
			<trkpt lat="54.669460" lon="20.545400"><ele>12.0</ele><time>2026-05-22T00:45:38Z</time></trkpt>
			<trkpt lat="54.669680" lon="20.545540"><ele>11.9</ele><time>2026-05-22T00:45:41Z</time></trkpt>
			<trkpt lat="54.669850" lon="20.545640"><ele>11.8</ele><time>2026-05-22T00:45:44Z</time></trkpt>
			<trkpt lat="54.669960" lon="20.545670"><ele>11.8</ele><time>2026-05-22T00:45:48Z</time></trkpt>
			<trkpt lat="54.670240" lon="20.545720"><ele>11.6</ele><time>2026-05-22T00:45:51Z</time></trkpt>
			<trkpt lat="54.670400" lon="20.545740"><ele>11.6</ele><time>2026-05-22T00:45:54Z</time></trkpt>
			<trkpt lat="54.670640" lon="20.545710"><ele>11.5</ele><time>2026-05-22T00:45:57Z</time></trkpt>
			<trkpt lat="54.670900" lon="20.545640"><ele>11.4</ele><time>2026-05-22T00:46:00Z</time></trkpt>
			<trkpt lat="54.671000" lon="20.545600"><ele>11.3</ele><time>2026-05-22T00:46:03Z</time></trkpt>
			<trkpt lat="54.671260" lon="20.545450"><ele>11.2</ele><time>2026-05-22T00:46:07Z</time></trkpt>
			<trkpt lat="54.671390" lon="20.545340"><ele>11.1</ele><time>2026-05-22T00:46:10Z</time></trkpt>
			<trkpt lat="54.672090" lon="20.544650"><ele>10.8</ele><time>2026-05-22T00:46:13Z</time></trkpt>
			<trkpt lat="54.672150" lon="20.544600"><ele>10.8</ele><time>2026-05-22T00:46:16Z</time></trkpt>
			<trkpt lat="54.672670" lon="20.544050"><ele>10.6</ele><time>2026-05-22T00:46:19Z</time></trkpt>
			<trkpt lat="54.672730" lon="20.543990"><ele>10.5</ele><time>2026-05-22T00:46:23Z</time></trkpt>
			<trkpt lat="54.672970" lon="20.543770"><ele>10.4</ele><time>2026-05-22T00:46:26Z</time></trkpt>
			<trkpt lat="54.673560" lon="20.543150"><ele>10.2</ele><time>2026-05-22T00:46:29Z</time></trkpt>
			<trkpt lat="54.673870" lon="20.542840"><ele>10.0</ele><time>2026-05-22T00:46:32Z</time></trkpt>
			<trkpt lat="54.673960" lon="20.542760"><ele>10.0</ele><time>2026-05-22T00:46:35Z</time></trkpt>
			<trkpt lat="54.674160" lon="20.542570"><ele>9.9</ele><time>2026-05-22T00:46:38Z</time></trkpt>
			<trkpt lat="54.674210" lon="20.542530"><ele>9.9</ele><time>2026-05-22T00:46:42Z</time></trkpt>
			<trkpt lat="54.675220" lon="20.541550"><ele>9.4</ele><time>2026-05-22T00:46:45Z</time></trkpt>
			<trkpt lat="54.675370" lon="20.541400"><ele>9.4</ele><time>2026-05-22T00:46:48Z</time></trkpt>
			<trkpt lat="54.675800" lon="20.540970"><ele>9.2</ele><time>2026-05-22T00:46:51Z</time></trkpt>
			<trkpt lat="54.675940" lon="20.540820"><ele>9.1</ele><time>2026-05-22T00:46:54Z</time></trkpt>
			<trkpt lat="54.676500" lon="20.540250"><ele>9.0</ele><time>2026-05-22T00:46:58Z</time></trkpt>
			<trkpt lat="54.676600" lon="20.540150"><ele>9.0</ele><time>2026-05-22T00:47:01Z</time></trkpt>
			<trkpt lat="54.676920" lon="20.539870"><ele>8.9</ele><time>2026-05-22T00:47:04Z</time></trkpt>
			<trkpt lat="54.677020" lon="20.539790"><ele>8.9</ele><time>2026-05-22T00:47:07Z</time></trkpt>
			<trkpt lat="54.677130" lon="20.539700"><ele>8.9</ele><time>2026-05-22T00:47:10Z</time></trkpt>
			<trkpt lat="54.677760" lon="20.539130"><ele>8.8</ele><time>2026-05-22T00:47:13Z</time></trkpt>
			<trkpt lat="54.681200" lon="20.535740"><ele>8.0</ele><time>2026-05-22T00:47:17Z</time></trkpt>
			<trkpt lat="54.681320" lon="20.535630"><ele>7.8</ele><time>2026-05-22T00:47:20Z</time></trkpt>
			<trkpt lat="54.681360" lon="20.535590"><ele>7.8</ele><time>2026-05-22T00:47:23Z</time></trkpt>
			<trkpt lat="54.681430" lon="20.535530"><ele>7.7</ele><time>2026-05-22T00:47:26Z</time></trkpt>
			<trkpt lat="54.681430" lon="20.535520"><ele>7.7</ele><time>2026-05-22T00:47:28Z</time></trkpt>
			<trkpt lat="54.681570" lon="20.535380"><ele>7.6</ele><time>2026-05-22T00:47:29Z</time></trkpt>
			<trkpt lat="54.681650" lon="20.535320"><ele>7.6</ele><time>2026-05-22T00:47:31Z</time></trkpt>
			<trkpt lat="54.681940" lon="20.535000"><ele>7.3</ele><time>2026-05-22T00:47:33Z</time></trkpt>
			<trkpt lat="54.682020" lon="20.534920"><ele>7.2</ele><time>2026-05-22T00:47:34Z</time></trkpt>
			<trkpt lat="54.682270" lon="20.534640"><ele>7.0</ele><time>2026-05-22T00:47:36Z</time></trkpt>
			<trkpt lat="54.683060" lon="20.534180"><ele>6.3</ele><time>2026-05-22T00:47:37Z</time></trkpt>
			<trkpt lat="54.683280" lon="20.534110"><ele>6.2</ele><time>2026-05-22T00:47:39Z</time></trkpt>
			<trkpt lat="54.683460" lon="20.534050"><ele>6.0</ele><time>2026-05-22T00:47:41Z</time></trkpt>
			<trkpt lat="54.683910" lon="20.533910"><ele>5.7</ele><time>2026-05-22T00:47:42Z</time></trkpt>
			<trkpt lat="54.684460" lon="20.533700"><ele>5.2</ele><time>2026-05-22T00:47:44Z</time></trkpt>
			<trkpt lat="54.684940" lon="20.533530"><ele>4.8</ele><time>2026-05-22T00:47:46Z</time></trkpt>
			<trkpt lat="54.685050" lon="20.533480"><ele>4.7</ele><time>2026-05-22T00:47:47Z</time></trkpt>
			<trkpt lat="54.685300" lon="20.533410"><ele>4.5</ele><time>2026-05-22T00:47:49Z</time></trkpt>
			<trkpt lat="54.686380" lon="20.533080"><ele>3.9</ele><time>2026-05-22T00:47:50Z</time></trkpt>
			<trkpt lat="54.686450" lon="20.533060"><ele>3.9</ele><time>2026-05-22T00:47:52Z</time></trkpt>
			<trkpt lat="54.686610" lon="20.533020"><ele>3.9</ele><time>2026-05-22T00:47:54Z</time></trkpt>
			<trkpt lat="54.686960" lon="20.532910"><ele>3.8</ele><time>2026-05-22T00:47:55Z</time></trkpt>
			<trkpt lat="54.687080" lon="20.532870"><ele>3.8</ele><time>2026-05-22T00:47:57Z</time></trkpt>
			<trkpt lat="54.687220" lon="20.532820"><ele>3.7</ele><time>2026-05-22T00:47:58Z</time></trkpt>
			<trkpt lat="54.687540" lon="20.532720"><ele>3.7</ele><time>2026-05-22T00:48:00Z</time></trkpt>
			<trkpt lat="54.688150" lon="20.532530"><ele>3.5</ele><time>2026-05-22T00:48:02Z</time></trkpt>
			<trkpt lat="54.688260" lon="20.532470"><ele>3.5</ele><time>2026-05-22T00:48:03Z</time></trkpt>
			<trkpt lat="54.688410" lon="20.532400"><ele>3.4</ele><time>2026-05-22T00:48:05Z</time></trkpt>
			<trkpt lat="54.688460" lon="20.532380"><ele>3.4</ele><time>2026-05-22T00:48:07Z</time></trkpt>
			<trkpt lat="54.688630" lon="20.532300"><ele>3.4</ele><time>2026-05-22T00:48:08Z</time></trkpt>
			<trkpt lat="54.688710" lon="20.532250"><ele>3.4</ele><time>2026-05-22T00:48:10Z</time></trkpt>
			<trkpt lat="54.688870" lon="20.532150"><ele>3.3</ele><time>2026-05-22T00:48:11Z</time></trkpt>
			<trkpt lat="54.689050" lon="20.532050"><ele>3.3</ele><time>2026-05-22T00:48:13Z</time></trkpt>
			<trkpt lat="54.689130" lon="20.531980"><ele>3.3</ele><time>2026-05-22T00:48:15Z</time></trkpt>
			<trkpt lat="54.689250" lon="20.531880"><ele>3.2</ele><time>2026-05-22T00:48:16Z</time></trkpt>
			<trkpt lat="54.689370" lon="20.531790"><ele>3.2</ele><time>2026-05-22T00:48:18Z</time></trkpt>
			<trkpt lat="54.689630" lon="20.531580"><ele>3.1</ele><time>2026-05-22T00:48:19Z</time></trkpt>
			<trkpt lat="54.689940" lon="20.531250"><ele>3.0</ele><time>2026-05-22T00:48:21Z</time></trkpt>
			<trkpt lat="54.690110" lon="20.531090"><ele>3.0</ele><time>2026-05-22T00:48:23Z</time></trkpt>
			<trkpt lat="54.690230" lon="20.530960"><ele>3.0</ele><time>2026-05-22T00:48:24Z</time></trkpt>
			<trkpt lat="54.690400" lon="20.530770"><ele>2.9</ele><time>2026-05-22T00:48:26Z</time></trkpt>
			<trkpt lat="54.690530" lon="20.530620"><ele>2.9</ele><time>2026-05-22T00:48:27Z</time></trkpt>
			<trkpt lat="54.690800" lon="20.530250"><ele>2.8</ele><time>2026-05-22T00:48:29Z</time></trkpt>
			<trkpt lat="54.690880" lon="20.530150"><ele>2.8</ele><time>2026-05-22T00:48:31Z</time></trkpt>
			<trkpt lat="54.691110" lon="20.529840"><ele>2.8</ele><time>2026-05-22T00:48:32Z</time></trkpt>
			<trkpt lat="54.691820" lon="20.528650"><ele>2.8</ele><time>2026-05-22T00:48:34Z</time></trkpt>
			<trkpt lat="54.691860" lon="20.528580"><ele>2.8</ele><time>2026-05-22T00:48:36Z</time></trkpt>
			<trkpt lat="54.692300" lon="20.527840"><ele>2.8</ele><time>2026-05-22T00:48:37Z</time></trkpt>
			<trkpt lat="54.692430" lon="20.527640"><ele>2.8</ele><time>2026-05-22T00:48:39Z</time></trkpt>
			<trkpt lat="54.692660" lon="20.527260"><ele>2.8</ele><time>2026-05-22T00:48:40Z</time></trkpt>
			<trkpt lat="54.692730" lon="20.527150"><ele>2.8</ele><time>2026-05-22T00:48:42Z</time></trkpt>
			<trkpt lat="54.693010" lon="20.526630"><ele>2.8</ele><time>2026-05-22T00:48:44Z</time></trkpt>
			<trkpt lat="54.693070" lon="20.526540"><ele>2.8</ele><time>2026-05-22T00:48:45Z</time></trkpt>
			<trkpt lat="54.693120" lon="20.526450"><ele>2.8</ele><time>2026-05-22T00:48:47Z</time></trkpt>
			<trkpt lat="54.693630" lon="20.525590"><ele>2.8</ele><time>2026-05-22T00:48:48Z</time></trkpt>
			<trkpt lat="54.693690" lon="20.525490"><ele>2.8</ele><time>2026-05-22T00:48:50Z</time></trkpt>
			<trkpt lat="54.693900" lon="20.525140"><ele>2.8</ele><time>2026-05-22T00:48:52Z</time></trkpt>
			<trkpt lat="54.694050" lon="20.524880"><ele>2.8</ele><time>2026-05-22T00:48:53Z</time></trkpt>
			<trkpt lat="54.694130" lon="20.524720"><ele>2.8</ele><time>2026-05-22T00:48:55Z</time></trkpt>
			<trkpt lat="54.694420" lon="20.524220"><ele>2.8</ele><time>2026-05-22T00:48:57Z</time></trkpt>
			<trkpt lat="54.694580" lon="20.523930"><ele>2.8</ele><time>2026-05-22T00:48:58Z</time></trkpt>
			<trkpt lat="54.694580" lon="20.523930"><ele>2.8</ele><time>2026-05-22T00:49:00Z</time></trkpt>
			<trkpt lat="54.694580" lon="20.523930"><ele>2.8</ele><time>2026-05-22T00:49:02Z</time></trkpt>
			<trkpt lat="54.695750" lon="20.521990"><ele>2.3</ele><time>2026-05-22T00:49:05Z</time></trkpt>
			<trkpt lat="54.695800" lon="20.521890"><ele>2.2</ele><time>2026-05-22T00:49:08Z</time></trkpt>
			<trkpt lat="54.695920" lon="20.521670"><ele>2.2</ele><time>2026-05-22T00:49:10Z</time></trkpt>
			<trkpt lat="54.696140" lon="20.521310"><ele>2.0</ele><time>2026-05-22T00:49:13Z</time></trkpt>
			<trkpt lat="54.696250" lon="20.521130"><ele>2.0</ele><time>2026-05-22T00:49:16Z</time></trkpt>
			<trkpt lat="54.696310" lon="20.521010"><ele>2.0</ele><time>2026-05-22T00:49:18Z</time></trkpt>
			<trkpt lat="54.697550" lon="20.518760"><ele>1.3</ele><time>2026-05-22T00:49:21Z</time></trkpt>
			<trkpt lat="54.697740" lon="20.518390"><ele>1.2</ele><time>2026-05-22T00:49:24Z</time></trkpt>
			<trkpt lat="54.697850" lon="20.518180"><ele>1.1</ele><time>2026-05-22T00:49:26Z</time></trkpt>
			<trkpt lat="54.698060" lon="20.517770"><ele>1.0</ele><time>2026-05-22T00:49:29Z</time></trkpt>
			<trkpt lat="54.698280" lon="20.517360"><ele>0.9</ele><time>2026-05-22T00:49:32Z</time></trkpt>
			<trkpt lat="54.698340" lon="20.517270"><ele>0.9</ele><time>2026-05-22T00:49:34Z</time></trkpt>
			<trkpt lat="54.698400" lon="20.517210"><ele>0.8</ele><time>2026-05-22T00:49:37Z</time></trkpt>
			<trkpt lat="54.698470" lon="20.517140"><ele>0.8</ele><time>2026-05-22T00:49:40Z</time></trkpt>
			<trkpt lat="54.698600" lon="20.516950"><ele>0.8</ele><time>2026-05-22T00:49:42Z</time></trkpt>
			<trkpt lat="54.698870" lon="20.516620"><ele>0.8</ele><time>2026-05-22T00:49:45Z</time></trkpt>
			<trkpt lat="54.699030" lon="20.516370"><ele>0.8</ele><time>2026-05-22T00:49:48Z</time></trkpt>
			<trkpt lat="54.699180" lon="20.516050"><ele>0.8</ele><time>2026-05-22T00:49:50Z</time></trkpt>
			<trkpt lat="54.699340" lon="20.515590"><ele>0.8</ele><time>2026-05-22T00:49:53Z</time></trkpt>
			<trkpt lat="54.699440" lon="20.515230"><ele>0.9</ele><time>2026-05-22T00:49:56Z</time></trkpt>
			<trkpt lat="54.699510" lon="20.514890"><ele>0.9</ele><time>2026-05-22T00:49:58Z</time></trkpt>
			<trkpt lat="54.699630" lon="20.514170"><ele>0.9</ele><time>2026-05-22T00:50:01Z</time></trkpt>
			<trkpt lat="54.699650" lon="20.513870"><ele>0.9</ele><time>2026-05-22T00:50:04Z</time></trkpt>
			<trkpt lat="54.699720" lon="20.513870"><ele>0.9</ele><time>2026-05-22T00:50:06Z</time></trkpt>
			<trkpt lat="54.699760" lon="20.513860"><ele>1.0</ele><time>2026-05-22T00:50:09Z</time></trkpt>
			<trkpt lat="54.700150" lon="20.513840"><ele>1.0</ele><time>2026-05-22T00:50:11Z</time></trkpt>
			<trkpt lat="54.700250" lon="20.513810"><ele>1.0</ele><time>2026-05-22T00:50:14Z</time></trkpt>
			<trkpt lat="54.700320" lon="20.513760"><ele>1.0</ele><time>2026-05-22T00:50:17Z</time></trkpt>
			<trkpt lat="54.700490" lon="20.513590"><ele>1.0</ele><time>2026-05-22T00:50:19Z</time></trkpt>
			<trkpt lat="54.700970" lon="20.513160"><ele>1.1</ele><time>2026-05-22T00:50:22Z</time></trkpt>
			<trkpt lat="54.701050" lon="20.513130"><ele>1.1</ele><time>2026-05-22T00:50:25Z</time></trkpt>
			<trkpt lat="54.701160" lon="20.513160"><ele>1.1</ele><time>2026-05-22T00:50:27Z</time></trkpt>
			<trkpt lat="54.701160" lon="20.513160"><ele>1.1</ele><time>2026-05-22T00:50:32Z</time></trkpt>
			<trkpt lat="54.701550" lon="20.513250"><ele>1.1</ele><time>2026-05-22T00:50:36Z</time></trkpt>
			<trkpt lat="54.702220" lon="20.513440"><ele>1.2</ele><time>2026-05-22T00:50:40Z</time></trkpt>
			<trkpt lat="54.702380" lon="20.513480"><ele>1.2</ele><time>2026-05-22T00:50:45Z</time></trkpt>
			<trkpt lat="54.702560" lon="20.513540"><ele>1.2</ele><time>2026-05-22T00:50:49Z</time></trkpt>
			<trkpt lat="54.702760" lon="20.513610"><ele>1.2</ele><time>2026-05-22T00:50:53Z</time></trkpt>
		</trkseg>
	</trk>
</gpx>